<<back to data home page
Ready for Summer and Hot Weather?? Stay in touch!! - DONATE ANY AMOUNT BY CLICKING THIS LINK!!!


    Month/Day/Year       Maximum   Minimum    Rel    Dew       Rainfall  Seasonal  Soil     Soil      Baro       Wind    Wind        Peak    Peak Gust  Evap     Leaf     Net
    and                  Air Temp  Air Temp   Hum    Point     Inches    Rainfall  Temp     Moisture  Pressure   Speed   Direction   Gust    Direction  Pan      Wetness  Radiation
    Local Time           Deg F     Deg F      %      Deg F               Inches    Deg F    dS/m      mbar       MPH     comp  deg   MPH     comp  deg  Inches   mV       W_m2
----------------------------------------------------------------------------------------------------------------------------------------------------------------------------------
   06/18/2018 02:20      57.7      57.4       77     50.4      0.00      6.07      75.3     0.33      1015.4     3.7     SSW   207   5.6      SW   216   9.05    268      -15.9
   06/18/2018 02:10      57.9      57.4       77     50.3      0.00      6.07      75.3     0.33      1015.5     3.8     SSW   204   6.2     WSW   244   9.05    268      -16.9
   06/18/2018 02:00      57.9      57.4       77     50.3      0.00      6.07      75.4     0.33      1015.5     3.2     SSW   206   5.3      SW   218   9.05    268      -17.4
   06/18/2018 01:50      58.0      57.5       77     50.5      0.00      6.07      75.4     0.33      1015.6     3.6     SSW   206   5.5      SW   224   9.05    268      -18.2
   06/18/2018 01:40      58.0      57.7       77     50.6      0.00      6.07      75.4     0.33      1015.6     2.7     SSW   207   5.5       S   178   9.05    268      -18.5
   06/18/2018 01:30      57.9      57.5       77     50.6      0.00      6.07      75.4     0.33      1015.6     2.1     SSW   213   4.3       S   189   9.05    268      -19.5
   06/18/2018 01:20      57.9      57.4       77     50.5      0.00      6.07      75.5     0.33      1015.7     2.2      SW   223   4.5      SW   227   9.05    268      -21.6
   06/18/2018 01:10      57.8      57.4       77     50.5      0.00      6.07      75.5     0.33      1015.7     2.3      SW   229   4.7      SW   224   9.05    268      -36.9
   06/18/2018 01:00      57.8      57.3       77     50.3      0.00      6.07      75.5     0.33      1015.8     2.0      SW   220   4.3      SW   228   9.05    268      -57.0
   06/18/2018 00:50      58.3      57.4       76     50.2      0.00      6.07      75.5     0.33      1015.8     1.3      SW   221   3.0     WSW   246   9.06    268      -66.5
   06/18/2018 00:40      58.2      57.7       76     50.3      0.00      6.07      75.5     0.33      1015.8     1.8      SW   226   4.1       W   263   9.06    268      -67.7
   06/18/2018 00:30      58.5      57.8       75     50.2      0.00      6.07      75.5     0.33      1015.8     1.4     SSW   201   2.8     SSW   204   9.06    268      -67.9
   06/18/2018 00:20      58.8      58.2       74     50.2      0.00      6.07      75.5     0.33      1015.9     1.7      SW   225   3.6     WSW   249   9.06    268      -68.0
   06/18/2018 00:10      59.1      58.3       73     50.0      0.00      6.07      75.5     0.33      1015.9     1.5     SSW   210   2.9      SW   226   9.06    268      -69.0
   06/18/2018 00:00      59.4      58.8       72     49.9      0.00      6.07      75.6     0.33      1016.0     1.4      SW   216   3.2     WSW   247   9.06    267      -60.1
   06/17/2018 23:50      59.7      59.2       71     50.0      0.00      6.07      75.6     0.33      1016.0     2.6      SW   224   4.3      SW   234   9.06    267      -59.1
   06/17/2018 23:40      59.8      59.4       70     49.8      0.00      6.07      75.6     0.33      1016.0     2.7      SW   233   4.1       W   263   9.06    267      -53.1
   06/17/2018 23:30      60.2      59.4       70     49.8      0.00      6.07      75.6     0.33      1016.0     2.5      SW   223   4.8     WSW   255   9.06    267      -57.1
   06/17/2018 23:20      60.7      59.9       69     49.8      0.00      6.07      75.6     0.33      1016.0     2.0      SW   226   4.5      SW   226   9.06    267      -51.0
   06/17/2018 23:10      60.9      60.3       68     49.8      0.00      6.07      75.6     0.33      1016.0     1.5      SW   226   2.8     WSW   245   9.06    267      -55.0
   06/17/2018 23:00      61.0      60.6       67     49.9      0.00      6.07      75.6     0.33      1015.9     2.0       W   265   3.4     WSW   249   9.06    267      -44.2
   06/17/2018 22:50      61.3      60.8       67     49.8      0.00      6.07      75.6     0.33      1015.9     1.8       W   268   3.9     WNW   283   9.06    267      -45.7
   06/17/2018 22:40      61.6      60.9       66     49.6      0.00      6.07      75.6     0.33      1015.8     1.8      SW   223   3.9      SW   218   9.06    267      -35.1
   06/17/2018 22:30      61.7      61.2       65     49.4      0.00      6.07      75.7     0.33      1015.8     2.1     WSW   249   3.5     WSW   243   9.06    266      -37.7
   06/17/2018 22:20      61.8      61.3       64     49.1      0.00      6.07      75.6     0.33      1015.8     1.8     WSW   250   3.9     WSW   241   9.06    266      -33.9
   06/17/2018 22:10      61.8      61.3       63     49.0      0.00      6.07      75.7     0.33      1015.7     1.8      SW   227   4.0      SW   216   9.07    266      -37.3
   06/17/2018 22:00      61.9      61.4       63     48.7      0.00      6.07      75.7     0.33      1015.7     2.2     WSW   238   4.0     WSW   240   9.07    266      -31.4
   06/17/2018 21:50      61.9      61.6       61     48.2      0.00      6.07      75.7     0.33      1015.6     2.2      SW   217   4.4      SW   230   9.07    266      -31.6
   06/17/2018 21:40      62.0      61.6       61     48.3      0.00      6.07      75.7     0.33      1015.5     1.8     SSW   196   3.0     SSW   197   9.07    266      -32.1
   06/17/2018 21:30      62.0      61.6       61     48.4      0.00      6.07      75.7     0.33      1015.4     2.2     SSW   197   3.6      SW   216   9.07    266      -28.1
   06/17/2018 21:20      62.0      61.7       61     48.4      0.00      6.07      75.6     0.33      1015.3     1.3       S   184   2.9       S   183   9.07    266      -30.3
   06/17/2018 21:10      62.0      61.6       62     48.5      0.00      6.07      75.7     0.33      1015.2     2.0       S   186   3.7     SSW   201   9.07    266      -26.5
   06/17/2018 21:00      62.0      61.6       62     48.4      0.00      6.07      75.7     0.33      1015.1     1.7       S   176   3.5     SSW   192   9.07    266      -23.8
   06/17/2018 20:50      62.1      61.4       61     48.3      0.00      6.07      75.6     0.33      1015.0     2.2       S   174   4.7      SE   135   9.07    266      -23.1
   06/17/2018 20:40      62.1      61.7       61     48.2      0.00      6.07      75.7     0.33      1014.9     2.3       S   181   4.1      SE   140   9.07    266      -23.8
   06/17/2018 20:30      62.1      61.7       61     48.1      0.00      6.07      75.7     0.33      1014.8     2.7       S   173   4.2       S   183   9.08    266      -23.8
   06/17/2018 20:20      62.2      61.7       61     48.3      0.00      6.07      75.7     0.33      1014.8     2.6       S   182   5.5       S   189   9.08    266      -23.6
   06/17/2018 20:10      62.4      61.7       61     48.5      0.00      6.07      75.7     0.33      1014.7     3.3     SSW   192   5.3     SSW   207   9.08    266      -23.2
   06/17/2018 20:00      62.7      62.0       60     48.4      0.00      6.07      75.7     0.33      1014.6     3.5     SSW   213   5.8     SSW   207   9.08    266      -21.2
   06/17/2018 19:50      63.0      62.4       59     48.1      0.00      6.07      75.6     0.33      1014.5     2.9     SSW   208   5.0     SSW   206   9.08    266      -18.6
   06/17/2018 19:40      63.1      62.6       59     48.2      0.00      6.07      75.6     0.33      1014.5     2.7     SSW   206   4.2      SW   222   9.08    266      -16.4
   06/17/2018 19:30      63.1      62.7       59     48.2      0.00      6.07      75.6     0.33      1014.4     3.4     SSE   155   6.2      SE   135   9.08    266      -13.3
   06/17/2018 19:20      63.5      62.7       59     48.3      0.00      6.07      75.6     0.33      1014.3     3.6       S   172   6.0      SE   133   9.09    266      -10.2
   06/17/2018 19:10      63.6      63.0       58     48.4      0.00      6.07      75.6     0.33      1014.3     3.5       S   181   6.2     SSW   198   9.09    266       -7.0
   06/17/2018 19:00      63.8      63.3       58     48.4      0.00      6.07      75.6     0.33      1014.3     3.5       S   181   6.4     SSE   160   9.09    266       -2.4
   06/17/2018 18:50      64.2      63.3       57     48.4      0.00      6.07      75.6     0.33      1014.3     4.2       S   178   8.3       S   183   9.09    266        0.9
   06/17/2018 18:40      64.4      63.8       57     48.5      0.00      6.07      75.6     0.33      1014.3     3.9     SSW   199   6.4       S   172   9.10    266        3.3
   06/17/2018 18:30      64.9      64.0       56     48.4      0.00      6.07      75.6     0.33      1014.2     4.4       S   177   7.0     SSE   166   9.10    266       12.0
   06/17/2018 18:20      65.2      64.4       55     48.4      0.00      6.07      75.5     0.33      1014.1     4.1       S   186   6.5       S   177   9.10    266       18.9
   06/17/2018 18:10      65.8      64.8       54     48.4      0.00      6.07      75.5     0.33      1014.1     4.4       S   173   7.5       S   186   9.10    266       28.9
   06/17/2018 18:00      66.2      65.4       53     48.3      0.00      6.07      75.5     0.33      1014.1     3.9       S   182   7.6     SSW   207   9.10    266       36.1
   06/17/2018 17:50      66.6      65.8       52     48.0      0.00      6.07      75.5     0.33      1014.0     3.9     SSE   166   7.1      SE   127   9.11    266       58.3
   06/17/2018 17:40      67.1      66.3       51     47.8      0.00      6.07      75.5     0.33      1014.1     4.1       S   181   7.2       S   191   9.11    266       85.1
   06/17/2018 17:30      67.4      66.8       50     47.8      0.00      6.07      75.5     0.33      1014.0     3.2     SSE   150   7.1      SE   134   9.11    266       94.3
   06/17/2018 17:20      67.5      66.7       50     47.7      0.00      6.07      75.5     0.33      1014.0     2.9     SSE   150   7.3     ESE   122   9.11    266      108.3
   06/17/2018 17:10      67.7      66.7       49     47.6      0.00      6.07      75.5     0.33      1014.0     4.4     SSE   148   7.6      SE   131   9.11    266      149.5
   06/17/2018 17:00      67.6      67.1       49     47.4      0.00      6.07      75.5     0.33      1014.1     2.6     SSE   165   5.5     SSW   195   9.12    265      158.4
   06/17/2018 16:50      68.1      67.1       49     47.5      0.00      6.07      75.5     0.33      1014.0     3.7      SE   128   7.0     ESE   121   9.12    265      154.6
   06/17/2018 16:40      68.2      67.4       48     47.6      0.00      6.07      75.4     0.33      1014.1     2.8      SE   131   7.5       S   173   9.12    265      258.1
   06/17/2018 16:30      67.8      67.1       49     47.4      0.00      6.07      75.5     0.33      1014.1     3.3      SE   143   7.6      SE   146   9.12    265      259.7
   06/17/2018 16:20      67.6      67.1       48     47.0      0.00      6.07      75.4     0.33      1014.2     2.5     ESE   118   7.7     ESE   122   9.12    265      153.2
   06/17/2018 16:10      67.7      67.1       48     47.2      0.00      6.07      75.4     0.33      1014.3     2.6       E    85   5.9      NE    49   9.13    265      156.3
   06/17/2018 16:00      67.3      66.4       50     47.5      0.00      6.07      75.4     0.33      1014.3     3.7      SE   137   8.4     SSW   198   9.13    265      209.1
   06/17/2018 15:50      67.4      66.7       50     47.7      0.00      6.07      75.5     0.33      1014.3     3.8     ESE   121   6.7     SSE   149   9.13    265      192.3
   06/17/2018 15:40      69.4      67.2       48     48.0      0.00      6.07      75.4     0.33      1014.3     4.6      SE   134  11.6      SE   137   9.13    265      264.4
   06/17/2018 15:30      69.1      67.6       48     47.8      0.00      6.07      75.4     0.33      1014.4     4.3       S   176   8.3     SSW   211   9.13    265      614.7
   06/17/2018 15:20      69.1      67.7       48     47.8      0.00      6.07      75.4     0.33      1014.5     4.9     SSE   156   9.5     SSE   155   9.13    266      593.6
   06/17/2018 15:10      69.1      66.9       49     48.0      0.00      6.07      75.5     0.33      1014.5     3.4     ESE   117   8.4     SSW   198   9.13    265      677.0
   06/17/2018 15:00      67.4      66.2       51     48.0      0.00      6.07      75.4     0.33      1014.6     3.0     SSE   159   6.3      SE   139   9.13    266      325.7
   06/17/2018 14:50      68.0      67.1       49     47.9      0.00      6.07      75.4     0.33      1014.6     3.7       S   184   7.4      SW   223   9.14    266      373.6
   06/17/2018 14:40      67.9      66.0       51     48.1      0.00      6.07      75.4     0.33      1014.6     4.0       S   184   6.8     SSW   199   9.14    266      463.6
   06/17/2018 14:30      66.2      65.6       52     47.8      0.00      6.07      75.4     0.33      1014.6     2.7       S   175   6.0     SSE   154   9.14    266      242.2
   06/17/2018 14:20      65.7      64.9       53     47.9      0.00      6.07      75.5     0.33      1014.6     3.2       S   189  10.2       S   172   9.14    266      209.3
   06/17/2018 14:10      65.4      64.8       54     48.0      0.00      6.07      75.5     0.33      1014.7     3.7     SSE   157   6.7     SSW   212   9.14    266      204.6
   06/17/2018 14:00      65.2      64.6       55     48.1      0.00      6.07      75.5     0.33      1014.8     2.8     SSW   197   5.4       S   184   9.14    266      153.8
   06/17/2018 13:50      65.4      64.3       55     48.2      0.00      6.07      75.5     0.33      1014.8     4.2     SSW   204   8.2     SSW   199   9.14    266      191.8
   06/17/2018 13:40      65.0      64.1       56     48.4      0.00      6.07      75.5     0.33      1014.8     1.7     SSE   154   4.2      SE   138   9.14    266      242.4
   06/17/2018 13:30      64.5      63.6       57     48.5      0.00      6.07      75.5     0.33      1014.9     2.9     SSE   160   6.8       S   190   9.14    266      383.3
   06/17/2018 13:20      63.8      63.1       58     48.5      0.00      6.07      75.5     0.33      1014.9     3.8     WSW   254   8.0       W   267   9.14    266      365.2
   06/17/2018 13:10      63.6      62.5       59     48.5      0.00      6.07      75.5     0.33      1015.1     3.0       S   190   6.5       S   181   9.14    266      325.4
   06/17/2018 13:00      62.7      62.1       61     48.7      0.00      6.07      75.5     0.33      1015.1     4.1     SSE   168   7.3       S   190   9.14    266      230.8
   06/17/2018 12:50      62.5      62.0       62     48.9      0.00      6.07      75.5     0.33      1015.1     3.0       S   176   6.4     SSW   206   9.15    266      135.5
   06/17/2018 12:40      62.4      61.5       62     48.7      0.00      6.07      75.5     0.33      1015.1     3.9       S   178   7.3      SW   216   9.15    266      179.9
   06/17/2018 12:30      62.0      61.6       61     48.3      0.00      6.07      75.6     0.33      1015.1     3.8       S   169   6.3     SSE   158   9.15    266      122.7
   06/17/2018 12:20      62.0      61.6       61     48.3      0.00      6.07      75.6     0.33      1015.0     3.9     SSE   155   7.6     SSE   156   9.15    266       73.4
   06/17/2018 12:10      62.1      61.6       61     48.2      0.00      6.07      75.6     0.33      1014.8     3.9     SSE   161   6.7     SSW   191   9.15    266       61.8
   06/17/2018 12:00      62.4      61.8       61     48.4      0.00      6.07      75.6     0.33      1014.7     4.1       S   180   7.4       S   186   9.15    266       77.0
   06/17/2018 11:50      62.4      61.8       61     48.6      0.00      6.07      75.6     0.33      1014.6     2.4       S   189   5.4     SSW   195   9.15    266      105.6
   06/17/2018 11:40      62.1      61.5       61     48.4      0.00      6.07      75.6     0.33      1014.6     3.2       S   177   6.3     SSE   152   9.15    266      138.4
   06/17/2018 11:30      62.0      61.5       62     48.7      0.00      6.07      75.6     0.33      1014.6     2.5       S   185   6.4     SSW   204   9.15    266       89.1
   06/17/2018 11:20      62.1      61.3       63     48.7      0.00      6.07      75.7     0.33      1014.6     3.5     SSW   200   6.8       W   263   9.15    267       86.4
   06/17/2018 11:10      61.9      61.3       63     48.8      0.00      6.07      75.7     0.33      1014.6     1.8      SW   216   6.4     WSW   256   9.15    266       97.1
   06/17/2018 11:00      61.6      60.9       64     48.7      0.00      6.07      75.7     0.33      1014.5     2.8       S   171   5.8       S   175   9.16    266      129.4
   06/17/2018 10:50      61.5      60.7       64     48.9      0.00      6.07      75.7     0.33      1014.5     3.0     SSE   158   6.2      SE   146   9.16    266      145.3
   06/17/2018 10:40      61.0      60.5       65     48.7      0.00      6.07      75.7     0.33      1014.6     3.3     SSE   149   6.2       S   184   9.16    267      118.8
   06/17/2018 10:30      61.0      60.3       65     49.0      0.00      6.07      75.7     0.33      1014.5     3.4       S   177   6.1      SE   134   9.16    267       96.0
   06/17/2018 10:20      60.7      60.3       66     49.1      0.00      6.07      75.7     0.33      1014.5     4.3     SSW   210   7.2     SSW   207   9.16    267       93.6
   06/17/2018 10:10      60.8      60.2       66     49.1      0.00      6.07      75.8     0.33      1014.5     4.1       S   190   7.1       S   175   9.16    267       98.0
   06/17/2018 10:00      60.6      60.2       67     49.3      0.00      6.07      75.8     0.33      1014.4     4.2     SSW   208   7.2     SSW   202   9.16    267       99.5
   06/17/2018 09:50      61.1      60.3       66     49.3      0.00      6.07      75.8     0.33      1014.3     4.6     SSW   209   8.5     SSW   212   9.16    267      108.5
   06/17/2018 09:40      61.6      60.7       65     49.3      0.00      6.07      75.8     0.33      1014.2     3.8     SSW   192   6.7     SSW   196   9.16    267       97.7
   06/17/2018 09:30      61.4      60.9       62     48.0      0.00      6.07      75.9     0.33      1014.1     3.0     SSE   160   5.5     SSE   166   9.16    267      104.3
   06/17/2018 09:20      61.4      60.5       62     47.9      0.00      6.07      75.9     0.33      1014.0     3.5      SE   140   6.9     SSE   147   9.16    267      127.4
   06/17/2018 09:10      61.4      60.9       65     49.0      0.00      6.07      75.9     0.33      1014.0     2.4     ESE   121   5.8      SE   134   9.16    267      101.2
   06/17/2018 09:00      61.1      60.3       68     50.3      0.00      6.07      75.9     0.33      1013.8     2.0     ESE   121   4.2      SE   133   9.16    267      101.5
   06/17/2018 08:50      60.5      59.7       70     50.4      0.00      6.07      76.0     0.33      1013.9     1.8       W   265   4.9     WSW   246   9.16    267      114.0
   06/17/2018 08:40      60.3      59.6       71     50.4      0.00      6.07      76.0     0.33      1013.9     2.4      SW   224   5.6     SSW   211   9.17    267      129.7
   06/17/2018 08:30      60.4      59.6       70     50.2      0.00      6.07      76.0     0.33      1013.9     1.8     SSW   192   3.9      SW   221   9.17    267      144.8
   06/17/2018 08:20      59.8      59.0       72     50.3      0.00      6.07      76.0     0.33      1013.8     3.3     SSW   203   5.8      SW   224   9.17    267      145.0
   06/17/2018 08:10      59.2      58.6       74     50.5      0.00      6.07      76.1     0.33      1013.7     3.4      SW   217   5.8     SSW   210   9.17    267      139.0
   06/17/2018 08:00      59.0      58.3       75     50.7      0.00      6.07      76.1     0.33      1013.8     2.8     SSW   197   4.5      SW   223   9.17    268      109.6
   06/17/2018 07:50      58.5      57.7       77     50.8      0.00      6.07      76.2     0.33      1013.9     2.6     SSW   191   5.0       S   189   9.17    268       74.7
   06/17/2018 07:40      58.0      57.6       77     50.8      0.00      6.07      76.2     0.33      1013.9     3.3     SSW   192   5.4       S   182   9.17    268       59.2
   06/17/2018 07:30      58.0      57.5       78     51.1      0.00      6.07      76.2     0.33      1013.8     2.5       S   183   4.9       S   186   9.17    268       40.2
   06/17/2018 07:20      57.9      57.3       80     51.3      0.00      6.07      76.1     0.33      1013.6     1.8       S   173   4.2       S   171   9.17    268       22.7
   06/17/2018 07:10      57.6      57.1       80     51.4      0.00      6.07      76.2     0.33      1013.5     1.8       S   169   4.3     SSW   198   9.17    268       17.0
   06/17/2018 07:00      57.6      57.1       80     51.2      0.00      6.07      76.2     0.33      1013.4     1.4     SSE   154   4.2     SSE   154   9.17    268        8.4
   06/17/2018 06:50      57.7      57.2       78     50.8      0.00      6.07      76.3     0.33      1013.3     1.4       S   186   2.9     SSW   194   9.17    268        0.6
   06/17/2018 06:40      58.2      57.4       76     50.4      0.00      6.07      76.3     0.33      1013.2     2.5     SSW   205   4.6       S   189   9.17    268       -4.6
   06/17/2018 06:30      58.3      57.8       75     50.1      0.00      6.07      76.3     0.33      1013.0     1.8       S   190   3.5     SSW   196   9.17    268       -7.3
   06/17/2018 06:20      58.1      57.8       75     50.2      0.00      6.07      76.3     0.33      1013.0     1.1       S   179   1.9       S   170   9.17    268       -9.1
   06/17/2018 06:10      58.1      57.5       76     50.1      0.00      6.07      76.4     0.33      1012.9     0.9       S   180   2.2     SSW   207   9.17    268      -12.6
   06/17/2018 06:00      57.9      57.4       76     50.1      0.00      6.07      76.4     0.33      1012.8     0.8       S   175   2.4       S   189   9.17    268      -16.3
   06/17/2018 05:50      57.9      57.4       76     50.3      0.00      6.07      76.5     0.33      1012.8     2.3     SSW   205   3.6      SE   146   9.17    268      -17.5
   06/17/2018 05:40      58.3      57.6       76     50.5      0.00      6.07      76.5     0.33      1012.7     3.0       S   182   5.7       S   177   9.17    268      -15.7
   06/17/2018 05:30      58.4      57.9       76     50.5      0.00      6.07      76.5     0.33      1012.6     1.9     SSE   162   3.2     SSE   147   9.17    268      -18.5
   06/17/2018 05:20      58.5      58.0       76     50.4      0.00      6.07      76.5     0.33      1012.6     1.8     ESE   120   3.0       E    98   9.17    268      -18.5
   06/17/2018 05:10      58.3      57.9       77     50.9      0.00      6.07      76.5     0.33      1012.5     0.9      SE   144   3.4       S   172   9.17    268      -19.6
   06/17/2018 05:00      58.1      57.7       78     51.0      0.00      6.07      76.6     0.33      1012.5     0.4     ESE   109   1.5     SSE   168   9.17    268      -19.0
   06/17/2018 04:50      58.1      57.7       78     51.0      0.00      6.07      76.6     0.33      1012.4     2.3       S   177   4.7       S   184   9.17    268      -19.0
   06/17/2018 04:40      58.2      57.8       77     50.9      0.00      6.07      76.6     0.33      1012.3     2.5       S   182   5.2     SSW   193   9.17    268      -19.5
   06/17/2018 04:30      58.5      58.0       76     50.7      0.00      6.07      76.7     0.33      1012.3     2.6       S   183   4.7       S   191   9.17    268      -18.8
   06/17/2018 04:20      58.6      58.2       76     50.8      0.00      6.07      76.7     0.33      1012.2     1.9     ESE   124   5.5     SSE   166   9.17    268      -16.5
   06/17/2018 04:10      58.5      58.2       76     50.7      0.00      6.07      76.7     0.33      1012.2     1.4     ESE   103   3.1      SE   128   9.17    268      -19.0
   06/17/2018 04:00      58.5      58.1       76     50.6      0.00      6.07      76.7     0.33      1012.2     2.0      SE   136   4.3      SE   141   9.17    268      -19.0
   06/17/2018 03:50      58.5      58.0       76     50.7      0.00      6.07      76.7     0.33      1012.2     1.3       E   101   3.2       E    92   9.18    268      -21.0
   06/17/2018 03:40      58.5      58.0       76     50.6      0.00      6.07      76.8     0.33      1012.1     2.3      SE   143   4.5     SSE   160   9.18    268      -23.4
   06/17/2018 03:30      58.6      58.0       76     50.7      0.00      6.07      76.8     0.33      1012.0     2.1      SE   124   5.1      SE   136   9.18    268      -24.9
   06/17/2018 03:20      58.6      58.3       76     50.8      0.00      6.07      76.8     0.33      1012.0     0.8       E    85   3.0       E    82   9.18    268      -20.1
   06/17/2018 03:10      58.6      58.3       75     50.7      0.00      6.07      76.9     0.33      1011.9     1.5      SE   130   3.0     SSE   149   9.18    268      -18.7
   06/17/2018 03:00      58.6      58.3       76     50.8      0.00      6.07      76.9     0.33      1012.0     1.1     ESE   115   3.1      SE   133   9.18    269      -18.5
   06/17/2018 02:50      58.6      58.2       76     50.9      0.00      6.07      76.9     0.33      1012.0     0.9      SE   136   2.8      SE   146   9.18    268      -19.7
   06/17/2018 02:40      58.6      58.2       77     51.0      0.00      6.07      77.0     0.33      1012.1     1.8       S   187   4.4     SSW   211   9.18    268      -22.4
   06/17/2018 02:30      58.7      58.3       76     50.9      0.00      6.07      77.0     0.33      1012.2     1.7       S   180   3.5       S   184   9.18    268      -19.8
   06/17/2018 02:20      58.6      58.2       76     50.9      0.00      6.07      77.0     0.33      1012.2     1.4     SSE   153   2.7     ESE   120   9.18    268      -20.3
   06/17/2018 02:10      58.5      58.1       77     51.0      0.00      6.07      77.0     0.33      1012.3     1.6       S   173   3.7       S   185   9.18    268      -18.9
   06/17/2018 02:00      58.7      58.2       77     51.2      0.00      6.07      77.1     0.33      1012.3     2.2     SSW   193   4.3      SW   219   9.18    268      -18.4
   06/17/2018 01:50      58.6      58.1       78     51.3      0.00      6.07      77.0     0.33      1012.2     1.9     SSW   212   3.7     SSW   203   9.18    268      -19.0
   06/17/2018 01:40      58.8      58.3       78     51.4      0.00      6.07      77.1     0.33      1012.2     2.0     SSW   201   3.8      SW   225   9.18    268      -18.2
   06/17/2018 01:30      58.8      58.3       78     51.5      0.00      6.07      77.1     0.33      1012.1     1.2       S   183   3.1      SE   145   9.18    268      -18.1
   06/17/2018 01:20      58.8      58.3       78     51.5      0.00      6.07      77.2     0.33      1012.2     1.0      SE   131   2.7      SE   136   9.18    268      -17.4
   06/17/2018 01:10      58.7      58.3       78     51.5      0.00      6.07      77.2     0.33      1012.2     1.4       E   100   3.8      SE   134   9.18    268      -17.5
   06/17/2018 01:00      58.9      58.4       77     51.4      0.00      6.07      77.2     0.33      1012.2     1.2      SE   131   5.0      SE   138   9.18    270      -17.3
   06/17/2018 00:50      58.8      58.3       77     51.4      0.00      6.07      77.2     0.33      1012.1     1.0      SE   128   2.9       E    96   9.18    271      -16.2
   06/17/2018 00:40      58.6      58.0       78     51.5      0.00      6.07      77.2     0.33      1012.0     1.0     ESE   106   3.2     ENE    70   9.18    268      -17.6
   06/17/2018 00:30      58.3      57.9       79     51.6      0.00      6.07      77.3     0.33      1012.1     1.3       E    80   3.2       E    82   9.18    268      -17.8
   06/17/2018 00:20      58.3      57.9       79     51.6      0.00      6.07      77.3     0.33      1012.1     1.4     ESE   109   4.3      NE    54   9.18    268      -16.5
   06/17/2018 00:10      58.5      58.0       79     51.5      0.00      6.07      77.3     0.33      1012.3     1.2       E    79   3.2     ENE    74   9.18    275      -16.9
   06/17/2018 00:00      58.3      57.9       78     51.3      0.00      6.07      77.3     0.33      1012.3     1.0     ENE    69   2.7       E    98   9.18    273      -17.3
   06/16/2018 23:50      58.5      58.0       77     51.0      0.00      6.07      77.3     0.33      1012.2     1.9     ESE   115   5.7      SE   142   9.18    268      -17.3
   06/16/2018 23:40      58.7      58.0       76     50.8      0.00      6.07      77.3     0.33      1012.2     2.6      SE   139   5.4     SSE   154   9.18    267      -17.0
   06/16/2018 23:30      58.6      58.3       76     51.0      0.00      6.07      77.3     0.33      1012.2     2.1     ESE   110   5.1     ENE    69   9.18    267      -17.1
   06/16/2018 23:20      58.7      58.3       77     51.1      0.00      6.07      77.4     0.33      1012.2     2.3     ESE   122   6.0      SE   141   9.19    267      -17.5
   06/16/2018 23:10      58.8      58.2       76     51.0      0.00      6.07      77.4     0.33      1012.2     2.5     ESE   123   6.6     SSE   150   9.19    267      -17.6
   06/16/2018 23:00      59.0      58.5       74     50.5      0.00      6.07      77.4     0.33      1012.1     2.4     ESE   103   6.7      SE   136   9.19    267      -17.6
   06/16/2018 22:50      59.2      58.7       73     50.3      0.00      6.07      77.5     0.33      1012.1     2.9      SE   127   5.2     ESE   105   9.19    267      -17.9
   06/16/2018 22:40      59.2      58.8       73     50.3      0.00      6.07      77.4     0.33      1012.0     2.8     ESE   112   5.4     ENE    78   9.19    267      -17.6
   06/16/2018 22:30      59.3      58.8       73     50.6      0.00      6.07      77.4     0.33      1012.1     2.2     ESE   117   4.9       E    80   9.19    267      -18.1
   06/16/2018 22:20      59.6      59.0       73     50.5      0.00      6.07      77.5     0.33      1012.1     2.7     ESE   113   5.3     ENE    65   9.19    267      -18.5
   06/16/2018 22:10      59.8      59.3       72     50.4      0.00      6.07      77.5     0.33      1012.0     2.5     ESE   123   5.1      SE   130   9.19    267      -19.0
   06/16/2018 22:00      59.8      59.4       71     50.1      0.00      6.07      77.5     0.33      1012.0     2.3     SSE   149   5.8      SE   131   9.19    267      -19.2
   06/16/2018 21:50      60.1      59.5       69     49.8      0.00      6.07      77.5     0.33      1011.9     2.7      SE   135   8.5     SSE   150   9.19    267      -19.9
   06/16/2018 21:40      60.2      59.6       69     49.5      0.00      6.07      77.5     0.33      1011.8     3.2       S   171   6.1       S   187   9.19    266      -20.3
   06/16/2018 21:30      60.1      59.6       68     49.3      0.00      6.07      77.5     0.33      1011.7     1.9      SE   146   4.3      SE   142   9.20    266      -20.6
   06/16/2018 21:20      59.9      59.6       68     49.2      0.00      6.07      77.5     0.33      1011.6     3.3     SSE   155   7.1      SE   131   9.20    266      -20.7
   06/16/2018 21:10      60.3      59.6       68     49.4      0.00      6.07      77.5     0.33      1011.5     3.0     SSE   164   8.0      SW   215   9.20    266      -21.4
   06/16/2018 21:00      60.3      59.8       68     49.3      0.00      6.07      77.5     0.33      1011.4     2.4      SE   138   5.2       E    83   9.20    266      -21.7
   06/16/2018 20:50      60.3      59.8       67     49.0      0.00      6.07      77.5     0.33      1011.3     2.9     SSE   153   7.5      SE   133   9.20    266      -21.7
   06/16/2018 20:40      60.3      59.9       67     49.1      0.00      6.07      77.5     0.33      1011.2     2.9     SSE   153   4.6       S   184   9.20    266      -21.8
   06/16/2018 20:30      60.6      59.9       67     49.3      0.00      6.07      77.6     0.33      1011.1     2.8      SE   146   6.6      SE   145   9.20    266      -22.4
   06/16/2018 20:20      60.7      60.1       67     49.5      0.00      6.07      77.5     0.33      1011.0     2.0     SSE   165   5.4       S   182   9.20    266      -22.5
   06/16/2018 20:10      60.8      60.2       67     49.4      0.00      6.07      77.5     0.33      1011.0     2.4      SE   135   6.4     SSE   153   9.21    266      -22.0
   06/16/2018 20:00      60.6      60.3       67     49.5      0.00      6.07      77.5     0.33      1010.9     2.0       S   178   4.1       S   174   9.21    266      -21.1
   06/16/2018 19:50      60.8      60.2       67     49.4      0.00      6.07      77.5     0.33      1010.9     2.6      SE   135   5.2       S   190   9.21    266      -19.0
   06/16/2018 19:40      60.8      60.2       67     49.3      0.00      6.07      77.5     0.33      1010.9     2.6     SSE   167   5.8     SSW   209   9.21    266      -17.8
   06/16/2018 19:30      61.1      60.3       66     49.0      0.00      6.07      77.5     0.33      1011.0     3.4     SSE   163   6.5       S   177   9.21    266      -15.1
   06/16/2018 19:20      61.3      60.6       65     49.0      0.00      6.07      77.4     0.33      1010.9     3.5     ESE   121   8.3     SSW   200   9.22    266      -11.9
   06/16/2018 19:10      61.8      60.8       65     49.1      0.00      6.07      77.4     0.33      1010.8     2.9       S   169   6.4       S   186   9.22    266       -8.7
   06/16/2018 19:00      62.0      61.4       64     49.2      0.00      6.07      77.5     0.33      1010.8     2.5      SE   140   5.9       S   185   9.22    266       -2.4
   06/16/2018 18:50      62.0      61.5       64     49.4      0.00      6.07      77.4     0.33      1010.8     1.5     SSE   148   5.8     ENE    58   9.22    266        5.3
   06/16/2018 18:40      62.0      61.4       64     49.4      0.00      6.07      77.4     0.33      1010.8     3.0     SSE   152   5.7     NNW   343   9.23    266       21.4
   06/16/2018 18:30      62.1      61.7       64     49.5      0.00      6.07      77.4     0.33      1010.8     3.3     SSE   161   6.9      SE   136   9.23    266       38.5
   06/16/2018 18:20      62.4      61.7       64     49.8      0.00      6.07      77.4     0.33      1010.7     3.3     SSE   156   7.3     SSW   193   9.23    266       47.0
   06/16/2018 18:10      62.5      61.9       64     49.8      0.00      6.07      77.4     0.33      1010.7     3.8     SSE   163   8.6       S   179   9.23    266       59.1
   06/16/2018 18:00      62.8      62.1       63     49.9      0.00      6.07      77.3     0.33      1010.6     4.7       S   175   9.4     SSW   193   9.24    266       84.5
   06/16/2018 17:50      63.5      62.4       63     50.1      0.00      6.07      77.3     0.33      1010.6     4.9     SSE   168  11.4     SSW   191   9.24    266       99.5
   06/16/2018 17:40      63.7      63.0       63     50.3      0.00      6.07      77.3     0.33      1010.6     5.0       S   172  10.3     SSW   196   9.24    266      123.2
   06/16/2018 17:30      64.5      63.0       62     50.4      0.00      6.07      77.3     0.33      1010.6     5.6       S   180   9.9     SSW   195   9.25    266      128.2
   06/16/2018 17:20      64.7      63.8       61     50.4      0.00      6.07      77.3     0.33      1010.6     4.6     SSE   156  10.0       S   177   9.25    266      133.4
   06/16/2018 17:10      64.8      64.1       60     50.3      0.00      6.07      77.2     0.33      1010.6     4.6      SE   137   8.3       S   179   9.25    266      152.5
   06/16/2018 17:00      65.8      64.7       58     50.3      0.00      6.07      77.2     0.33      1010.6     5.9      SE   140  12.9      SE   131   9.25    266      228.5
   06/16/2018 16:50      66.1      64.8       58     50.3      0.00      6.07      77.2     0.33      1010.6     6.5     SSE   148  12.8      SE   131   9.26    265      339.6
   06/16/2018 16:40      67.2      65.8       55     50.4      0.00      6.07      77.2     0.33      1010.6     5.2     SSE   166  11.7      SE   136   9.26    266      332.4
   06/16/2018 16:30      67.8      66.6       55     50.6      0.00      6.07      77.2     0.33      1010.6     4.5      SE   130  12.0     ESE   113   9.26    266      405.8
   06/16/2018 16:20      67.3      66.4       56     50.9      0.00      6.07      77.1     0.33      1010.6     5.2     SSE   165   8.4       S   174   9.27    265      510.4
   06/16/2018 16:10      66.9      65.9       57     50.9      0.00      6.07      77.1     0.33      1010.7     5.6     SSE   166  11.3       S   180   9.27    266      499.6
   06/16/2018 16:00      66.4      65.6       58     50.7      0.00      6.07      77.1     0.33      1010.8     6.5       S   183  12.8       S   176   9.27    266      379.2
   06/16/2018 15:50      67.1      65.5       58     50.8      0.00      6.07      77.1     0.33      1010.9     5.8       S   186  12.2      SE   143   9.28    266      399.1
   06/16/2018 15:40      67.0      65.5       58     51.1      0.00      6.07      77.1     0.33      1010.9     5.7       S   186  10.5     SSW   212   9.28    266      561.5
   06/16/2018 15:30      66.6      65.2       59     51.1      0.00      6.07      77.0     0.33      1011.0     5.9       S   173   9.9     SSE   163   9.28    266      328.7
   06/16/2018 15:20      66.6      65.8       59     51.4      0.00      6.07      77.1     0.33      1011.1     5.4     SSE   167  10.3     SSE   153   9.29    266      476.0
   06/16/2018 15:10      66.4      65.6       59     51.4      0.00      6.07      77.0     0.33      1011.1     6.6     SSW   192   9.5     SSW   191   9.29    266      443.0
   06/16/2018 15:00      66.3      65.5       60     51.5      0.00      6.07      77.0     0.33      1011.2     6.1       S   178  11.8       S   186   9.29    266      418.8
   06/16/2018 14:50      66.6      65.4       59     51.5      0.00      6.07      77.0     0.33      1011.2     6.5       S   174   9.7       S   185   9.30    266      438.0
   06/16/2018 14:40      66.7      66.1       59     51.6      0.00      6.07      77.0     0.33      1011.2     6.8       S   171  11.8     SSW   194   9.30    266      468.6
   06/16/2018 14:30      67.0      65.8       59     51.5      0.00      6.07      77.0     0.33      1011.2     6.5     SSE   165  12.6      SE   132   9.30    266      362.2
   06/16/2018 14:20      68.3      66.8       57     51.6      0.00      6.07      77.0     0.33      1011.1     6.7       S   184  10.8      SW   215   9.31    265      341.3
   06/16/2018 14:10      68.5      67.4       56     51.6      0.00      6.07      77.0     0.33      1011.0     4.1     SSE   165   8.9       S   177   9.31    265      342.0
   06/16/2018 14:00      68.5      67.2       55     51.2      0.00      6.07      77.0     0.33      1011.0     5.0     SSE   152  10.9      SE   142   9.31    265      343.3
   06/16/2018 13:50      69.8      68.1       54     51.5      0.00      6.07      77.0     0.33      1010.9     5.8     SSE   147  10.1      SE   140   9.31    265      510.3
   06/16/2018 13:40      70.0      67.8       55     51.7      0.00      6.07      77.0     0.33      1010.9     5.0     SSE   146   9.9      SE   134   9.31    264      640.3
   06/16/2018 13:30      68.6      67.5       56     51.5      0.00      6.07      77.0     0.33      1010.9     6.1     SSE   153  12.5      SE   130   9.31    266      583.3
   06/16/2018 13:20      68.2      67.3       55     51.2      0.00      6.07      77.0     0.33      1010.9     5.7     SSE   158  10.9      SE   136   9.32    266      358.4
   06/16/2018 13:10      68.4      67.4       55     51.5      0.00      6.07      77.0     0.33      1010.7     5.6      SE   138  10.0     SSE   146   9.32    266      458.2
   06/16/2018 13:00      68.8      67.6       55     51.5      0.00      6.07      77.0     0.33      1010.7     6.1     SSE   155  12.5     SSW   201   9.32    266      502.9
   06/16/2018 12:50      69.3      68.1       55     51.9      0.00      6.07      77.0     0.33      1010.8     3.5      SE   131   8.0       S   169   9.32    265      502.3
   06/16/2018 12:40      68.8      66.8       58     52.2      0.00      6.07      77.1     0.33      1010.9     3.9      SE   129   8.4       S   176   9.32    266      485.5
   06/16/2018 12:30      67.8      66.8       59     52.5      0.00      6.07      77.0     0.33      1011.0     5.0     SSE   159   7.4       S   188   9.32    266      459.1
   06/16/2018 12:20      67.0      65.7       61     52.5      0.00      6.07      77.1     0.33      1011.0     5.1     SSE   167  10.1       S   186   9.33    266      440.8
   06/16/2018 12:10      66.3      65.4       62     52.4      0.00      6.07      77.1     0.33      1010.9     6.4       S   180  12.6       S   175   9.33    266      431.1
   06/16/2018 12:00      65.9      65.2       63     52.5      0.00      6.07      77.1     0.33      1010.9     4.6     SSE   159   9.4      SE   140   9.33    266      344.0
   06/16/2018 11:50      65.7      65.3       63     52.5      0.00      6.07      77.2     0.33      1010.9     5.2     SSE   166   8.2       S   170   9.33    266      369.2
   06/16/2018 11:40      66.0      64.6       63     52.4      0.00      6.07      77.1     0.33      1010.9     4.1      SE   135   8.9      SE   139   9.33    266      312.9
   06/16/2018 11:30      65.9      64.7       63     52.3      0.00      6.07      77.2     0.33      1010.9     5.6     SSE   152  11.0      SE   140   9.33    266      237.1
   06/16/2018 11:20      65.7      64.8       63     52.4      0.00      6.07      77.2     0.33      1010.9     5.0     SSE   156   9.1     SSW   210   9.33    266      288.9
   06/16/2018 11:10      65.7      65.1       62     52.3      0.00      6.07      77.2     0.33      1010.9     4.4     SSE   169   7.8       S   180   9.33    266      246.4
   06/16/2018 11:00      65.5      64.6       64     52.7      0.00      6.07      77.2     0.33      1010.8     4.2     SSE   147   8.7     ESE   121   9.33    266      267.5
   06/16/2018 10:50      64.7      63.8       67     53.0      0.00      6.07      77.2     0.33      1010.8     3.1     SSE   160   6.7       S   175   9.33    266      249.8
   06/16/2018 10:40      64.6      63.7       66     52.8      0.00      6.07      77.3     0.33      1010.7     4.1      SE   146   8.0     SSE   151   9.33    266      208.2
   06/16/2018 10:30      64.1      62.8       69     52.9      0.00      6.07      77.3     0.33      1010.7     4.6      SE   141   9.0      SE   124   9.33    267      228.6
   06/16/2018 10:20      63.3      62.6       70     52.9      0.00      6.07      77.3     0.33      1010.7     4.4     SSE   149   7.8      SE   141   9.34    266      160.2
   06/16/2018 10:10      63.3      62.7       70     53.0      0.00      6.07      77.4     0.33      1010.7     4.7     SSE   152   7.9      SE   143   9.34    267      101.6
   06/16/2018 10:00      63.3      62.8       70     52.9      0.00      6.07      77.4     0.33      1010.6     3.7      SE   139   6.6      SE   130   9.34    267      165.4
   06/16/2018 09:50      63.0      62.2       71     52.9      0.00      6.07      77.4     0.34      1010.6     2.9     ESE   122   5.4       E    83   9.34    267      153.9
   06/16/2018 09:40      62.4      61.7       72     53.1      0.00      6.07      77.4     0.33      1010.6     4.1     SSE   158   7.1       S   173   9.34    267      126.4
   06/16/2018 09:30      62.0      61.4       75     53.7      0.00      6.07      77.5     0.34      1010.5     3.5      SE   133   7.6     SSE   164   9.34    267       93.5
   06/16/2018 09:20      62.2      61.3       76     54.0      0.00      6.07      77.5     0.33      1010.4     4.1      SE   139   8.1      SE   133   9.34    267       55.6
   06/16/2018 09:10      62.1      61.6       75     53.9      0.00      6.07      77.5     0.34      1010.3     2.7     SSE   158   5.9      SE   144   9.34    267       49.7
   06/16/2018 09:00      62.4      61.8       74     53.6      0.00      6.07      77.6     0.34      1010.2     3.4      SE   130   6.6      SE   144   9.34    267       38.5
   06/16/2018 08:50      62.5      62.0       73     53.4      0.00      6.07      77.6     0.33      1010.1     2.9     ESE   114   7.3      SE   132   9.34    267       43.5
   06/16/2018 08:40      62.5      61.7       73     53.4      0.00      6.07      77.7     0.34      1009.9     2.3     ESE   120   5.4       E    90   9.34    267       44.0
   06/16/2018 08:30      62.0      61.4       74     53.4      0.00      6.07      77.7     0.34      1009.8     2.6       E    98   5.4       E    85   9.34    267       40.2
   06/16/2018 08:20      61.9      61.4       74     53.4      0.00      6.07      77.7     0.34      1009.7     2.4     ESE   121   4.9     ESE   109   9.34    267       40.7
   06/16/2018 08:10      61.7      61.1       75     53.4      0.00      6.07      77.7     0.34      1009.7     2.5      SE   144   5.0     SSE   150   9.34    267       35.3
   06/16/2018 08:00      61.6      61.0       75     53.4      0.00      6.07      77.8     0.34      1009.6     3.1     ESE   122   6.0     ENE    58   9.34    267       31.8
   06/16/2018 07:50      61.3      60.8       76     53.5      0.00      6.07      77.8     0.34      1009.6     2.2      SE   142   4.5     SSW   193   9.34    268       30.6
   06/16/2018 07:40      61.3      60.8       77     53.6      0.00      6.07      77.8     0.34      1009.5     1.9     SSE   157   4.1     ENE    71   9.34    267       24.2
   06/16/2018 07:30      61.1      60.4       78     53.6      0.00      6.07      77.8     0.34      1009.5     2.2     SSE   160   6.1      SE   130   9.34    267       21.4
   06/16/2018 07:20      61.1      60.5       77     53.5      0.00      6.07      77.8     0.34      1009.5     2.9      SE   134   6.5      SE   133   9.34    268       16.3
   06/16/2018 07:10      61.1      60.5       77     53.4      0.00      6.07      77.9     0.34      1009.4     3.6      SE   140   7.5      SE   143   9.34    267       12.3
   06/16/2018 07:00      61.8      60.8       75     53.2      0.00      6.07      77.9     0.34      1009.3     3.7      SE   128   7.7     ESE   104   9.34    267        5.5
   06/16/2018 06:50      61.8      61.3       73     52.9      0.00      6.07      78.0     0.34      1009.2     1.5     ESE   117   3.6      SE   134   9.35    267        0.4
   06/16/2018 06:40      61.8      61.4       72     52.6      0.00      6.07      78.0     0.34      1009.1     2.4      SE   136   7.5      SE   125   9.35    267       -2.4
   06/16/2018 06:30      61.8      61.3       72     52.6      0.00      6.07      78.0     0.34      1009.0     2.4     ESE   121   5.2      SE   126   9.35    267       -2.4
   06/16/2018 06:20      61.6      61.3       72     52.5      0.00      6.07      78.1     0.34      1009.0     2.0     ESE   104   4.1       E    84   9.35    267       -6.7
   06/16/2018 06:10      61.9      61.3       72     52.5      0.00      6.07      78.1     0.34      1009.0     2.9     ESE   116   5.7     ENE    76   9.35    267      -10.4
   06/16/2018 06:00      61.8      61.4       72     52.5      0.00      6.07      78.2     0.34      1008.9     1.7     ESE   102   4.0     SSE   152   9.35    267      -12.6
   06/16/2018 05:50      61.8      61.3       73     52.7      0.00      6.07      78.2     0.34      1008.9     2.4       E   101   6.7       E    96   9.35    267      -13.8
   06/16/2018 05:40      61.7      61.3       73     52.8      0.00      6.07      78.2     0.34      1008.8     2.2     ESE   103   5.1     ESE   104   9.35    267      -14.5
   06/16/2018 05:30      61.6      61.2       73     52.7      0.00      6.07      78.2     0.34      1008.8     1.6       E    93   4.8     ESE   113   9.35    267      -15.0
   06/16/2018 05:20      61.6      61.2       73     52.6      0.00      6.07      78.3     0.34      1008.8     1.8     ESE   116   3.8     ESE   119   9.35    267      -15.6
   06/16/2018 05:10      61.5      61.0       73     52.6      0.00      6.07      78.3     0.34      1008.8     2.0       E    95   4.7       E    91   9.35    267      -15.2
   06/16/2018 05:00      61.5      61.0       73     52.4      0.00      6.07      78.3     0.34      1008.8     2.7       E    89   5.4     ESE   122   9.35    267      -15.4
   06/16/2018 04:50      61.5      61.0       73     52.4      0.00      6.07      78.3     0.34      1008.7     2.3     ENE    77   5.2     ENE    72   9.35    267      -15.8
   06/16/2018 04:40      61.6      61.1       73     52.6      0.00      6.07      78.4     0.34      1008.7     2.6       E    83   5.1       E    89   9.35    267      -15.9
   06/16/2018 04:30      61.6      61.0       73     52.7      0.00      6.07      78.4     0.34      1008.8     1.8     ESE   116   5.9       S   176   9.35    267      -15.6
   06/16/2018 04:20      61.6      61.1       74     52.8      0.00      6.07      78.5     0.34      1008.8     2.8       E    91   6.1       E    93   9.36    267      -15.9
   06/16/2018 04:10      61.3      60.9       74     52.8      0.00      6.07      78.4     0.34      1008.8     1.8       E    96   4.8     ENE    72   9.36    267      -15.1
   06/16/2018 04:00      61.5      60.8       74     52.7      0.00      6.07      78.5     0.34      1008.8     3.3      SE   125   7.6       E    94   9.35    267      -15.2
   06/16/2018 03:50      61.4      61.0       73     52.4      0.00      6.07      78.5     0.34      1008.8     2.1       E    85   5.2     ENE    74   9.36    267      -17.6
   06/16/2018 03:40      61.6      61.0       73     52.4      0.00      6.07      78.6     0.34      1008.8     2.2     ESE   112   6.2     ESE   118   9.36    267      -20.2
   06/16/2018 03:30      61.5      61.0       73     52.4      0.00      6.07      78.6     0.34      1008.8     2.0     ESE   116   4.7     ESE   115   9.36    267      -19.6
   06/16/2018 03:20      61.3      60.8       73     52.3      0.00      6.07      78.6     0.34      1008.8     1.2       E    97   4.2     ENE    66   9.36    267      -17.4
   06/16/2018 03:10      61.2      60.7       74     52.4      0.00      6.07      78.6     0.34      1008.8     2.9     ESE   119   7.7     ESE   108   9.36    267      -16.1
   06/16/2018 03:00      61.3      60.8       75     52.9      0.00      6.07      78.7     0.34      1008.7     2.8     ESE   119   4.6       E    96   9.36    267      -15.9
   06/16/2018 02:50      61.2      60.9       76     53.3      0.00      6.07      78.7     0.34      1008.7     1.9     ESE   112   5.3      SW   234   9.36    267      -15.2
   06/16/2018 02:40      61.3      60.9       76     53.4      0.00      6.07      78.8     0.34      1008.8     2.3       E    97   5.3     ESE   120   9.36    267      -14.9
   06/16/2018 02:30      61.2      60.7       77     53.7      0.00      6.07      78.8     0.34      1008.8     2.3       E    84   5.4       E    95   9.36    268      -14.6
   06/16/2018 02:20      61.0      60.5       79     54.1      0.00      6.07      78.8     0.34      1008.8     3.0     ESE   116   5.8     SSE   149   9.36    268      -14.3
   06/16/2018 02:10      61.0      60.7       79     54.3      0.00      6.07      78.9     0.34      1008.8     2.4     ESE   103   4.5       E    90   9.37    268      -13.4
   06/16/2018 02:00      60.9      60.2       80     54.3      0.00      6.07      78.9     0.34      1008.9     1.1     ESE   119   3.3     ESE   124   9.37    268      -13.6
   06/16/2018 01:50      60.5      60.2       81     54.5      0.00      6.07      78.9     0.34      1008.9     2.0     ESE   111   3.9       E    96   9.37    268      -13.4
   06/16/2018 01:40      60.4      60.1       81     54.5      0.00      6.07      79.0     0.34      1008.9     2.0      SE   130   3.6      SE   134   9.37    268      -13.4
   06/16/2018 01:30      60.4      59.9       82     54.5      0.00      6.07      79.0     0.34      1008.8     1.9      SE   137   4.1      SE   132   9.37    268      -13.6
   06/16/2018 01:20      60.2      59.8       82     54.6      0.00      6.07      79.0     0.34      1008.8     2.3      SE   144   3.7      SE   136   9.37    268      -13.2
   06/16/2018 01:10      60.1      59.8       82     54.4      0.00      6.07      79.1     0.34      1008.8     2.0       S   169   3.3       S   175   9.37    268      -13.8
   06/16/2018 01:00      59.9      59.3       82     54.0      0.00      6.07      79.1     0.34      1008.7     1.6     SSE   156   3.5      SE   133   9.37    268      -22.0
   06/16/2018 00:50      59.8      59.4       80     53.5      0.00      6.07      79.1     0.34      1008.7     0.7      SE   130   1.7     SSE   148   9.37    268      -58.4
   06/16/2018 00:40      60.2      59.6       79     53.4      0.00      6.07      79.1     0.34      1008.7     0.5      SE   140   1.6       E    98   9.37    268      -65.4
   06/16/2018 00:30      60.3      59.8       79     53.5      0.00      6.07      79.2     0.34      1008.7     1.1      SE   140   2.6      SE   134   9.37    268      -66.4
   06/16/2018 00:20      60.9      59.9       79     53.8      0.00      6.07      79.2     0.34      1008.7     0.8     ESE   117   2.4       S   182   9.37    268      -66.6
   06/16/2018 00:10      61.0      60.4       79     54.0      0.00      6.07      79.2     0.34      1008.7     1.1       E    82   2.4      NE    52   9.38    268      -66.8
   06/16/2018 00:00      61.2      60.5       79     54.2      0.00      6.07      79.2     0.34      1008.8     1.4       E    92   3.4     ENE    65   9.38    267      -67.6
   06/15/2018 23:50      61.8      60.9       78     54.4      0.00      6.07      79.2     0.34      1008.7     0.8       E    98   2.9     ENE    67   9.38    268      -68.6
   06/15/2018 23:40      62.0      61.4       77     54.5      0.00      6.07      79.2     0.34      1008.6     1.3     ENE    61   2.8      NE    41   9.38    267      -69.9
   06/15/2018 23:30      62.2      61.6       76     54.3      0.00      6.07      79.3     0.34      1008.6     0.9     ENE    62   3.7     ENE    75   9.38    267      -70.4
   06/15/2018 23:20      62.7      61.9       75     54.2      0.00      6.07      79.3     0.34      1008.6     0.7       E    96   2.1     ENE    69   9.38    267      -72.0
   06/15/2018 23:10      63.6      62.5       72     53.8      0.00      6.07      79.3     0.34      1008.4     1.3     ESE   106   2.8      SE   142   9.38    267      -73.2
   06/15/2018 23:00      64.2      63.3       70     53.9      0.00      6.07      79.3     0.34      1008.4     0.7     ESE   114   2.3     ESE   116   9.38    266      -74.5
   06/15/2018 22:50      64.8      64.0       68     53.6      0.00      6.07      79.3     0.34      1008.3     0.9       E    83   2.0     ENE    72   9.38    266      -76.1
   06/15/2018 22:40      65.2      64.4       65     52.9      0.00      6.07      79.3     0.34      1008.3     0.8     ENE    62   2.0     ENE    76   9.38    266      -77.2
   06/15/2018 22:30      65.5      64.9       64     52.5      0.00      6.07      79.3     0.34      1008.3     0.5     ENE    59   2.1     ENE    62   9.39    266      -78.4
   06/15/2018 22:20      65.5      65.2       63     52.6      0.00      6.07      79.3     0.34      1008.2     0.9     ENE    60   2.1      NE    48   9.39    266      -80.6
   06/15/2018 22:10      66.1      65.2       64     53.0      0.00      6.07      79.3     0.34      1008.1     0.7       E    90   2.3     ESE   112   9.39    266      -82.0
   06/15/2018 22:00      66.5      65.8       63     53.2      0.00      6.07      79.3     0.34      1008.0     1.4     ENE    60   2.5      NE    48   9.39    266      -82.6
   06/15/2018 21:50      66.8      66.1       63     53.3      0.00      6.07      79.3     0.34      1007.8     0.9     ENE    69   2.3       E    80   9.39    266      -81.9
   06/15/2018 21:40      67.5      66.5       62     53.4      0.00      6.07      79.4     0.34      1007.7     0.9       E    86   2.6       E    83   9.39    266      -83.2
   06/15/2018 21:30      68.1      67.2       61     53.5      0.00      6.07      79.3     0.34      1007.5     1.0     ENE    66   2.4      NE    51   9.39    265      -84.2
   06/15/2018 21:20      68.8      67.7       60     53.6      0.00      6.07      79.4     0.34      1007.4     1.0     ESE   102   2.1     ENE    71   9.40    265      -84.6
   06/15/2018 21:10      69.6      68.4       54     51.8      0.00      6.07      79.3     0.34      1007.3     0.7       E    89   3.0     ESE   109   9.40    265      -84.5
   06/15/2018 21:00      69.8      69.3       47     48.5      0.00      6.07      79.3     0.34      1007.2     0.6     ENE    68   2.7     ENE    65   9.40    264      -84.0
   06/15/2018 20:50      70.3      69.5       46     48.3      0.00      6.07      79.3     0.34      1007.1     0.5       S   170   1.6     SSE   161   9.40    264      -85.6
   06/15/2018 20:40      70.9      70.0       45     48.2      0.00      6.07      79.3     0.34      1007.2     1.6       S   185   2.2     SSW   195   9.40    263      -86.8
   06/15/2018 20:30      71.5      70.5       44     48.2      0.00      6.07      79.3     0.34      1007.2     1.6       S   173   3.8     SSW   212   9.41    263      -88.4
   06/15/2018 20:20      72.1      71.2       43     48.1      0.00      6.07      79.3     0.34      1007.2     2.7     SSW   194   4.1     SSW   199   9.41    263      -88.1
   06/15/2018 20:10      73.2      72.0       42     48.0      0.00      6.07      79.3     0.34      1007.1     3.1     SSW   210   5.3     SSW   211   9.41    263      -87.2
   06/15/2018 20:00      74.3      72.9       39     47.1      0.00      6.07      79.3     0.34      1007.1     3.4     SSW   208   4.9     SSW   196   9.41    263      -84.0
   06/15/2018 19:50      75.7      74.1       35     45.1      0.00      6.07      79.3     0.34      1007.1     3.7       S   183   5.5     SSW   203   9.42    263      -80.9
   06/15/2018 19:40      76.6      75.4       32     44.1      0.00      6.07      79.2     0.34      1007.0     2.7       S   173   4.5       S   187   9.42    263      -72.3
   06/15/2018 19:30      77.4      76.4       31     43.8      0.00      6.07      79.2     0.34      1006.9     4.1       S   184   6.7       S   191   9.43    263      -49.0
   06/15/2018 19:20      78.1      77.0       33     46.0      0.00      6.07      79.2     0.34      1006.9     4.3       S   185   6.4       S   173   9.43    263      -40.9
   06/15/2018 19:10      79.0      77.9       35     48.5      0.00      6.07      79.2     0.34      1006.8     3.1       S   173   6.4       S   170   9.43    263      -19.3
   06/15/2018 19:00      80.0      78.9       34     48.7      0.00      6.07      79.1     0.34      1006.7     3.3       S   182   5.7      SW   218   9.44    263        1.0
   06/15/2018 18:50      80.4      79.6       30     46.2      0.00      6.07      79.1     0.34      1006.7     3.5       S   177   6.3     SSW   208   9.44    263       28.9
   06/15/2018 18:40      81.1      80.2       29     45.3      0.00      6.07      79.1     0.34      1006.7     3.6       S   180   6.8       S   186   9.45    262       54.0
   06/15/2018 18:30      81.7      80.4       30     46.6      0.00      6.07      79.1     0.34      1006.6     4.4     SSW   207   7.5     SSE   165   9.45    263       79.7
   06/15/2018 18:20      81.8      81.3       28     44.9      0.00      6.07      79.0     0.34      1006.6     4.2       S   190   7.7      SW   235   9.46    262      109.6
   06/15/2018 18:10      82.9      81.7       25     42.7      0.00      6.07      79.0     0.34      1006.5     4.4       S   179   8.6       S   183   9.46    262      137.8
   06/15/2018 18:00      83.0      82.3       24     41.9      0.00      6.07      79.0     0.34      1006.6     4.0       S   170   6.9     SSE   168   9.46    262      170.7
   06/15/2018 17:50      83.7      82.1       22     39.7      0.00      6.07      78.9     0.34      1006.7     4.8       S   183   7.7     SSW   199   9.47    262      170.0
   06/15/2018 17:40      84.4      83.4       21     39.2      0.00      6.07      78.9     0.34      1006.7     4.3     SSE   167   7.8       S   180   9.47    262      208.9
   06/15/2018 17:30      84.2      83.2       22     40.8      0.00      6.07      78.9     0.34      1006.7     4.2     SSW   208   7.7     SSW   208   9.48    262      254.1
   06/15/2018 17:20      84.4      83.4       20     39.0      0.00      6.07      78.8     0.34      1006.7     5.2     SSW   203   8.0     SSW   213   9.49    262      288.5
   06/15/2018 17:10      85.9      83.7       20     39.5      0.00      6.07      78.8     0.34      1006.7     4.3     SSE   168   8.2       S   175   9.49    262      192.8
   06/15/2018 17:00      85.6      84.5       20     40.0      0.00      6.07      78.7     0.34      1006.8     3.5     SSE   154   8.4     SSW   205   9.50    262      286.3
   06/15/2018 16:50      85.3      84.5       21     40.0      0.00      6.07      78.7     0.34      1006.9     4.5       S   170   7.7     SSW   197   9.50    262      353.8
   06/15/2018 16:40      85.0      84.0       22     41.8      0.00      6.07      78.7     0.34      1007.0     4.8       S   177   8.7       S   178   9.51    262      351.6
   06/15/2018 16:30      85.2      84.0       22     41.7      0.00      6.07      78.6     0.34      1007.1     5.0       S   184   7.9     SSE   150   9.51    262      276.3
   06/15/2018 16:20      85.2      84.0       23     43.4      0.00      6.07      78.5     0.34      1007.2     4.2     SSE   164   8.0       S   177   9.51    262      321.8
   06/15/2018 16:10      86.2      84.8       22     42.2      0.00      6.07      78.5     0.34      1007.2     3.3     ESE   120   7.1      SE   143   9.52    262      133.0
   06/15/2018 16:00      86.4      85.0       19     38.1      0.00      6.07      78.5     0.34      1007.2     4.4     ESE   114   8.5     SSE   156   9.52    262      255.2
   06/15/2018 15:50      88.0      86.3       16     35.6      0.00      6.07      78.5     0.34      1007.3     5.3      SE   134  10.9      SE   141   9.53    261      327.3
   06/15/2018 15:40      88.9      87.3       16     36.6      0.00      6.07      78.4     0.34      1007.5     2.9     SSE   160   6.0     SSW   200   9.53    262      277.3
   06/15/2018 15:30      89.0      88.1       14     33.5      0.00      6.07      78.3     0.34      1007.6     3.2       E    85   6.5     SSE   164   9.54    262      350.6
   06/15/2018 15:20      88.8      86.9       18     38.2      0.00      6.07      78.3     0.34      1007.7     3.5      SE   139   7.5      SE   130   9.54    262      482.1
   06/15/2018 15:10      87.8      87.2       18     38.6      0.00      6.07      78.3     0.34      1007.8     3.9      SE   145   8.3     SSE   161   9.54    262      395.5
   06/15/2018 15:00      88.8      87.4       18     38.9      0.00      6.07      78.2     0.34      1007.9     2.9       S   181   8.9     SSW   203   9.55    262      426.4
   06/15/2018 14:50      89.0      87.8       14     32.5      0.00      6.07      78.2     0.34      1008.0     3.1      SE   126   6.6       E    88   9.55    262      429.7
   06/15/2018 14:40      90.3      88.0       13     31.8      0.00      6.07      78.2     0.33      1008.0     3.7       E    88   7.9       E    97   9.56    261      358.0
   06/15/2018 14:30      90.0      89.1       14     34.5      0.00      6.07      78.2     0.33      1008.1     3.3     ENE    70   6.9     ENE    61   9.56    262      578.8
   06/15/2018 14:20      89.6      88.1       13     32.2      0.00      6.07      78.1     0.33      1008.2     3.0       E    91   7.1     SSE   164   9.56    262      609.8
   06/15/2018 14:10      89.3      88.3       14     32.8      0.00      6.07      78.1     0.33      1008.3     3.4     ESE   105   6.7     ENE    76   9.57    262      583.5
   06/15/2018 14:00      88.4      86.7       22     43.1      0.00      6.07      78.1     0.33      1008.4     2.2      SE   127   7.1       E    84   9.57    263      591.4
   06/15/2018 13:50      87.0      85.7       29     50.0      0.00      6.07      78.1     0.33      1008.6     3.3     SSW   212   6.7      SW   235   9.57    263      636.9
   06/15/2018 13:40      86.2      84.7       31     51.3      0.00      6.07      78.1     0.33      1008.8     2.1     WNW   299   6.1     SSW   211   9.57    263      636.5
   06/15/2018 13:30      85.8      83.7       32     52.1      0.00      6.07      78.1     0.33      1009.0     1.6      NE    40   5.3     NNW   346   9.58    263      595.6
   06/15/2018 13:20      84.1      83.0       34     52.4      0.00      6.07      78.0     0.33      1009.1     2.4       N   355   5.0     NNW   341   9.58    263      540.0
   06/15/2018 13:10      83.5      82.7       35     52.6      0.00      6.07      78.0     0.33      1009.2     2.2       W   275   5.0       W   261   9.58    263      486.3
   06/15/2018 13:00      82.9      81.8       36     52.6      0.00      6.07      78.0     0.34      1009.3     2.4     NNW   347   8.4      NW   312   9.58    263      591.8
   06/15/2018 12:50      82.2      81.1       38     53.2      0.00      6.07      78.0     0.34      1009.4     2.0     NNW   335   4.7      NW   323   9.58    263      551.2
   06/15/2018 12:40      82.0      80.9       39     53.9      0.00      6.07      78.1     0.34      1009.4     2.3      NW   323   5.4     NNW   345   9.58    263      559.3
   06/15/2018 12:30      81.6      78.8       42     54.7      0.00      6.07      78.0     0.34      1009.5     1.9      NE    35   4.1       N     0   9.58    263      709.3
   06/15/2018 12:20      78.7      76.7       46     55.3      0.00      6.07      78.0     0.34      1009.6     2.2       N    10   4.7     NNW   328   9.58    264      501.7
   06/15/2018 12:10      77.1      75.8       48     55.1      0.00      6.07      78.0     0.34      1009.7     2.4       E    81   5.0       E    91   9.58    264      421.6
   06/15/2018 12:00      76.2      75.4       48     54.7      0.00      6.07      78.0     0.34      1009.7     2.4      NE    53   5.3      NE    45   9.58    264      217.8
   06/15/2018 11:50      75.8      74.9       50     55.4      0.00      6.07      78.0     0.34      1009.8     2.3     ENE    56   4.0      NE    55   9.58    264      163.4
   06/15/2018 11:40      75.3      74.3       51     55.6      0.00      6.07      78.0     0.34      1009.8     2.6       E    97   5.6     ENE    64   9.58    265      155.0
   06/15/2018 11:30      75.0      74.2       52     55.7      0.00      6.07      78.0     0.34      1009.8     1.7       E    97   4.7     ESE   105   9.58    264      150.9
   06/15/2018 11:20      75.3      74.0       52     55.5      0.00      6.07      78.0     0.34      1009.9     3.0     ESE   101   6.2     ENE    78   9.58    264      141.4
   06/15/2018 11:10      75.7      74.7       50     55.4      0.00      6.07      78.1     0.34      1009.8     2.5       E    82   5.1       E    94   9.59    264      130.4
   06/15/2018 11:00      76.8      75.2       48     55.1      0.00      6.07      78.1     0.34      1009.8     3.0     ENE    73   7.0       E    89   9.59    264      127.5
   06/15/2018 10:50      79.8      76.4       45     54.7      0.00      6.07      78.1     0.34      1009.7     3.1      NE    45   5.3     ENE    58   9.59    264      149.4
   06/15/2018 10:40      80.4      79.5       43     55.3      0.00      6.07      78.1     0.34      1009.7     2.0       N     6   4.2      NE    37   9.59    263      389.9
   06/15/2018 10:30      79.8      77.1       46     55.5      0.00      6.07      78.2     0.34      1009.7     1.7     NNE    26   4.4     NNE    17   9.59    263      582.2
   06/15/2018 10:20      77.9      76.5       46     55.0      0.00      6.07      78.2     0.34      1009.9     2.5     NNE    17   5.1      NE    50   9.59    263      594.3
   06/15/2018 10:10      77.0      74.6       48     54.4      0.00      6.07      78.2     0.34      1010.0     1.4     NNE    14   3.8       N   350   9.59    263      518.8
   06/15/2018 10:00      75.1      74.1       49     54.3      0.00      6.07      78.3     0.34      1010.0     2.4      NE    40   5.5     ENE    64   9.59    264      383.0
   06/15/2018 09:50      74.8      73.5       50     54.4      0.00      6.07      78.3     0.34      1010.1     2.1     NNE    17   5.3     NNW   344   9.59    264      555.2
   06/15/2018 09:40      73.7      72.8       53     54.8      0.00      6.07      78.4     0.34      1010.1     1.8      NE    53   4.0     NNE    20   9.59    264      500.3
   06/15/2018 09:30      73.1      71.1       56     55.5      0.00      6.07      78.4     0.34      1010.2     1.3       N     6   3.8     ESE   101   9.59    264      444.1
   06/15/2018 09:20      71.4      70.0       58     55.3      0.00      6.07      78.5     0.34      1010.3     2.1     WNW   304   4.2     WNW   300   9.59    264      457.7
   06/15/2018 09:10      70.0      68.7       61     55.3      0.00      6.07      78.5     0.34      1010.4     2.0       N    11   3.8     NNW   329   9.59    266      354.5
   06/15/2018 09:00      68.9      67.9       65     56.0      0.00      6.07      78.5     0.34      1010.5     2.4       N   358   4.3     NNW   335   9.59    266      373.0
   06/15/2018 08:50      67.9      66.4       67     55.8      0.00      6.07      78.6     0.34      1010.6     1.2     NNE    19   3.3     NNW   338   9.59    266      256.6
   06/15/2018 08:40      66.7      65.9       68     55.5      0.00      6.07      78.5     0.34      1010.6     1.5     NNE    15   3.3      NE    44   9.58    266       71.7
   06/15/2018 08:30      66.3      65.2       71     55.9      0.00      6.07      78.6     0.34      1010.6     1.5     ENE    57   3.6     NNE    34   8.65    267       60.3
   06/15/2018 08:20      65.6      64.7       74     56.3      0.00      6.07      78.7     0.34      1010.7     1.3      NE    37   3.1      NE    41   8.60    267       23.0
   06/15/2018 08:10      65.0      64.2       75     56.5      0.00      6.07      78.8     0.34      1010.6     1.4     NNE    23   3.4       N   355   8.60    267        8.9
   06/15/2018 08:00      64.4      63.7       76     56.4      0.00      6.07      78.7     0.34      1010.6     1.9     ENE    63   4.0       E    90   8.60    267       14.6
   06/15/2018 07:50      64.1      63.5       74     55.4      0.00      6.07      78.9     0.34      1010.5     1.5      NE    54   3.4     NNE    28   8.60    267        1.6
   06/15/2018 07:40      63.9      63.3       73     54.8      0.00      6.07      78.8     0.34      1010.4     1.1     ENE    63   3.2       E    84   8.60    267       40.5
   06/15/2018 07:30      63.4      62.5       73     54.0      0.00      6.07      78.9     0.34      1010.3     0.6     ENE    64   1.6     ENE    62   8.60    267       15.8
   06/15/2018 07:20      62.6      61.9       72     53.2      0.00      6.07      79.0     0.34      1010.1     0.3     ENE    58   1.1      NE    51   8.60    267       -1.8
   06/15/2018 07:10      62.1      61.4       70     51.7      0.00      6.07      79.0     0.34      1010.0     0.1     ESE   103   1.2     ESE   111   8.60    267      -16.1
   06/15/2018 07:00      61.6      61.0       70     51.4      0.00      6.07      79.1     0.34      1010.0     0.0     SSE   160   0.7     SSE   159   8.60    267      -27.9
   06/15/2018 06:50      61.1      60.2       70     50.9      0.00      6.07      79.1     0.34      1010.0     0.0       N     0   0.0     SSE   160   8.60    267      -32.2
   06/15/2018 06:40      60.5      59.3       69     49.6      0.00      6.07      79.2     0.34      1010.0     0.0       N     0   0.0     SSE   160   8.60    267      -36.2
   06/15/2018 06:30      59.5      58.6       70     49.2      0.00      6.07      79.2     0.34      1010.0     0.0     SSE   160   0.7     SSE   160   8.60    267      -37.9
   06/15/2018 06:20      58.8      58.2       70     48.9      0.00      6.07      79.2     0.34      1010.0     0.0     SSE   159   0.8     SSE   159   8.60    267      -40.5
   06/15/2018 06:10      58.6      58.3       70     48.8      0.00      6.07      79.3     0.34      1010.0     0.1     SSE   154   0.6     SSE   148   8.60    267      -41.5
   06/15/2018 06:00      58.6      58.2       70     48.8      0.00      6.07      79.2     0.34      1010.0     0.0     ENE    67   0.9     ENE    67   8.60    267      -46.3
   06/15/2018 05:50      58.8      58.3       70     48.9      0.00      6.07      79.3     0.34      1009.8     0.5      SE   130   1.1     SSE   151   8.60    267      -51.8
   06/15/2018 05:40      59.1      58.6       70     48.9      0.00      6.07      79.3     0.34      1009.7     0.6     SSE   155   1.2      SE   143   8.60    267      -54.7
   06/15/2018 05:30      59.3      58.8       68     48.4      0.00      6.07      79.4     0.34      1009.5     1.3     SSE   165   2.2     SSW   212   8.60    267      -59.5
   06/15/2018 05:20      59.0      58.5       69     48.5      0.00      6.07      79.5     0.34      1009.4     1.6       S   174   3.0     SSE   162   8.60    266      -61.8
   06/15/2018 05:10      58.7      58.3       69     48.4      0.00      6.07      79.5     0.34      1009.3     1.2     SSE   161   3.1      SE   145   8.60    267      -62.4
   06/15/2018 05:00      58.7      57.9       69     48.1      0.00      6.07      79.5     0.34      1009.4     1.1     SSE   156   3.5      SE   142   8.60    266      -61.9
   06/15/2018 04:50      59.1      58.3       66     47.5      0.00      6.07      79.5     0.34      1009.2     0.3     SSW   191   1.1     SSW   199   8.60    266      -62.1
   06/15/2018 04:40      59.1      58.8       66     47.6      0.00      6.07      79.6     0.34      1009.3     0.0       N     0   0.0     SSW   200   8.61    266      -62.1
   06/15/2018 04:30      59.6      58.9       66     48.0      0.00      6.07      79.6     0.34      1009.4     0.1     SSW   200   0.9     SSW   200   8.61    266      -63.4
   06/15/2018 04:20      60.1      59.3       67     48.5      0.00      6.07      79.7     0.34      1009.5     0.0     SSW   200   0.4     SSW   200   8.61    266      -63.8
   06/15/2018 04:10      59.9      59.3       67     48.5      0.00      6.07      79.7     0.34      1009.5     0.5     SSW   199   1.6     SSW   194   8.61    266      -63.7
   06/15/2018 04:00      59.9      59.2       67     48.4      0.00      6.07      79.7     0.34      1009.5     0.8       S   175   1.8       S   183   8.61    266      -63.4
   06/15/2018 03:50      60.5      59.6       65     48.2      0.00      6.07      79.7     0.34      1009.5     0.6     SSE   155   1.5      SE   145   8.61    266      -63.0
   06/15/2018 03:40      60.7      60.1       65     48.4      0.00      6.07      79.8     0.34      1009.5     0.3      SE   145   0.9      SE   145   8.61    266      -60.1
   06/15/2018 03:30      61.1      60.2       64     48.3      0.00      6.07      79.8     0.34      1009.5     0.2      SE   145   1.4      SE   145   8.61    266      -59.0
   06/15/2018 03:20      61.3      60.7       62     48.1      0.00      6.07      79.9     0.34      1009.6     0.5     SSE   162   1.0      SE   146   8.61    266      -58.7
   06/15/2018 03:10      61.5      60.9       62     48.2      0.00      6.07      79.9     0.34      1009.5     0.4     SSE   167   1.1     SSE   167   8.61    266      -59.3
   06/15/2018 03:00      62.5      61.2       60     47.6      0.00      6.07      79.9     0.34      1009.5     0.5       S   176   1.6       S   191   8.61    266      -59.8
   06/15/2018 02:50      62.5      62.0       59     47.8      0.00      6.07      80.0     0.34      1009.5     0.4     SSW   206   1.7     SSW   206   8.61    266      -58.7
   06/15/2018 02:40      62.5      61.9       60     48.1      0.00      6.07      80.0     0.34      1009.5     0.3      SE   135   1.2      SE   139   8.61    266      -58.6
   06/15/2018 02:30      61.9      61.4       65     49.6      0.00      6.07      80.0     0.34      1009.5     0.9     SSE   156   1.6      SE   139   8.61    266      -55.2
   06/15/2018 02:20      62.1      61.4       67     50.6      0.00      6.07      80.1     0.34      1009.5     0.5     SSE   162   1.2     SSE   168   8.61    266      -55.9
   06/15/2018 02:10      62.5      61.8       66     50.4      0.00      6.07      80.1     0.34      1009.5     0.4       S   174   0.9       S   174   8.62    266      -60.0
   06/15/2018 02:00      62.6      62.1       65     50.3      0.00      6.07      80.1     0.34      1009.5     0.7       S   180   1.5     SSW   199   8.62    266      -62.3
   06/15/2018 01:50      63.1      62.3       65     50.6      0.00      6.07      80.1     0.34      1009.5     0.6       S   174   1.6       S   183   8.62    266      -62.8
   06/15/2018 01:40      63.2      62.8       65     51.0      0.00      6.07      80.1     0.34      1009.6     0.3       S   183   0.9       S   183   8.62    266      -62.3
   06/15/2018 01:30      63.5      62.8       65     51.0      0.00      6.07      80.2     0.34      1009.8     0.1     SSE   151   0.9       S   182   8.62    266      -64.5
   06/15/2018 01:20      64.0      63.3       63     51.0      0.00      6.07      80.2     0.34      1009.6     0.3      SE   143   1.8     SSE   168   8.62    266      -66.0
   06/15/2018 01:10      64.0      63.2       65     51.5      0.00      6.07      80.2     0.34      1009.6     0.0      SE   144   0.6      SE   144   8.62    266      -65.7
   06/15/2018 01:00      64.1      63.2       64     51.0      0.00      6.07      80.2     0.34      1009.6     0.0       N     0   0.0      SE   143   8.62    266      -66.5
   06/15/2018 00:50      64.8      63.8       63     51.3      0.00      6.07      80.2     0.34      1009.6     0.0      SE   143   0.6      SE   143   8.63    266      -66.8
   06/15/2018 00:40      65.1      64.6       62     51.5      0.00      6.07      80.3     0.34      1009.6     0.0       N     0   0.0      SE   143   8.63    266      -67.4
   06/15/2018 00:30      65.2      64.8       61     51.2      0.00      6.07      80.3     0.34      1009.5     0.4      SE   144   1.5     SSE   151   8.63    266      -68.3
   06/15/2018 00:20      65.1      64.6       62     51.5      0.00      6.07      80.3     0.34      1009.5     0.4     SSE   150   1.3      SE   141   8.63    266      -67.0
   06/15/2018 00:10      65.0      64.4       62     51.4      0.00      6.07      80.3     0.34      1009.6     0.5     SSE   169   1.2     SSE   169   8.63    266      -64.8
   06/15/2018 00:00      65.5      64.8       62     51.8      0.00      6.07      80.4     0.34      1009.6     0.2       S   173   0.7       S   173   8.63    266      -66.2
   06/14/2018 23:50      65.9      65.1       61     51.8      0.00      6.07      80.4     0.34      1009.7     0.6     SSE   158   1.5     SSE   155   8.63    266      -67.4
   06/14/2018 23:40      65.9      65.3       61     51.7      0.00      6.07      80.4     0.34      1009.7     0.0     SSE   149   0.6     SSE   149   8.63    266      -66.7
   06/14/2018 23:30      66.2      65.5       61     52.1      0.00      6.07      80.4     0.34      1009.9     0.3     SSE   149   0.7     SSE   149   8.63    266      -66.2
   06/14/2018 23:20      66.3      65.9       61     52.2      0.00      6.07      80.4     0.34      1009.9     0.0     SSE   148   0.8     SSE   148   8.64    266      -66.9
   06/14/2018 23:10      66.4      66.0       61     52.2      0.00      6.07      80.4     0.34      1010.0     0.6       S   173   1.1     SSE   148   8.64    266      -66.0
   06/14/2018 23:00      66.7      65.9       60     52.0      0.00      6.07      80.4     0.34      1010.0     0.2       S   182   1.0       S   182   8.64    265      -65.3
   06/14/2018 22:50      67.0      66.3       59     51.8      0.00      6.07      80.4     0.34      1010.0     1.0     SSW   198   2.2     SSW   192   8.64    266      -64.6
   06/14/2018 22:40      67.0      66.6       60     52.3      0.00      6.07      80.4     0.34      1010.0     0.4     SSW   201   1.9     SSW   201   8.64    265      -65.1
   06/14/2018 22:30      67.4      66.7       59     52.2      0.00      6.07      80.4     0.34      1010.0     0.0      SE   132   0.7      SE   132   8.64    265      -68.3
   06/14/2018 22:20      67.6      67.0       59     52.3      0.00      6.07      80.4     0.34      1009.9     0.7       S   176   1.5       S   174   8.64    265      -70.2
   06/14/2018 22:10      67.5      67.2       58     52.2      0.00      6.07      80.4     0.34      1009.9     0.9       S   186   1.7       S   191   8.65    265      -71.8
   06/14/2018 22:00      67.4      67.0       58     51.9      0.00      6.07      80.4     0.34      1009.9     0.9       S   174   1.6       S   191   8.65    265      -75.0
   06/14/2018 21:50      68.0      67.1       56     51.4      0.00      6.07      80.4     0.34      1009.8     0.6       S   182   1.4     SSW   195   8.65    265      -76.0
   06/14/2018 21:40      68.7      67.7       55     51.3      0.00      6.07      80.4     0.34      1009.8     0.2     SSE   164   1.0     SSE   164   8.65    264      -78.7
   06/14/2018 21:30      69.3      68.5       55     51.9      0.00      6.07      80.4     0.34      1009.7     0.4      SE   130   1.5      SE   127   8.65    264      -80.6
   06/14/2018 21:20      70.1      69.1       53     51.7      0.00      6.07      80.4     0.34      1009.7     0.7     ESE   115   2.4       E    85   8.66    264      -81.8
   06/14/2018 21:10      71.3      69.8       52     51.7      0.00      6.07      80.4     0.34      1009.6     1.5     ENE    71   3.1      NE    38   8.66    264      -83.4
   06/14/2018 21:00      72.5      71.0       48     51.2      0.00      6.07      80.3     0.34      1009.5     1.4      NE    56   2.5     ENE    64   8.66    263      -84.8
   06/14/2018 20:50      74.6      72.3       44     50.0      0.00      6.07      80.3     0.34      1009.3     2.1     ENE    59   3.7     ENE    72   8.66    263      -86.0
   06/14/2018 20:40      76.2      74.4       36     46.8      0.00      6.07      80.2     0.34      1009.0     1.9      NE    53   4.1     ESE   109   8.67    263      -85.9
   06/14/2018 20:30      77.3      75.8       31     43.6      0.00      6.07      80.3     0.34      1008.9     1.4     SSE   158   3.1       S   178   8.67    263      -84.8
   06/14/2018 20:20      77.6      76.9       30     43.9      0.00      6.07      80.2     0.34      1008.7     2.0      SW   214   3.2     SSW   194   8.67    263      -83.8
   06/14/2018 20:10      78.0      77.3       30     43.8      0.00      6.07      80.2     0.34      1008.5     2.4       S   182   3.8     SSE   165   8.68    263      -83.6
   06/14/2018 20:00      78.7      77.6       30     44.3      0.00      6.07      80.2     0.34      1008.4     2.6     SSE   164   4.6     SSE   168   8.68    263      -78.7
   06/14/2018 19:50      78.8      78.4       30     44.2      0.00      6.07      80.2     0.34      1008.3     1.4     SSE   158   2.8     SSW   198   8.68    263      -71.5
   06/14/2018 19:40      79.7      78.5       29     44.0      0.00      6.07      80.1     0.34      1008.1     2.5       S   172   5.1       S   188   8.69    262      -58.4
   06/14/2018 19:30      79.6      79.2       29     44.0      0.00      6.07      80.1     0.34      1008.0     4.3     SSW   193   7.5     SSW   196   8.69    262      -31.2
   06/14/2018 19:20      79.6      79.3       29     44.0      0.00      6.07      80.0     0.34      1007.8     3.3     SSW   194   5.7     SSW   195   8.70    262      -43.4
   06/14/2018 19:10      80.2      79.3       28     43.6      0.00      6.07      80.0     0.34      1007.7     4.6       S   185   7.7       S   184   8.70    262      -46.8
   06/14/2018 19:00      81.3      79.9       27     43.1      0.00      6.07      80.0     0.34      1007.5     4.8       S   189   7.7     SSW   206   8.71    262      -46.1
   06/14/2018 18:50      83.0      81.0       24     41.0      0.00      6.07      79.9     0.34      1007.3     5.1       S   186   8.3       S   174   8.72    262      -61.8
   06/14/2018 18:40      85.5      82.8       21     40.5      0.00      6.07      79.9     0.34      1007.1     5.0       S   179   7.6       S   182   8.72    262      -51.6
   06/14/2018 18:30      87.7      85.2       22     43.1      0.00      6.07      79.8     0.34      1006.9     4.5       S   174   8.3     SSW   195   8.73    262      -28.1
   06/14/2018 18:20      89.9      87.6       19     41.5      0.00      6.07      79.8     0.34      1006.8     4.7       S   188   8.9      SW   219   8.73    261       39.0
   06/14/2018 18:10      91.3      89.7       17     39.8      0.00      6.07      79.7     0.34      1006.7     4.8       S   184   8.0     WSW   237   8.74    261       45.3
   06/14/2018 18:00      91.1      90.5       16     39.1      0.00      6.07      79.7     0.34      1006.7     2.5       S   178   5.0       S   175   8.75    261       66.2
   06/14/2018 17:50      90.5      89.6       16     38.0      0.00      6.07      79.6     0.34      1006.8     3.0     SSE   165   5.4     SSW   197   8.75    261       65.8
   06/14/2018 17:40      90.0      89.5       16     37.9      0.00      6.07      79.5     0.34      1006.9     3.4     SSE   159   5.8     ESE   122   8.76    261       -8.9
   06/14/2018 17:30      90.6      89.5       16     38.1      0.00      6.07      79.5     0.34      1007.1     4.5     SSE   153   7.2     SSE   149   8.76    261        2.6
   06/14/2018 17:20      92.3      90.3       15     37.3      0.00      6.07      79.4     0.34      1007.2     6.5       S   178  11.9     SSE   162   8.77    261      125.7
   06/14/2018 17:10      94.1      92.0       15     38.5      0.00      6.07      79.3     0.34      1007.1     5.5       S   177  10.6       S   181   8.78    261      172.2
   06/14/2018 17:00      95.0      93.8       16     40.9      0.00      6.07      79.3     0.34      1007.2     3.0      SE   130   5.8     ENE    77   8.78    261      218.9
   06/14/2018 16:50      95.8      94.0       15     39.7      0.00      6.07      79.3     0.34      1007.3     2.6       S   173   5.6       S   177   8.79    261      276.0
   06/14/2018 16:40      96.2      94.7       15     39.8      0.00      6.07      79.3     0.34      1007.4     2.6     NNE    21   5.4       N   354   8.79    261      338.3
   06/14/2018 16:30      95.2      94.4       14     39.0      0.00      6.07      79.2     0.34      1007.5     2.9       N   354   5.3     NNW   327   8.80    261      337.5
   06/14/2018 16:20      95.5      94.7       14     38.8      0.00      6.07      79.1     0.34      1007.6     2.5       N     0   7.7       N     0   8.80    261      350.2
   06/14/2018 16:10      95.2      93.3       15     39.0      0.00      6.07      79.0     0.34      1007.8     2.0       N   358   3.8     NNW   333   8.81    261      399.1
   06/14/2018 16:00      93.5      92.3       15     38.9      0.00      6.07      78.9     0.34      1008.0     2.5      SE   135   6.7      SE   133   8.81    261      411.8
   06/14/2018 15:50      93.9      92.3       15     39.0      0.00      6.07      78.9     0.33      1008.2     2.8     ESE   121   5.7       E    97   8.81    261      435.4
   06/14/2018 15:40      93.9      93.0       15     38.8      0.00      6.07      78.8     0.33      1008.4     1.3       S   188   3.7      SE   146   8.82    261      450.5
   06/14/2018 15:30      94.0      92.4       15     39.4      0.00      6.07      78.7     0.33      1008.6     2.3     NNW   329   5.4     NNW   328   8.82    261      478.4
   06/14/2018 15:20      93.2      92.4       16     40.1      0.00      6.07      78.7     0.33      1008.8     1.9     WNW   303   4.4     NNE    18   8.83    261      488.9
   06/14/2018 15:10      93.5      92.7       17     41.0      0.00      6.07      78.6     0.33      1009.0     2.7       N    11   5.4     NNE    12   8.83    261      501.5
   06/14/2018 15:00      93.3      92.2       17     41.3      0.00      6.07      78.5     0.33      1009.3     2.5     NNE    20   7.4       N     4   8.84    262      508.3
   06/14/2018 14:50      93.6      92.3       17     42.0      0.00      6.07      78.5     0.33      1009.6     1.9     NNE    27   5.5      NW   324   8.84    262      519.8
   06/14/2018 14:40      92.5      90.9       18     41.8      0.00      6.07      78.4     0.33      1009.7     2.6     NNE    27   5.0     WNW   289   8.84    262      532.7
   06/14/2018 14:30      91.9      90.5       18     42.1      0.00      6.07      78.3     0.33      1009.9     3.1      NE    44   5.5      NE    43   8.85    262      543.7
   06/14/2018 14:20      92.0      89.8       19     42.6      0.00      6.07      78.3     0.33      1010.0     3.2      NE    39   6.3      NE    37   8.85    262      552.8
   06/14/2018 14:10      92.2      90.8       19     43.1      0.00      6.07      78.2     0.33      1010.2     2.8     NNE    26   5.3       N     3   8.85    262      558.2
   06/14/2018 14:00      91.0      89.3       20     43.4      0.00      6.07      78.3     0.33      1010.4     3.7     NNE    27   6.8       N     0   8.86    262      570.8
   06/14/2018 13:50      90.6      89.0       20     43.5      0.00      6.07      78.1     0.33      1010.5     2.7     ENE    59   5.8      NE    55   8.86    262      578.2
   06/14/2018 13:40      89.2      88.1       20     43.0      0.00      6.07      78.1     0.33      1010.7     2.7       E    81   5.4      NE    50   8.86    262      582.3
   06/14/2018 13:30      89.5      88.0       21     44.4      0.00      6.07      78.0     0.33      1010.8     3.2     ENE    61   6.4     ENE    60   8.87    262      589.1
   06/14/2018 13:20      88.1      87.1       23     45.6      0.00      6.07      78.0     0.33      1011.0     4.1      NE    50   6.4     ENE    58   8.87    262      596.7
   06/14/2018 13:10      87.7      86.7       24     46.6      0.00      6.07      78.0     0.33      1011.1     3.7      NE    38   6.4       N   355   8.87    262      600.1
   06/14/2018 13:00      87.0      86.5       26     47.5      0.00      6.07      77.9     0.33      1011.2     3.4      NE    47   5.1      NE    52   8.87    262      604.9
   06/14/2018 12:50      86.7      85.4       28     49.3      0.00      6.07      77.9     0.33      1011.3     3.2      NE    52   6.7      SW   232   8.87    263      597.5
   06/14/2018 12:40      85.9      85.2       29     50.0      0.00      6.07      77.9     0.33      1011.5     3.4     ENE    58   5.8     ENE    77   8.88    263      576.3
   06/14/2018 12:30      85.9      84.5       31     51.0      0.00      6.07      77.9     0.33      1011.6     3.2      NE    34   6.9      NE    53   8.88    263      545.1
   06/14/2018 12:20      85.6      83.7       33     51.7      0.00      6.07      77.9     0.33      1011.7     3.0      NE    34   5.9      NE    45   8.88    263      588.8
   06/14/2018 12:10      84.8      83.9       32     51.1      0.00      6.07      77.9     0.33      1011.6     2.7      NE    34   7.4      NE    48   8.88    263      600.5
   06/14/2018 12:00      84.3      82.2       32     50.2      0.00      6.07      77.8     0.33      1011.7     2.9      NE    49   5.7      NE    40   8.88    263      598.6
   06/14/2018 11:50      83.5      81.7       35     52.4      0.00      6.07      77.8     0.33      1011.7     4.3      NE    47   7.8      NE    38   8.88    263      591.1
   06/14/2018 11:40      83.3      81.7       36     52.8      0.00      6.07      77.9     0.33      1011.6     3.4     NNE    28   5.9      NE    48   8.88    263      582.9
   06/14/2018 11:30      82.3      81.4       36     52.2      0.00      6.07      77.9     0.33      1011.6     2.1     NNE    34   5.1     ENE    63   8.89    263      575.6
   06/14/2018 11:20      81.5      80.3       39     53.9      0.00      6.07      77.9     0.33      1011.6     2.2     NNE    14   4.7       N   352   8.89    263      567.2
   06/14/2018 11:10      80.5      78.5       41     54.0      0.00      6.07      77.9     0.33      1011.7     2.6      NE    49   6.1      NE    43   8.89    263      556.9
   06/14/2018 11:00      78.8      77.3       45     54.9      0.00      6.07      77.9     0.33      1011.6     3.2      NE    40   5.4     NNE    25   8.89    263      545.4
   06/14/2018 10:50      78.2      76.5       45     53.8      0.00      6.07      77.9     0.33      1011.6     3.8      NE    36   7.8     ENE    62   8.89    263      536.1
   06/14/2018 10:40      78.1      75.8       43     53.2      0.00      6.07      78.0     0.33      1011.4     3.1      NE    42   5.3     NNE    23   8.89    263      525.6
   06/14/2018 10:30      76.2      75.7       48     54.7      0.00      6.07      78.0     0.33      1011.4     3.9      NE    41   7.3     NNW   333   8.89    263      508.7
   06/14/2018 10:20      76.5      75.8       48     55.3      0.00      6.07      78.0     0.33      1011.3     3.8     ENE    60   8.1      NE    52   8.89    263      496.4
   06/14/2018 10:10      76.9      75.4       47     54.1      0.00      6.07      78.1     0.33      1011.3     4.1       E    84   8.1     ESE   106   8.89    263      482.2
   06/14/2018 10:00      77.4      76.4       47     55.2      0.00      6.07      78.2     0.33      1011.1     3.1     ENE    70   7.4     ENE    71   8.89    263      460.1
   06/14/2018 09:50      77.1      76.3       47     55.3      0.00      6.07      78.2     0.33      1011.0     3.0     ENE    61   5.8       E    87   8.89    263      442.9
   06/14/2018 09:40      76.7      75.5       45     53.4      0.00      6.07      78.2     0.33      1010.9     2.6       E    84   5.1      SE   132   8.89    264      425.1
   06/14/2018 09:30      75.7      74.8       45     52.3      0.00      6.07      78.3     0.33      1010.9     2.8      NE    38   6.0      NE    45   8.89    263      407.0
   06/14/2018 09:20      75.7      74.7       45     52.3      0.00      6.07      78.3     0.34      1010.8     2.3      NE    37   4.0     ENE    64   8.89    263      389.8
   06/14/2018 09:10      74.9      73.6       46     52.1      0.00      6.07      78.3     0.34      1010.6     1.3     NNE    25   3.5     NNE    11   8.89    264      374.6
   06/14/2018 09:00      73.5      72.5       51     53.8      0.00      6.07      78.4     0.34      1010.5     1.7     NNE    14   3.0      NW   310   8.89    264      367.2
   06/14/2018 08:50      72.8      69.8       54     53.9      0.00      6.07      78.4     0.34      1010.5     1.2     ENE    72   3.0     NNE    17   8.89    265      376.4
   06/14/2018 08:40      70.0      68.6       58     53.6      0.00      6.07      78.5     0.34      1010.5     1.5       N   349   2.9     NNW   334   8.89    267       27.4
   06/14/2018 08:30      68.8      67.3       61     54.2      0.00      6.07      78.5     0.34      1010.5     0.6     WNW   294   2.2     NNW   334   8.89    267      -10.9
   06/14/2018 08:20      67.3      66.4       64     54.2      0.00      6.07      78.5     0.34      1010.4     0.6       N   354   1.9     NNE    29   8.89    267      -34.1
   06/14/2018 08:10      66.6      65.5       67     54.6      0.00      6.07      78.6     0.34      1010.5     0.8      SE   144   2.5      SE   145   8.89    267      -29.9
   06/14/2018 08:00      65.7      64.8       69     54.7      0.00      6.07      78.7     0.34      1010.5     0.8     SSW   201   3.3     NNE    19   8.89    267      -25.5
   06/14/2018 07:50      65.0      64.3       70     54.7      0.00      6.07      78.7     0.34      1010.5     0.6       W   277   1.6      NW   314   8.89    267      -27.8
   06/14/2018 07:40      64.6      63.9       71     54.4      0.00      6.07      78.7     0.34      1010.4     0.6     ENE    74   2.1     ESE   113   8.90    267        6.6
   06/14/2018 07:30      64.0      63.2       72     54.3      0.00      6.07      78.8     0.34      1010.3     1.1      SE   145   3.0      SE   130   8.89    268      -12.9
   06/14/2018 07:20      63.4      62.9       73     54.2      0.00      6.07      78.8     0.34      1010.3     0.9       E    89   2.7     ESE   105   8.90    268      -35.5
   06/14/2018 07:10      63.1      62.3       72     53.5      0.00      6.07      78.9     0.34      1010.3     0.6      NE    51   1.8     ENE    61   8.90    267      -37.6
   06/14/2018 07:00      62.6      62.1       71     52.9      0.00      6.07      78.8     0.34      1010.3     0.2     SSE   147   1.3     SSE   153   8.90    268      -40.7
   06/14/2018 06:50      62.4      61.4       72     52.9      0.00      6.07      79.0     0.34      1010.3     0.2     ENE    61   1.3       E    79   8.90    268      -42.4
   06/14/2018 06:40      61.5      60.4       74     52.6      0.00      6.07      79.0     0.34      1010.3     0.5     ESE   105   2.0     ESE   103   8.90    268      -43.8
   06/14/2018 06:30      60.6      58.8       76     52.2      0.00      6.07      79.1     0.34      1010.3     0.8      SE   130   1.6       E   101   8.90    268      -48.2
   06/14/2018 06:20      59.0      57.5       79     51.7      0.00      6.07      79.1     0.34      1010.1     0.7      SE   136   1.5      SE   129   8.90    267      -47.7
   06/14/2018 06:10      57.9      57.1       80     51.3      0.00      6.07      79.1     0.34      1010.1     0.3     SSE   164   0.8     SSE   149   8.90    267      -48.8
   06/14/2018 06:00      57.9      57.2       80     51.2      0.00      6.07      79.2     0.34      1010.0     0.4       S   173   1.0       S   172   8.90    268      -54.8
   06/14/2018 05:50      58.1      57.4       79     51.4      0.00      6.07      79.2     0.34      1009.8     0.5       S   173   1.2       S   181   8.90    268      -56.8
   06/14/2018 05:40      58.2      57.7       79     51.5      0.00      6.07      79.3     0.34      1009.8     0.0     WNW   302   0.5     WNW   302   8.90    269      -60.0
   06/14/2018 05:30      58.1      57.7       80     51.6      0.00      6.07      79.3     0.34      1009.8     0.4     SSE   164   1.4     SSE   148   8.90    269      -62.0
   06/14/2018 05:20      57.9      57.4       80     51.6      0.00      6.07      79.3     0.34      1009.7     0.4       S   181   1.2       S   181   8.90    269      -63.0
   06/14/2018 05:10      58.2      57.4       79     51.1      0.00      6.07      79.4     0.34      1009.6     0.6     SSE   164   1.2       S   176   8.90    268      -64.4
   06/14/2018 05:00      58.5      57.9       79     51.5      0.00      6.07      79.4     0.34      1009.6     0.2       S   184   0.7       S   171   8.90    268      -64.2
   06/14/2018 04:50      58.4      58.0       78     51.4      0.00      6.07      79.4     0.34      1009.5     0.3       S   189   1.0       S   190   8.90    268      -64.0
   06/14/2018 04:40      58.6      57.9       78     51.3      0.00      6.07      79.5     0.34      1009.6     0.1       S   171   0.7       S   171   8.90    268      -64.0
   06/14/2018 04:30      58.8      58.2       77     51.3      0.00      6.07      79.5     0.34      1009.6     0.6     SSE   154   1.6      SE   144   8.90    268      -65.0
   06/14/2018 04:20      59.1      58.6       77     51.5      0.00      6.07      79.5     0.34      1009.6     0.0       S   180   0.5       S   185   8.90    268      -64.5
   06/14/2018 04:10      59.6      58.6       76     51.6      0.00      6.07      79.5     0.34      1009.6     0.0       S   185   0.4       S   185   8.91    268      -65.6
   06/14/2018 04:00      59.4      59.1       76     51.7      0.00      6.07      79.6     0.34      1009.7     0.5       S   185   1.8       S   185   8.91    268      -66.3
   06/14/2018 03:50      59.4      58.8       76     51.4      0.00      6.07      79.6     0.34      1009.7     0.5     SSE   159   1.1     SSE   154   8.91    267      -66.5
   06/14/2018 03:40      59.8      59.3       75     51.7      0.00      6.07      79.7     0.34      1009.8     0.5     SSE   166   0.9     SSE   168   8.91    267      -66.8
   06/14/2018 03:30      60.2      59.3       74     51.4      0.00      6.07      79.7     0.34      1009.8     0.6     SSE   156   1.3      SE   137   8.91    267      -68.9
   06/14/2018 03:20      60.8      59.8       71     50.9      0.00      6.07      79.7     0.34      1009.9     0.2       S   172   1.0       S   191   8.91    267      -69.1
   06/14/2018 03:10      61.2      60.5       71     51.2      0.00      6.07      79.8     0.34      1010.0     0.6       S   185   1.6       S   185   8.91    267      -69.0
   06/14/2018 03:00      61.8      60.9       70     51.4      0.00      6.07      79.8     0.34      1010.1     1.0     SSW   203   2.0       S   185   8.91    267      -67.9
   06/14/2018 02:50      62.6      61.6       68     51.5      0.00      6.07      79.8     0.34      1010.1     0.0      SW   219   0.5      SW   219   8.91    267      -69.3
   06/14/2018 02:40      62.9      62.4       68     52.0      0.00      6.07      79.9     0.34      1010.1     0.4      SW   221   1.8     SSW   211   8.91    266      -69.3
   06/14/2018 02:30      63.3      62.5       68     51.9      0.00      6.07      79.9     0.34      1010.1     0.3      SE   129   1.1      SE   140   8.92    266      -70.5
   06/14/2018 02:20      63.7      62.8       67     51.9      0.00      6.07      79.9     0.34      1010.2     0.4     ESE   118   2.1       E    92   8.92    266      -70.3
   06/14/2018 02:10      64.1      63.3       65     51.7      0.00      6.07      79.9     0.34      1010.3     0.0       E    96   0.9       E    89   8.92    266      -70.7
   06/14/2018 02:00      64.5      63.9       64     51.7      0.00      6.07      80.0     0.34      1010.3     0.1      SE   132   2.2       E    94   8.92    266      -71.3
   06/14/2018 01:50      64.5      64.0       63     51.6      0.00      6.07      80.0     0.34      1010.3     0.3     ESE   115   1.5       E    93   8.92    266      -71.1
   06/14/2018 01:40      64.1      63.7       64     51.4      0.00      6.07      80.0     0.34      1010.3     0.3     ESE   120   1.6     ESE   105   8.92    266      -70.2
   06/14/2018 01:30      64.2      63.5       64     51.2      0.00      6.07      80.1     0.34      1010.3     0.3     SSE   147   1.1     ESE   116   8.92    266      -69.3
   06/14/2018 01:20      64.5      63.6       63     51.0      0.00      6.07      80.0     0.34      1010.2     0.2     SSE   150   1.3     SSE   149   8.92    266      -70.3
   06/14/2018 01:10      65.4      64.1       61     51.0      0.00      6.07      80.1     0.34      1010.2     0.4     SSE   158   1.1     SSE   151   8.92    266      -70.9
   06/14/2018 01:00      65.7      65.0       59     50.9      0.00      6.07      80.1     0.34      1010.2     0.5     SSE   162   1.2     SSE   162   8.92    266      -69.9
   06/14/2018 00:50      65.5      65.0       60     50.9      0.00      6.07      80.2     0.34      1010.2     0.0       N     0   0.0     SSE   162   8.92    266      -69.6
   06/14/2018 00:40      65.8      65.2       60     51.1      0.00      6.07      80.2     0.34      1010.2     0.3     SSE   162   1.2     SSE   162   8.93    266      -70.3
   06/14/2018 00:30      66.0      65.5       59     51.3      0.00      6.07      80.1     0.34      1010.2     0.3       S   185   1.2     SSW   211   8.93    266      -71.3
   06/14/2018 00:20      66.6      65.6       58     50.8      0.00      6.07      80.1     0.34      1010.2     0.6     SSE   154   1.2      SE   144   8.93    266      -72.5
   06/14/2018 00:10      67.3      66.3       56     50.9      0.00      6.07      80.2     0.34      1010.2     1.0       S   189   1.7     SSW   200   8.93    265      -72.3
   06/14/2018 00:00      67.5      66.8       56     50.7      0.00      6.07      80.2     0.34      1010.2     0.8      SE   143   1.6      SE   142   8.93    265      -73.4
   06/13/2018 23:50      67.4      67.0       55     50.7      0.00      6.07      80.2     0.34      1010.2     0.0      SE   140   0.8     SSE   147   8.93    265      -73.2
   06/13/2018 23:40      68.0      67.1       53     50.0      0.00      6.07      80.2     0.34      1010.2     0.4     SSE   160   1.2     SSE   152   8.94    265      -73.7
   06/13/2018 23:30      69.0      67.8       52     49.8      0.00      6.07      80.2     0.34      1010.2     0.1     SSE   150   0.5     SSE   153   8.94    265      -73.4
   06/13/2018 23:20      69.7      68.7       50     49.9      0.00      6.07      80.2     0.34      1010.2     0.0      SE   136   0.5      SE   136   8.94    264      -73.9
   06/13/2018 23:10      70.3      69.4       49     49.8      0.00      6.07      80.3     0.34      1010.2     0.0       N     0   0.0      SE   136   8.94    264      -74.3
   06/13/2018 23:00      70.7      69.9       48     49.8      0.00      6.07      80.2     0.34      1010.2     0.0       N     0   0.0      SE   136   8.94    264      -74.5
   06/13/2018 22:50      70.7      70.3       48     49.7      0.00      6.07      80.2     0.34      1010.2     0.4      SE   125   1.3       E    99   8.95    264      -76.3
   06/13/2018 22:40      71.1      70.3       47     49.4      0.00      6.07      80.2     0.34      1010.2     0.2      SE   128   1.3      SE   131   8.95    264      -75.8
   06/13/2018 22:30      71.0      70.4       47     49.3      0.00      6.07      80.3     0.34      1010.2     0.6       S   178   1.8     SSW   193   8.95    264      -76.0
   06/13/2018 22:20      72.1      70.5       46     49.1      0.00      6.07      80.2     0.34      1010.1     0.5     SSE   160   1.2     SSE   152   8.95    264      -77.0
   06/13/2018 22:10      72.5      71.8       44     49.3      0.00      6.07      80.2     0.34      1009.9     0.3      SW   217   1.8     SSW   212   8.95    264      -77.3
   06/13/2018 22:00      73.3      72.2       44     49.2      0.00      6.07      80.2     0.34      1009.8     0.9     SSW   204   1.9      SW   215   8.96    263      -77.8
   06/13/2018 21:50      74.4      73.1       42     49.5      0.00      6.07      80.2     0.34      1009.8     0.1     SSW   201   1.2     SSW   201   8.96    263      -79.0
   06/13/2018 21:40      75.6      74.2       41     49.7      0.00      6.07      80.2     0.34      1009.6     0.0       S   174   1.2     SSW   201   8.96    263      -81.4
   06/13/2018 21:30      75.7      75.3       41     49.9      0.00      6.07      80.2     0.34      1009.5     0.7       E    98   2.2     ENE    70   8.96    263      -85.0
   06/13/2018 21:20      75.7      75.2       41     49.9      0.00      6.07      80.2     0.34      1009.3     0.7     ESE   104   1.7      SE   135   8.96    263      -86.0
   06/13/2018 21:10      76.6      75.2       39     49.3      0.00      6.07      80.1     0.34      1009.2     1.0      SE   137   1.5      SE   138   8.97    263      -84.9
   06/13/2018 21:00      77.6      76.3       37     48.9      0.00      6.07      80.1     0.34      1009.1     0.5      SE   146   1.2      SE   139   8.97    263      -86.5
   06/13/2018 20:50      79.2      77.4       36     49.0      0.00      6.07      80.1     0.34      1009.1     0.3      SE   144   1.3      SE   144   8.97    263      -88.5
   06/13/2018 20:40      80.4      78.9       34     48.6      0.00      6.07      80.0     0.34      1009.1     0.3     ESE   118   1.1     ESE   122   8.98    263      -91.6
   06/13/2018 20:30      81.7      80.1       32     48.1      0.00      6.07      80.1     0.34      1009.0     0.3      SE   125   1.2     ESE   121   8.98    263      -94.0
   06/13/2018 20:20      83.3      81.4       30     47.5      0.00      6.07      80.0     0.34      1008.9     0.6       E    81   1.9      NE    39   8.98    263      -95.4
   06/13/2018 20:10      85.1      83.1       27     46.8      0.00      6.07      80.0     0.34      1008.9     0.7      NE    49   2.9       N     2   8.99    262      -95.4
   06/13/2018 20:00      86.2      84.8       26     46.5      0.00      6.07      80.0     0.34      1008.8     1.4     NNE    25   2.4     NNW   342   8.99    262      -93.6
   06/13/2018 19:50      87.4      85.8       25     46.3      0.00      6.07      79.9     0.34      1008.7     1.9       N     9   3.5       N     1   8.99    262      -91.0
   06/13/2018 19:40      88.2      87.2       24     45.9      0.00      6.07      79.8     0.34      1008.6     1.0       N     3   3.1       N   355   9.00    262      -84.6
   06/13/2018 19:30      89.3      87.8       23     45.6      0.00      6.07      79.8     0.34      1008.6     1.7       N     6   3.7       N     9   9.00    262      -63.6
   06/13/2018 19:20      89.5      88.9       22     45.6      0.00      6.07      79.8     0.34      1008.6     1.7     NNE    21   3.8     NNE    30   9.01    262      -47.7
   06/13/2018 19:10      90.8      89.2       22     45.6      0.00      6.07      79.7     0.34      1008.5     2.4      NE    41   4.3      NE    54   9.01    262      -26.4
   06/13/2018 19:00      91.8      90.5       22     46.4      0.00      6.07      79.7     0.34      1008.4     2.9     NNE    13   5.7     NNE    30   9.01    262       -4.9
   06/13/2018 18:50      92.1      91.3       21     46.2      0.00      6.07      79.7     0.34      1008.3     2.0       N     0   4.5     NNE    26   9.02    262       18.1
   06/13/2018 18:40      93.2      91.9       20     46.2      0.00      6.07      79.6     0.34      1008.4     2.2      NE    43   4.2     NNE    34   9.02    262       41.7
   06/13/2018 18:30      93.3      92.6       20     45.6      0.00      6.07      79.6     0.34      1008.4     2.0      NW   323   4.8     WNW   294   9.02    262       65.5
   06/13/2018 18:20      94.1      93.0       19     45.7      0.00      6.07      79.5     0.34      1008.4     2.6     WNW   282   5.4     WSW   256   9.03    262       88.7
   06/13/2018 18:10      94.0      93.1       18     43.7      0.00      6.07      79.5     0.34      1008.4     1.4     NNW   328   3.6     NNW   342   9.04    262      112.8
   06/13/2018 18:00      94.0      93.3       19     45.3      0.00      6.07      79.3     0.34      1008.4     2.7     NNW   332   7.1       W   268   9.04    262      140.8
   06/13/2018 17:50      93.9      92.5       22     48.6      0.00      6.07      79.4     0.34      1008.4     3.1     WNW   283   7.0       W   264   9.04    262      167.2
   06/13/2018 17:40      94.3      93.7       21     48.6      0.00      6.07      79.3     0.34      1008.4     2.6      NW   311   6.2     NNW   336   9.05    262      191.5
   06/13/2018 17:30      93.9      93.1       22     48.8      0.00      6.07      79.3     0.34      1008.5     3.7     WNW   299   7.1      NW   309   9.05    262      219.7
   06/13/2018 17:20      94.4      93.3       23     50.1      0.00      6.07      79.2     0.34      1008.5     3.8      NW   305   6.9     WNW   301   9.06    262      243.8
   06/13/2018 17:10      94.4      93.8       23     50.7      0.00      6.07      79.1     0.34      1008.5     3.9     WNW   294   8.3      NW   309   9.06    262      267.0
   06/13/2018 17:00      94.7      93.8       23     51.2      0.00      6.07      79.0     0.34      1008.5     3.6      NW   309   8.5       N   350   9.07    262      287.8
   06/13/2018 16:50      96.0      94.4       23     51.9      0.00      6.07      79.0     0.34      1008.6     2.8      NW   319   6.8      NW   326   9.07    262      307.6
   06/13/2018 16:40      95.2      94.4       24     52.0      0.00      6.07      78.9     0.34      1008.7     2.8      NW   317   6.1     WSW   243   9.08    262      328.8
   06/13/2018 16:30      94.7      93.6       24     51.4      0.00      6.07      78.8     0.34      1008.9     4.2       W   268   9.4     WSW   252   9.08    262      353.2
   06/13/2018 16:20      95.1      94.0       22     49.7      0.00      6.07      78.7     0.34      1008.9     4.1     WSW   241   8.7      SW   234   9.09    262      373.4
   06/13/2018 16:10      94.8      93.8       22     48.9      0.00      6.07      78.7     0.34      1009.0     3.5      SW   232   6.4     WSW   249   9.09    262      395.3
   06/13/2018 16:00      94.5      93.4       21     48.4      0.00      6.07      78.5     0.34      1009.1     4.2       S   190   7.3     SSW   206   9.10    262      415.3
   06/13/2018 15:50      93.9      93.1       21     48.1      0.00      6.07      78.5     0.33      1009.1     3.8       S   172   7.1     SSE   165   9.10    262      437.3
   06/13/2018 15:40      93.6      93.0       21     47.4      0.00      6.07      78.4     0.34      1009.2     4.4     SSE   162   8.7       S   179   9.11    262      455.2
   06/13/2018 15:30      94.0      93.3       20     45.9      0.00      6.07      78.4     0.33      1009.3     4.5     SSE   164   9.2       S   174   9.11    262      470.2
   06/13/2018 15:20      93.7      92.5       19     45.4      0.00      6.07      78.3     0.33      1009.4     4.5     SSE   165   8.9       S   187   9.12    262      485.6
   06/13/2018 15:10      93.4      92.5       20     46.2      0.00      6.07      78.2     0.33      1009.4     6.0     SSE   152  10.0      NE    55   9.13    262      499.9
   06/13/2018 15:00      94.1      92.7       21     47.9      0.00      6.07      78.1     0.33      1009.4     5.9     SSE   160   9.9     SSE   147   9.13    262      513.0
   06/13/2018 14:50      96.1      93.9       21     49.9      0.00      6.07      78.1     0.33      1009.4     4.4     ENE    74  11.1      SE   127   9.14    262      514.9
   06/13/2018 14:40      96.0      94.2       23     50.9      0.00      6.07      78.0     0.33      1009.5     3.5      NE    47   7.9     ENE    66   9.14    263      529.2
   06/13/2018 14:30      94.8      94.1       24     51.5      0.00      6.07      77.9     0.33      1009.5     4.2      NE    56   6.6       E    83   9.14    263      543.0
   06/13/2018 14:20      95.8      94.6       24     52.5      0.00      6.07      77.7     0.33      1009.6     3.3     ENE    61   7.3     ESE   104   9.15    262      550.2
   06/13/2018 14:10      94.9      94.2       25     53.2      0.00      6.07      77.8     0.33      1009.7     2.8      NE    40   5.3     NNE    30   9.15    263      559.9
   06/13/2018 14:00      94.4      93.0       26     53.5      0.00      6.07      77.7     0.33      1009.8     3.0      NE    52   6.2     SSE   151   9.15    263      572.2
   06/13/2018 13:50      93.8      92.8       26     53.6      0.00      6.07      77.7     0.33      1010.0     3.3     ENE    61   6.5      SE   142   9.16    263      578.3
   06/13/2018 13:40      93.8      92.8       27     54.3      0.00      6.07      77.6     0.33      1010.1     3.1      NE    52   6.4      NE    36   9.16    263      581.3
   06/13/2018 13:30      93.5      92.3       27     54.3      0.00      6.07      77.5     0.33      1010.2     3.1      NE    41   5.8     NNE    15   9.16    263      584.8
   06/13/2018 13:20      93.0      91.8       27     53.8      0.00      6.07      77.5     0.33      1010.2     3.0      NE    38   5.4      NE    51   9.16    262      592.3
   06/13/2018 13:10      92.3      91.5       28     54.5      0.00      6.07      77.5     0.33      1010.3     2.7       E    87   6.3     ESE   107   9.16    262      597.0
   06/13/2018 13:00      92.3      91.5       29     54.8      0.00      6.07      77.4     0.33      1010.4     3.0      NE    47   5.8      NE    56   9.17    263      595.0
   06/13/2018 12:50      92.0      90.4       29     54.0      0.00      6.07      77.4     0.33      1010.4     2.9     NNE    28   5.3      NE    42   9.17    262      598.7
   06/13/2018 12:40      91.3      90.2       28     53.2      0.00      6.07      77.3     0.33      1010.5     2.8      NE    48   6.0     ENE    57   9.17    262      596.9
   06/13/2018 12:30      91.6      90.8       26     51.9      0.00      6.07      77.3     0.33      1010.6     2.8     NNE    28   6.1     WNW   289   9.17    262      594.0
   06/13/2018 12:20      91.4      90.5       26     50.9      0.00      6.07      77.3     0.33      1010.6     3.0     NNE    22   6.7     NNW   346   9.17    262      588.5
   06/13/2018 12:10      90.6      89.0       25     48.8      0.00      6.07      77.3     0.33      1010.6     2.3      NE    38   4.8     ENE    60   9.17    262      589.8
   06/13/2018 12:00      89.4      88.6       25     48.6      0.00      6.07      77.3     0.33      1010.6     2.3      NE    45   5.7     ENE    71   9.18    262      587.2
   06/13/2018 11:50      89.2      88.1       26     48.9      0.00      6.07      77.3     0.33      1010.5     2.3     ENE    74   5.1      NE    47   9.18    262      582.5
   06/13/2018 11:40      88.4      87.6       28     50.4      0.00      6.07      77.3     0.33      1010.5     2.5     NNE    30   5.6      NE    48   9.18    262      574.8
   06/13/2018 11:30      88.4      87.6       28     50.6      0.00      6.07      77.3     0.33      1010.5     2.0     ENE    79   4.6       E    84   9.18    262      569.0
   06/13/2018 11:20      88.0      86.2       31     52.7      0.00      6.07      77.4     0.33      1010.5     2.1     ENE    66   5.5      NE    56   9.18    262      562.5
   06/13/2018 11:10      86.5      85.1       32     52.7      0.00      6.07      77.4     0.33      1010.5     2.1      NE    50   4.3     ENE    62   9.18    263      550.3
   06/13/2018 11:00      85.5      84.2       33     52.9      0.00      6.07      77.4     0.33      1010.5     2.2     ENE    65   5.4      SE   140   9.18    263      541.0
   06/13/2018 10:50      85.1      83.4       34     53.3      0.00      6.07      77.4     0.33      1010.5     1.7      NE    56   4.2      NE    50   9.18    263      530.2
   06/13/2018 10:40      83.6      82.5       36     52.8      0.00      6.07      77.5     0.33      1010.4     1.9      NE    36   4.0      NE    36   9.18    263      518.2
   06/13/2018 10:30      82.6      81.2       36     52.1      0.00      6.07      77.4     0.33      1010.5     2.2     NNE    15   3.8       N     2   9.18    263      505.0
   06/13/2018 10:20      81.4      80.1       36     51.7      0.00      6.07      77.5     0.33      1010.5     2.1      NE    38   4.0     ESE   103   9.18    263      491.7
   06/13/2018 10:10      80.1      79.0       38     51.5      0.00      6.07      77.5     0.33      1010.5     2.3     NNE    16   4.3      NE    40   9.18    263      476.5
   06/13/2018 10:00      79.5      78.7       39     51.9      0.00      6.07      77.6     0.33      1010.5     2.1     NNE    26   4.3     NNE    31   9.18    263      459.4
   06/13/2018 09:50      78.9      77.6       41     52.3      0.00      6.07      77.7     0.33      1010.6     1.4     NNW   347   3.4     NNE    22   9.18    263      442.8
   06/13/2018 09:40      77.7      77.0       42     52.4      0.00      6.07      77.7     0.33      1010.7     2.1       N    11   4.1       N     9   9.18    263      425.1
   06/13/2018 09:30      77.5      75.8       44     52.8      0.00      6.07      77.7     0.34      1010.7     1.3     NNE    12   3.5     NNE    29   9.18    263      407.7
   06/13/2018 09:20      76.1      74.7       45     52.4      0.00      6.07      77.8     0.34      1010.8     1.9       N     6   4.4       N   355   9.18    263      390.8
   06/13/2018 09:10      74.9      73.8       48     53.0      0.00      6.07      77.8     0.34      1010.8     1.5       N    10   2.9     NNW   333   9.18    264      375.0
   06/13/2018 09:00      73.9      72.2       49     53.0      0.00      6.07      77.8     0.34      1010.9     1.2       N     0   3.8       N   354   9.18    264      365.5
   06/13/2018 08:50      72.0      70.1       52     52.7      0.00      6.07      77.9     0.34      1010.9     1.5       N   359   3.7     NNW   346   9.18    265      374.4
   06/13/2018 08:40      70.3      69.3       55     53.0      0.00      6.07      77.9     0.34      1010.9     1.4       N   360   3.4     NNE    12   9.18    266       35.9
   06/13/2018 08:30      69.5      68.3       56     52.6      0.00      6.07      78.0     0.34      1010.9     1.1     ENE    73   3.1     ENE    57   9.18    266       -7.8
   06/13/2018 08:20      68.5      67.8       58     53.0      0.00      6.07      78.0     0.34      1010.9     1.0       N     9   2.7       N    10   9.18    267      -31.4
   06/13/2018 08:10      67.9      67.0       61     53.4      0.00      6.07      78.0     0.34      1010.9     1.2     NNE    28   2.5     NNE    24   9.18    267      -26.2
   06/13/2018 08:00      67.2      66.1       63     53.5      0.00      6.07      78.1     0.34      1010.9     0.9       W   277   2.2      SW   220   9.18    267      -23.8
   06/13/2018 07:50      66.4      65.3       66     54.0      0.00      6.07      78.1     0.34      1010.9     0.5     NNW   333   1.8      NW   314   9.18    266      -24.2
   06/13/2018 07:40      65.6      64.8       67     53.9      0.00      6.07      78.1     0.34      1010.9     0.5       W   263   1.5     WNW   286   9.18    267        9.3
   06/13/2018 07:30      65.0      64.0       69     53.9      0.00      6.07      78.2     0.34      1010.9     0.1      NW   320   1.1     NNW   333   9.18    267       -8.3
   06/13/2018 07:20      64.2      63.4       70     54.0      0.00      6.07      78.3     0.34      1010.9     0.4     SSW   205   1.6       S   183   9.18    267      -35.1
   06/13/2018 07:10      63.5      62.9       73     54.3      0.00      6.07      78.3     0.34      1010.8     1.1     SSE   155   2.9      SE   140   9.18    267      -36.7
   06/13/2018 07:00      63.1      62.4       73     53.9      0.00      6.07      78.3     0.34      1010.8     0.3       S   175   1.0       S   180   9.18    268      -38.8
   06/13/2018 06:50      62.5      61.4       73     53.3      0.00      6.07      78.4     0.34      1010.8     0.3     SSE   156   0.9     SSE   156   9.18    268      -40.4
   06/13/2018 06:40      61.6      60.3       75     53.0      0.00      6.07      78.4     0.34      1010.7     0.2     SSE   156   1.1     SSE   156   9.18    268      -41.8
   06/13/2018 06:30      60.5      59.6       76     52.3      0.00      6.07      78.4     0.34      1010.7     0.0       N     0   0.0       S   181   9.18    268      -46.7
   06/13/2018 06:20      59.8      59.4       76     51.8      0.00      6.07      78.5     0.34      1010.6     1.0       S   184   1.5       S   191   9.18    267      -47.8
   06/13/2018 06:10      59.7      59.0       77     52.3      0.00      6.07      78.5     0.34      1010.5     0.3       S   191   1.4       S   191   9.18    267      -48.0
   06/13/2018 06:00      59.2      58.4       77     51.7      0.00      6.07      78.5     0.34      1010.5     0.3     SSW   198   0.9       S   191   9.18    268      -54.0
   06/13/2018 05:50      58.6      57.7       77     51.0      0.00      6.07      78.6     0.34      1010.4     0.0     SSW   211   0.7     SSW   211   9.19    268      -57.1
   06/13/2018 05:40      58.1      57.7       78     51.1      0.00      6.07      78.7     0.34      1010.3     0.0       S   175   0.4     SSE   166   9.19    268      -58.4
   06/13/2018 05:30      58.6      57.7       77     50.9      0.00      6.07      78.7     0.34      1010.2     0.2     SSE   166   0.8     SSE   166   9.19    268      -60.5
   06/13/2018 05:20      58.7      58.1       77     51.1      0.00      6.07      78.7     0.34      1010.0     0.0     SSE   166   0.7     SSE   166   9.19    268      -60.6
   06/13/2018 05:10      58.6      57.9       77     51.1      0.00      6.07      78.8     0.34      1009.9     0.0     SSE   166   0.7     SSE   166   9.19    268      -60.9
   06/13/2018 05:00      58.6      57.7       75     50.2      0.00      6.07      78.8     0.34      1009.8     0.2     SSE   166   0.7     SSE   166   9.19    268      -62.9
   06/13/2018 04:50      58.8      58.3       75     50.8      0.00      6.07      78.8     0.34      1009.7     0.5       S   180   1.3     SSW   197   9.19    268      -63.1
   06/13/2018 04:40      59.3      58.3       74     50.6      0.00      6.07      78.9     0.34      1009.7     0.1       S   188   1.2       S   180   9.19    267      -63.5
   06/13/2018 04:30      59.6      59.0       73     50.7      0.00      6.07      78.9     0.34      1009.6     0.2     SSW   209   0.9     SSW   209   9.19    267      -63.5
   06/13/2018 04:20      59.5      59.1       75     51.3      0.00      6.07      78.9     0.34      1009.5     0.0     SSW   209   0.7     SSW   209   9.19    268      -62.8
   06/13/2018 04:10      59.9      59.2       73     50.9      0.00      6.07      79.0     0.34      1009.6     0.0       N     0   0.0     SSW   209   9.19    267      -63.7
   06/13/2018 04:00      60.5      59.7       72     51.0      0.00      6.07      79.0     0.34      1009.5     0.0       N     0   0.0     SSW   209   9.19    267      -63.6
   06/13/2018 03:50      60.5      59.9       71     50.9      0.00      6.07      79.0     0.34      1009.5     0.0     SSW   209   0.6     SSW   209   9.19    267      -63.9
   06/13/2018 03:40      60.7      60.1       71     50.9      0.00      6.07      79.0     0.34      1009.5     0.9     SSW   196   1.8     SSW   204   9.19    267      -63.3
   06/13/2018 03:30      60.7      60.2       71     50.9      0.00      6.07      79.1     0.34      1009.5     0.2       S   182   1.1       S   182   9.19    267      -64.2
   06/13/2018 03:20      61.2      60.3       70     51.0      0.00      6.07      79.2     0.34      1009.5     0.6       S   182   1.2       S   182   9.19    267      -64.0
   06/13/2018 03:10      61.2      60.9       70     51.2      0.00      6.07      79.2     0.34      1009.5     0.6     SSE   164   1.2     SSE   160   9.20    267      -64.2
   06/13/2018 03:00      61.3      60.9       70     51.3      0.00      6.07      79.2     0.34      1009.5     0.8     SSE   164   1.3       S   178   9.20    267      -65.9
   06/13/2018 02:50      61.5      60.9       70     51.3      0.00      6.07      79.3     0.34      1009.6     0.8     SSE   163   1.7      SE   146   9.20    266      -66.9
   06/13/2018 02:40      61.6      61.2       69     51.2      0.00      6.07      79.3     0.34      1009.7     0.5     SSE   156   1.6      SE   146   9.20    266      -67.2
   06/13/2018 02:30      61.9      61.4       68     51.2      0.00      6.07      79.3     0.34      1009.8     0.5     SSE   155   1.2     SSE   146   9.20    266      -67.5
   06/13/2018 02:20      62.3      61.2       66     50.2      0.00      6.07      79.4     0.34      1009.8     1.1     SSW   194   2.0     SSW   205   9.20    266      -67.0
   06/13/2018 02:10      63.1      62.0       65     50.4      0.00      6.07      79.3     0.34      1010.0     0.9       S   170   1.9     SSW   207   9.20    266      -67.2
   06/13/2018 02:00      63.3      62.6       64     50.7      0.00      6.07      79.3     0.34      1010.0     0.9     SSW   199   1.9     SSW   211   9.20    266      -65.9
   06/13/2018 01:50      64.1      62.9       64     51.2      0.00      6.07      79.4     0.34      1010.1     0.7     SSW   193   1.7      SW   215   9.21    266      -66.8
   06/13/2018 01:40      64.6      63.9       64     51.7      0.00      6.07      79.4     0.34      1010.2     0.4       S   189   1.6       S   178   9.21    266      -66.6
   06/13/2018 01:30      64.5      64.0       64     51.8      0.00      6.07      79.4     0.34      1010.2     0.2     SSW   192   0.8     SSW   197   9.21    266      -67.2
   06/13/2018 01:20      64.3      63.7       65     52.0      0.00      6.07      79.5     0.34      1010.3     0.2      SE   141   1.0      SE   127   9.21    266      -68.5
   06/13/2018 01:10      64.1      63.6       66     52.2      0.00      6.07      79.5     0.34      1010.3     0.6      SE   146   1.4     SSE   149   9.21    266      -69.1
   06/13/2018 01:00      64.9      63.7       66     52.4      0.00      6.07      79.5     0.34      1010.5     0.7     SSE   159   1.4     SSE   149   9.21    266      -69.6
   06/13/2018 00:50      65.3      64.7       65     52.8      0.00      6.07      79.5     0.34      1010.4     0.7       S   182   1.5       S   172   9.21    266      -68.8
   06/13/2018 00:40      66.0      65.1       64     53.1      0.00      6.07      79.5     0.34      1010.5     0.4     SSE   168   1.2       S   170   9.21    266      -69.7
   06/13/2018 00:30      66.5      65.7       63     53.0      0.00      6.07      79.5     0.34      1010.5     0.3     SSW   195   0.8     SSW   195   9.21    266      -69.6
   06/13/2018 00:20      66.5      66.0       63     53.4      0.00      6.07      79.5     0.34      1010.6     0.6       S   188   1.2     SSE   156   9.22    266      -69.8
   06/13/2018 00:10      66.3      65.7       65     53.7      0.00      6.07      79.6     0.34      1010.6     0.4     SSE   160   1.2     SSE   153   9.22    266      -70.5
   06/13/2018 00:00      66.9      65.8       63     53.3      0.00      6.07      79.6     0.34      1010.6     0.4       S   171   0.9     SSE   166   9.22    266      -71.1
   06/12/2018 23:50      67.9      66.6       62     53.5      0.00      6.07      79.6     0.34      1010.6     0.7       S   174   1.2     SSW   199   9.22    266      -71.4
   06/12/2018 23:40      68.6      67.6       60     53.7      0.00      6.07      79.6     0.34      1010.6     0.0     SSE   167   1.1       S   170   9.22    266      -72.3
   06/12/2018 23:30      69.2      68.3       59     53.9      0.00      6.07      79.6     0.34      1010.7     0.1       E    99   1.3       E    85   9.22    265      -75.8
   06/12/2018 23:20      69.5      68.9       59     54.0      0.00      6.07      79.6     0.34      1010.7     1.0     ESE   105   2.0       E    80   9.23    265      -78.0
   06/12/2018 23:10      69.5      69.0       57     53.4      0.00      6.07      79.6     0.34      1010.7     1.1     ESE   119   2.1     ENE    70   9.23    265      -77.2
   06/12/2018 23:00      70.1      69.1       53     51.6      0.00      6.07      79.6     0.34      1010.5     0.3     ESE   123   1.4     ENE    72   9.23    265      -76.5
   06/12/2018 22:50      70.8      69.7       51     51.1      0.00      6.07      79.6     0.34      1010.5     0.3      SE   130   1.4      SE   139   9.23    264      -76.7
   06/12/2018 22:40      71.5      70.6       49     50.9      0.00      6.07      79.7     0.34      1010.4     0.0       N     0   0.0     ENE    65   9.23    264      -76.8
   06/12/2018 22:30      72.2      71.3       47     50.5      0.00      6.07      79.6     0.34      1010.3     0.0       N     0   0.0       S   185   9.23    264      -78.5
   06/12/2018 22:20      72.7      71.9       46     50.2      0.00      6.07      79.6     0.34      1010.2     0.8     ESE   123   2.3      SE   133   9.24    263      -80.2
   06/12/2018 22:10      73.5      72.3       44     49.6      0.00      6.07      79.6     0.34      1010.1     0.7     ESE   111   1.5      SE   128   9.24    263      -80.5
   06/12/2018 22:00      73.6      73.2       42     48.6      0.00      6.07      79.6     0.34      1010.0     0.0     NNW   338   0.0     NNW   338   9.24    263      -80.1
   06/12/2018 21:50      73.5      72.9       37     45.6      0.00      6.07      79.6     0.34      1009.9     0.4      NE    43   1.3      NE    43   9.24    263      -80.0
   06/12/2018 21:40      75.0      73.3       34     44.1      0.00      6.07      79.6     0.34      1009.7     0.4      SE   134   2.0      SE   137   9.24    263      -81.0
   06/12/2018 21:30      75.8      74.7       34     44.5      0.00      6.07      79.6     0.34      1009.6     0.8     SSW   193   2.7       S   190   9.25    263      -83.2
   06/12/2018 21:20      75.6      74.6       35     45.3      0.00      6.07      79.5     0.34      1009.5     1.2       S   187   2.7      SW   231   9.25    263      -83.4
   06/12/2018 21:10      76.3      75.2       35     45.9      0.00      6.07      79.5     0.34      1009.3     0.5     SSE   149   1.7     SSE   151   9.25    263      -85.3
   06/12/2018 21:00      77.8      76.2       34     46.7      0.00      6.07      79.4     0.34      1009.3     0.2      NE    48   1.2     ENE    58   9.25    263      -87.6
   06/12/2018 20:50      78.2      77.3       34     47.0      0.00      6.07      79.5     0.34      1009.2     0.0     WSW   241   0.5     WSW   236   9.26    263      -89.3
   06/12/2018 20:40      79.2      77.9       33     47.0      0.00      6.07      79.5     0.34      1009.2     1.2     WSW   238   2.9      SW   230   9.26    263      -90.5
   06/12/2018 20:30      80.2      79.0       32     47.0      0.00      6.07      79.4     0.34      1009.2     2.6     WSW   245   4.3     WSW   241   9.26    263      -92.7
   06/12/2018 20:20      81.0      79.8       31     47.3      0.00      6.07      79.4     0.34      1009.2     2.9     WSW   248   4.9     WSW   252   9.27    263      -93.2
   06/12/2018 20:10      82.2      80.7       31     47.6      0.00      6.07      79.4     0.34      1009.1     1.8      SW   232   5.1      SW   232   9.27    263      -92.5
   06/12/2018 20:00      83.5      82.0       27     45.8      0.00      6.07      79.4     0.34      1009.0     2.6     WSW   252   4.5     WSW   243   9.27    263      -90.2
   06/12/2018 19:50      84.4      83.3       25     44.3      0.00      6.07      79.3     0.34      1008.9     2.6       W   279   4.6       W   273   9.28    262      -87.5
   06/12/2018 19:40      85.6      84.1       24     44.5      0.00      6.07      79.3     0.34      1008.9     2.2      NW   312   7.0      NW   321   9.29    262      -81.4
   06/12/2018 19:30      85.8      85.0       25     45.0      0.00      6.07      79.2     0.34      1008.8     2.5      NW   317   5.0      NW   308   9.29    262      -58.1
   06/12/2018 19:20      86.3      85.5       24     45.2      0.00      6.07      79.2     0.34      1008.8     3.3     WNW   303   5.6     WNW   289   9.30    262      -42.3
   06/12/2018 19:10      86.7      86.0       24     45.1      0.00      6.07      79.2     0.34      1008.7     3.0      NW   309   6.1      NW   313   9.30    262      -22.2
   06/12/2018 19:00      87.0      86.4       24     45.8      0.00      6.07      79.1     0.34      1008.7     3.1     WNW   292   6.3       W   281   9.31    262       -0.3
   06/12/2018 18:50      87.2      86.6       24     45.4      0.00      6.07      79.1     0.34      1008.6     3.6     WNW   290   7.4       W   266   9.31    262       23.6
   06/12/2018 18:40      87.4      86.7       24     46.3      0.00      6.07      79.0     0.34      1008.6     3.7     WNW   300   6.2      NW   321   9.32    262       47.4
   06/12/2018 18:30      88.1      87.2       24     46.5      0.00      6.07      79.0     0.34      1008.5     4.4     WNW   303   7.9     WNW   293   9.32    262       70.0
   06/12/2018 18:20      88.6      87.7       24     47.0      0.00      6.07      78.9     0.34      1008.5     3.8      NW   311   8.9      NW   309   9.32    262       94.9
   06/12/2018 18:10      89.8      88.4       24     47.5      0.00      6.07      78.9     0.34      1008.4     5.1      NW   307  10.2      NW   318   9.33    262      119.9
   06/12/2018 18:00      90.8      89.6       23     47.9      0.00      6.07      78.8     0.34      1008.4     4.3      NW   306   9.8     WNW   302   9.34    262      143.2
   06/12/2018 17:50      91.6      90.3       24     48.7      0.00      6.07      78.8     0.34      1008.4     4.2      NW   308   8.8     WNW   291   9.34    262      167.8
   06/12/2018 17:40      91.6      90.7       24     49.4      0.00      6.07      78.7     0.34      1008.4     4.2     WNW   282   7.1     WNW   299   9.35    262      192.3
   06/12/2018 17:30      91.3      90.3       23     47.5      0.00      6.07      78.6     0.34      1008.4     4.5     SSW   197   8.7       S   178   9.35    262      217.5
   06/12/2018 17:20      91.1      90.6       18     42.1      0.00      6.07      78.6     0.34      1008.5     3.8     SSE   159   6.9      SE   138   9.36    261      241.9
   06/12/2018 17:10      91.6      90.5       18     41.4      0.00      6.07      78.5     0.34      1008.6     4.8       S   169   9.1     SSW   211   9.36    261      267.2
   06/12/2018 17:00      91.5      90.7       17     40.0      0.00      6.07      78.5     0.34      1008.6     4.9       S   181   8.8      SE   127   9.37    261      289.4
   06/12/2018 16:50      91.9      91.1       13     34.6      0.00      6.07      78.4     0.34      1008.6     4.8       S   172   7.7       S   176   9.37    261      310.6
   06/12/2018 16:40      92.8      91.2       14     36.3      0.00      6.07      78.3     0.34      1008.6     5.7       S   177   9.2     SSW   196   9.38    261      331.1
   06/12/2018 16:30      92.9      91.6       15     37.2      0.00      6.07      78.2     0.34      1008.5     5.0       S   187   9.9       S   174   9.39    261      352.2
   06/12/2018 16:20      93.1      91.9       15     38.5      0.00      6.07      78.2     0.34      1008.5     5.4       S   184   9.2     SSW   205   9.39    261      376.3
   06/12/2018 16:10      92.8      91.7       15     38.6      0.00      6.07      78.1     0.34      1008.5     5.4     SSW   196   9.1     SSW   206   9.40    261      396.0
   06/12/2018 16:00      93.0      91.7       15     38.6      0.00      6.07      78.0     0.34      1008.5     5.2     SSW   197   9.1      SW   221   9.41    261      414.6
   06/12/2018 15:50      93.3      91.4       16     39.3      0.00      6.07      77.9     0.34      1008.6     6.5     SSW   194  10.5       S   187   9.41    262      433.3
   06/12/2018 15:40      94.1      92.5       15     38.8      0.00      6.07      77.8     0.34      1008.6     5.6     SSW   202  10.8       S   179   9.42    262      450.2
   06/12/2018 15:30      95.0      93.6       15     39.4      0.00      6.07      77.8     0.34      1008.6     5.2     SSW   192   8.8       S   182   9.43    262      463.2
   06/12/2018 15:20      96.4      94.8       16     42.6      0.00      6.07      77.7     0.33      1008.7     3.1       E    98   6.3     NNE    31   9.43    262      471.8
   06/12/2018 15:10      96.3      95.5       16     43.0      0.00      6.07      77.6     0.33      1008.7     2.6      NE    54   5.0      NE    51   9.44    262      483.4
   06/12/2018 15:00      95.7      94.9       17     44.0      0.00      6.07      77.6     0.33      1008.9     3.2      NE    48   5.6       N     0   9.44    262      497.6
   06/12/2018 14:50      95.6      94.0       19     46.0      0.00      6.07      77.5     0.33      1009.0     2.8      NE    36   5.4     NNE    32   9.44    262      511.3
   06/12/2018 14:40      94.2      93.5       20     46.6      0.00      6.07      77.4     0.33      1009.1     2.7     ENE    60   5.1     ENE    70   9.45    262      525.9
   06/12/2018 14:30      94.2      92.5       20     46.9      0.00      6.07      77.3     0.33      1009.2     3.4      NE    46   5.8      NE    40   9.45    262      537.4
   06/12/2018 14:20      93.8      92.5       21     46.9      0.00      6.07      77.3     0.33      1009.3     3.1       E    79   6.0      NE    51   9.45    262      546.5
   06/12/2018 14:10      94.9      93.1       21     48.2      0.00      6.07      77.2     0.33      1009.4     3.2     ENE    67   6.1      NE    45   9.46    262      554.8
   06/12/2018 14:00      94.7      93.6       24     51.5      0.00      6.07      77.2     0.33      1009.5     3.3      NE    40   6.7     NNE    28   9.46    262      560.1
   06/12/2018 13:50      93.8      92.6       25     52.2      0.00      6.07      77.1     0.33      1009.6     2.5      NE    37   5.5     NNE    31   9.46    263      571.9
   06/12/2018 13:40      93.9      92.2       25     51.5      0.00      6.07      77.1     0.33      1009.6     2.4      NE    55   6.1       E    98   9.46    262      578.4
   06/12/2018 13:30      92.7      91.4       25     51.0      0.00      6.07      77.0     0.33      1009.8     2.4      NE    37   5.2     NNE    30   9.47    262      583.7
   06/12/2018 13:20      91.7      90.7       26     51.2      0.00      6.07      77.0     0.33      1009.9     2.3       E    98   4.9     ESE   118   9.47    262      590.0
   06/12/2018 13:10      91.3      90.5       26     50.8      0.00      6.07      76.9     0.33      1010.0     2.3     NNE    18   5.7       E    83   9.47    262      589.8
   06/12/2018 13:00      91.1      89.7       26     50.7      0.00      6.07      76.9     0.33      1010.1     2.5      NE    43   7.8      NW   318   9.47    262      594.7
   06/12/2018 12:50      90.8      89.5       26     50.6      0.00      6.07      76.9     0.33      1010.2     2.9      NE    44   6.7      NE    43   9.47    262      595.6
   06/12/2018 12:40      90.5      88.0       27     50.8      0.00      6.07      76.8     0.33      1010.3     1.9     NNE    20   4.5      NE    47   9.48    262      595.1
   06/12/2018 12:30      89.0      88.4       27     50.4      0.00      6.07      76.8     0.33      1010.4     3.1     NNE    33   6.1       E    95   9.48    262      593.2
   06/12/2018 12:20      88.9      87.3       27     50.0      0.00      6.07      76.8     0.33      1010.5     2.0      NW   323   4.8       N     5   9.48    262      591.5
   06/12/2018 12:10      88.6      87.2       28     50.2      0.00      6.07      76.8     0.33      1010.6     2.1      NE    43   4.8      NE    52   9.48    262      589.5
   06/12/2018 12:00      87.7      87.0       29     51.1      0.00      6.07      76.8     0.33      1010.7     2.2      NE    53   5.4       N    11   9.48    262      583.3
   06/12/2018 11:50      87.2      85.6       30     51.0      0.00      6.07      76.8     0.33      1010.8     1.8       N     9   3.6       N     0   9.48    262      577.6
   06/12/2018 11:40      86.4      85.1       30     51.2      0.00      6.07      76.8     0.33      1010.8     2.4       N     0   6.2     NNW   348   9.48    262      569.9
   06/12/2018 11:30      85.6      83.9       31     50.9      0.00      6.07      76.7     0.33      1010.9     2.5       N   351   6.6       N     2   9.48    262      563.7
   06/12/2018 11:20      84.8      83.9       31     50.4      0.00      6.07      76.8     0.33      1011.0     2.7       N     4   5.5       N   353   9.48    262      556.1
   06/12/2018 11:10      84.7      83.3       31     50.0      0.00      6.07      76.8     0.33      1011.1     2.1       N     3   5.2     NNW   332   9.48    262      545.8
   06/12/2018 11:00      83.7      82.5       32     50.2      0.00      6.07      76.8     0.33      1011.1     2.0       N   358   4.4      NW   316   9.48    263      538.5
   06/12/2018 10:50      82.5      81.5       34     50.5      0.00      6.07      76.8     0.33      1011.2     2.1     ENE    76   5.5     ENE    65   9.48    263      525.6
   06/12/2018 10:40      82.1      80.7       35     51.0      0.00      6.07      76.9     0.33      1011.2     2.1       N   357   5.8     NNW   339   9.48    263      514.1
   06/12/2018 10:30      81.1      80.0       36     50.9      0.00      6.07      76.9     0.33      1011.2     1.8       E    89   4.4     NNE    13   9.48    263      501.1
   06/12/2018 10:20      79.9      78.9       37     50.9      0.00      6.07      76.9     0.33      1011.1     2.3     NNE    19   7.4     NNW   344   9.48    263      486.6
   06/12/2018 10:10      80.0      79.3       36     50.6      0.00      6.07      76.9     0.33      1011.2     2.4      NE    36   5.0      NE    41   9.48    263      471.1
   06/12/2018 10:00      79.5      77.7       37     50.3      0.00      6.07      77.0     0.33      1011.3     2.1     NNE    29   5.5       N   352   9.48    263      454.5
   06/12/2018 09:50      77.9      76.4       40     50.7      0.00      6.07      77.0     0.33      1011.4     2.4     NNE    27   4.5       N   350   9.48    263      436.6
   06/12/2018 09:40      77.2      76.5       40     50.7      0.00      6.07      77.1     0.34      1011.4     2.2     NNE    23   4.6      NE    45   9.48    263      418.2
   06/12/2018 09:30      77.1      75.9       40     50.4      0.00      6.07      77.1     0.34      1011.5     1.6     ENE    74   4.6      NE    50   9.48    263      401.6
   06/12/2018 09:20      76.0      75.0       41     50.0      0.00      6.07      77.2     0.34      1011.5     1.8     NNE    18   4.5     NNE    19   9.49    263      384.1
   06/12/2018 09:10      75.3      74.1       42     49.7      0.00      6.07      77.2     0.34      1011.5     1.6     ENE    67   3.5     ENE    64   9.49    264      368.7
   06/12/2018 09:00      74.3      72.8       44     50.2      0.00      6.07      77.3     0.34      1011.4     1.4     NNE    25   3.2     NNE    17   9.49    264      360.5
   06/12/2018 08:50      72.9      71.0       46     49.8      0.00      6.07      77.3     0.34      1011.3     1.4       N     0   3.6       N   354   9.49    264      365.7
   06/12/2018 08:40      71.1      69.8       48     49.5      0.00      6.07      77.3     0.34      1011.3     1.0     ENE    73   3.5      NE    44   9.49    266       45.4
   06/12/2018 08:30      70.0      68.7       51     50.3      0.00      6.07      77.4     0.34      1011.3     1.3      NE    35   2.8     ENE    76   9.49    266       -6.1
   06/12/2018 08:20      69.0      68.1       53     50.9      0.00      6.07      77.4     0.34      1011.3     1.0       N   358   2.8       N     0   9.49    266      -29.0
   06/12/2018 08:10      68.4      67.8       54     51.0      0.00      6.07      77.5     0.34      1011.3     1.4       N   359   3.0       N     0   9.49    266      -23.5
   06/12/2018 08:00      68.0      67.0       55     50.8      0.00      6.07      77.6     0.34      1011.2     0.7     NNE    27   2.8     NNE    20   9.49    266      -23.0
   06/12/2018 07:50      67.4      66.4       57     51.1      0.00      6.07      77.5     0.34      1011.1     0.9      NE    51   3.1     NNE    20   9.49    266      -22.1
   06/12/2018 07:40      66.6      65.9       58     51.2      0.00      6.07      77.6     0.34      1011.0     0.6     ENE    58   2.3       E    86   9.49    266        5.8
   06/12/2018 07:30      66.1      65.0       60     51.2      0.00      6.07      77.6     0.34      1010.9     1.0      NE    54   2.1     ENE    61   9.49    267       -6.2
   06/12/2018 07:20      65.2      63.8       62     51.2      0.00      6.07      77.6     0.34      1010.7     0.3     ENE    72   1.9     ENE    70   9.49    267      -32.2
   06/12/2018 07:10      64.0      63.0       64     50.9      0.00      6.07      77.7     0.34      1010.6     0.0       N     0   0.0      NE    41   9.49    267      -34.1
   06/12/2018 07:00      63.2      62.2       65     50.9      0.00      6.07      77.8     0.34      1010.5     0.0       N     0   0.0      NE    41   9.49    267      -36.6
   06/12/2018 06:50      62.3      60.8       69     51.4      0.00      6.07      77.8     0.34      1010.3     0.0      NE    41   0.0      NE    41   9.49    267      -38.7
   06/12/2018 06:40      61.0      59.8       71     50.9      0.00      6.07      77.9     0.34      1010.3     0.0       N     0   0.0     SSE   162   9.49    267      -41.5
   06/12/2018 06:30      60.0      59.3       72     50.6      0.00      6.07      77.9     0.34      1010.2     0.0     SSE   162   0.0     SSE   162   9.49    267      -46.4
   06/12/2018 06:20      59.6      58.8       73     50.6      0.00      6.07      77.9     0.34      1010.0     0.0     SSE   162   0.7     SSE   162   9.49    266      -46.3
   06/12/2018 06:10      58.9      58.2       75     50.4      0.00      6.07      78.0     0.34      1010.0     0.0       N     0   0.0     SSE   163   9.49    267      -46.9
   06/12/2018 06:00      58.3      57.8       77     50.7      0.00      6.07      78.0     0.34      1009.9     0.0     SSE   162   0.9     SSE   162   9.49    268      -53.5
   06/12/2018 05:50      58.3      57.5       76     50.3      0.00      6.07      78.0     0.34      1009.8     0.9       S   176   1.5       S   173   9.49    268      -58.3
   06/12/2018 05:40      58.3      57.9       76     50.6      0.00      6.07      78.1     0.34      1009.8     0.7       S   169   1.4      SE   146   9.49    268      -59.7
   06/12/2018 05:30      58.8      58.0       75     50.5      0.00      6.07      78.1     0.34      1009.8     0.7     SSE   167   1.1     SSE   151   9.50    268      -61.2
   06/12/2018 05:20      58.8      58.3       75     50.7      0.00      6.07      78.1     0.34      1009.8     0.3       S   173   1.0       S   173   9.50    268      -61.5
   06/12/2018 05:10      59.3      58.5       73     50.3      0.00      6.07      78.2     0.34      1009.8     0.4       S   173   1.0       S   173   9.50    268      -61.4
   06/12/2018 05:00      59.3      58.8       73     50.3      0.00      6.07      78.2     0.34      1009.7     0.2       S   173   0.9       S   173   9.50    267      -61.3
   06/12/2018 04:50      59.3      59.0       72     50.3      0.00      6.07      78.2     0.34      1009.8     0.2       S   173   0.8       S   173   9.50    267      -61.8
   06/12/2018 04:40      59.4      59.0       72     50.0      0.00      6.07      78.2     0.34      1009.8     0.4     SSE   166   1.1       S   173   9.50    267      -61.5
   06/12/2018 04:30      59.9      59.1       71     50.1      0.00      6.07      78.4     0.34      1009.8     0.3     SSE   164   0.8     SSE   164   9.50    267      -61.4
   06/12/2018 04:20      60.1      59.3       71     50.3      0.00      6.07      78.3     0.34      1009.8     0.2     SSE   164   1.0     SSE   164   9.50    267      -61.4
   06/12/2018 04:10      59.9      59.6       70     50.1      0.00      6.07      78.4     0.34      1009.8     0.2     SSE   164   0.9     SSE   164   9.50    267      -61.9
   06/12/2018 04:00      60.1      59.7       71     50.3      0.00      6.07      78.4     0.34      1009.9     0.2     SSE   164   0.7     SSE   164   9.50    266      -62.2
   06/12/2018 03:50      59.9      59.3       71     50.2      0.00      6.07      78.4     0.34      1009.9     0.2     SSE   164   1.0     SSE   164   9.50    267      -62.3
   06/12/2018 03:40      59.7      59.3       70     49.7      0.00      6.07      78.5     0.34      1009.8     0.4     SSE   163   0.8     SSE   165   9.50    267      -62.9
   06/12/2018 03:30      60.2      59.4       70     50.0      0.00      6.07      78.5     0.34      1009.9     0.6     SSE   168   1.2       S   175   9.51    266      -64.0
   06/12/2018 03:20      60.8      59.8       69     50.0      0.00      6.07      78.5     0.34      1010.0     0.8       S   175   1.3       S   175   9.51    266      -64.3
   06/12/2018 03:10      61.5      60.5       68     50.3      0.00      6.07      78.6     0.34      1010.0     0.6     SSE   162   1.1     SSE   156   9.51    266      -65.0
   06/12/2018 03:00      62.0      61.3       67     50.5      0.00      6.07      78.6     0.34      1010.0     0.4     SSE   157   1.3     SSE   147   9.51    266      -65.3
   06/12/2018 02:50      62.6      61.6       65     50.3      0.00      6.07      78.7     0.34      1010.1     0.6       S   174   1.1       S   178   9.51    266      -65.0
   06/12/2018 02:40      62.6      62.3       64     50.1      0.00      6.07      78.7     0.34      1010.1     1.1     SSW   203   1.4       S   178   9.51    266      -64.4
   06/12/2018 02:30      62.7      62.3       64     50.1      0.00      6.07      78.7     0.34      1010.1     0.2     SSE   150   1.0     SSE   150   9.51    266      -65.4
   06/12/2018 02:20      63.1      62.3       63     49.9      0.00      6.07      78.7     0.34      1010.2     0.7     SSE   163   1.3     SSE   163   9.51    266      -65.3
   06/12/2018 02:10      63.7      62.8       62     50.1      0.00      6.07      78.7     0.34      1010.1     0.1       S   179   0.8       S   183   9.52    266      -65.6
   06/12/2018 02:00      64.2      63.4       62     50.3      0.00      6.07      78.8     0.34      1010.1     0.0     ESE   109   0.1     ESE   109   9.52    266      -66.9
   06/12/2018 01:50      64.3      63.6       62     50.6      0.00      6.07      78.8     0.34      1010.0     0.3     ESE   123   1.4       E    94   9.52    266      -67.9
   06/12/2018 01:40      64.5      63.7       62     50.6      0.00      6.07      78.8     0.34      1010.1     0.8      SE   143   1.9      SE   141   9.52    266      -68.4
   06/12/2018 01:30      64.8      64.1       61     50.6      0.00      6.07      78.8     0.34      1010.1     0.6     SSE   152   1.3       E    92   9.52    266      -68.5
   06/12/2018 01:20      65.3      64.6       60     50.8      0.00      6.07      78.8     0.34      1010.1     0.2      SE   134   1.3      SE   142   9.52    266      -69.2
   06/12/2018 01:10      65.3      64.8       60     50.8      0.00      6.07      78.9     0.34      1010.0     0.0       E    93   0.7       E    90   9.52    266      -69.8
   06/12/2018 01:00      65.5      64.8       60     50.7      0.00      6.07      78.9     0.34      1009.9     0.3     ESE   108   1.4     ENE    59   9.52    266      -68.8
   06/12/2018 00:50      65.9      65.1       59     50.8      0.00      6.07      78.9     0.34      1009.8     0.0     SSE   147   0.4     SSE   147   9.52    266      -68.0
   06/12/2018 00:40      66.5      65.6       57     50.5      0.00      6.07      78.9     0.34      1009.8     0.4      SE   126   1.1     SSE   147   9.53    266      -67.9
   06/12/2018 00:30      66.5      66.2       57     50.6      0.00      6.07      79.0     0.34      1009.9     0.6     ESE   114   1.7       E    96   9.53    266      -69.7
   06/12/2018 00:20      66.6      65.8       57     50.4      0.00      6.07      79.0     0.34      1009.8     0.4      SE   135   2.1       E    88   9.53    266      -68.7
   06/12/2018 00:10      67.1      66.3       56     50.3      0.00      6.07      79.0     0.34      1009.8     0.0       N     0   0.0     SSW   194   9.53    265      -69.0
   06/12/2018 00:00      67.7      66.8       54     50.1      0.00      6.07      79.0     0.34      1009.7     0.2     SSW   194   1.0     SSW   194   9.53    265      -69.3
   06/11/2018 23:50      68.1      67.3       53     49.9      0.00      6.07      79.0     0.34      1009.7     0.0     SSW   194   0.5     SSW   194   9.53    265      -70.1
   06/11/2018 23:40      68.1      67.6       52     49.9      0.00      6.07      79.0     0.34      1009.7     0.0     SSW   194   0.6     SSW   194   9.54    265      -71.4
   06/11/2018 23:30      68.7      67.8       51     49.6      0.00      6.07      79.0     0.34      1009.7     0.0     SSW   194   0.4     SSW   195   9.54    265      -71.5
   06/11/2018 23:20      68.7      68.3       51     49.6      0.00      6.07      79.0     0.34      1009.7     0.0     SSW   194   0.7     SSW   194   9.54    265      -71.2
   06/11/2018 23:10      68.7      68.1       51     49.6      0.00      6.07      79.0     0.34      1009.7     0.3     SSW   194   1.2     SSW   195   9.54    264      -71.5
   06/11/2018 23:00      68.8      68.3       51     49.7      0.00      6.07      79.0     0.34      1009.7     0.4     SSW   194   1.2     SSW   194   9.54    264      -72.3
   06/11/2018 22:50      69.3      68.5       50     49.5      0.00      6.07      79.0     0.34      1009.7     0.2     SSW   194   1.1     SSW   194   9.55    264      -73.0
   06/11/2018 22:40      70.1      69.1       49     49.2      0.00      6.07      79.0     0.34      1009.6     0.6     SSW   195   1.3     SSW   194   9.55    264      -73.4
   06/11/2018 22:30      70.6      69.7       47     49.1      0.00      6.07      79.0     0.34      1009.6     0.6       S   186   1.4     SSW   193   9.55    264      -72.9
   06/11/2018 22:20      71.2      70.3       46     49.2      0.00      6.07      79.0     0.34      1009.6     0.2       S   174   0.9       S   173   9.55    264      -73.6
   06/11/2018 22:10      71.7      70.8       46     49.2      0.00      6.07      79.0     0.34      1009.5     0.1      SE   130   0.8      SE   130   9.56    264      -74.6
   06/11/2018 22:00      72.0      71.2       45     49.2      0.00      6.07      79.0     0.34      1009.4     0.5       S   170   0.8       S   170   9.56    264      -76.3
   06/11/2018 21:50      73.3      71.8       43     48.8      0.00      6.07      79.0     0.34      1009.3     0.6       S   178   1.6     SSW   196   9.56    263      -78.0
   06/11/2018 21:40      74.2      73.0       42     48.8      0.00      6.07      79.0     0.34      1009.2     0.4      SE   142   1.6       E    92   9.56    263      -80.8
   06/11/2018 21:30      74.9      73.9       41     49.0      0.00      6.07      79.0     0.34      1009.1     0.8     ESE   105   2.4     ESE   108   9.57    263      -82.7
   06/11/2018 21:20      75.2      74.5       40     49.0      0.00      6.07      78.9     0.34      1009.0     0.5       E    86   2.4      SE   140   9.57    263      -84.4
   06/11/2018 21:10      75.7      75.0       41     49.7      0.00      6.07      78.9     0.34      1008.9     1.4     ESE   116   2.5     ESE   104   9.57    263      -85.2
   06/11/2018 21:00      76.5      75.2       41     50.1      0.00      6.07      78.8     0.34      1008.7     1.3      SE   138   2.5      SE   141   9.57    263      -85.6
   06/11/2018 20:50      76.9      76.2       39     49.5      0.00      6.07      78.8     0.34      1008.5     0.8      SE   126   2.2     ENE    71   9.57    263      -86.4
   06/11/2018 20:40      78.1      76.6       37     48.9      0.00      6.07      78.8     0.34      1008.4     0.7     SSE   162   1.7      SE   138   9.58    263      -86.8
   06/11/2018 20:30      78.8      77.9       36     49.4      0.00      6.07      78.8     0.34      1008.4     0.6       S   173   2.7       S   191   9.58    263      -89.2
   06/11/2018 20:20      80.2      78.4       35     49.7      0.00      6.07      78.8     0.34      1008.3     1.1     SSE   161   2.9     SSW   203   9.58    263      -90.2
   06/11/2018 20:10      81.8      80.0       34     49.9      0.00      6.07      78.8     0.34      1008.3     0.7     ESE   102   2.3       E    90   9.59    263      -90.6
   06/11/2018 20:00      83.6      81.5       30     48.0      0.00      6.07      78.7     0.34      1008.1     0.4       E    80   2.5     ESE   116   9.59    263      -88.8
   06/11/2018 19:50      85.3      83.3       26     45.3      0.00      6.07      78.7     0.34      1008.0     1.0      NE    51   2.6      NE    53   9.60    262      -86.3
   06/11/2018 19:40      86.4      85.0       22     42.2      0.00      6.07      78.6     0.34      1007.9     1.4     NNE    13   3.1     NNE    26   9.60    262      -81.6
   06/11/2018 19:30      87.5      86.0       23     44.6      0.00      6.07      78.6     0.34      1007.8     2.5     NNW   344   5.0      NW   325   9.60    262      -60.1
   06/11/2018 19:20      87.8      87.2       24     46.2      0.00      6.07      78.5     0.34      1007.7     2.1      NW   310   3.8      NW   316   9.61    262      -45.3
   06/11/2018 19:10      88.4      87.5       23     46.1      0.00      6.07      78.5     0.34      1007.7     2.5      NW   307   5.9       N   352   9.61    262      -25.4
   06/11/2018 19:00      88.7      88.1       23     46.1      0.00      6.07      78.5     0.34      1007.6     2.6      NW   313   5.3       W   278   9.62    262       -4.3
   06/11/2018 18:50      89.1      88.4       23     45.9      0.00      6.07      78.4     0.34      1007.6     3.2      NW   324   5.7     WNW   304   9.62    262       18.1
   06/11/2018 18:40      90.1      89.0       22     46.0      0.00      6.07      78.4     0.34      1007.5     2.7      NW   312   6.3     WNW   302   9.63    262       41.4
   06/11/2018 18:30      90.2      89.8       22     46.2      0.00      6.07      78.3     0.34      1007.5     2.0     WNW   288   5.3       W   279   9.63    262       64.8
   06/11/2018 18:20      90.2      89.6       22     46.4      0.00      6.07      78.3     0.34      1007.5     2.7      NW   315   5.7       W   280   9.64    262       88.4
   06/11/2018 18:10      90.7      89.9       22     46.6      0.00      6.07      78.2     0.34      1007.5     2.9     WNW   291   6.7       W   265   9.64    262      112.8
   06/11/2018 18:00      90.6      90.0       22     46.8      0.00      6.07      78.1     0.34      1007.5     3.1     WNW   301   6.4     NNE    29   9.64    262      138.2
   06/11/2018 17:50      91.8      90.3       22     47.0      0.00      6.07      78.1     0.34      1007.5     3.3     WNW   286   8.1      NW   317   9.65    262      161.7
   06/11/2018 17:40      91.7      90.8       22     47.1      0.00      6.07      78.0     0.34      1007.5     3.9     WNW   290   7.6      SW   236   9.66    262      187.5
   06/11/2018 17:30      93.0      91.3       22     47.7      0.00      6.07      78.0     0.34      1007.5     3.9       W   266   7.6     WSW   244   9.66    262      208.3
   06/11/2018 17:20      93.3      91.5       22     47.5      0.00      6.07      77.9     0.34      1007.6     3.1      NW   307   8.2      NW   314   9.67    262      230.1
   06/11/2018 17:10      94.3      93.0       20     46.5      0.00      6.07      77.9     0.34      1007.7     3.3      NW   315   7.8     WNW   296   9.67    261      250.0
   06/11/2018 17:00      94.4      93.3       16     40.3      0.00      6.07      77.8     0.34      1007.6     3.0     NNW   340   6.0       N     7   9.68    261      269.6
   06/11/2018 16:50      93.8      92.7       16     40.1      0.00      6.07      77.7     0.34      1007.6     3.3      NE    40   5.9       E    84   9.68    261      296.1
   06/11/2018 16:40      93.9      92.9       15     39.1      0.00      6.07      77.6     0.34      1007.6     3.4      NE    48   6.3      NE    54   9.69    261      315.9
   06/11/2018 16:30      95.4      93.5       14     38.2      0.00      6.07      77.6     0.34      1007.7     3.2       N    10   5.2     NNW   339   9.69    261      331.9
   06/11/2018 16:20      95.3      94.9       14     39.2      0.00      6.07      77.5     0.34      1007.7     2.2       N     5   5.6     NNW   333   9.70    261      353.3
   06/11/2018 16:10      96.0      95.0       14     39.5      0.00      6.07      77.4     0.34      1007.7     2.5       N     2   4.9      NW   316   9.70    261      375.1
   06/11/2018 16:00      95.0      93.9       15     39.4      0.00      6.07      77.3     0.34      1007.7     2.8      NE    40   7.0      NE    37   9.70    262      399.6
   06/11/2018 15:50      94.6      92.4       17     41.3      0.00      6.07      77.3     0.34      1007.8     3.5       E    99   7.5      SE   137   9.71    262      422.9
   06/11/2018 15:40      94.3      93.8       17     42.2      0.00      6.07      77.2     0.34      1007.9     2.9     ENE    66   5.7     ENE    70   9.71    262      439.2
   06/11/2018 15:30      93.9      92.9       17     42.1      0.00      6.07      77.1     0.34      1008.1     2.8     ENE    72   5.9      NE    52   9.71    262      458.1
   06/11/2018 15:20      94.2      93.0       16     41.1      0.00      6.07      77.1     0.33      1008.2     2.6       E    98   5.2     ESE   107   9.72    262      472.6
   06/11/2018 15:10      94.9      93.5       16     41.8      0.00      6.07      77.0     0.34      1008.2     2.8     ENE    65   6.0     SSE   149   9.72    261      485.4
   06/11/2018 15:00      94.4      93.6       17     42.7      0.00      6.07      76.9     0.33      1008.3     2.7     NNE    28   5.9     NNE    19   9.73    262      498.7
   06/11/2018 14:50      94.1      93.0       17     42.8      0.00      6.07      76.8     0.33      1008.3     2.5     ENE    59   6.5     ENE    67   9.73    262      511.7
   06/11/2018 14:40      93.8      92.5       18     43.5      0.00      6.07      76.7     0.33      1008.4     2.9      NE    53   6.1      NE    35   9.73    262      526.2
   06/11/2018 14:30      93.5      90.8       19     44.2      0.00      6.07      76.7     0.33      1008.5     2.7     NNE    32   4.8      SE   132   9.74    262      537.7
   06/11/2018 14:20      92.5      90.8       19     43.9      0.00      6.07      76.6     0.33      1008.6     2.9     ESE   117   7.8      SE   139   9.74    262      549.4
   06/11/2018 14:10      92.6      91.1       19     43.5      0.00      6.07      76.5     0.33      1008.7     2.4     ENE    67   6.2       E    90   9.74    262      557.1
   06/11/2018 14:00      92.6      91.4       19     44.0      0.00      6.07      76.5     0.33      1008.8     2.5     ENE    61   4.3      SE   125   9.74    262      563.8
   06/11/2018 13:50      92.3      91.1       20     44.4      0.00      6.07      76.4     0.33      1009.0     2.5      NE    37   5.2      NE    44   9.75    262      569.1
   06/11/2018 13:40      91.4      90.7       20     44.6      0.00      6.07      76.4     0.33      1009.1     2.8      NE    44   5.3      NE    37   9.75    262      576.4
   06/11/2018 13:30      90.9      90.0       21     45.0      0.00      6.07      76.3     0.33      1009.1     2.9     NNE    27   7.2      NE    37   9.75    262      582.1
   06/11/2018 13:20      90.5      89.7       22     46.1      0.00      6.07      76.3     0.33      1009.3     2.9      NE    34   5.8     ENE    60   9.75    262      585.1
   06/11/2018 13:10      91.1      89.5       23     47.3      0.00      6.07      76.2     0.33      1009.4     3.1      NE    37   6.0      NE    50   9.75    262      589.6
   06/11/2018 13:00      90.9      88.5       24     48.7      0.00      6.07      76.2     0.33      1009.4     2.3      NE    35   4.7     NNW   330   9.76    262      593.1
   06/11/2018 12:50      89.2      88.1       26     49.3      0.00      6.07      76.1     0.33      1009.5     2.3      SE   135   5.3     SSE   162   9.76    262      596.0
   06/11/2018 12:40      90.2      88.0       27     49.9      0.00      6.07      76.1     0.33      1009.5     2.6     ENE    75   5.6     ENE    60   9.76    262      594.8
   06/11/2018 12:30      90.1      88.3       25     49.2      0.00      6.07      76.1     0.33      1009.6     2.1     NNE    11   5.7     NNE    18   9.76    262      589.3
   06/11/2018 12:20      88.4      87.3       26     48.8      0.00      6.07      76.1     0.33      1009.6     2.7       N     9   4.7     NNW   340   9.76    262      587.7
   06/11/2018 12:10      87.8      86.2       28     49.7      0.00      6.07      76.1     0.33      1009.6     2.0      NE    55   4.1      NE    47   9.77    262      585.8
   06/11/2018 12:00      87.3      86.1       29     50.8      0.00      6.07      76.1     0.33      1009.7     3.1      NE    36   5.7     NNE    18   9.77    262      577.8
   06/11/2018 11:50      86.7      85.8       30     50.9      0.00      6.07      76.1     0.33      1009.8     2.3       N     4   5.1     NNE    28   9.77    262      571.2
   06/11/2018 11:40      86.2      85.4       26     46.5      0.00      6.07      76.1     0.33      1009.9     2.3     NNE    19   4.3     WNW   296   9.77    262      566.4
   06/11/2018 11:30      86.2      85.0       23     43.9      0.00      6.07      76.1     0.33      1009.9     3.5     NNE    20   7.0       N     0   9.77    262      560.3
   06/11/2018 11:20      85.5      84.5       23     43.1      0.00      6.07      76.1     0.33      1010.0     3.1     NNE    16   5.9      NE    38   9.77    262      552.0
   06/11/2018 11:10      85.3      83.5       23     42.1      0.00      6.07      76.1     0.33      1010.1     1.7     ESE   101   5.3     SSE   149   9.77    262      545.3
   06/11/2018 11:00      85.3      83.4       23     42.9      0.00      6.07      76.1     0.33      1010.2     1.6      SE   143   4.6       E    97   9.77    261      535.1
   06/11/2018 10:50      83.9      82.8       23     41.3      0.00      6.07      76.2     0.33      1010.2     2.2     NNE    29   5.5      NE    38   9.77    262      523.8
   06/11/2018 10:40      83.0      82.4       23     41.4      0.00      6.07      76.2     0.33      1010.3     2.5     ENE    65   4.9     ESE   104   9.77    262      512.8
   06/11/2018 10:30      83.1      82.1       25     42.8      0.00      6.07      76.2     0.33      1010.3     1.9     ENE    61   4.3      NE    52   9.77    262      499.7
   06/11/2018 10:20      82.2      80.4       26     43.7      0.00      6.07      76.2     0.33      1010.3     2.0      NE    37   3.7       N     5   9.77    262      485.2
   06/11/2018 10:10      80.9      80.1       28     44.0      0.00      6.07      76.3     0.33      1010.4     2.2     NNE    31   4.8     ENE    61   9.77    262      468.6
   06/11/2018 10:00      80.6      79.2       27     43.6      0.00      6.07      76.3     0.33      1010.5     1.1      NE    41   3.2      NE    40   9.77    262      453.5
   06/11/2018 09:50      79.7      78.3       30     45.0      0.00      6.07      76.4     0.33      1010.5     1.6       E    83   3.4     ENE    61   9.77    262      438.6
   06/11/2018 09:40      78.3      77.4       32     45.3      0.00      6.07      76.4     0.34      1010.6     1.7     NNE    13   3.3      NE    35   9.77    262      419.6
   06/11/2018 09:30      78.2      77.0       32     45.9      0.00      6.07      76.5     0.34      1010.6     1.3      NE    45   3.2     ENE    70   9.77    263      403.4
   06/11/2018 09:20      77.0      75.3       35     46.2      0.00      6.07      76.5     0.34      1010.6     0.9     NNW   343   2.7      NW   316   9.77    263      386.3
   06/11/2018 09:10      75.9      74.6       36     46.8      0.00      6.07      76.5     0.34      1010.6     1.4      NE    47   3.8      NE    50   9.77    263      370.7
   06/11/2018 09:00      74.7      72.8       37     46.0      0.00      6.07      76.6     0.34      1010.6     1.0       N     0   2.6     NNE    15   9.15    263      361.5
   06/11/2018 08:50      73.0      71.1       40     46.6      0.00      6.07      76.6     0.34      1010.6     1.5      NE    52   2.5     NNE    30   9.15    264      367.2
   06/11/2018 08:40      71.0      69.7       44     47.5      0.00      6.07      76.7     0.34      1010.7     0.8     NNE    25   2.5       N     5   9.15    266       42.1
   06/11/2018 08:30      69.9      68.6       47     48.3      0.00      6.07      76.7     0.34      1010.8     1.1      NE    34   2.5       N   350   9.15    266      -11.2
   06/11/2018 08:20      68.9      67.8       48     48.1      0.00      6.07      76.8     0.34      1010.8     0.9       N   354   3.0      NW   317   9.15    266      -34.9
   06/11/2018 08:10      68.0      66.9       50     48.0      0.00      6.07      76.8     0.34      1010.8     0.6     NNW   330   3.3      NW   311   9.15    266      -28.5
   06/11/2018 08:00      67.0      66.3       51     47.7      0.00      6.07      76.8     0.34      1010.8     0.7     NNW   333   1.6     NNW   332   9.15    266      -25.4
   06/11/2018 07:50      66.4      65.7       52     47.9      0.00      6.07      76.9     0.34      1010.7     0.7     NNW   327   2.3     NNE    13   9.15    266      -23.5
   06/11/2018 07:40      65.9      65.0       52     47.6      0.00      6.07      76.9     0.34      1010.8     0.7     WNW   288   2.5     WNW   288   9.15    266       -2.3
   06/11/2018 07:30      65.3      64.4       54     47.6      0.00      6.07      77.0     0.34      1010.7     0.5     NNW   336   2.5       N   353   9.15    266       -5.0
   06/11/2018 07:20      64.5      63.4       55     47.4      0.00      6.07      77.0     0.34      1010.7     0.0       E    94   0.9       E    88   9.15    266      -35.9
   06/11/2018 07:10      63.5      62.6       56     47.0      0.00      6.07      77.1     0.34      1010.7     0.0       E    84   1.0       E    84   9.15    266      -37.2
   06/11/2018 07:00      62.8      61.8       57     47.0      0.00      6.07      77.1     0.34      1010.6     0.0      SE   131   0.7      SE   132   9.15    266      -38.9
   06/11/2018 06:50      62.0      60.3       60     47.1      0.00      6.07      77.2     0.34      1010.6     0.0       N     0   0.0      SE   132   9.15    266      -40.3
   06/11/2018 06:40      60.4      58.9       63     47.2      0.00      6.07      77.2     0.34      1010.5     0.0       N     0   0.0      SE   132   9.15    266      -41.9
   06/11/2018 06:30      59.1      57.9       65     46.8      0.00      6.07      77.2     0.34      1010.5     0.1      SE   132   0.8      SE   132   9.15    266      -46.9
   06/11/2018 06:20      58.1      57.3       67     46.5      0.00      6.07      77.3     0.34      1010.5     0.8      SE   139   1.7      SE   140   9.15    266      -47.2
   06/11/2018 06:10      57.4      56.9       68     46.5      0.00      6.07      77.3     0.34      1010.4     0.6      SE   136   1.7      SE   137   9.15    266      -47.5
   06/11/2018 06:00      57.3      56.7       67     46.0      0.00      6.07      77.4     0.34      1010.4     1.0       S   188   2.4     SSW   195   9.15    267      -52.7
   06/11/2018 05:50      57.4      57.0       65     45.6      0.00      6.07      77.4     0.34      1010.4     0.1     SSW   210   0.7     SSW   210   9.15    267      -55.6
   06/11/2018 05:40      57.4      56.8       66     45.6      0.00      6.07      77.4     0.34      1010.3     0.0     SSW   210   1.1     SSW   210   9.15    267      -58.1
   06/11/2018 05:30      57.0      56.3       67     45.9      0.00      6.07      77.5     0.34      1010.3     0.8     SSW   199   1.9     SSW   209   9.15    266      -58.9
   06/11/2018 05:20      56.9      56.6       67     46.0      0.00      6.07      77.5     0.34      1010.3     0.2     SSW   197   1.2     SSW   197   9.15    267      -60.3
   06/11/2018 05:10      57.2      56.6       67     45.8      0.00      6.07      77.5     0.34      1010.2     0.8       S   184   1.7     SSW   191   9.15    266      -60.4
   06/11/2018 05:00      57.8      56.9       65     45.5      0.00      6.07      77.6     0.34      1010.2     0.5       S   171   1.3     SSE   168   9.15    266      -61.0
   06/11/2018 04:50      57.8      57.4       64     45.4      0.00      6.07      77.6     0.34      1010.1     0.2     SSW   212   1.0     SSW   214   9.15    266      -60.3
   06/11/2018 04:40      57.9      57.4       64     45.7      0.00      6.07      77.7     0.34      1010.2     0.4       S   170   1.0       S   170   9.16    266      -61.2
   06/11/2018 04:30      58.2      57.6       64     45.7      0.00      6.07      77.7     0.34      1010.1     0.1       S   170   0.7       S   170   9.16    266      -61.0
   06/11/2018 04:20      58.6      57.9       64     45.9      0.00      6.07      77.8     0.34      1010.1     0.0       N     0   0.0       S   170   9.16    266      -61.4
   06/11/2018 04:10      58.8      58.3       63     46.0      0.00      6.07      77.8     0.34      1010.0     0.0       S   170   0.7       S   169   9.16    266      -62.1
   06/11/2018 04:00      59.0      58.3       63     45.8      0.00      6.07      77.8     0.34      1010.0     0.2       S   169   0.9       S   169   9.16    266      -63.0
   06/11/2018 03:50      58.9      58.6       62     45.7      0.00      6.07      77.8     0.34      1010.0     0.4       S   170   0.9       S   170   9.16    266      -62.6
   06/11/2018 03:40      59.4      58.5       61     45.7      0.00      6.07      77.9     0.34      1010.1     0.3       S   170   0.9       S   170   9.16    266      -62.4
   06/11/2018 03:30      59.3      58.5       63     46.3      0.00      6.07      77.9     0.34      1010.2     0.0       S   169   0.6       S   170   9.16    266      -62.7
   06/11/2018 03:20      59.7      58.6       62     46.3      0.00      6.07      77.9     0.34      1010.2     0.3     SSE   163   1.2      SE   145   9.16    266      -64.3
   06/11/2018 03:10      59.7      59.3       62     46.5      0.00      6.07      78.0     0.34      1010.2     0.9       S   172   1.9     SSW   192   9.16    266      -64.1
   06/11/2018 03:00      60.2      59.4       62     46.9      0.00      6.07      78.0     0.34      1010.3     0.7     SSE   151   1.8     SSE   147   9.16    266      -64.8
   06/11/2018 02:50      60.2      59.8       62     47.0      0.00      6.07      78.0     0.34      1010.3     0.8       S   182   1.4     SSW   200   9.16    266      -64.6
   06/11/2018 02:40      60.2      59.6       63     47.5      0.00      6.07      78.0     0.34      1010.3     0.6       S   171   1.6       S   171   9.17    266      -65.6
   06/11/2018 02:30      60.5      59.6       64     47.6      0.00      6.07      78.1     0.34      1010.3     0.7     SSE   162   1.2       S   169   9.17    266      -66.4
   06/11/2018 02:20      61.2      60.3       63     48.0      0.00      6.07      78.1     0.34      1010.3     0.3     SSE   154   0.9       S   169   9.17    266      -66.4
   06/11/2018 02:10      61.3      60.9       62     48.1      0.00      6.07      78.2     0.34      1010.3     0.4       S   178   1.8     SSW   210   9.17    266      -66.5
   06/11/2018 02:00      61.6      61.0       62     48.3      0.00      6.07      78.2     0.34      1010.4     0.4       S   189   1.4     SSW   199   9.17    266      -66.5
   06/11/2018 01:50      62.1      61.4       62     48.6      0.00      6.07      78.3     0.34      1010.4     0.0       N     0   0.0       S   185   9.17    266      -67.7
   06/11/2018 01:40      62.6      61.7       61     48.4      0.00      6.07      78.2     0.34      1010.3     0.4     SSE   166   1.6       S   182   9.17    266      -69.1
   06/11/2018 01:30      62.5      61.9       60     48.3      0.00      6.07      78.3     0.34      1010.3     0.6       S   172   1.8      SE   145   9.17    266      -69.9
   06/11/2018 01:20      62.6      62.1       61     48.7      0.00      6.07      78.3     0.34      1010.4     0.7     SSE   155   1.7     SSE   147   9.18    266      -71.2
   06/11/2018 01:10      62.6      62.3       62     49.1      0.00      6.07      78.3     0.34      1010.5     1.0      SE   146   2.4      SE   140   9.18    266      -71.1
   06/11/2018 01:00      63.2      62.4       61     49.2      0.00      6.07      78.3     0.34      1010.6     1.5       S   188   3.1     SSW   213   9.18    266      -69.1
   06/11/2018 00:50      63.5      63.0       61     49.7      0.00      6.07      78.3     0.34      1010.7     1.1      SW   218   3.0      SW   230   9.18    266      -69.9
   06/11/2018 00:40      63.8      62.8       62     49.8      0.00      6.07      78.3     0.34      1010.7     1.1     SSE   148   2.1      SW   224   9.18    266      -70.7
   06/11/2018 00:30      64.1      63.5       61     49.9      0.00      6.07      78.4     0.34      1010.6     1.1     SSW   208   2.5     SSW   204   9.18    266      -69.6
   06/11/2018 00:20      64.1      63.7       60     49.9      0.00      6.07      78.4     0.34      1010.6     0.0      SW   214   0.7      SW   214   9.18    266      -72.1
   06/11/2018 00:10      64.6      63.6       59     49.2      0.00      6.07      78.4     0.34      1010.6     1.3     SSW   201   3.0     SSW   199   9.18    266      -71.5
   06/11/2018 00:00      65.2      64.1       58     49.3      0.00      6.07      78.4     0.34      1010.6     0.8     SSE   157   1.7      SE   142   9.18    266      -71.8
   06/10/2018 23:50      65.1      64.4       57     49.2      0.00      6.07      78.5     0.34      1010.6     1.4     SSW   206   2.8      SW   215   9.18    266      -71.1
   06/10/2018 23:40      65.7      64.6       56     49.0      0.00      6.07      78.5     0.34      1010.5     0.7       S   179   1.3     SSE   151   9.19    266      -71.3
   06/10/2018 23:30      65.8      65.4       55     49.0      0.00      6.07      78.5     0.34      1010.6     0.2     SSW   194   1.4      SW   234   9.19    266      -70.9
   06/10/2018 23:20      66.3      65.5       56     49.6      0.00      6.07      78.4     0.34      1010.6     0.2     SSE   166   0.8     SSE   166   9.19    266      -72.0
   06/10/2018 23:10      66.7      66.1       55     49.6      0.00      6.07      78.5     0.34      1010.6     0.7     SSW   191   2.1     SSW   199   9.19    266      -73.1
   06/10/2018 23:00      66.6      66.1       54     49.1      0.00      6.07      78.5     0.34      1010.7     1.3     SSW   195   3.3     SSW   203   9.19    266      -74.0
   06/10/2018 22:50      67.1      66.2       52     48.6      0.00      6.07      78.5     0.34      1010.7     0.9     SSE   157   1.6      SW   214   9.19    265      -75.1
   06/10/2018 22:40      67.9      66.8       51     48.6      0.00      6.07      78.5     0.34      1010.7     1.6     SSW   210   2.7      SW   218   9.20    265      -73.6
   06/10/2018 22:30      69.0      67.6       50     48.9      0.00      6.07      78.5     0.34      1010.7     0.0      NE    48   0.7      NE    48   9.20    265      -74.7
   06/10/2018 22:20      70.0      68.7       48     48.9      0.00      6.07      78.5     0.34      1010.6     0.0      NE    48   0.5      NE    48   9.20    265      -76.1
   06/10/2018 22:10      69.9      69.7       48     49.1      0.00      6.07      78.5     0.34      1010.6     0.1      NE    49   1.2      NE    54   9.20    264      -77.5
   06/10/2018 22:00      70.6      69.7       48     49.2      0.00      6.07      78.5     0.34      1010.5     0.7       E    91   1.4     ESE   106   9.21    265      -77.5
   06/10/2018 21:50      70.8      70.2       47     49.3      0.00      6.07      78.5     0.34      1010.4     0.9       E   100   2.8      NE    52   9.21    264      -79.7
   06/10/2018 21:40      71.7      70.6       46     49.2      0.00      6.07      78.5     0.34      1010.3     0.4     ENE    76   2.0      NE    49   9.21    264      -80.0
   06/10/2018 21:30      72.1      71.3       45     49.1      0.00      6.07      78.5     0.34      1010.2     0.1     ENE    60   1.3      NE    54   9.21    264      -81.4
   06/10/2018 21:20      72.5      71.8       44     49.2      0.00      6.07      78.5     0.34      1010.1     0.4     ENE    58   1.7      NE    49   9.21    264      -82.8
   06/10/2018 21:10      72.9      72.3       44     49.3      0.00      6.07      78.5     0.34      1010.1     0.9       E    94   2.0       E   101   9.22    264      -83.1
   06/10/2018 21:00      73.5      72.6       43     49.3      0.00      6.07      78.5     0.34      1010.0     1.5       E    91   3.8      NE    41   9.22    264      -83.4
   06/10/2018 20:50      74.2      73.2       43     49.5      0.00      6.07      78.4     0.34      1009.8     1.8       E    89   3.7     ESE   101   9.22    264      -83.5
   06/10/2018 20:40      75.0      73.7       43     50.3      0.00      6.07      78.4     0.34      1009.7     1.8       E    99   4.5     ESE   117   9.22    264      -84.0
   06/10/2018 20:30      76.2      74.7       42     50.5      0.00      6.07      78.4     0.34      1009.7     1.7     ESE   105   3.0      SE   124   9.23    264      -84.8
   06/10/2018 20:20      77.3      75.8       41     50.7      0.00      6.07      78.3     0.34      1009.7     1.0     ENE    75   3.8     ESE   122   9.23    264      -85.8
   06/10/2018 20:10      78.0      77.0       40     51.0      0.00      6.07      78.3     0.34      1009.7     1.9     NNE    34   3.3     NNE    24   9.23    263      -84.9
   06/10/2018 20:00      78.4      77.7       39     51.0      0.00      6.07      78.3     0.34      1009.6     1.0      NE    56   2.6     NNE    26   9.24    263      -82.0
   06/10/2018 19:50      79.3      78.2       38     50.8      0.00      6.07      78.3     0.34      1009.5     1.4      NE    55   3.5     ENE    62   9.24    263      -78.9
   06/10/2018 19:40      80.3      78.9       37     50.7      0.00      6.07      78.2     0.34      1009.5     1.9      NE    40   4.2      NE    48   9.24    263      -74.3
   06/10/2018 19:30      81.1      79.8       36     50.7      0.00      6.07      78.2     0.34      1009.5     2.3      NE    45   4.3     ENE    66   9.24    263      -54.5
   06/10/2018 19:20      82.0      80.7       35     50.8      0.00      6.07      78.2     0.34      1009.4     2.6      NE    55   4.1      NE    52   9.25    263      -40.0
   06/10/2018 19:10      82.4      81.7       34     50.7      0.00      6.07      78.1     0.34      1009.3     2.2     ENE    65   4.3     ENE    60   9.25    263      -22.4
   06/10/2018 19:00      83.1      82.1       33     50.4      0.00      6.07      78.1     0.34      1009.3     3.0      NE    51   4.8      NE    53   9.26    263       -1.3
   06/10/2018 18:50      84.9      83.0       31     50.4      0.00      6.07      78.0     0.34      1009.2     2.9     ENE    62   6.2       E    85   9.26    263       21.6
   06/10/2018 18:40      85.2      84.5       30     50.1      0.00      6.07      78.0     0.34      1009.2     2.2      NE    43   4.2       E    82   9.26    263       44.6
   06/10/2018 18:30      85.7      84.8       29     49.7      0.00      6.07      78.0     0.34      1009.1     2.3     NNE    23   4.6      NW   318   9.27    263       68.1
   06/10/2018 18:20      86.4      85.5       29     49.6      0.00      6.07      77.9     0.34      1009.2     2.1     ENE    58   4.1     NNE    16   9.27    263       91.5
   06/10/2018 18:10      86.4      85.5       27     48.0      0.00      6.07      77.8     0.34      1009.2     1.7     SSW   198   4.0       E    98   9.28    263      116.3
   06/10/2018 18:00      86.3      85.8       26     47.3      0.00      6.07      77.8     0.34      1009.3     2.3     WNW   281   5.7      SW   236   9.28    262      142.0
   06/10/2018 17:50      86.1      84.5       28     48.3      0.00      6.07      77.7     0.34      1009.3     2.4     WNW   290   4.5     WNW   294   9.29    263      168.5
   06/10/2018 17:40      85.8      84.3       31     51.1      0.00      6.07      77.7     0.34      1009.4     3.1     WSW   237   7.0     SSW   200   9.29    263      195.0
   06/10/2018 17:30      86.0      83.9       31     51.0      0.00      6.07      77.6     0.34      1009.4     4.0     WSW   240   7.0     WSW   257   9.29    263      221.0
   06/10/2018 17:20      85.8      84.7       31     51.1      0.00      6.07      77.5     0.34      1009.4     3.8     WSW   245   7.1     SSW   199   9.30    263      244.1
   06/10/2018 17:10      85.5      84.4       31     51.1      0.00      6.07      77.5     0.34      1009.4     2.8     SSW   200   6.5      SW   223   9.30    263      269.4
   06/10/2018 17:00      85.7      84.5       31     51.5      0.00      6.07      77.4     0.34      1009.4     3.4       S   179   7.2       S   190   9.31    263      291.7
   06/10/2018 16:50      85.3      84.2       32     51.4      0.00      6.07      77.3     0.34      1009.4     3.0     SSE   147   6.3      SE   128   9.31    263      314.4
   06/10/2018 16:40      85.6      84.1       31     51.2      0.00      6.07      77.3     0.34      1009.5     3.2       S   188   8.2       S   183   9.31    263      337.3
   06/10/2018 16:30      85.0      84.4       32     51.5      0.00      6.07      77.2     0.34      1009.6     3.9      SW   234   8.4     WSW   245   9.32    263      361.4
   06/10/2018 16:20      84.8      83.4       33     51.9      0.00      6.07      77.1     0.34      1009.7     3.5       S   183   9.4     SSW   202   9.32    263      384.2
   06/10/2018 16:10      85.0      83.5       33     51.9      0.00      6.07      77.0     0.34      1009.9     4.6     SSE   151   8.4     SSE   157   9.33    263      404.8
   06/10/2018 16:00      84.9      82.9       34     52.1      0.00      6.07      77.0     0.34      1010.0     4.3     SSE   162   6.7       S   171   9.33    263      423.9
   06/10/2018 15:50      83.9      83.4       33     51.9      0.00      6.07      76.9     0.34      1010.0     4.8       S   174   8.4       S   173   9.34    263      444.3
   06/10/2018 15:40      84.8      83.4       33     52.1      0.00      6.07      76.8     0.34      1010.1     4.9     SSE   161  10.1      SE   135   9.34    263      462.3
   06/10/2018 15:30      83.9      82.4       35     52.3      0.00      6.07      76.7     0.34      1010.2     4.6       S   172   9.3       S   179   9.35    263      480.0
   06/10/2018 15:20      84.1      82.4       34     52.2      0.00      6.07      76.6     0.34      1010.2     5.1     SSE   166  10.0     SSE   167   9.35    263      494.6
   06/10/2018 15:10      84.1      83.2       34     52.0      0.00      6.07      76.5     0.34      1010.2     5.3     SSE   164   9.2     SSE   150   9.35    263      509.0
   06/10/2018 15:00      86.3      83.7       32     51.9      0.00      6.07      76.5     0.34      1010.2     5.3       S   172   9.1     SSE   153   9.36    263      522.3
   06/10/2018 14:50      86.9      85.3       30     51.2      0.00      6.07      76.4     0.34      1010.1     7.2     SSW   197  18.9     WNW   283   9.37    263      535.9
   06/10/2018 14:40      87.0      85.9       29     50.5      0.00      6.07      76.3     0.33      1010.2     3.6     NNW   327   9.9     WNW   283   9.37    263      539.2
   06/10/2018 14:30      87.0      85.8       29     50.3      0.00      6.07      76.3     0.33      1010.3     5.6     WNW   287   9.5       W   263   9.37    263      552.8
   06/10/2018 14:20      85.9      84.0       29     49.6      0.00      6.07      76.2     0.33      1010.5     3.0     WSW   245   8.5     SSW   192   9.38    263      564.6
   06/10/2018 14:10      86.5      84.5       27     47.9      0.00      6.07      76.1     0.33      1010.5     5.6     SSW   208   8.7       W   267   9.38    263      572.0
   06/10/2018 14:00      86.5      84.3       28     48.5      0.00      6.07      76.1     0.33      1010.7     2.8     WNW   291   5.8     WNW   296   9.38    262      580.9
   06/10/2018 13:50      84.8      84.0       28     48.1      0.00      6.07      76.0     0.33      1010.9     4.0       S   181   8.5      SE   145   9.39    263      589.0
   06/10/2018 13:40      84.2      83.0       29     48.1      0.00      6.07      75.9     0.33      1010.9     4.4       S   176   9.1       S   186   9.39    262      597.9
   06/10/2018 13:30      84.4      83.2       31     49.7      0.00      6.07      75.9     0.33      1010.9     4.8       S   186  10.1       S   178   9.39    262      603.9
   06/10/2018 13:20      84.7      83.4       30     49.5      0.00      6.07      75.8     0.33      1011.0     5.6      SW   216   9.2     SSW   204   9.40    262      607.9
   06/10/2018 13:10      84.3      83.1       30     48.7      0.00      6.07      75.8     0.33      1011.0     5.2     SSW   204  10.5      SW   224   9.40    263      611.7
   06/10/2018 13:00      84.0      82.1       31     49.4      0.00      6.07      75.8     0.33      1011.1     4.6     SSE   161  11.0     SSW   199   9.40    262      612.8
   06/10/2018 12:50      86.4      82.3       31     50.2      0.00      6.07      75.7     0.33      1011.2     5.7      SE   133   9.7     SSE   166   9.40    262      608.1
   06/10/2018 12:40      86.9      85.7       23     44.5      0.00      6.07      75.7     0.33      1011.3     3.4     ENE    68   8.2     ESE   114   9.41    261      604.5
   06/10/2018 12:30      87.1      86.0       16     35.1      0.00      6.07      75.7     0.33      1011.3     2.3     NNW   339   5.4     NNE    27   9.41    261      597.9
   06/10/2018 12:20      86.1      84.5       16     34.2      0.00      6.07      75.7     0.33      1011.5     3.0       N   356   6.0     NNW   332   9.41    261      594.9
   06/10/2018 12:10      85.0      84.0       17     35.1      0.00      6.07      75.6     0.33      1011.6     4.0       W   275   6.8      NW   321   9.41    261      595.6
   06/10/2018 12:00      85.0      84.0       17     35.2      0.00      6.07      75.6     0.33      1011.6     2.5     SSW   213   5.4     SSW   209   9.41    261      589.2
   06/10/2018 11:50      85.9      84.7       17     36.3      0.00      6.07      75.6     0.33      1011.8     2.4     WSW   256   5.1     SSW   197   9.42    261      579.8
   06/10/2018 11:40      86.1      84.1       18     37.2      0.00      6.07      75.6     0.33      1011.7     1.4      NW   314   3.3       W   277   9.42    261      575.5
   06/10/2018 11:30      84.3      83.7       18     35.5      0.00      6.07      75.6     0.33      1011.8     2.0     SSE   156   5.0     WNW   282   9.42    261      567.4
   06/10/2018 11:20      84.1      82.8       18     35.1      0.00      6.07      75.6     0.33      1011.9     2.1      NE    36   4.2     NNE    30   9.42    261      557.2
   06/10/2018 11:10      83.0      82.2       19     36.5      0.00      6.07      75.6     0.33      1011.9     2.2       N    10   4.3       N     7   9.42    261      550.9
   06/10/2018 11:00      82.6      80.4       19     35.0      0.00      6.07      75.6     0.33      1011.9     1.3       N   357   3.3       N     0   9.42    261      544.3
   06/10/2018 10:50      81.2      80.3       20     36.4      0.00      6.07      75.7     0.33      1012.0     2.4     SSW   198   5.3      SW   226   9.42    261      532.9
   06/10/2018 10:40      81.1      79.3       21     37.0      0.00      6.07      75.7     0.33      1012.0     3.1     SSE   156   8.0       S   185   9.42    261      518.9
   06/10/2018 10:30      80.1      78.6       21     35.9      0.00      6.07      75.7     0.33      1012.0     2.8      SW   235   6.6     SSW   192   9.42    261      504.3
   06/10/2018 10:20      80.1      79.3       19     33.8      0.00      6.07      75.8     0.33      1012.1     2.0     SSW   202   7.2       S   185   9.42    261      488.7
   06/10/2018 10:10      79.5      78.4       20     34.7      0.00      6.07      75.8     0.33      1012.2     1.8       W   261   3.7     WNW   302   9.42    261      473.4
   06/10/2018 10:00      78.5      76.4       22     35.7      0.00      6.07      75.8     0.34      1012.3     1.0     WSW   252   3.4      NW   314   9.42    262      456.3
   06/10/2018 09:50      76.5      75.8       23     35.9      0.00      6.07      75.9     0.34      1012.5     2.3       W   261   5.1       W   279   9.42    262      438.3
   06/10/2018 09:40      75.8      74.6       25     37.0      0.00      6.07      75.9     0.34      1012.5     3.0     WSW   246   5.6     WSW   251   9.42    262      421.4
   06/10/2018 09:30      75.2      74.4       26     37.7      0.00      6.07      76.0     0.34      1012.7     2.5     WSW   248   5.9       W   266   8.76    262      403.6
   06/10/2018 09:20      75.0      74.1       28     38.9      0.00      6.07      76.0     0.34      1012.9     1.3       N     5   3.7      NW   304   8.77    262      385.9
   06/10/2018 09:10      74.1      72.7       29     39.4      0.00      6.07      76.1     0.34      1012.9     1.3       S   183   3.0      SE   129   8.77    263      369.9
   06/10/2018 09:00      73.0      71.1       32     40.3      0.00      6.07      76.1     0.34      1012.9     1.1      NW   323   3.7     WNW   298   8.76    263      359.7
   06/10/2018 08:50      71.1      69.2       35     40.9      0.00      6.07      76.1     0.34      1012.9     2.4     WSW   250   4.7      SW   225   8.76    264      361.4
   06/10/2018 08:40      69.2      67.6       43     45.0      0.00      6.07      76.2     0.34      1012.9     1.1     NNW   341   4.2      SW   227   8.77    266       35.6
   06/10/2018 08:30      67.8      67.2       44     44.8      0.00      6.07      76.3     0.34      1013.0     1.0       N   351   2.1     NNW   328   8.77    266      -12.9
   06/10/2018 08:20      67.4      66.3       46     45.2      0.00      6.07      76.3     0.34      1013.0     1.2     ENE    67   2.9      SE   136   8.77    266      -33.9
   06/10/2018 08:10      66.6      65.2       49     46.4      0.00      6.07      76.3     0.34      1013.0     1.7       S   182   2.9      SE   140   8.77    266      -29.5
   06/10/2018 08:00      65.3      64.2       54     47.6      0.00      6.07      76.4     0.34      1013.0     1.2      NE    42   2.4       N     5   8.77    266      -22.6
   06/10/2018 07:50      64.5      63.8       56     48.0      0.00      6.07      76.4     0.34      1013.0     0.6       N   355   2.5       N     6   8.77    266      -20.2
   06/10/2018 07:40      64.0      63.3       56     47.6      0.00      6.07      76.5     0.34      1012.8     0.6       E    98   1.9     ESE   111   8.77    266       -9.1
   06/10/2018 07:30      63.4      62.8       57     47.7      0.00      6.07      76.5     0.34      1012.8     0.9       E    83   2.7       N     9   8.77    266       -5.0
   06/10/2018 07:20      63.0      62.3       58     47.6      0.00      6.07      76.6     0.34      1012.8     1.6     ESE   120   4.4      SE   133   8.77    266      -36.0
   06/10/2018 07:10      62.6      61.9       57     47.0      0.00      6.07      76.6     0.34      1012.8     1.7     ESE   102   3.5      SE   131   8.77    266      -36.6
   06/10/2018 07:00      62.1      61.2       57     46.0      0.00      6.07      76.7     0.34      1012.8     0.9     ESE   105   2.2       E   101   8.77    266      -36.1
   06/10/2018 06:50      61.1      59.6       58     45.5      0.00      6.07      76.7     0.34      1012.7     0.3      SE   139   2.0     SSE   156   8.77    266      -36.0
   06/10/2018 06:40      59.8      58.4       61     45.7      0.00      6.07      76.7     0.34      1012.7     0.6     ENE    69   1.6     ENE    57   8.77    266      -38.0
   06/10/2018 06:30      58.6      56.8       63     45.2      0.00      6.07      76.8     0.34      1012.6     0.9      SE   136   1.6      SE   142   8.77    266      -42.8
   06/10/2018 06:20      57.0      56.1       64     44.4      0.00      6.07      76.8     0.34      1012.6     0.5       S   169   1.5      SE   132   8.77    266      -46.8
   06/10/2018 06:10      56.8      56.1       63     44.1      0.00      6.07      76.8     0.34      1012.6     0.5     SSE   160   1.9     SSE   148   8.77    266      -53.1
   06/10/2018 06:00      56.6      55.9       64     44.4      0.00      6.07      76.9     0.34      1012.5     1.2     SSE   164   2.2      SE   142   8.77    266      -57.7
   06/10/2018 05:50      56.5      56.0       63     43.8      0.00      6.07      76.9     0.34      1012.3     0.6       S   181   2.2     SSW   204   8.77    267      -60.3
   06/10/2018 05:40      56.9      56.2       63     43.9      0.00      6.07      77.0     0.34      1012.1     0.4       S   180   1.6     SSW   210   8.78    266      -63.8
   06/10/2018 05:30      57.2      56.5       63     44.5      0.00      6.07      77.0     0.34      1012.0     0.8       S   180   2.0      SW   216   8.78    266      -63.3
   06/10/2018 05:20      57.7      57.0       62     44.5      0.00      6.07      77.0     0.34      1011.9     0.0       S   174   1.0       S   174   8.78    266      -64.2
   06/10/2018 05:10      57.6      56.8       61     44.0      0.00      6.07      77.0     0.34      1011.9     0.6       S   172   1.4       S   174   8.78    266      -63.6
   06/10/2018 05:00      57.7      57.2       59     43.2      0.00      6.07      77.0     0.34      1011.9     1.0     SSE   164   2.0     SSE   147   8.78    266      -64.2
   06/10/2018 04:50      57.7      57.3       58     42.7      0.00      6.07      77.1     0.34      1011.9     0.5       S   171   1.5       S   175   8.78    266      -63.7
   06/10/2018 04:40      58.2      57.3       56     42.1      0.00      6.07      77.1     0.34      1011.9     0.5       S   176   0.9       S   176   8.78    266      -63.8
   06/10/2018 04:30      58.6      57.9       56     42.5      0.00      6.07      77.2     0.34      1011.7     0.5     SSE   158   1.6       S   176   8.78    266      -63.6
   06/10/2018 04:20      59.0      58.4       55     42.6      0.00      6.07      77.2     0.34      1011.6     0.3     SSE   153   1.3     SSE   153   8.78    266      -64.4
   06/10/2018 04:10      59.1      58.6       55     42.7      0.00      6.07      77.2     0.34      1011.6     0.4       S   182   1.7     SSW   211   8.78    266      -64.8
   06/10/2018 04:00      59.3      58.5       57     43.6      0.00      6.07      77.3     0.34      1011.7     0.7       S   188   1.6       S   178   8.78    266      -64.9
   06/10/2018 03:50      59.8      59.1       56     43.9      0.00      6.07      77.3     0.34      1011.7     0.3       S   186   1.2       S   186   8.78    266      -65.4
   06/10/2018 03:40      60.3      59.4       57     44.4      0.00      6.07      77.3     0.34      1011.7     0.6       S   172   1.4       S   190   8.79    266      -65.5
   06/10/2018 03:30      60.7      59.8       57     44.9      0.00      6.07      77.3     0.34      1011.7     0.3     SSE   155   1.2     SSE   168   8.79    266      -65.8
   06/10/2018 03:20      60.9      60.3       55     44.5      0.00      6.07      77.4     0.34      1011.6     0.7     SSE   163   1.4      SE   144   8.79    266      -65.2
   06/10/2018 03:10      61.8      60.6       56     45.4      0.00      6.07      77.4     0.34      1011.6     1.1     SSE   162   3.3     SSW   194   8.79    266      -65.6
   06/10/2018 03:00      61.6      61.0       58     46.3      0.00      6.07      77.5     0.34      1011.7     0.7       S   183   2.6     SSW   196   8.79    266      -64.8
   06/10/2018 02:50      61.6      61.2       56     45.7      0.00      6.07      77.5     0.34      1011.7     1.2     SSW   195   2.4     SSW   212   8.79    266      -65.3
   06/10/2018 02:40      62.1      61.4       57     46.6      0.00      6.07      77.5     0.34      1011.7     0.9       S   181   1.8      SW   216   8.79    266      -66.2
   06/10/2018 02:30      62.1      61.5       60     47.9      0.00      6.07      77.5     0.34      1011.7     1.0     SSE   165   2.7      SE   146   8.79    266      -66.0
   06/10/2018 02:20      62.1      61.8       61     48.3      0.00      6.07      77.6     0.34      1011.7     0.4     SSE   161   1.9      SE   144   8.79    266      -65.9
   06/10/2018 02:10      62.1      61.7       62     48.8      0.00      6.07      77.6     0.34      1011.8     1.2     SSW   199   2.6     SSW   206   8.79    266      -65.3
   06/10/2018 02:00      62.8      61.6       64     49.9      0.00      6.07      77.6     0.34      1011.9     0.6     SSW   199   1.8      SW   225   8.80    266      -65.6
   06/10/2018 01:50      63.1      62.5       63     50.2      0.00      6.07      77.6     0.34      1011.9     0.9       S   181   2.0       W   274   8.80    266      -65.8
   06/10/2018 01:40      63.1      62.3       65     50.6      0.00      6.07      77.6     0.34      1011.9     1.1      SW   215   2.8     SSW   203   8.80    267      -65.7
   06/10/2018 01:30      62.9      61.6       68     51.4      0.00      6.07      77.7     0.34      1011.9     0.4       W   276   2.7     WNW   288   8.80    267      -64.5
   06/10/2018 01:20      62.0      61.5       69     51.3      0.00      6.07      77.7     0.34      1011.9     0.0     SSE   168   0.8     SSE   168   8.80    267      -64.3
   06/10/2018 01:10      62.3      61.6       68     51.0      0.00      6.07      77.7     0.34      1011.8     0.3     SSE   168   1.0     SSE   167   8.80    266      -65.3
   06/10/2018 01:00      62.5      61.9       67     51.0      0.00      6.07      77.8     0.34      1011.8     0.6       S   183   1.7       S   183   8.80    266      -63.9
   06/10/2018 00:50      62.7      62.2       67     51.3      0.00      6.07      77.7     0.34      1011.8     0.1       S   183   0.9       S   183   8.80    266      -64.2
   06/10/2018 00:40      63.0      62.2       66     51.0      0.00      6.07      77.7     0.34      1011.8     0.5       S   184   1.4       S   184   8.80    266      -63.7
   06/10/2018 00:30      63.2      62.7       65     51.0      0.00      6.07      77.8     0.34      1011.8     0.4       S   184   1.2       S   184   8.80    266      -64.7
   06/10/2018 00:20      63.6      62.9       64     50.8      0.00      6.07      77.8     0.34      1011.8     0.0       S   184   1.0       S   184   8.80    266      -66.3
   06/10/2018 00:10      64.7      63.2       62     50.5      0.00      6.07      77.8     0.34      1011.8     1.3     SSW   194   1.9      SW   215   8.81    266      -66.6
   06/10/2018 00:00      65.2      64.3       61     50.9      0.00      6.07      77.8     0.34      1011.8     0.6     ESE   116   1.9     SSW   205   8.81    266      -66.1
   06/09/2018 23:50      65.7      65.0       60     51.0      0.00      6.07      77.8     0.34      1011.8     0.0     ENE    69   0.3     ENE    69   8.81    266      -66.8
   06/09/2018 23:40      66.2      65.4       59     51.1      0.00      6.07      77.9     0.34      1011.7     0.0     ENE    69   0.6     ENE    69   8.81    266      -66.3
   06/09/2018 23:30      66.5      65.8       59     51.3      0.00      6.07      77.9     0.34      1011.7     0.0     ENE    69   0.5     ENE    69   8.81    266      -67.0
   06/09/2018 23:20      67.1      66.3       58     51.5      0.00      6.07      77.8     0.34      1011.7     0.2     ENE    78   1.4     ENE    70   8.81    266      -69.5
   06/09/2018 23:10      67.2      66.7       58     51.6      0.00      6.07      77.9     0.34      1011.8     0.5       E    86   1.9     ENE    58   8.82    266      -71.0
   06/09/2018 23:00      67.8      66.9       57     51.7      0.00      6.07      77.9     0.34      1011.8     1.1       E    91   2.1       E    85   8.82    266      -71.7
   06/09/2018 22:50      68.0      67.4       57     51.8      0.00      6.07      77.9     0.34      1011.8     0.9     ENE    71   1.8     ENE    60   8.82    266      -72.6
   06/09/2018 22:40      68.5      67.6       56     51.9      0.00      6.07      77.9     0.34      1011.8     1.2       E    83   3.7       E    97   8.82    266      -73.6
   06/09/2018 22:30      68.8      68.2       56     52.0      0.00      6.07      77.9     0.34      1011.7     1.3      NE    56   3.2      NE    44   8.82    266      -74.6
   06/09/2018 22:20      69.6      68.6       55     52.1      0.00      6.07      77.9     0.34      1011.6     1.4     ENE    78   3.8       E    96   8.83    266      -75.5
   06/09/2018 22:10      70.5      69.3       53     52.2      0.00      6.07      77.9     0.34      1011.7     2.0     ENE    59   4.4      SE   129   8.83    266      -76.1
   06/09/2018 22:00      70.8      70.1       53     52.5      0.00      6.07      77.9     0.34      1011.6     1.6      NE    42   3.4      NE    53   8.83    266      -75.9
   06/09/2018 21:50      71.2      70.6       53     52.7      0.00      6.07      77.8     0.34      1011.4     1.7      NE    47   4.5     NNE    27   8.83    265      -75.5
   06/09/2018 21:40      71.2      70.6       53     52.8      0.00      6.07      77.9     0.34      1011.3     1.0     ENE    61   2.2     NNE    30   8.83    266      -75.4
   06/09/2018 21:30      71.6      70.9       52     52.9      0.00      6.07      77.8     0.34      1011.3     0.7       E    97   1.7     ENE    68   8.83    265      -76.6
   06/09/2018 21:20      72.0      71.2       52     53.1      0.00      6.07      77.8     0.34      1011.2     1.1     ENE    69   3.2       E    81   8.84    265      -77.4
   06/09/2018 21:10      72.9      71.7       51     53.1      0.00      6.07      77.8     0.34      1011.2     0.8       E    87   3.0       N     9   8.84    265      -78.8
   06/09/2018 21:00      73.7      72.6       50     53.3      0.00      6.07      77.9     0.34      1011.2     1.5      NE    51   3.1     NNE    33   8.84    264      -79.5
   06/09/2018 20:50      75.5      73.4       48     53.4      0.00      6.07      77.8     0.34      1011.2     2.3      NE    53   4.2      NE    55   8.84    264      -79.6
   06/09/2018 20:40      76.4      75.2       43     51.4      0.00      6.07      77.8     0.34      1011.1     1.4      NE    44   3.2       E    79   8.84    264      -78.1
   06/09/2018 20:30      76.7      76.1       41     50.8      0.00      6.07      77.8     0.34      1011.0     1.1      NW   316   2.9       W   263   8.85    264      -78.1
   06/09/2018 20:20      76.6      76.2       40     50.1      0.00      6.07      77.7     0.34      1010.8     1.3       W   281   4.3     WSW   252   8.85    264      -79.9
   06/09/2018 20:10      76.6      76.2       37     48.3      0.00      6.07      77.7     0.34      1010.7     1.9     WSW   239   3.2     WSW   241   8.85    263      -80.9
   06/09/2018 20:00      77.4      76.3       36     47.8      0.00      6.07      77.7     0.34      1010.8     1.8     SSW   201   3.0     WSW   248   8.85    263      -79.9
   06/09/2018 19:50      77.6      77.1       35     47.7      0.00      6.07      77.6     0.34      1010.8     2.8      SW   226   6.0      SW   219   8.86    263      -77.3
   06/09/2018 19:40      78.1      77.3       35     47.7      0.00      6.07      77.6     0.34      1010.7     3.1      SW   220   6.2     WSW   238   8.86    263      -75.1
   06/09/2018 19:30      79.1      77.9       34     47.9      0.00      6.07      77.5     0.34      1010.7     4.5      SW   229   7.4     SSW   204   8.86    263      -73.9
   06/09/2018 19:20      80.6      79.0       34     48.7      0.00      6.07      77.5     0.34      1010.5     3.3      SW   218   5.7     SSW   210   8.87    263      -64.6
   06/09/2018 19:10      81.4      80.3       33     48.7      0.00      6.07      77.5     0.34      1010.6     3.9     WSW   239   9.0     WSW   243   8.87    263      -25.8
   06/09/2018 19:00      81.5      80.8       32     48.6      0.00      6.07      77.5     0.34      1010.6     4.3     WSW   248   8.8     WSW   251   8.87    263        3.7
   06/09/2018 18:50      82.2      81.1       32     48.4      0.00      6.07      77.4     0.34      1010.6     5.0     WSW   247   9.7       W   269   8.88    263       13.5
   06/09/2018 18:40      83.2      81.8       31     49.2      0.00      6.07      77.3     0.34      1010.6     4.7     WSW   242   8.8      SW   220   8.89    263       34.9
   06/09/2018 18:30      83.3      82.7       31     49.2      0.00      6.07      77.3     0.34      1010.7     3.6     WSW   256   6.5     SSW   213   8.89    263       68.5
   06/09/2018 18:20      83.5      82.8       30     48.9      0.00      6.07      77.3     0.34      1010.7     4.9     WSW   242   7.0      SW   225   8.90    263       96.1
   06/09/2018 18:10      84.1      83.0       29     48.2      0.00      6.07      77.2     0.34      1010.8     4.9     WSW   239   7.7     SSW   209   8.90    263      120.9
   06/09/2018 18:00      85.0      83.7       28     47.6      0.00      6.07      77.1     0.34      1011.0     6.0     WSW   238  11.4      SW   219   8.90    263      146.9
   06/09/2018 17:50      85.1      84.4       29     48.7      0.00      6.07      77.1     0.34      1010.9     5.0       W   271   8.4       W   262   8.91    263      171.6
   06/09/2018 17:40      85.8      84.7       29     48.9      0.00      6.07      77.0     0.34      1010.9     5.0       W   277   8.4     WSW   250   8.92    263      195.9
   06/09/2018 17:30      86.0      85.0       28     49.0      0.00      6.07      77.0     0.34      1011.1     3.6       W   265   7.4     WNW   288   8.92    263      220.0
   06/09/2018 17:20      86.3      85.0       28     49.3      0.00      6.07      76.9     0.34      1011.1     3.5     WNW   301   8.6     WNW   286   8.92    263      244.1
   06/09/2018 17:10      85.9      85.1       29     49.2      0.00      6.07      76.8     0.34      1011.2     3.9       W   271   8.4       W   267   8.93    263      268.2
   06/09/2018 17:00      86.2      85.0       29     49.5      0.00      6.07      76.8     0.34      1011.2     3.0     WNW   285   7.4      SW   228   8.93    263      292.0
   06/09/2018 16:50      86.3      85.3       28     49.4      0.00      6.07      76.7     0.34      1011.3     4.7      NW   316  10.7     NNW   331   8.94    263      314.5
   06/09/2018 16:40      86.4      85.5       28     48.9      0.00      6.07      76.6     0.34      1011.4     3.7       W   270   8.8       W   272   8.94    263      338.7
   06/09/2018 16:30      85.6      84.6       28     48.7      0.00      6.07      76.5     0.34      1011.4     5.0       W   272   8.1     WNW   286   8.95    263      363.1
   06/09/2018 16:20      86.1      85.0       28     48.6      0.00      6.07      76.5     0.34      1011.5     4.9       W   276   9.4     WSW   256   8.95    263      383.9
   06/09/2018 16:10      85.6      84.9       27     47.6      0.00      6.07      76.4     0.34      1011.6     6.2       W   267  13.8     WSW   237   8.96    263      408.7
   06/09/2018 16:00      86.1      85.1       26     47.1      0.00      6.07      76.3     0.34      1011.6     7.3     WSW   259  15.8       W   276   8.96    263      429.6
   06/09/2018 15:50      86.2      85.3       26     46.5      0.00      6.07      76.2     0.34      1011.7     7.3     WSW   255  12.1     WNW   285   8.97    263      447.2
   06/09/2018 15:40      86.3      85.7       25     45.8      0.00      6.07      76.1     0.34      1011.8     7.9     WSW   244  12.2      SW   233   8.97    263      465.9
   06/09/2018 15:30      86.3      85.6       24     45.5      0.00      6.07      76.0     0.34      1011.9     8.2     WSW   242  12.6       W   273   8.98    263      481.9
   06/09/2018 15:20      87.0      85.7       24     45.1      0.00      6.07      76.0     0.34      1011.9     8.6      SW   232  12.8       W   263   8.99    263      498.4
   06/09/2018 15:10      87.5      86.6       24     45.6      0.00      6.07      75.9     0.34      1011.9     7.2      SW   223  11.5       S   180   9.00    263      511.2
   06/09/2018 15:00      87.9      86.7       25     46.8      0.00      6.07      75.8     0.34      1011.9     7.9      SW   234  12.9     WSW   243   9.00    263      526.2
   06/09/2018 14:50      88.9      87.5       23     46.3      0.00      6.07      75.8     0.34      1012.0     6.5     WSW   243  11.7      SW   234   9.01    263      535.9
   06/09/2018 14:40      88.4      87.5       23     46.0      0.00      6.07      75.7     0.33      1012.0     6.4      SW   232  12.3     SSW   208   9.01    263      547.4
   06/09/2018 14:30      88.9      87.8       22     45.0      0.00      6.07      75.6     0.33      1012.1     6.6      SW   223  11.2      SW   234   9.02    263      555.9
   06/09/2018 14:20      88.4      86.7       28     50.1      0.00      6.07      75.6     0.33      1012.1     5.3     SSW   202  13.1      NW   312   9.02    263      565.7
   06/09/2018 14:10      87.4      86.3       31     52.4      0.00      6.07      75.5     0.33      1012.1     4.1       S   191   7.6     SSW   196   9.03    263      571.8
   06/09/2018 14:00      87.9      86.5       31     52.7      0.00      6.07      75.4     0.33      1012.2     3.7     SSW   199   7.3      SW   218   9.03    263      582.0
   06/09/2018 13:50      87.7      86.4       31     53.1      0.00      6.07      75.4     0.33      1012.3     4.0       S   177   8.9     SSW   199   9.03    263      590.0
   06/09/2018 13:40      87.7      86.6       31     52.6      0.00      6.07      75.3     0.33      1012.4     3.5     ESE   119   7.2       E    83   9.03    263      593.6
   06/09/2018 13:30      86.8      86.2       32     53.3      0.00      6.07      75.3     0.33      1012.5     2.8      SE   146   7.0     SSE   158   9.04    263      598.2
   06/09/2018 13:20      87.1      85.9       34     54.5      0.00      6.07      75.2     0.33      1012.6     2.5       E    92   5.9     ESE   122   9.04    263      597.0
   06/09/2018 13:10      87.0      85.7       35     55.4      0.00      6.07      75.2     0.33      1012.7     2.9       E   100   7.3     ESE   110   9.04    263      596.8
   06/09/2018 13:00      86.5      85.7       36     55.8      0.00      6.07      75.1     0.33      1012.9     3.4     ENE    68   7.3      SE   129   9.05    263      603.6
   06/09/2018 12:50      86.7      85.4       36     55.8      0.00      6.07      75.0     0.33      1012.9     2.7       E    79   5.3     ENE    58   9.05    263      604.5
   06/09/2018 12:40      87.5      85.3       35     55.7      0.00      6.07      75.1     0.33      1013.0     2.8     ENE    72   7.6     ESE   109   9.05    263      601.2
   06/09/2018 12:30      86.0      84.3       35     54.6      0.00      6.07      75.0     0.33      1013.1     2.4     ENE    62   5.1      NE    44   9.05    263      603.6
   06/09/2018 12:20      84.8      83.7       35     54.0      0.00      6.07      75.0     0.33      1013.2     2.7       E   100   6.6     ESE   113   9.05    263      599.9
   06/09/2018 12:10      85.2      84.2       35     54.1      0.00      6.07      75.0     0.33      1013.4     2.5       E    87   7.1     ENE    73   9.05    263      594.1
   06/09/2018 12:00      85.1      83.4       36     54.1      0.00      6.07      75.0     0.33      1013.5     2.8       E    86   6.2      SE   124   9.05    263      593.5
   06/09/2018 11:50      83.7      82.8       36     54.0      0.00      6.07      75.0     0.33      1013.6     2.6      NE    41   5.3       N     4   9.05    263      579.7
   06/09/2018 11:40      83.0      82.4       36     53.2      0.00      6.07      75.0     0.33      1013.7     2.8     ENE    64   5.6     ENE    57   9.05    263      574.8
   06/09/2018 11:30      83.3      82.2       36     52.7      0.00      6.07      75.0     0.33      1013.8     3.2     ENE    77   5.7     ENE    58   9.06    263      569.0
   06/09/2018 11:20      83.1      81.8       35     52.1      0.00      6.07      75.0     0.33      1013.8     2.1      NE    38   4.8       N     2   9.06    263      558.5
   06/09/2018 11:10      82.0      80.3       36     51.7      0.00      6.07      75.0     0.33      1013.8     2.2     NNE    17   5.0       N   355   9.06    263      549.7
   06/09/2018 11:00      81.2      80.3       37     51.6      0.00      6.07      75.0     0.33      1013.8     2.1     NNE    23   6.1      NE    46   9.06    263      538.6
   06/09/2018 10:50      80.9      79.8       37     51.3      0.00      6.07      75.0     0.33      1013.9     2.0     ENE    75   5.3      SE   144   9.06    263      528.7
   06/09/2018 10:40      80.4      78.7       38     51.7      0.00      6.07      75.0     0.33      1013.9     2.0      NE    38   4.5     ENE    71   9.06    263      516.5
   06/09/2018 10:30      79.1      77.9       39     51.6      0.00      6.07      75.1     0.33      1013.9     2.0      NE    38   4.6     NNW   333   9.06    263      504.3
   06/09/2018 10:20      78.6      77.9       40     52.0      0.00      6.07      75.1     0.33      1013.8     2.7      NE    43   5.6       E    99   9.06    263      487.4
   06/09/2018 10:10      77.8      77.3       40     51.6      0.00      6.07      75.1     0.33      1013.9     2.6       N     8   4.6     NNE    17   9.06    263      472.2
   06/09/2018 10:00      77.6      75.8       41     51.4      0.00      6.07      75.1     0.33      1014.0     1.6       N   349   4.5      NE    34   9.06    263      455.4
   06/09/2018 09:50      76.8      75.8       41     51.2      0.00      6.07      75.2     0.34      1014.1     2.0      NE    43   4.3      NE    35   9.06    263      438.7
   06/09/2018 09:40      76.3      75.1       43     51.3      0.00      6.07      75.3     0.34      1014.2     1.1      NE    52   3.4     ENE    67   9.06    263      421.0
   06/09/2018 09:30      75.6      73.4       44     51.3      0.00      6.07      75.3     0.34      1014.2     1.2      NE    44   3.5      NE    43   9.06    263      403.1
   06/09/2018 09:20      73.9      72.5       46     51.2      0.00      6.07      75.3     0.34      1014.3     0.8       N    11   2.4     NNW   331   9.06    264      384.6
   06/09/2018 09:10      72.7      72.2       47     51.3      0.00      6.07      75.4     0.34      1014.3     2.0     NNE    21   3.5     NNW   348   9.06    264      368.6
   06/09/2018 09:00      72.4      70.1       50     51.6      0.00      6.07      75.4     0.34      1014.2     0.9     NNW   337   3.3     NNE    26   9.06    264      357.5
   06/09/2018 08:50      70.1      68.1       53     51.3      0.00      6.07      75.5     0.34      1014.3     1.2     NNE    11   3.2     NNW   348   9.06    266      360.4
   06/09/2018 08:40      68.4      67.3       56     51.5      0.00      6.07      75.5     0.34      1014.2     0.9     NNW   328   3.6      NW   320   9.06    267       40.0
   06/09/2018 08:30      67.4      66.8       57     51.5      0.00      6.07      75.5     0.34      1014.4     0.9     NNE    25   3.0     NNE    15   9.06    267      -10.5
   06/09/2018 08:20      67.0      66.1       59     51.6      0.00      6.07      75.6     0.34      1014.4     0.9       N     0   3.1     NNE    34   9.06    267      -26.1
   06/09/2018 08:10      66.2      65.5       60     51.4      0.00      6.07      75.6     0.34      1014.3     1.5     NNW   336   3.1     NNW   328   9.07    267      -22.8
   06/09/2018 08:00      65.6      65.2       60     51.4      0.00      6.07      75.7     0.34      1014.2     1.0       N   351   2.6       N   352   9.07    267      -18.3
   06/09/2018 07:50      65.4      64.5       61     51.1      0.00      6.07      75.7     0.34      1014.1     1.1      NE    44   2.3      NE    47   9.07    266      -14.0
   06/09/2018 07:40      64.7      63.9       62     51.0      0.00      6.07      75.7     0.34      1014.0     1.0     NNE    16   2.2      NE    36   9.06    267      -10.7
   06/09/2018 07:30      64.1      63.1       63     50.8      0.00      6.07      75.8     0.34      1014.0     0.4      NE    52   2.3     NNE    24   9.06    267        1.9
   06/09/2018 07:20      63.3      62.3       65     50.7      0.00      6.07      75.8     0.34      1013.9     0.0       N     0   0.0      SE   145   9.06    267      -30.8
   06/09/2018 07:10      62.5      61.3       67     50.8      0.00      6.07      75.9     0.34      1013.9     0.3     SSE   152   1.1      SE   145   9.06    268      -34.3
   06/09/2018 07:00      61.5      60.4       70     51.0      0.00      6.07      75.9     0.34      1013.9     0.0       N     5   0.7       N     8   9.07    268      -34.4
   06/09/2018 06:50      60.4      59.3       73     51.1      0.00      6.07      75.9     0.34      1013.7     0.0     ENE    62   0.2     ENE    62   9.07    268      -37.1
   06/09/2018 06:40      59.5      58.4       74     50.6      0.00      6.07      76.0     0.34      1013.7     0.0       N     0   0.0     ENE    62   9.07    268      -40.5
   06/09/2018 06:30      58.6      57.4       76     50.4      0.00      6.07      76.0     0.34      1013.6     0.2     ESE   111   1.3     ENE    62   9.07    268      -45.7
   06/09/2018 06:20      57.6      56.5       78     50.5      0.00      6.07      76.0     0.34      1013.6     0.0       N     0   0.0     SSE   168   9.07    267      -46.6
   06/09/2018 06:10      56.6      55.9       79     49.9      0.00      6.07      76.1     0.34      1013.3     0.3     SSE   164   1.0     SSE   168   9.07    268      -46.9
   06/09/2018 06:00      56.4      55.9       80     50.0      0.00      6.07      76.1     0.34      1013.2     0.2     SSE   152   1.1     SSE   152   9.07    268      -52.9
   06/09/2018 05:50      56.5      56.0       79     49.6      0.00      6.07      76.2     0.34      1013.1     0.4     SSE   161   1.2     SSE   152   9.07    269      -58.1
   06/09/2018 05:40      57.0      56.3       77     49.6      0.00      6.07      76.2     0.34      1013.0     1.2     SSE   166   2.5     SSW   193   9.07    268      -59.8
   06/09/2018 05:30      56.9      56.5       78     50.0      0.00      6.07      76.2     0.34      1013.0     0.6     SSE   165   1.9       S   188   9.07    268      -59.5
   06/09/2018 05:20      57.0      56.6       78     49.8      0.00      6.07      76.3     0.34      1013.0     0.1     SSE   153   0.8     SSE   153   9.07    269      -61.3
   06/09/2018 05:10      56.9      56.4       77     49.4      0.00      6.07      76.3     0.34      1012.9     0.8     SSW   214   1.6      SW   236   9.07    268      -61.1
   06/09/2018 05:00      57.0      56.5       77     49.8      0.00      6.07      76.3     0.34      1012.8     0.6     SSE   158   1.6       S   170   9.07    268      -61.1
   06/09/2018 04:50      57.3      56.7       76     49.6      0.00      6.07      76.4     0.34      1012.8     0.0     SSE   150   0.5     SSE   150   9.07    268      -62.3
   06/09/2018 04:40      57.5      56.9       75     49.2      0.00      6.07      76.4     0.34      1012.8     1.2     SSW   192   2.3      SW   217   9.07    268      -62.1
   06/09/2018 04:30      58.1      57.1       74     49.4      0.00      6.07      76.4     0.34      1012.7     0.3       S   175   1.0     SSE   157   9.08    268      -63.4
   06/09/2018 04:20      58.2      57.6       74     49.6      0.00      6.07      76.5     0.34      1012.6     0.5       S   185   2.2     SSW   204   9.08    268      -63.5
   06/09/2018 04:10      58.5      57.6       73     49.5      0.00      6.07      76.5     0.34      1012.5     0.0     SSE   148   0.6     SSE   148   9.08    268      -64.0
   06/09/2018 04:00      58.6      58.2       74     50.0      0.00      6.07      76.6     0.34      1012.5     0.0     SSE   148   0.7     SSE   148   9.08    268      -63.6
   06/09/2018 03:50      58.6      58.2       74     50.1      0.00      6.07      76.6     0.34      1012.5     0.5     SSE   148   1.1     SSE   148   9.08    268      -64.2
   06/09/2018 03:40      58.6      58.2       74     50.1      0.00      6.07      76.6     0.34      1012.6     0.4     SSE   148   1.2     SSE   148   9.08    268      -64.3
   06/09/2018 03:30      58.8      58.1       74     50.1      0.00      6.07      76.6     0.34      1012.6     0.3     SSE   148   1.2     SSE   148   9.08    268      -65.2
   06/09/2018 03:20      59.0      58.4       74     50.5      0.00      6.07      76.7     0.34      1012.7     0.5     SSE   159   1.3     SSE   148   9.08    268      -66.1
   06/09/2018 03:10      59.4      58.3       74     50.5      0.00      6.07      76.7     0.34      1012.7     0.6       S   176   1.6       S   173   9.08    268      -66.8
   06/09/2018 03:00      59.8      59.0       73     50.7      0.00      6.07      76.7     0.34      1012.8     0.6     SSE   153   1.3      SE   146   9.09    268      -67.1
   06/09/2018 02:50      60.1      59.4       72     50.5      0.00      6.07      76.7     0.34      1012.8     0.8     SSE   159   1.7      SE   145   9.09    267      -67.5
   06/09/2018 02:40      60.3      59.8       71     50.5      0.00      6.07      76.8     0.34      1012.8     1.0     SSE   160   2.5     SSE   147   9.09    268      -67.5
   06/09/2018 02:30      60.4      59.9       70     50.4      0.00      6.07      76.8     0.34      1012.8     0.9       S   173   1.7     SSE   147   9.09    267      -67.0
   06/09/2018 02:20      60.5      60.0       70     50.3      0.00      6.07      76.8     0.34      1012.8     0.3       S   171   1.2       S   171   9.09    267      -67.5
   06/09/2018 02:10      60.5      60.1       69     49.9      0.00      6.07      76.9     0.34      1012.8     0.3       S   171   1.0       S   171   9.09    267      -67.7
   06/09/2018 02:00      60.7      60.1       70     50.5      0.00      6.07      76.8     0.34      1012.9     0.3       S   171   0.9       S   171   9.09    267      -68.9
   06/09/2018 01:50      60.9      60.3       70     50.6      0.00      6.07      76.8     0.34      1012.9     0.4       S   171   1.3       S   171   9.10    267      -69.1
   06/09/2018 01:40      61.6      60.7       68     50.7      0.00      6.07      76.9     0.34      1013.0     0.3       S   170   1.2       S   170   9.10    267      -69.5
   06/09/2018 01:30      61.8      61.3       68     51.0      0.00      6.07      76.9     0.34      1013.0     0.3       S   170   1.2       S   170   9.10    267      -70.3
   06/09/2018 01:20      61.8      61.4       69     51.4      0.00      6.07      76.9     0.34      1013.0     0.6       S   170   1.2       S   171   9.10    267      -70.2
   06/09/2018 01:10      62.5      61.4       69     51.3      0.00      6.07      77.0     0.34      1013.0     0.6       S   170   1.2       S   170   9.10    267      -70.7
   06/09/2018 01:00      62.6      62.1       68     51.5      0.00      6.07      76.9     0.34      1013.0     0.5       S   170   1.2       S   171   9.10    267      -71.0
   06/09/2018 00:50      62.7      62.3       67     51.6      0.00      6.07      77.0     0.34      1013.0     0.4     SSE   167   1.1     SSE   167   9.10    266      -71.5
   06/09/2018 00:40      63.1      62.4       68     51.8      0.00      6.07      77.0     0.34      1013.0     0.5     SSE   162   1.6     SSE   148   9.10    266      -71.9
   06/09/2018 00:30      63.5      62.5       67     51.8      0.00      6.07      77.0     0.34      1012.9     0.9     SSE   150   1.6     SSE   148   9.10    266      -72.9
   06/09/2018 00:20      63.8      63.2       66     51.9      0.00      6.07      77.0     0.34      1013.0     0.4     SSE   154   1.1      SE   139   9.11    266      -73.0
   06/09/2018 00:10      64.4      63.5       66     52.0      0.00      6.07      77.0     0.34      1013.0     0.7     SSE   164   1.5      SE   140   9.11    266      -73.3
   06/09/2018 00:00      64.9      64.1       65     52.6      0.00      6.07      77.0     0.34      1013.0     1.3     SSE   158   2.5      SE   145   9.11    266      -73.7
   06/08/2018 23:50      65.6      64.7       64     52.4      0.00      6.07      77.0     0.34      1013.0     0.7     SSE   165   1.5     SSE   169   9.11    266      -73.7
   06/08/2018 23:40      66.3      65.2       62     52.2      0.00      6.07      77.0     0.34      1013.0     0.4     SSE   169   1.6     SSE   169   9.11    266      -73.7
   06/08/2018 23:30      66.5      65.9       61     52.3      0.00      6.07      77.0     0.34      1013.0     0.4     SSE   168   1.1     SSE   169   9.11    266      -73.3
   06/08/2018 23:20      67.0      66.2       60     52.1      0.00      6.07      77.0     0.34      1013.0     0.1     SSE   169   0.8     SSE   169   9.12    266      -73.5
   06/08/2018 23:10      67.4      66.7       59     52.2      0.00      6.07      77.1     0.34      1013.1     0.4     SSE   167   1.6       S   182   9.12    266      -73.5
   06/08/2018 23:00      68.6      67.1       57     51.9      0.00      6.07      77.0     0.34      1013.2     0.6     SSE   156   1.3     SSE   155   9.12    266      -74.9
   06/08/2018 22:50      69.3      68.2       55     52.1      0.00      6.07      77.0     0.34      1013.1     0.5      SE   125   1.7     SSE   149   9.12    266      -75.9
   06/08/2018 22:40      69.6      68.8       55     52.1      0.00      6.07      77.0     0.34      1013.1     0.3     NNE    20   1.4       N     7   9.12    266      -77.0
   06/08/2018 22:30      70.3      69.3       54     52.2      0.00      6.07      77.0     0.34      1013.0     0.3     ENE    58   1.4     NNW   346   9.12    266      -78.8
   06/08/2018 22:20      71.0      70.0       52     51.8      0.00      6.07      77.1     0.34      1012.9     0.1     ESE   106   0.9     ENE    60   9.13    265      -79.9
   06/08/2018 22:10      71.4      70.8       50     51.4      0.00      6.07      77.0     0.34      1012.9     0.8     ENE    59   2.3      NE    46   9.13    265      -80.9
   06/08/2018 22:00      71.8      71.0       48     50.9      0.00      6.07      77.0     0.34      1012.8     0.7       E    85   1.7     ENE    71   9.13    264      -81.0
   06/08/2018 21:50      72.6      71.6       47     50.7      0.00      6.07      77.0     0.34      1012.6     0.6       E    80   2.5     ENE    66   9.13    264      -81.6
   06/08/2018 21:40      73.3      72.2       46     50.5      0.00      6.07      77.0     0.34      1012.6     1.0     ENE    70   2.7     ENE    66   9.13    264      -81.9
   06/08/2018 21:30      73.9      73.0       44     50.3      0.00      6.07      77.0     0.34      1012.5     0.8     ENE    78   2.5      SE   134   9.13    264      -82.7
   06/08/2018 21:20      74.3      73.6       43     49.9      0.00      6.07      76.9     0.34      1012.3     1.7     ENE    58   3.0      NE    52   9.14    264      -84.3
   06/08/2018 21:10      74.8      74.0       42     49.7      0.00      6.07      77.0     0.34      1012.2     1.1     ENE    68   3.0       E    85   9.14    264      -84.7
   06/08/2018 21:00      75.4      74.5       42     50.2      0.00      6.07      76.9     0.34      1012.1     1.7       E    99   3.4     ENE    72   9.14    264      -85.4
   06/08/2018 20:50      76.2      75.2       41     50.1      0.00      6.07      76.8     0.34      1011.9     1.4     ESE   106   3.6     ESE   110   9.14    264      -86.5
   06/08/2018 20:40      77.0      75.8       40     50.2      0.00      6.07      76.8     0.34      1011.9     1.8     ESE   119   3.1     ESE   110   9.15    263      -87.4
   06/08/2018 20:30      77.7      76.5       38     49.8      0.00      6.07      76.8     0.34      1011.8     1.8     ESE   109   4.0     SSE   165   9.15    264      -88.3
   06/08/2018 20:20      79.2      77.4       37     49.9      0.00      6.07      76.8     0.34      1011.9     1.2     ESE   109   2.5       E    84   9.15    263      -89.1
   06/08/2018 20:10      79.8      78.9       35     49.6      0.00      6.07      76.7     0.34      1011.8     1.4      NE    50   3.2     ENE    60   9.16    263      -88.4
   06/08/2018 20:00      80.6      79.5       36     50.4      0.00      6.07      76.7     0.34      1011.8     1.0     ENE    61   2.7      NE    47   9.16    263      -85.6
   06/08/2018 19:50      81.4      80.2       35     50.8      0.00      6.07      76.7     0.34      1011.7     0.7       E    95   2.6     ENE    58   9.16    263      -82.4
   06/08/2018 19:40      82.5      81.2       34     50.6      0.00      6.07      76.6     0.34      1011.7     0.8       E   100   2.6      SE   131   9.17    263      -79.2
   06/08/2018 19:30      83.1      82.3       32     49.9      0.00      6.07      76.6     0.34      1011.7     1.3       E    83   3.6     ENE    78   9.17    263      -60.9
   06/08/2018 19:20      83.9      82.9       30     48.7      0.00      6.07      76.5     0.34      1011.6     1.5     ENE    73   3.5     ESE   103   9.18    263      -27.8
   06/08/2018 19:10      85.0      83.5       29     48.0      0.00      6.07      76.5     0.34      1011.6     1.7      NE    47   3.6      NE    42   9.18    263      -28.7
   06/08/2018 19:00      85.9      84.6       28     48.4      0.00      6.07      76.4     0.34      1011.5     2.3      NE    51   4.2     NNE    30   9.18    263       -8.3
   06/08/2018 18:50      87.3      85.5       27     48.7      0.00      6.07      76.4     0.34      1011.4     2.3      NE    52   3.7     ENE    62   9.19    263       12.7
   06/08/2018 18:40      89.3      87.2       25     48.2      0.00      6.07      76.3     0.34      1011.3     2.3      NE    37   4.4      NE    37   9.19    262       34.1
   06/08/2018 18:30      90.0      89.0       22     46.2      0.00      6.07      76.2     0.34      1011.3     2.2       N     7   5.5     WNW   295   9.20    262       57.2
   06/08/2018 18:20      90.5      89.7       21     44.6      0.00      6.07      76.2     0.34      1011.3     3.2       N   354   6.1       N   349   9.20    262       79.9
   06/08/2018 18:10      91.2      90.2       20     43.7      0.00      6.07      76.2     0.34      1011.3     2.8      NW   326   4.7      NW   315   9.20    262      103.9
   06/08/2018 18:00      91.3      90.8       19     43.3      0.00      6.07      76.1     0.34      1011.3     2.3      NW   322   7.6       N     8   9.21    262      128.9
   06/08/2018 17:50      91.3      89.7       19     43.1      0.00      6.07      76.0     0.34      1011.3     2.5      NW   306  12.1       W   267   9.21    262      156.7
   06/08/2018 17:40      91.9      89.9       20     44.7      0.00      6.07      76.0     0.34      1011.3     3.3      SW   227   6.4     SSW   213   9.22    262      180.6
   06/08/2018 17:30      91.3      90.7       20     44.8      0.00      6.07      75.9     0.34      1011.3     2.3     WSW   249   4.8     WSW   256   9.22    263      206.3
   06/08/2018 17:20      91.3      90.2       20     44.4      0.00      6.07      75.8     0.34      1011.3     4.2     WSW   254   8.4     WSW   257   9.23    262      233.8
   06/08/2018 17:10      91.9      89.6       22     45.4      0.00      6.07      75.8     0.34      1011.3     4.7     SSW   204   8.9       S   188   9.23    262      259.4
   06/08/2018 17:00      91.8      90.6       19     43.6      0.00      6.07      75.7     0.34      1011.4     3.2     WSW   243   7.5      SW   230   9.24    262      279.2
   06/08/2018 16:50      91.4      90.2       21     45.3      0.00      6.07      75.6     0.34      1011.4     2.6      SW   227   8.5       S   175   9.24    263      303.1
   06/08/2018 16:40      91.7      90.7       22     46.7      0.00      6.07      75.5     0.34      1011.4     3.0     WSW   237   6.9     WSW   256   9.25    263      328.0
   06/08/2018 16:30      91.8      91.1       19     43.4      0.00      6.07      75.5     0.34      1011.5     4.8     WSW   249   9.0     WSW   258   9.25    262      349.1
   06/08/2018 16:20      91.8      90.8       20     44.7      0.00      6.07      75.4     0.34      1011.5     3.8     WSW   250   8.4       W   263   9.26    263      370.4
   06/08/2018 16:10      91.3      90.6       22     46.9      0.00      6.07      75.3     0.34      1011.5     4.6     SSW   210   8.1       S   187   9.26    263      393.9
   06/08/2018 16:00      91.2      90.3       27     52.1      0.00      6.07      75.2     0.34      1011.5     4.0     SSE   165   8.6     SSW   201   9.27    263      413.6
   06/08/2018 15:50      91.6      90.8       27     52.6      0.00      6.07      75.2     0.34      1011.5     4.1     SSE   165   7.1       S   171   9.27    263      429.2
   06/08/2018 15:40      91.9      90.8       27     53.0      0.00      6.07      75.1     0.34      1011.4     3.9     SSE   159   9.2     SSW   209   9.29    263      441.1
   06/08/2018 15:30      92.3      91.1       27     52.4      0.00      6.07      75.0     0.34      1011.4     2.8       E    98   6.2       E    88   9.29    263      455.0
   06/08/2018 15:20      92.5      91.2       25     51.6      0.00      6.07      74.9     0.34      1011.5     3.5       E    87   6.2     ENE    63   9.29    263      469.4
   06/08/2018 15:10      92.3      91.5       25     51.1      0.00      6.07      74.8     0.34      1011.5     2.6     ENE    64   5.5      NE    44   9.30    263      485.0
   06/08/2018 15:00      92.5      91.4       25     51.0      0.00      6.07      74.7     0.34      1011.6     2.8       E    82   8.8     NNW   336   9.30    263      500.8
   06/08/2018 14:50      93.1      91.8       25     51.1      0.00      6.07      74.7     0.34      1011.8     2.4       N   355   4.6      NE    56   9.30    263      509.1
   06/08/2018 14:40      91.9      91.0       25     51.1      0.00      6.07      74.7     0.33      1011.8     2.1       E    94   6.3      SE   125   9.30    263      523.6
   06/08/2018 14:30      91.7      90.0       26     51.1      0.00      6.07      74.5     0.33      1011.9     2.5     ESE   103   5.7       S   178   9.31    263      538.7
   06/08/2018 14:20      92.0      90.3       26     51.3      0.00      6.07      74.5     0.33      1012.0     2.5     ESE   105   5.9       E    88   9.31    263      547.1
   06/08/2018 14:10      90.3      88.9       27     51.0      0.00      6.07      74.4     0.33      1012.1     3.0       N     3   5.9      NE    48   9.31    263      556.1
   06/08/2018 14:00      90.7      89.7       27     51.2      0.00      6.07      74.3     0.33      1012.3     3.0       N    11   6.8      NE    34   9.31    263      565.2
   06/08/2018 13:50      90.7      89.4       27     51.4      0.00      6.07      74.3     0.33      1012.4     2.6     ENE    60   7.0     ENE    79   9.32    263      574.3
   06/08/2018 13:40      91.0      89.2       26     50.4      0.00      6.07      74.2     0.33      1012.6     1.7      SE   137   6.1      NE    35   9.32    263      579.3
   06/08/2018 13:30      89.7      88.6       27     50.3      0.00      6.07      74.1     0.33      1012.6     2.1       N     3   4.1     WSW   255   9.32    263      585.3
   06/08/2018 13:20      90.6      88.3       27     51.1      0.00      6.07      74.0     0.33      1012.7     2.6     NNE    16   4.3       N   354   9.32    263      587.5
   06/08/2018 13:10      88.6      86.7       28     50.9      0.00      6.07      74.0     0.33      1012.8     2.0     WSW   245   3.7      SW   232   9.32    263      597.6
   06/08/2018 13:00      86.7      86.1       29     50.8      0.00      6.07      74.0     0.33      1012.9     2.6     ESE   103   5.3     ENE    67   9.32    263      602.5
   06/08/2018 12:50      86.9      86.1       29     50.8      0.00      6.07      73.9     0.33      1012.9     2.6     ENE    57   5.7      NE    36   9.32    263      598.7
   06/08/2018 12:40      86.7      85.4       30     50.9      0.00      6.07      74.0     0.33      1013.0     2.9      NE    49   6.7     SSE   163   9.33    263      599.9
   06/08/2018 12:30      86.3      85.1       30     50.9      0.00      6.07      73.9     0.33      1013.1     2.1      NE    55   5.1     NNE    20   9.33    263      598.1
   06/08/2018 12:20      85.7      84.3       31     51.1      0.00      6.07      73.9     0.33      1013.3     2.6       E    95   5.6       E    84   9.33    263      594.6
   06/08/2018 12:10      85.4      84.6       31     51.2      0.00      6.07      73.8     0.33      1013.3     2.5     NNE    20   5.4      NE    42   9.33    263      589.7
   06/08/2018 12:00      84.9      83.4       32     50.8      0.00      6.07      73.8     0.33      1013.5     2.3       N     3   4.4       S   177   9.33    263      583.6
   06/08/2018 11:50      83.7      82.9       33     50.8      0.00      6.07      73.8     0.33      1013.5     2.5      NE    38   4.1     ENE    60   9.33    263      578.1
   06/08/2018 11:40      83.6      81.5       34     51.0      0.00      6.07      73.9     0.33      1013.5     2.0     ESE   122   5.3      SE   146   9.33    263      574.6
   06/08/2018 11:30      82.7      81.9       34     51.1      0.00      6.07      73.9     0.33      1013.5     2.2     NNE    22   4.2      SE   145   9.33    263      565.3
   06/08/2018 11:20      82.6      80.3       35     51.3      0.00      6.07      73.8     0.33      1013.6     1.8     NNE    22   4.4       W   265   9.33    263      558.5
   06/08/2018 11:10      80.6      79.6       36     51.0      0.00      6.07      73.8     0.33      1013.7     2.1      SE   140   4.4     ENE    74   9.33    263      550.4
   06/08/2018 11:00      80.1      78.9       37     51.2      0.00      6.07      73.9     0.33      1013.8     1.9      NE    54   4.2     ENE    56   9.33    263      538.6
   06/08/2018 10:50      79.1      78.6       38     51.1      0.00      6.07      73.8     0.33      1013.8     1.7      NW   314   3.9       N   355   9.33    263      525.4
   06/08/2018 10:40      79.1      77.9       39     51.6      0.00      6.07      73.9     0.33      1013.9     2.1       N     1   4.4       N     0   9.33    263      512.6
   06/08/2018 10:30      78.0      77.4       40     51.8      0.00      6.07      74.0     0.33      1013.8     2.1     NNE    12   4.8       N   355   9.33    263      499.2
   06/08/2018 10:20      77.9      76.3       42     52.1      0.00      6.07      74.0     0.33      1013.9     1.9      NE    39   4.5     NNE    31   9.33    264      485.9
   06/08/2018 10:10      76.8      75.4       44     52.4      0.00      6.07      74.0     0.33      1014.0     2.5     NNE    14   5.2     NNE    21   9.33    263      470.4
   06/08/2018 10:00      76.3      74.8       44     52.3      0.00      6.07      74.0     0.34      1014.1     1.5       N    10   4.4       N   349   9.33    264      452.9
   06/08/2018 09:50      74.8      73.0       47     52.2      0.00      6.07      74.1     0.34      1014.3     2.1     NNE    34   4.1       E    88   9.33    264      436.4
   06/08/2018 09:40      73.7      72.5       48     52.1      0.00      6.07      74.1     0.34      1014.4     2.5     NNE    33   4.9      NE    48   9.34    264      418.5
   06/08/2018 09:30      72.5      71.9       49     52.0      0.00      6.07      74.1     0.34      1014.5     2.6       N     7   4.5       N   353   9.33    264      401.2
   06/08/2018 09:20      72.0      71.2       50     51.9      0.00      6.07      74.2     0.34      1014.5     1.8     ENE    57   4.7       E    94   9.33    265      383.6
   06/08/2018 09:10      71.3      70.1       51     51.9      0.00      6.07      74.2     0.34      1014.6     2.0     NNE    33   4.2       E    96   9.33    265      365.9
   06/08/2018 09:00      70.3      68.6       53     51.8      0.00      6.07      74.2     0.34      1014.6     1.6     NNE    31   3.5       N     4   9.33    266      353.8
   06/08/2018 08:50      68.8      67.0       56     51.6      0.00      6.07      74.3     0.34      1014.5     1.6     NNE    27   3.4      NE    46   9.34    266      356.0
   06/08/2018 08:40      67.0      66.1       58     51.5      0.00      6.07      74.3     0.34      1014.5     1.4     NNE    23   3.2     NNE    29   9.34    268       34.1
   06/08/2018 08:30      66.5      65.5       60     51.5      0.00      6.07      74.4     0.34      1014.5     1.6     NNE    29   4.3      NE    43   9.34    268       -3.4
   06/08/2018 08:20      65.7      65.3       61     51.5      0.00      6.07      74.4     0.34      1014.5     1.3     NNE    17   2.8       N     6   9.34    268      -16.8
   06/08/2018 08:10      65.5      64.6       62     51.4      0.00      6.07      74.5     0.34      1014.4     1.0     NNE    16   2.6      NE    52   9.34    268      -15.8
   06/08/2018 08:00      64.7      63.7       63     51.4      0.00      6.07      74.5     0.34      1014.3     0.4     NNE    14   1.8     NNW   332   9.34    267      -10.6
   06/08/2018 07:50      63.9      63.1       64     51.2      0.00      6.07      74.5     0.34      1014.4     0.8       N     9   2.1     NNW   347   9.34    267       -6.8
   06/08/2018 07:40      63.3      62.4       65     51.0      0.00      6.07      74.6     0.34      1014.3     0.5       N   351   2.1     NNE    12   9.34    268      -10.6
   06/08/2018 07:30      62.6      61.6       67     51.1      0.00      6.07      74.6     0.34      1014.2     1.8       W   276   3.5       W   278   9.34    268        1.9
   06/08/2018 07:20      61.8      60.4       70     51.4      0.00      6.07      74.6     0.34      1014.2     1.9       W   279   3.4       W   267   9.34    268      -27.6
   06/08/2018 07:10      60.6      59.2       74     51.5      0.00      6.07      74.7     0.34      1014.3     0.1     WNW   284   0.9      SW   227   9.34    268      -25.8
   06/08/2018 07:00      59.4      58.2       76     51.1      0.00      6.07      74.7     0.34      1014.3     0.6     NNE    17   1.8       N    10   9.34    269      -18.5
   06/08/2018 06:50      58.4      57.3       78     50.9      0.00      6.07      74.8     0.34      1014.3     0.0       N     0   0.0     NNE    16   9.34    269      -18.2
   06/08/2018 06:40      57.4      56.2       82     51.2      0.00      6.07      74.8     0.34      1014.2     0.0     NNE    16   0.7     NNE    16   9.34    269      -19.3
   06/08/2018 06:30      56.3      55.3       83     50.7      0.00      6.07      74.8     0.34      1014.2     0.0       N     0   0.0     ENE    67   9.34    270      -22.8
   06/08/2018 06:20      55.4      54.5       84     50.0      0.00      6.07      74.9     0.34      1014.1     0.6     ESE   111   1.7      SE   133   9.34    269      -25.2
   06/08/2018 06:10      54.8      54.1       85     50.0      0.00      6.07      74.9     0.34      1014.0     0.6       S   169   2.3       S   183   9.34    270      -26.9
   06/08/2018 06:00      54.2      53.5       85     49.5      0.00      6.07      74.9     0.34      1013.9     1.3       S   190   2.2       S   186   9.34    281      -34.7
   06/08/2018 05:50      54.0      53.5       86     49.6      0.00      6.07      75.0     0.34      1013.9     1.1       S   182   1.9     SSE   162   9.34    281      -38.6
   06/08/2018 05:40      54.1      53.6       86     49.6      0.00      6.07      75.0     0.34      1013.9     0.7       S   174   2.0       S   191   9.34    281      -43.0
   06/08/2018 05:30      54.2      53.8       86     49.7      0.00      6.07      75.0     0.34      1013.8     0.5       S   183   1.6     SSE   151   9.34    280      -45.6
   06/08/2018 05:20      54.5      54.0       85     49.8      0.00      6.07      75.1     0.34      1013.9     0.0     SSW   212   0.5     SSW   212   9.34    279      -48.0
   06/08/2018 05:10      54.9      54.0       85     49.8      0.00      6.07      75.1     0.34      1013.9     0.0     SSW   212   0.7     SSW   212   9.34    278      -50.2
   06/08/2018 05:00      54.9      54.5       84     50.0      0.00      6.07      75.1     0.34      1014.0     0.5     SSW   204   1.6     SSW   199   9.34    275      -50.8
   06/08/2018 04:50      54.9      54.2       84     49.8      0.00      6.07      75.2     0.34      1013.9     0.9     SSW   198   2.0     SSW   200   9.34    275      -52.0
   06/08/2018 04:40      55.1      54.8       84     50.1      0.00      6.07      75.2     0.34      1014.0     0.7     SSW   194   1.9     SSW   194   9.34    275      -53.1
   06/08/2018 04:30      55.3      54.9       84     50.2      0.00      6.07      75.3     0.34      1013.9     0.0     SSW   194   0.5     SSW   194   9.34    274      -54.5
   06/08/2018 04:20      55.5      54.9       83     50.1      0.00      6.07      75.3     0.34      1013.7     0.5     SSW   194   2.0     SSW   194   9.34    273      -56.5
   06/08/2018 04:10      55.8      55.3       83     50.3      0.00      6.07      75.3     0.34      1013.7     1.0       S   188   2.4     SSW   195   9.34    273      -55.7
   06/08/2018 04:00      55.9      55.4       82     50.2      0.00      6.07      75.3     0.34      1013.7     0.2       S   183   1.1       S   183   9.35    273      -58.1
   06/08/2018 03:50      55.8      55.4       82     50.2      0.00      6.07      75.4     0.34      1013.5     0.6     SSE   163   1.8      SE   135   9.35    271      -60.3
   06/08/2018 03:40      56.1      55.4       81     50.0      0.00      6.07      75.4     0.34      1013.4     0.6     SSE   154   1.4     SSE   159   9.35    271      -60.8
   06/08/2018 03:30      56.1      55.6       81     50.2      0.00      6.07      75.4     0.34      1013.4     1.2       S   178   2.2       S   184   9.35    270      -60.7
   06/08/2018 03:20      56.1      55.5       81     50.0      0.00      6.07      75.4     0.34      1013.4     0.3       S   182   1.4     SSE   168   9.35    270      -61.5
   06/08/2018 03:10      56.3      55.5       80     49.7      0.00      6.07      75.5     0.34      1013.5     0.5       S   174   1.5     SSW   194   9.35    270      -62.6
   06/08/2018 03:00      56.5      55.9       79     49.7      0.00      6.07      75.5     0.34      1013.4     0.6     SSE   157   1.7     SSE   149   9.35    269      -62.9
   06/08/2018 02:50      56.7      56.1       78     49.6      0.00      6.07      75.5     0.34      1013.4     0.4     SSE   159   1.0     SSE   158   9.35    268      -63.1
   06/08/2018 02:40      57.3      56.5       77     49.8      0.00      6.07      75.6     0.34      1013.4     0.7       S   176   1.6     SSW   199   9.35    268      -63.4
   06/08/2018 02:30      57.6      57.0       77     50.2      0.00      6.07      75.6     0.34      1013.4     0.3       S   182   0.9       S   182   9.35    268      -62.8
   06/08/2018 02:20      57.8      57.2       77     50.1      0.00      6.07      75.6     0.34      1013.4     0.3       S   182   1.2       S   182   9.35    269      -63.7
   06/08/2018 02:10      57.9      57.4       77     50.3      0.00      6.07      75.6     0.34      1013.3     0.4       S   173   2.0       S   182   9.35    268      -63.4
   06/08/2018 02:00      58.0      57.5       77     50.3      0.00      6.07      75.7     0.34      1013.4     0.0       N     0   0.0      SE   139   9.35    268      -63.8
   06/08/2018 01:50      57.9      57.4       76     50.0      0.00      6.07      75.7     0.34      1013.4     0.4     SSE   155   1.2      SE   139   9.35    268      -65.5
   06/08/2018 01:40      58.2      57.5       75     50.0      0.00      6.07      75.7     0.34      1013.4     0.3     SSE   162   1.0     SSE   167   9.35    268      -66.3
   06/08/2018 01:30      58.4      57.8       75     50.0      0.00      6.07      75.7     0.34      1013.4     0.5     SSE   152   1.6      SE   138   9.35    268      -67.1
   06/08/2018 01:20      58.8      58.0       74     50.0      0.00      6.07      75.8     0.34      1013.4     0.6     SSE   159   1.8      SE   146   9.35    268      -67.2
   06/08/2018 01:10      59.0      58.3       74     50.2      0.00      6.07      75.8     0.34      1013.4     0.8       S   172   2.6     SSW   196   9.35    268      -66.6
   06/08/2018 01:00      59.4      58.7       73     50.4      0.00      6.07      75.8     0.34      1013.4     0.1      SE   126   0.9      SE   132   9.36    268      -67.8
   06/08/2018 00:50      59.7      59.0       72     50.4      0.00      6.07      75.8     0.34      1013.6     0.7       S   183   2.2     SSW   203   9.36    268      -67.8
   06/08/2018 00:40      59.9      59.4       73     50.8      0.00      6.07      75.8     0.34      1013.7     0.5       S   177   1.2       S   177   9.36    267      -67.7
   06/08/2018 00:30      59.8      59.4       72     50.6      0.00      6.07      75.8     0.34      1013.8     0.4       S   171   1.2       S   177   9.36    268      -68.0
   06/08/2018 00:20      60.3      59.6       71     50.6      0.00      6.07      75.8     0.34      1013.8     0.9     SSE   162   1.7       S   186   9.36    267      -69.1
   06/08/2018 00:10      60.5      59.9       71     50.8      0.00      6.07      75.9     0.34      1013.9     0.5       S   169   1.2       S   177   9.36    267      -69.4
   06/08/2018 00:00      61.3      60.0       68     50.0      0.00      6.07      75.9     0.34      1013.9     0.8       S   170   1.6     SSW   199   9.36    267      -70.4
   06/07/2018 23:50      61.6      61.0       68     50.6      0.00      6.07      75.9     0.34      1014.0     0.6       S   177   1.6     SSW   193   9.36    267      -70.1
   06/07/2018 23:40      62.1      61.3       66     50.2      0.00      6.07      75.9     0.34      1014.1     0.6       S   174   2.2     SSW   206   9.36    267      -69.4
   06/07/2018 23:30      62.4      61.6       65     50.2      0.00      6.07      75.9     0.34      1014.1     0.5       S   169   0.8       S   170   9.37    266      -69.0
   06/07/2018 23:20      62.8      62.1       65     50.3      0.00      6.07      75.9     0.34      1014.1     0.6       S   169   1.4       S   169   9.36    266      -70.2
   06/07/2018 23:10      62.7      62.3       65     50.5      0.00      6.07      75.9     0.34      1014.2     0.4     SSE   169   1.1     SSE   169   9.37    266      -69.8
   06/07/2018 23:00      63.2      62.4       64     50.2      0.00      6.07      75.9     0.34      1014.2     0.0     SSE   169   0.5     SSE   169   9.37    266      -70.5
   06/07/2018 22:50      63.8      62.9       61     49.7      0.00      6.07      75.9     0.34      1014.3     0.2       S   174   0.9       S   179   9.37    266      -71.2
   06/07/2018 22:40      64.6      63.5       60     49.8      0.00      6.07      75.9     0.34      1014.3     1.0     SSW   200   2.2      SW   224   9.37    266      -70.2
   06/07/2018 22:30      64.6      64.1       60     50.1      0.00      6.07      75.9     0.34      1014.3     0.6       S   174   1.6       S   174   9.37    266      -69.5
   06/07/2018 22:20      65.4      64.3       59     50.1      0.00      6.07      75.9     0.34      1014.3     0.5       S   173   1.1       S   173   9.37    266      -70.3
   06/07/2018 22:10      65.9      65.2       58     50.2      0.00      6.07      75.9     0.34      1014.4     0.0       N     0   0.0       S   173   9.37    266      -70.9
   06/07/2018 22:00      66.5      65.7       57     50.4      0.00      6.07      75.9     0.34      1014.3     0.0       N     0   0.0       S   173   9.38    266      -71.6
   06/07/2018 21:50      67.6      66.2       55     50.3      0.00      6.07      75.9     0.34      1014.3     0.3       S   174   1.3       S   176   9.38    266      -73.2
   06/07/2018 21:40      67.6      67.1       55     50.4      0.00      6.07      75.9     0.34      1014.2     1.8       S   186   2.8       S   179   9.38    266      -74.8
   06/07/2018 21:30      67.9      67.3       54     50.3      0.00      6.07      75.8     0.34      1014.1     2.1       S   191   3.4       S   186   9.38    266      -75.5
   06/07/2018 21:20      68.6      67.6       53     50.2      0.00      6.07      75.9     0.34      1014.0     1.9     SSW   201   3.0       S   184   9.38    266      -76.4
   06/07/2018 21:10      69.2      68.3       52     50.3      0.00      6.07      75.8     0.34      1013.9     1.8      SW   218   3.6      SW   219   9.39    266      -77.3
   06/07/2018 21:00      69.8      69.0       51     50.4      0.00      6.07      75.8     0.34      1013.7     1.6      SW   227   3.9     WSW   252   9.39    266      -78.5
   06/07/2018 20:50      70.1      69.5       50     50.5      0.00      6.07      75.8     0.34      1013.7     2.3      SW   230   4.1      SW   220   9.39    266      -79.1
   06/07/2018 20:40      70.8      69.9       50     50.7      0.00      6.07      75.8     0.34      1013.6     2.4      SW   231   4.1      SW   220   9.39    266      -79.8
   06/07/2018 20:30      71.6      70.4       49     50.8      0.00      6.07      75.8     0.34      1013.6     3.1      SW   232   5.4     WSW   254   9.39    265      -80.5
   06/07/2018 20:20      72.1      71.1       48     50.8      0.00      6.07      75.8     0.34      1013.5     3.0     WSW   245   6.0       W   269   9.40    265      -81.0
   06/07/2018 20:10      72.9      71.8       47     50.8      0.00      6.07      75.7     0.34      1013.5     4.4       W   263   8.0      NW   311   9.40    265      -79.8
   06/07/2018 20:00      73.4      72.5       46     50.6      0.00      6.07      75.7     0.34      1013.4     2.8     WSW   250   6.6       W   277   9.40    265      -76.8
   06/07/2018 19:50      74.1      73.0       44     50.5      0.00      6.07      75.7     0.34      1013.2     3.4     WSW   242   6.1      SW   223   9.41    265      -72.3
   06/07/2018 19:40      74.9      73.7       43     50.2      0.00      6.07      75.6     0.34      1013.0     3.3     WNW   282   8.0      NW   319   9.41    264      -67.5
   06/07/2018 19:30      75.6      74.6       42     50.2      0.00      6.07      75.6     0.34      1013.0     2.9      NW   306   7.2     WNW   296   9.41    264      -51.6
   06/07/2018 19:20      76.0      75.2       41     50.2      0.00      6.07      75.6     0.34      1012.9     2.8      NW   311   5.6     WNW   292   9.42    264      -37.5
   06/07/2018 19:10      76.8      75.4       41     50.3      0.00      6.07      75.5     0.34      1012.9     4.2      NW   304   8.6       N     0   9.42    264      -19.5
   06/07/2018 19:00      77.7      76.6       39     50.5      0.00      6.07      75.5     0.34      1012.8     3.3     WNW   301   7.4     WNW   285   9.43    264       -0.1
   06/07/2018 18:50      78.0      77.4       39     50.8      0.00      6.07      75.5     0.34      1012.7     2.8      NW   309   5.8     NNW   343   9.43    264       20.8
   06/07/2018 18:40      78.7      77.7       38     50.9      0.00      6.07      75.4     0.34      1012.6     3.3      NW   311   6.9     WNW   300   9.43    264       43.2
   06/07/2018 18:30      79.3      78.4       38     51.1      0.00      6.07      75.4     0.34      1012.5     2.8     WNW   288   6.8     WSW   258   9.44    264       65.9
   06/07/2018 18:20      79.0      78.3       38     51.0      0.00      6.07      75.3     0.34      1012.5     3.0      NW   313   6.3      NW   310   9.44    264       89.9
   06/07/2018 18:10      79.6      78.4       37     50.9      0.00      6.07      75.3     0.34      1012.6     3.8     WNW   286   7.0      NW   305   9.45    264      114.2
   06/07/2018 18:00      79.9      79.0       37     50.8      0.00      6.07      75.2     0.34      1012.7     3.2     WNW   291   6.4       W   277   9.45    264      139.6
   06/07/2018 17:50      80.4      79.5       36     51.0      0.00      6.07      75.1     0.34      1012.7     3.9       W   272   6.8       W   278   9.45    264      164.7
   06/07/2018 17:40      81.0      79.8       36     51.1      0.00      6.07      75.1     0.34      1012.7     4.1     WNW   300   7.9      NW   318   9.46    264      189.7
   06/07/2018 17:30      80.9      80.3       36     51.2      0.00      6.07      75.0     0.34      1012.7     3.7     WNW   288   9.8       W   279   9.46    264      215.0
   06/07/2018 17:20      82.0      80.5       35     51.2      0.00      6.07      75.0     0.34      1012.7     4.4      NW   306   7.2       W   280   9.47    263      239.6
   06/07/2018 17:10      82.1      81.1       36     51.7      0.00      6.07      74.9     0.34      1012.7     3.6      NW   310   7.0       N   354   9.47    263      262.4
   06/07/2018 17:00      81.9      81.1       36     51.9      0.00      6.07      74.9     0.34      1012.6     4.0      NW   316   8.3     NNW   336   9.47    264      284.8
   06/07/2018 16:50      82.3      81.3       36     52.2      0.00      6.07      74.7     0.34      1012.6     3.8      NW   314   6.9     WNW   289   9.48    263      309.0
   06/07/2018 16:40      83.0      81.8       35     52.4      0.00      6.07      74.7     0.34      1012.7     3.7     WNW   290   8.2      NW   324   9.48    263      330.9
   06/07/2018 16:30      83.0      81.4       36     52.8      0.00      6.07      74.7     0.34      1012.7     3.3     WNW   294   7.9     WSW   256   9.48    263      351.8
   06/07/2018 16:20      83.6      81.8       36     52.9      0.00      6.07      74.6     0.34      1012.7     4.2     WNW   289   9.2     WNW   288   9.49    264      373.4
   06/07/2018 16:10      83.6      81.7       36     53.3      0.00      6.07      74.5     0.34      1012.7     3.6     WNW   302   7.3      NW   309   9.49    264      392.7
   06/07/2018 16:00      82.5      81.6       37     53.2      0.00      6.07      74.5     0.34      1012.7     7.1      SW   225  15.2     SSW   209   9.49    264      416.8
   06/07/2018 15:50      83.1      82.0       37     53.2      0.00      6.07      74.4     0.34      1012.8     3.4      SE   129   7.9       S   180   9.50    264      430.3
   06/07/2018 15:40      82.8      80.9       37     53.3      0.00      6.07      74.3     0.34      1012.9     3.8     ESE   114   8.5       E    81   9.50    264      445.6
   06/07/2018 15:30      82.5      81.3       37     52.9      0.00      6.07      74.3     0.34      1012.9     3.0      SE   141   6.9      SE   133   9.50    264      457.0
   06/07/2018 15:20      82.5      81.5       35     51.9      0.00      6.07      74.2     0.34      1013.0     2.8       S   184   5.2     SSW   194   9.51    263      476.9
   06/07/2018 15:10      82.3      81.7       33     49.9      0.00      6.07      74.1     0.34      1013.0     2.4      SE   139   4.9      SE   128   9.51    264      490.9
   06/07/2018 15:00      83.1      81.8       32     49.5      0.00      6.07      74.1     0.34      1013.1     3.2      SE   127   7.7      SE   134   9.51    263      503.3
   06/07/2018 14:50      83.0      81.2       31     49.0      0.00      6.07      74.0     0.34      1013.1     2.6     NNE    33   5.0     NNW   339   9.51    264      517.8
   06/07/2018 14:40      83.4      81.0       31     48.7      0.00      6.07      73.9     0.34      1013.2     3.3       E    84   7.1     ESE   119   9.52    264      531.7
   06/07/2018 14:30      83.5      81.9       31     49.0      0.00      6.07      74.0     0.34      1013.3     2.6      NE    49   4.7     ENE    64   9.52    264      541.7
   06/07/2018 14:20      83.3      81.3       31     48.4      0.00      6.07      73.9     0.34      1013.4     2.1       N     4   5.3     ENE    58   9.52    263      553.1
   06/07/2018 14:10      82.0      80.6       31     48.1      0.00      6.07      73.8     0.33      1013.6     2.0      SW   225   4.7     SSW   199   9.52    264      565.2
   06/07/2018 14:00      81.4      79.2       33     48.8      0.00      6.07      73.8     0.33      1013.7     2.4      NE    46   5.9       N   355   9.52    264      574.6
   06/07/2018 13:50      80.9      78.8       34     48.7      0.00      6.07      73.8     0.33      1013.8     2.7     ESE   110   5.6      SE   134   9.53    264      580.3
   06/07/2018 13:40      80.7      78.1       34     49.0      0.00      6.07      73.7     0.33      1013.9     2.7     ENE    61   6.7      SE   137   9.53    264      589.6
   06/07/2018 13:30      80.6      78.7       35     49.9      0.00      6.07      73.7     0.33      1013.9     2.1     ENE    75   6.3      SE   139   9.53    264      592.9
   06/07/2018 13:20      80.4      78.3       36     50.5      0.00      6.07      73.7     0.33      1014.2     1.2     WNW   301   2.8     NNE    29   9.53    264      601.0
   06/07/2018 13:10      78.1      76.2       39     50.4      0.00      6.07      73.7     0.33      1014.3     2.0     NNE    30   4.6       N   349   9.53    264      600.5
   06/07/2018 13:00      76.6      75.4       41     50.5      0.00      6.07      73.6     0.33      1014.3     2.4       N   357   5.0       N     0   9.53    264      607.6
   06/07/2018 12:50      75.6      74.6       42     50.9      0.00      6.07      73.6     0.33      1014.4     1.3       E    99   2.6      NE    55   9.53    264      608.7
   06/07/2018 12:40      75.0      73.7       45     51.5      0.00      6.07      73.6     0.33      1014.5     2.0       N     4   3.9     NNE    18   9.53    265      607.9
   06/07/2018 12:30      74.2      72.2       47     52.1      0.00      6.07      73.6     0.33      1014.6     2.3      NW   305   5.6     WNW   283   9.53    264      605.7
   06/07/2018 12:20      72.6      72.1       49     52.4      0.00      6.07      73.6     0.33      1014.7     1.6     ESE   106   4.1     SSE   147   9.53    265      601.3
   06/07/2018 12:10      73.3      72.2       49     52.5      0.00      6.07      73.6     0.33      1014.7     1.3       N    10   4.0      NW   318   9.54    264      596.2
   06/07/2018 12:00      73.2      70.8       51     52.8      0.00      6.07      73.6     0.33      1014.8     1.2      NE    46   3.1     NNW   346   9.54    265      589.7
   06/07/2018 11:50      71.0      70.0       53     52.5      0.00      6.07      73.6     0.33      1014.9     1.4     WNW   283   3.8      NW   312   9.54    265      583.3
   06/07/2018 11:40      70.7      69.6       54     52.7      0.00      6.07      73.6     0.33      1015.0     1.9     NNW   334   3.8       N     2   9.54    265      574.8
   06/07/2018 11:30      70.0      68.3       56     52.7      0.00      6.07      73.7     0.33      1015.0     2.2     NNW   343   4.4     ENE    62   9.54    265      567.0
   06/07/2018 11:20      68.7      67.5       58     52.6      0.00      6.07      73.7     0.34      1015.0     2.9       N   359   5.8     NNE    17   9.54    265      554.8
   06/07/2018 11:10      67.7      67.2       59     52.5      0.00      6.07      73.7     0.34      1015.1     2.5     NNW   340   5.7     NNE    22   9.54    265      553.3
   06/07/2018 11:00      67.7      67.1       59     52.5      0.00      6.07      73.7     0.34      1015.1     2.6     NNW   327   5.3     NNW   342   9.54    266      540.1
   06/07/2018 10:50      67.6      66.8       59     52.6      0.00      6.07      73.7     0.34      1015.2     2.3       N     0   4.8     NNW   342   9.54    266      502.8
   06/07/2018 10:40      67.3      65.8       61     52.6      0.00      6.07      73.8     0.34      1015.2     1.7       N     9   5.2     NNE    24   9.54    266      496.7
   06/07/2018 10:30      66.5      65.4       62     52.4      0.00      6.07      73.8     0.34      1015.2     1.5      NE    56   4.5     ENE    61   9.54    266      570.0
   06/07/2018 10:20      65.7      64.4       64     52.5      0.00      6.07      73.8     0.34      1015.2     1.8      NE    34   5.0     ENE    62   9.54    266      400.9
   06/07/2018 10:10      64.6      63.4       66     52.4      0.00      6.07      73.9     0.34      1015.2     2.1     NNE    13   4.7     ENE    61   9.54    267      350.7
   06/07/2018 10:00      63.6      62.5       68     52.2      0.00      6.07      73.9     0.34      1015.2     1.4     NNE    21   3.5       N     5   9.54    267      233.6
   06/07/2018 09:50      62.9      61.9       69     52.0      0.00      6.07      73.9     0.34      1015.1     1.5      NE    50   4.5      NE    41   9.54    267      199.7
   06/07/2018 09:40      62.2      61.9       69     51.9      0.00      6.07      73.9     0.34      1015.1     1.4     ENE    73   2.7       E    84   9.54    268      179.5
   06/07/2018 09:30      62.0      61.5       70     51.8      0.00      6.07      74.0     0.34      1015.1     1.4       E    83   4.3     ENE    73   9.54    268      184.8
   06/07/2018 09:20      61.7      61.3       70     51.4      0.00      6.07      74.0     0.34      1015.1     1.0       E    88   2.6     ENE    70   9.54    268      158.7
   06/07/2018 09:10      61.4      60.5       71     51.5      0.00      6.07      74.0     0.34      1015.1     0.9     ESE   101   3.2       E    80   9.54    268      156.1
   06/07/2018 09:00      60.9      60.0       72     51.4      0.00      6.07      74.1     0.34      1015.1     1.4     ENE    71   3.3      SE   137   9.54    268      151.7
   06/07/2018 08:50      60.4      59.6       73     51.2      0.00      6.07      74.1     0.34      1015.0     1.0     SSE   167   3.1     ENE    65   9.54    268      141.5
   06/07/2018 08:40      59.9      59.4       74     51.4      0.00      6.07      74.2     0.34      1014.9     1.1     ESE   103   2.9     ESE   109   9.54    268      106.3
   06/07/2018 08:30      59.6      58.8       76     51.6      0.00      6.07      74.2     0.34      1014.8     0.7     ENE    77   4.2      SE   131   9.54    268       87.5
   06/07/2018 08:20      59.0      58.3       78     51.7      0.00      6.07      74.3     0.34      1014.7     0.4      NE    48   1.5      NE    52   9.54    268       80.9
   06/07/2018 08:10      58.5      57.9       79     51.6      0.00      6.07      74.4     0.34      1014.7     0.5      NE    47   1.7     ENE    63   9.54    268       70.1
   06/07/2018 08:00      58.1      57.1       81     51.7      0.00      6.07      74.3     0.34      1014.7     0.6     NNE    26   1.8     NNE    24   9.54    269       61.6
   06/07/2018 07:50      57.6      57.1       81     51.5      0.00      6.07      74.4     0.34      1014.6     2.1     ESE   117   4.6     ESE   122   9.54    269       54.6
   06/07/2018 07:40      57.6      56.9       82     51.8      0.00      6.07      74.4     0.34      1014.4     0.4     ESE   107   2.0       E    92   9.54    269       41.8
   06/07/2018 07:30      57.1      56.2       84     51.9      0.00      6.07      74.5     0.34      1014.3     0.9     ENE    72   2.4       E    92   9.54    270       41.8
   06/07/2018 07:20      56.5      55.7       86     52.0      0.00      6.07      74.5     0.34      1014.1     0.7       E    94   2.4       E    87   9.54    292       46.4
   06/07/2018 07:10      56.0      54.9       88     52.0      0.00      6.07      74.6     0.34      1014.0     0.1     ENE    58   1.2      NE    45   9.54    358       48.8
   06/07/2018 07:00      55.0      54.0       89     51.4      0.00      6.07      74.6     0.34      1013.9     0.0      SE   140   0.2      SE   140   9.54    369       50.0
   06/07/2018 06:50      54.1      53.1       90     50.8      0.00      6.07      74.6     0.34      1013.8     0.0       N     0   0.0      SE   140   9.54    372       42.0
   06/07/2018 06:40      53.4      52.6       91     50.3      0.00      6.07      74.7     0.34      1013.6     0.0       N     0   0.0      SE   140   9.54    373       23.1
   06/07/2018 06:30      52.9      52.1       91     49.9      0.00      6.07      74.7     0.34      1013.6     0.0       N     0   0.0      SE   140   9.54    372       13.3
   06/07/2018 06:20      52.4      51.9       91     49.6      0.00      6.07      74.7     0.34      1013.4     0.0       N     0   0.0      SE   140   9.54    371        4.3
   06/07/2018 06:10      52.1      51.7       91     49.3      0.00      6.07      74.8     0.34      1013.4     0.0       N     0   0.0      SE   140   9.54    369       -3.7
   06/07/2018 06:00      52.1      51.6       91     49.1      0.00      6.07      74.8     0.34      1013.2     0.2      SE   140   0.8      SE   140   9.54    366      -10.1
   06/07/2018 05:50      51.9      51.6       90     49.0      0.00      6.07      74.8     0.34      1013.2     0.1      SE   140   0.7      SE   140   9.54    362      -14.9
   06/07/2018 05:40      52.0      51.6       90     49.0      0.00      6.07      74.9     0.34      1013.1     0.2      SE   140   0.9      SE   140   9.54    358      -18.1
   06/07/2018 05:30      52.7      51.6       90     49.2      0.00      6.07      74.9     0.34      1012.9     0.6     SSE   167   1.5     SSW   209   9.54    354      -19.3
   06/07/2018 05:20      52.6      51.9       91     49.8      0.00      6.07      75.0     0.34      1012.8     1.6     SSW   200   2.2     SSW   194   9.55    350      -19.0
   06/07/2018 05:10      52.2      51.8       91     49.4      0.00      6.07      75.0     0.34      1012.8     0.5     SSE   152   1.4     SSE   147   9.55    347      -20.8
   06/07/2018 05:00      52.2      51.6       90     49.1      0.00      6.07      75.0     0.34      1012.9     0.9     SSE   158   2.1     SSE   147   9.55    341      -21.0
   06/07/2018 04:50      52.5      51.8       90     49.5      0.00      6.07      75.1     0.34      1012.8     0.5       S   169   1.2     SSE   169   9.55    337      -20.8
   06/07/2018 04:40      52.5      52.0       90     49.4      0.00      6.07      75.1     0.34      1012.7     0.4       S   169   1.2       S   169   9.55    333      -20.5
   06/07/2018 04:30      52.9      52.2       90     49.9      0.00      6.07      75.2     0.34      1012.6     0.3     SSE   168   1.1     SSE   168   9.55    328      -21.3
   06/07/2018 04:20      52.8      52.3       90     49.7      0.00      6.07      75.2     0.34      1012.6     0.6     SSE   169   1.2     SSE   169   9.55    322      -21.8
   06/07/2018 04:10      52.9      52.4       90     49.8      0.00      6.07      75.3     0.34      1012.6     0.4     SSE   168   0.9     SSE   168   9.55    316      -22.8
   06/07/2018 04:00      52.9      52.2       90     49.5      0.00      6.07      75.3     0.34      1012.5     0.3     SSE   168   1.3     SSE   168   9.55    310      -24.3
   06/07/2018 03:50      53.0      52.5       89     49.7      0.00      6.07      75.3     0.34      1012.5     0.6     SSE   168   1.3     SSE   168   9.55    305      -24.9
   06/07/2018 03:40      53.3      52.5       89     49.5      0.00      6.07      75.3     0.34      1012.5     0.3     SSE   168   0.9     SSE   168   9.55    300      -26.3
   06/07/2018 03:30      53.5      53.0       89     50.1      0.00      6.07      75.4     0.34      1012.5     0.1     SSE   168   0.7     SSE   168   9.55    296      -26.6
   06/07/2018 03:20      53.6      53.1       89     50.3      0.00      6.07      75.4     0.34      1012.5     0.0     SSE   168   1.1     SSE   168   9.55    293      -27.3
   06/07/2018 03:10      53.5      52.7       88     49.6      0.00      6.07      75.5     0.34      1012.5     0.4     SSE   168   0.7     SSE   168   9.55    291      -28.1
   06/07/2018 03:00      54.0      53.2       88     50.2      0.00      6.07      75.5     0.34      1012.4     0.3     SSE   168   0.8     SSE   168   9.55    290      -29.0
   06/07/2018 02:50      54.0      53.6       89     50.5      0.00      6.07      75.5     0.34      1012.4     0.4     SSE   168   0.9     SSE   168   9.56    288      -29.6
   06/07/2018 02:40      54.0      53.5       88     50.3      0.00      6.07      75.5     0.34      1012.4     0.4     SSE   168   0.8     SSE   168   9.56    286      -31.1
   06/07/2018 02:30      54.0      53.5       88     50.3      0.00      6.07      75.6     0.34      1012.4     0.2     SSE   168   1.1     SSE   168   9.56    285      -32.7
   06/07/2018 02:20      54.5      53.6       87     50.2      0.00      6.07      75.6     0.34      1012.3     0.3     SSE   168   0.9     SSE   168   9.56    283      -34.3
   06/07/2018 02:10      54.4      54.0       87     50.4      0.00      6.07      75.6     0.34      1012.3     0.0       N     0   0.0     SSE   168   9.56    282      -36.2
   06/07/2018 02:00      54.9      54.1       86     50.2      0.00      6.07      75.7     0.34      1012.3     0.3     SSE   168   0.8     SSE   168   9.56    280      -37.7
   06/07/2018 01:50      55.1      54.5       85     50.5      0.00      6.07      75.7     0.34      1012.3     0.2     SSE   168   0.8     SSE   168   9.56    279      -39.5
   06/07/2018 01:40      55.7      54.9       85     50.7      0.00      6.07      75.7     0.34      1012.3     0.1     SSE   154   1.0     SSE   167   9.56    278      -42.6
   06/07/2018 01:30      55.7      55.0       84     50.6      0.00      6.07      75.8     0.34      1012.2     0.2     SSE   156   1.0     SSE   152   9.56    277      -45.2
   06/07/2018 01:20      55.9      55.4       84     50.8      0.00      6.07      75.8     0.34      1012.2     0.2     SSE   164   0.9     SSE   152   9.57    276      -46.8
   06/07/2018 01:10      56.2      55.5       84     50.9      0.00      6.07      75.8     0.34      1012.2     0.0     SSE   152   0.7     SSE   146   9.56    276      -49.6
   06/07/2018 01:00      56.3      55.9       83     51.1      0.00      6.07      75.8     0.34      1012.3     0.0       E   100   1.0       E    91   9.57    276      -51.9
   06/07/2018 00:50      56.3      56.0       83     51.0      0.00      6.07      75.9     0.34      1012.3     0.0     SSW   200   0.2     SSW   200   9.57    276      -55.2
   06/07/2018 00:40      56.5      56.0       83     50.9      0.00      6.07      75.9     0.34      1012.3     0.0       N     0   0.0     SSW   200   9.57    275      -58.4
   06/07/2018 00:30      56.8      56.1       82     51.0      0.00      6.07      75.9     0.34      1012.3     0.0     SSW   200   0.7     SSW   200   9.57    273      -60.5
   06/07/2018 00:20      56.8      56.3       82     51.0      0.00      6.07      75.9     0.34      1012.4     0.0     SSW   200   0.5     SSW   200   9.57    272      -65.0
   06/07/2018 00:10      57.1      56.2       81     50.7      0.00      6.07      76.0     0.34      1012.5     0.9     SSW   195   1.6     SSW   199   9.57    271      -68.5
   06/07/2018 00:00      57.6      56.9       80     51.1      0.00      6.07      76.0     0.34      1012.5     0.0     SSE   160   1.0       S   187   9.57    270      -67.4
   06/06/2018 23:50      57.9      57.1       79     50.7      0.00      6.07      76.0     0.34      1012.5     0.0       N     0   0.0     ESE   115   9.57    270      -69.9
   06/06/2018 23:40      58.2      57.5       78     51.2      0.00      6.07      76.0     0.34      1012.5     0.2     ESE   108   1.4     ESE   114   9.57    269      -72.5
   06/06/2018 23:30      57.9      57.4       78     50.7      0.00      6.07      76.0     0.34      1012.6     0.9      SE   131   1.8       E    84   9.57    269      -72.1
   06/06/2018 23:20      58.2      57.6       78     51.0      0.00      6.07      76.0     0.34      1012.6     0.3     SSE   157   1.0     SSE   147   9.57    268      -72.0
   06/06/2018 23:10      58.3      57.5       77     50.5      0.00      6.07      76.0     0.34      1012.5     0.0       E   100   0.4       E   100   9.58    268      -72.8
   06/06/2018 23:00      58.5      57.9       76     50.4      0.00      6.07      76.0     0.34      1012.5     0.0       E    99   0.5       E    99   9.58    268      -74.1
   06/06/2018 22:50      58.9      58.2       75     50.5      0.00      6.07      76.0     0.34      1012.5     0.1       E    99   0.6       E    99   9.58    268      -75.0
   06/06/2018 22:40      59.6      58.6       74     50.8      0.00      6.07      76.0     0.34      1012.5     0.0       N     0   0.0       E    98   9.58    268      -75.0
   06/06/2018 22:30      60.3      59.3       72     50.6      0.00      6.07      76.0     0.34      1012.5     0.1     ESE   118   0.8       E    98   9.58    268      -77.0
   06/06/2018 22:20      60.6      59.9       72     51.2      0.00      6.07      76.0     0.34      1012.5     0.4      SE   125   1.1      SE   134   9.58    268      -78.9
   06/06/2018 22:10      60.9      60.2       71     51.1      0.00      6.07      76.0     0.34      1012.3     0.2     ESE   111   1.6     ESE   115   9.58    268      -79.1
   06/06/2018 22:00      61.6      60.6       70     51.4      0.00      6.07      76.0     0.34      1012.2     0.5     ESE   114   1.4      SE   127   9.58    267      -80.6
   06/06/2018 21:50      62.1      61.1       70     51.6      0.00      6.07      76.0     0.34      1012.2     0.4     ESE   101   2.2     ENE    72   9.59    267      -81.9
   06/06/2018 21:40      62.5      61.7       69     51.7      0.00      6.07      76.0     0.34      1012.1     0.6       E   100   1.4     ENE    79   9.59    267      -82.1
   06/06/2018 21:30      63.1      62.2       67     51.6      0.00      6.07      76.0     0.34      1012.0     0.8     ESE   116   2.0     ENE    79   9.59    267      -82.8
   06/06/2018 21:20      64.1      62.9       66     51.6      0.00      6.07      76.0     0.34      1011.9     0.7      SE   126   1.6      SE   124   9.59    267      -83.3
   06/06/2018 21:10      64.6      63.7       64     51.6      0.00      6.07      76.0     0.34      1011.8     0.7       E    92   1.7       E    94   9.59    266      -83.7
   06/06/2018 21:00      65.4      64.4       63     51.8      0.00      6.07      76.0     0.34      1011.8     0.8     ENE    66   2.2       E    89   9.60    266      -84.1
   06/06/2018 20:50      66.1      65.0       61     51.7      0.00      6.07      76.0     0.34      1011.7     1.1     ENE    63   2.3       E    97   9.60    266      -84.4
   06/06/2018 20:40      66.8      65.8       59     51.6      0.00      6.07      75.9     0.34      1011.6     0.2     ENE    63   1.0     ENE    66   9.60    266      -85.3
   06/06/2018 20:30      68.0      66.5       58     51.7      0.00      6.07      75.9     0.34      1011.5     0.9     ENE    59   2.2      NE    53   9.60    266      -85.9
   06/06/2018 20:20      68.6      67.8       57     52.3      0.00      6.07      75.9     0.34      1011.5     0.8     ESE   120   2.0     ENE    66   9.60    266      -85.6
   06/06/2018 20:10      69.2      68.3       56     52.4      0.00      6.07      75.9     0.34      1011.3     1.9     WSW   237   4.6       W   268   9.61    266      -84.2
   06/06/2018 20:00      69.9      69.0       55     52.5      0.00      6.07      75.9     0.34      1011.2     1.9      SW   233   4.3     WSW   253   9.61    266      -81.8
   06/06/2018 19:50      71.0      69.5       54     52.7      0.00      6.07      75.8     0.34      1011.2     2.9      SW   234   5.3      SW   228   9.61    266      -77.8
   06/06/2018 19:40      72.1      70.9       52     52.9      0.00      6.07      75.8     0.34      1011.2     2.7       W   279   4.7       W   262   9.62    266      -73.7
   06/06/2018 19:30      72.7      71.7       51     52.9      0.00      6.07      75.7     0.34      1011.2     2.6     WSW   252   5.9      SW   233   9.62    265      -56.4
   06/06/2018 19:20      73.1      72.4       50     53.0      0.00      6.07      75.8     0.34      1011.0     3.0       W   262   7.1     WSW   257   9.62    265      -41.9
   06/06/2018 19:10      73.5      72.6       49     53.0      0.00      6.07      75.7     0.34      1010.9     4.1       W   267   7.0       W   261   9.62    265      -21.5
   06/06/2018 19:00      73.7      73.2       49     53.0      0.00      6.07      75.7     0.34      1010.8     3.7       W   266   7.1     WSW   243   9.63    265        0.7
   06/06/2018 18:50      74.4      73.5       48     53.1      0.00      6.07      75.6     0.34      1010.7     3.7       W   267   6.2      SW   216   9.63    265       24.0
   06/06/2018 18:40      74.5      73.6       48     53.1      0.00      6.07      75.6     0.34      1010.6     4.2       W   264   7.6      NW   319   9.64    265       49.4
   06/06/2018 18:30      74.4      74.1       48     53.2      0.00      6.07      75.6     0.34      1010.6     4.7     WSW   245   7.7     WSW   237   9.64    265       72.3
   06/06/2018 18:20      74.7      74.0       48     53.2      0.00      6.07      75.5     0.34      1010.6     5.1      SW   217   8.9     SSW   212   9.65    265       95.6
   06/06/2018 18:10      76.2      74.3       46     53.4      0.00      6.07      75.5     0.34      1010.5     4.9     SSW   213  10.9      SW   218   9.65    265      118.6
   06/06/2018 18:00      77.1      75.3       45     53.5      0.00      6.07      75.4     0.34      1010.5     5.0     WSW   237   9.1     WSW   240   9.66    265      143.3
   06/06/2018 17:50      77.4      76.6       44     53.6      0.00      6.07      75.4     0.34      1010.5     4.5       W   271   9.4     WSW   258   9.66    264      165.4
   06/06/2018 17:40      77.4      76.7       44     53.6      0.00      6.07      75.3     0.34      1010.5     4.3       W   265   8.7     WNW   285   9.66    264      191.3
   06/06/2018 17:30      78.6      76.7       44     53.7      0.00      6.07      75.3     0.34      1010.5     6.0       W   270  10.9     WSW   251   9.67    264      215.0
   06/06/2018 17:20      78.4      76.9       44     53.8      0.00      6.07      75.3     0.34      1010.5     4.9      SW   234  10.3     SSW   193   9.67    264      240.2
   06/06/2018 17:10      78.6      77.9       43     53.8      0.00      6.07      75.2     0.34      1010.5     4.8      SW   215   8.6      SW   220   9.68    264      263.9
   06/06/2018 17:00      80.3      77.9       42     53.8      0.00      6.07      75.2     0.34      1010.5     5.3      SW   227  10.1      SW   229   9.68    264      282.6
   06/06/2018 16:50      81.0      80.2       39     53.5      0.00      6.07      75.1     0.34      1010.5     3.3     NNW   339   6.9       W   270   9.69    264      300.3
   06/06/2018 16:40      80.9      80.1       40     54.0      0.00      6.07      75.1     0.34      1010.5     2.7      NE    53   5.2     ENE    74   9.69    264      323.1
   06/06/2018 16:30      82.0      80.7       39     53.9      0.00      6.07      75.0     0.34      1010.5     2.4     ENE    61   6.1       E    91   9.69    264      344.9
   06/06/2018 16:20      82.0      81.1       38     53.5      0.00      6.07      75.0     0.34      1010.5     2.6      NE    36   4.8      NE    38   9.70    264      369.2
   06/06/2018 16:10      83.7      81.4       35     52.1      0.00      6.07      74.9     0.34      1010.5     3.7      NE    37   6.6      NE    44   9.70    264      389.7
   06/06/2018 16:00      84.4      83.2       29     47.9      0.00      6.07      74.9     0.34      1010.5     2.2     NNW   333   5.2       N     8   9.70    263      406.2
   06/06/2018 15:50      83.9      82.6       28     46.6      0.00      6.07      74.8     0.34      1010.7     2.3       N     4   4.8     NNE    13   9.70    264      425.7
   06/06/2018 15:40      83.5      81.2       30     47.8      0.00      6.07      74.8     0.34      1010.8     1.8       N   356   4.4      NW   313   9.70    263      452.0
   06/06/2018 15:30      82.2      81.1       31     47.7      0.00      6.07      74.7     0.34      1010.9     2.5     ENE    76   6.6      NE    50   9.71    264      465.3
   06/06/2018 15:20      82.0      80.2       31     47.8      0.00      6.07      74.7     0.34      1011.0     2.6     NNE    33   5.3       N     8   9.71    264      481.9
   06/06/2018 15:10      80.8      80.1       32     47.8      0.00      6.07      74.6     0.34      1011.1     2.1     WNW   299   5.3     WSW   240   9.71    264      500.5
   06/06/2018 15:00      81.0      79.5       33     48.7      0.00      6.07      74.6     0.34      1011.2     2.0     NNE    31   4.7     NNE    20   9.71    264      513.6
   06/06/2018 14:50      80.3      79.3       33     48.6      0.00      6.07      74.6     0.34      1011.3     2.6       N     2   6.3     NNE    22   9.71    264      531.4
   06/06/2018 14:40      79.3      78.4       35     48.6      0.00      6.07      74.5     0.34      1011.5     2.0     WNW   301   4.3       W   276   9.72    264      548.0
   06/06/2018 14:30      78.6      77.6       39     51.3      0.00      6.07      74.5     0.34      1011.6     3.4     NNW   338   6.5      NW   311   9.72    264      559.3
   06/06/2018 14:20      78.7      77.8       41     52.3      0.00      6.07      74.5     0.34      1011.6     2.4      NW   311   6.2      NW   316   9.72    265      566.2
   06/06/2018 14:10      78.4      77.6       41     52.3      0.00      6.07      74.5     0.34      1011.8     2.0     ENE    71   3.8     ENE    77   9.72    265      577.2
   06/06/2018 14:00      78.1      76.4       42     52.4      0.00      6.07      74.5     0.34      1011.9     2.2      NW   305   6.0       W   278   9.72    265      588.0
   06/06/2018 13:50      77.1      76.3       43     52.5      0.00      6.07      74.4     0.34      1012.1     1.5     NNE    14   4.1       N   350   9.72    264      594.1
   06/06/2018 13:40      76.8      75.8       44     52.8      0.00      6.07      74.5     0.34      1012.3     1.4     WSW   256   4.1      SE   129   9.72    265      601.5
   06/06/2018 13:30      75.8      74.5       46     52.6      0.00      6.07      74.4     0.34      1012.4     2.0     NNE    33   4.2      NE    46   9.72    265      611.6
   06/06/2018 13:20      74.8      73.2       48     52.7      0.00      6.07      74.4     0.34      1012.5     2.7       N     4   5.9       N     0   9.72    265      612.2
   06/06/2018 13:10      74.9      73.4       48     52.9      0.00      6.07      74.4     0.34      1012.7     2.5       E    92   6.1       E    92   9.73    265      619.1
   06/06/2018 13:00      74.7      71.3       50     53.1      0.00      6.07      74.5     0.34      1012.7     2.0     NNE    30   5.3      NE    39   9.73    265      620.0
   06/06/2018 12:50      71.7      70.8       52     52.7      0.00      6.07      74.5     0.34      1012.9     2.8       E    96   6.7       W   281   9.73    265      623.8
   06/06/2018 12:40      73.2      71.6       51     53.2      0.00      6.07      74.4     0.34      1013.1     2.4      NE    41   4.5     NNE    27   9.73    265      617.4
   06/06/2018 12:30      72.2      70.4       53     53.4      0.00      6.07      74.5     0.34      1013.3     2.7       N   356   6.1       N   350   9.73    265      621.1
   06/06/2018 12:20      70.7      69.8       54     52.8      0.00      6.07      74.5     0.34      1013.3     2.2       S   176   6.0     SSE   157   9.73    265      628.0
   06/06/2018 12:10      70.5      69.2       55     53.1      0.00      6.07      74.5     0.34      1013.4     1.9       E    92   5.1       E    84   9.73    266      627.9
   06/06/2018 12:00      69.7      67.0       58     52.8      0.00      6.07      74.5     0.34      1013.5     2.2      SE   132   4.9     ENE    59   9.73    266      639.8
   06/06/2018 11:50      67.9      66.9       59     52.6      0.00      6.07      74.5     0.34      1013.6     2.8       S   171   5.4       S   177   9.73    266      460.8
   06/06/2018 11:40      67.9      65.9       60     52.6      0.00      6.07      74.5     0.34      1013.7     3.0     WSW   241   6.3      SW   229   9.73    266      651.4
   06/06/2018 11:30      66.5      65.5       61     52.4      0.00      6.07      74.6     0.34      1013.8     3.1       S   187   5.4       W   273   9.73    266      483.0
   06/06/2018 11:20      66.4      64.9       63     52.7      0.00      6.07      74.5     0.34      1013.9     1.5     ESE   117   4.0      SE   126   9.73    266      349.7
   06/06/2018 11:10      65.0      64.1       66     53.0      0.00      6.07      74.6     0.34      1013.9     2.4      SE   130   5.0     SSE   161   9.73    267      258.7
   06/06/2018 11:00      64.4      63.6       68     53.0      0.00      6.07      74.6     0.34      1013.9     2.1     ENE    66   5.1     ESE   123   9.73    267      195.1
   06/06/2018 10:50      64.4      63.5       69     53.3      0.00      6.07      74.6     0.34      1013.8     2.5       E    88   5.3      NE    53   9.73    267      178.4
   06/06/2018 10:40      64.4      63.6       68     53.2      0.00      6.07      74.7     0.34      1013.7     2.0     ESE   118   3.8      SE   139   9.73    267      150.4
   06/06/2018 10:30      64.2      63.5       68     53.1      0.00      6.07      74.6     0.34      1013.8     1.5       E    94   4.1     SSE   149   9.73    267      122.8
   06/06/2018 10:20      64.0      63.4       68     53.1      0.00      6.07      74.7     0.34      1013.7     2.0     ENE    64   3.5     ENE    68   9.74    267      123.8
   06/06/2018 10:10      63.8      62.2       70     53.0      0.00      6.07      74.7     0.34      1013.8     1.2     ESE   111   4.3     ENE    67   9.74    267      123.4
   06/06/2018 10:00      62.7      62.3       71     52.9      0.00      6.07      74.8     0.34      1013.8     2.9     ESE   122   5.8       E    84   9.74    268      132.9
   06/06/2018 09:50      62.9      62.2       72     53.2      0.00      6.07      74.8     0.34      1013.8     3.2      SE   136   6.5      SE   131   9.74    268      127.0
   06/06/2018 09:40      62.7      62.0       72     53.3      0.00      6.07      74.8     0.34      1013.7     2.9      SE   133   5.9     SSE   148   9.74    268      122.0
   06/06/2018 09:30      62.7      62.2       72     53.2      0.00      6.07      74.8     0.34      1013.6     3.3      SE   145   5.7       S   186   9.74    268      119.0
   06/06/2018 09:20      62.5      61.8       72     53.2      0.00      6.07      74.8     0.34      1013.5     2.7      SE   140   4.4     SSE   153   9.74    268      120.4
   06/06/2018 09:10      62.3      61.8       73     53.2      0.00      6.07      74.9     0.34      1013.5     3.2     SSE   164   5.2      SE   125   9.74    268      108.0
   06/06/2018 09:00      62.2      61.7       73     53.2      0.00      6.07      74.9     0.34      1013.5     3.9      SE   146   6.2      SE   134   9.74    268       92.1
   06/06/2018 08:50      62.2      61.6       73     53.2      0.00      6.07      74.9     0.34      1013.3     2.9      SE   146   5.9      SE   124   9.74    268       81.6
   06/06/2018 08:40      62.0      61.4       73     53.1      0.00      6.07      75.0     0.34      1013.2     2.8       S   176   4.2       S   178   9.74    268       77.8
   06/06/2018 08:30      61.9      61.3       75     53.4      0.00      6.07      75.0     0.34      1013.2     3.5     SSE   148   5.9      SE   142   9.74    268       67.0
   06/06/2018 08:20      62.1      61.6       73     53.2      0.00      6.07      75.0     0.34      1013.2     2.1      SE   126   5.0       S   187   9.74    268       52.1
   06/06/2018 08:10      61.9      61.3       74     53.2      0.00      6.07      75.0     0.34      1013.1     1.9     ESE   118   3.3     ESE   119   9.74    268       48.2
   06/06/2018 08:00      61.9      61.3       73     53.0      0.00      6.07      75.0     0.34      1013.0     3.1     SSE   147   5.7      SE   142   9.74    268       40.5
   06/06/2018 07:50      61.9      61.3       74     53.1      0.00      6.07      75.1     0.34      1013.0     1.9     SSE   149   4.8      SE   130   9.74    268       29.1
   06/06/2018 07:40      61.6      61.2       74     53.2      0.00      6.07      75.0     0.34      1012.9     1.4      SE   131   3.7      SE   139   9.74    268       21.1
   06/06/2018 07:30      61.5      61.0       75     53.3      0.00      6.07      75.1     0.34      1012.9     1.8      SE   124   5.3      SE   142   9.75    268       19.1
   06/06/2018 07:20      61.2      60.7       76     53.4      0.00      6.07      75.2     0.34      1012.9     0.7     ESE   108   2.6     SSE   169   9.75    268       16.3
   06/06/2018 07:10      61.1      60.4       77     53.5      0.00      6.07      75.2     0.34      1012.8     0.3      SW   235   1.0     ENE    58   9.75    268       11.3
   06/06/2018 07:00      60.7      60.1       78     53.6      0.00      6.07      75.3     0.34      1012.7     0.2       E    87   0.9     ESE   110   9.75    268        5.7
   06/06/2018 06:50      60.3      59.8       79     53.5      0.00      6.07      75.3     0.34      1012.6     1.2      SE   132   2.5     ENE    69   9.75    268        3.4
   06/06/2018 06:40      60.1      59.8       80     53.7      0.00      6.07      75.3     0.34      1012.6     1.1       E    91   2.4       E    89   9.75    268        0.8
   06/06/2018 06:30      59.9      59.5       80     53.6      0.00      6.07      75.3     0.34      1012.7     0.7      SE   128   2.1      SE   124   9.75    269       -4.3
   06/06/2018 06:20      59.9      59.4       81     53.6      0.00      6.07      75.3     0.34      1012.6     2.0     SSE   153   3.7       S   171   9.75    269       -7.2
   06/06/2018 06:10      59.8      59.4       81     53.9      0.00      6.07      75.3     0.34      1012.5     1.0      SE   135   2.7     SSE   155   9.75    269       -8.9
   06/06/2018 06:00      59.7      59.3       82     53.9      0.00      6.07      75.4     0.34      1012.5     0.9      SE   139   3.1      SE   141   9.75    269      -10.2
   06/06/2018 05:50      59.7      59.2       82     54.0      0.00      6.07      75.4     0.34      1012.5     1.8      SE   126   4.7      SE   140   9.75    269      -10.8
   06/06/2018 05:40      59.5      59.1       83     54.1      0.00      6.07      75.5     0.34      1012.3     1.0     ESE   123   2.8      SE   142   9.75    269      -11.2
   06/06/2018 05:30      59.6      59.1       83     54.1      0.00      6.07      75.5     0.34      1012.3     2.1     ESE   120   4.6      SE   140   9.75    269      -11.6
   06/06/2018 05:20      59.6      59.1       83     54.2      0.00      6.07      75.4     0.34      1012.3     1.3     ESE   102   4.3      SE   141   9.75    269      -11.4
   06/06/2018 05:10      59.6      59.0       84     54.2      0.00      6.07      75.6     0.34      1012.3     1.9      SE   138   4.0     SSE   150   9.75    269      -11.5
   06/06/2018 05:00      59.7      59.1       83     54.3      0.00      6.07      75.6     0.34      1012.2     1.8      SE   133   3.2      SE   134   9.75    269      -11.2
   06/06/2018 04:50      59.7      59.2       83     54.3      0.00      6.07      75.6     0.34      1012.2     1.2     ESE   109   3.4       E    81   9.75    269      -10.8
   06/06/2018 04:40      59.7      59.1       84     54.5      0.00      6.07      75.6     0.34      1012.2     1.5       E    85   3.6       E    92   9.75    269      -11.1
   06/06/2018 04:30      59.3      58.8       85     54.6      0.00      6.07      75.7     0.34      1012.1     0.9     ENE    64   3.0     ENE    61   9.75    269      -10.7
   06/06/2018 04:20      59.1      58.7       86     54.7      0.00      6.07      75.7     0.34      1012.0     0.3      SE   133   1.4       S   170   9.75    269      -10.7
   06/06/2018 04:10      59.0      58.5       86     54.6      0.00      6.07      75.7     0.34      1012.0     0.0     ESE   120   1.0       E   101   9.75    270      -10.3
   06/06/2018 04:00      58.8      58.4       87     54.5      0.00      6.07      75.8     0.34      1012.0     0.0     NNW   344   0.4       N     0   9.75    270      -10.6
   06/06/2018 03:50      58.7      58.3       86     54.4      0.00      6.07      75.8     0.34      1012.0     0.5       W   273   1.8     WSW   259   9.75    271      -10.4
   06/06/2018 03:40      58.7      58.3       86     54.4      0.00      6.07      75.8     0.34      1012.0     0.3      NW   324   1.6      NW   307   9.75    273      -10.8
   06/06/2018 03:30      58.6      58.2       86     54.3      0.00      6.07      75.9     0.34      1012.0     0.1       N   357   0.8       N   355   9.75    273      -11.4
   06/06/2018 03:20      58.5      58.0       86     54.0      0.00      6.07      75.9     0.34      1012.1     0.6     WSW   239   2.0     WSW   239   9.75    271      -11.9
   06/06/2018 03:10      58.3      57.9       85     53.8      0.00      6.07      75.9     0.34      1012.1     0.7      SW   220   1.2     WSW   241   9.75    269      -12.4
   06/06/2018 03:00      58.2      57.9       85     53.7      0.00      6.07      75.9     0.34      1012.1     0.5     WSW   254   1.7     WSW   253   9.75    269      -12.1
   06/06/2018 02:50      58.1      57.7       86     53.7      0.00      6.07      76.0     0.34      1012.1     0.3     SSW   196   1.6     SSW   196   9.75    269      -11.8
   06/06/2018 02:40      57.9      57.4       86     53.5      0.00      6.07      76.1     0.34      1012.1     0.5     ESE   112   1.6       E    92   9.76    269      -11.6
   06/06/2018 02:30      57.7      57.2       86     53.4      0.00      6.07      76.0     0.34      1012.2     0.5      SW   228   2.1     SSW   198   9.76    269      -11.7
   06/06/2018 02:20      57.9      57.2       86     53.2      0.00      6.07      76.1     0.34      1012.3     2.5     SSE   153   4.9      SE   126   9.76    269      -11.9
   06/06/2018 02:10      58.1      57.7       85     53.5      0.00      6.07      76.1     0.34      1012.3     1.6      SE   127   4.4     ESE   120   9.76    269      -11.5
   06/06/2018 02:00      58.1      57.5       84     52.9      0.00      6.07      76.2     0.34      1012.5     1.7      SE   137   3.6       S   172   9.76    269      -11.5
   06/06/2018 01:50      57.7      57.4       84     52.7      0.00      6.07      76.2     0.34      1012.5     1.7       S   177   3.3       S   183   9.76    269      -12.3
   06/06/2018 01:40      57.9      57.2       85     53.0      0.00      6.07      76.2     0.34      1012.5     0.8      SE   138   2.5     SSW   202   9.76    269      -11.6
   06/06/2018 01:30      57.5      56.9       85     52.8      0.00      6.07      76.2     0.34      1012.6     0.3     ESE   120   1.9      SE   139   9.76    269      -11.0
   06/06/2018 01:20      57.4      56.8       85     52.5      0.00      6.07      76.3     0.34      1012.6     0.8     ESE   110   2.0       E   100   9.76    270      -34.4
   06/06/2018 01:10      57.9      57.0       85     52.9      0.00      6.07      76.3     0.34      1012.6     1.1     ENE    64   2.5      NE    49   9.76    274      -62.0
   06/06/2018 01:00      58.0      57.4       85     53.2      0.00      6.07      76.3     0.34      1012.7     1.8      NE    46   3.0      NE    38   9.76    274      -61.9
   06/06/2018 00:50      58.3      57.7       85     53.4      0.00      6.07      76.3     0.34      1012.8     1.3      NE    48   2.9     ENE    60   9.76    275      -62.6
   06/06/2018 00:40      58.4      57.9       84     53.4      0.00      6.07      76.3     0.34      1012.8     1.0      NE    52   2.9      NE    41   9.77    274      -64.2
   06/06/2018 00:30      58.7      58.0       84     53.4      0.00      6.07      76.4     0.34      1013.0     0.6     ENE    67   1.9      NE    54   9.77    274      -65.6
   06/06/2018 00:20      59.0      58.3       83     53.3      0.00      6.07      76.4     0.34      1013.0     0.4     ENE    74   1.8     ENE    61   9.77    272      -68.0
   06/06/2018 00:10      59.5      58.7       82     53.4      0.00      6.07      76.4     0.34      1013.0     0.4     ENE    64   2.0      NE    50   9.77    271      -68.7
   06/06/2018 00:00      60.0      59.2       81     53.5      0.00      6.07      76.4     0.34      1013.1     0.9     ENE    59   2.0     ENE    62   9.77    270      -69.6
   06/05/2018 23:50      60.1      59.6       80     53.8      0.00      6.07      76.4     0.34      1013.2     1.0      NE    49   2.1      NE    55   9.77    270      -69.2
   06/05/2018 23:40      60.1      59.6       80     53.7      0.00      6.07      76.5     0.34      1013.1     0.8      NE    47   1.8     ENE    59   9.77    270      -68.9
   06/05/2018 23:30      59.8      59.3       78     52.8      0.00      6.07      76.5     0.34      1013.1     0.4     ENE    77   1.9       E   100   9.77    270      -68.6
   06/05/2018 23:20      60.1      59.5       77     52.6      0.00      6.07      76.5     0.34      1013.1     0.0       E    85   0.2       E    85   9.77    269      -68.5
   06/05/2018 23:10      60.5      59.8       76     52.7      0.00      6.07      76.5     0.34      1013.1     0.0     ESE   114   0.8     SSE   155   9.77    268      -70.3
   06/05/2018 23:00      60.5      60.2       77     53.0      0.00      6.07      76.5     0.34      1013.1     0.9       S   172   2.4       S   188   9.78    268      -70.8
   06/05/2018 22:50      61.3      60.2       74     52.5      0.00      6.07      76.5     0.34      1013.0     0.0     ENE    59   0.4     ENE    59   9.78    268      -71.2
   06/05/2018 22:40      62.1      61.1       73     52.9      0.00      6.07      76.5     0.34      1012.9     0.0       N     0   0.0     ENE    58   9.78    268      -72.3
   06/05/2018 22:30      62.5      61.8       73     53.2      0.00      6.07      76.5     0.34      1012.9     0.2       E    82   1.1     ENE    58   9.78    268      -74.7
   06/05/2018 22:20      62.8      62.1       72     53.3      0.00      6.07      76.5     0.34      1012.9     1.2     SSW   200   3.1      SW   227   9.78    268      -75.8
   06/05/2018 22:10      62.7      62.4       72     53.3      0.00      6.07      76.5     0.34      1012.8     2.4     SSW   208   4.1     SSW   193   9.78    267      -75.6
   06/05/2018 22:00      62.7      62.4       72     53.3      0.00      6.07      76.5     0.34      1012.7     2.0     SSW   196   3.0       S   169   9.78    267      -75.8
   06/05/2018 21:50      63.2      62.5       71     53.4      0.00      6.07      76.5     0.34      1012.6     1.7       S   190   2.9     SSW   197   9.79    267      -76.5
   06/05/2018 21:40      63.6      62.9       70     53.4      0.00      6.07      76.5     0.34      1012.5     1.8       S   189   3.5       S   189   9.79    267      -77.4
   06/05/2018 21:30      64.0      63.2       70     53.4      0.00      6.07      76.5     0.34      1012.6     1.9     SSW   197   3.2     SSW   204   9.79    267      -77.5
   06/05/2018 21:20      64.4      63.7       69     53.5      0.00      6.07      76.5     0.34      1012.4     1.7     SSW   203   3.6      SW   228   9.80    267      -78.4
   06/05/2018 21:10      65.2      64.2       68     53.6      0.00      6.07      76.5     0.34      1012.4     2.3      SW   224   4.6     WSW   241   9.80    266      -78.6
   06/05/2018 21:00      65.7      64.9       66     53.7      0.00      6.07      76.5     0.34      1012.4     2.6     WSW   249   5.5     WSW   250   9.80    266      -79.2
   06/05/2018 20:50      66.0      65.3       66     53.8      0.00      6.07      76.5     0.34      1012.3     3.4     WSW   249   6.3     WSW   243   9.80    266      -79.3
   06/05/2018 20:40      66.6      65.7       65     53.9      0.00      6.07      76.5     0.34      1012.3     3.8     WSW   245   5.8      SW   228   9.81    266      -79.8
   06/05/2018 20:30      67.1      66.2       64     54.0      0.00      6.07      76.4     0.34      1012.1     3.2      SW   233   7.4      SW   227   9.81    266      -79.9
   06/05/2018 20:20      67.9      66.9       63     54.2      0.00      6.07      76.5     0.34      1012.0     4.4      SW   234   7.9     WSW   240   9.81    266      -79.5
   06/05/2018 20:10      68.3      67.7       61     54.1      0.00      6.07      76.4     0.34      1011.9     4.1      SW   216   7.3     SSW   210   9.82    266      -78.1
   06/05/2018 20:00      69.0      68.1       58     53.0      0.00      6.07      76.4     0.34      1011.8     3.4     SSW   211   7.3      SW   219   9.82    266      -76.2
   06/05/2018 19:50      69.9      68.6       57     53.1      0.00      6.07      76.4     0.34      1011.8     3.6       S   190   7.1     SSW   210   9.83    266      -72.1
   06/05/2018 19:40      71.0      69.6       56     53.6      0.00      6.07      76.3     0.34      1011.7     4.1       S   190   6.4       S   185   9.83    265      -68.0
   06/05/2018 19:30      71.8      70.8       54     54.0      0.00      6.07      76.3     0.34      1011.5     3.3       S   190   5.4     SSW   209   9.84    265      -50.1
   06/05/2018 19:20      72.8      71.6       54     54.4      0.00      6.07      76.3     0.34      1011.3     3.7     SSW   192   6.4      SE   139   9.84    265      -34.7
   06/05/2018 19:10      73.6      72.4       53     54.6      0.00      6.07      76.3     0.34      1011.2     3.8     SSW   191   6.1       S   181   9.84    265      -15.6
   06/05/2018 19:00      74.2      73.2       52     54.8      0.00      6.07      76.2     0.34      1011.1     3.3       S   175   6.9       S   186   9.85    265        5.5
   06/05/2018 18:50      74.4      73.7       52     55.1      0.00      6.07      76.2     0.34      1011.0     4.1       S   175   6.8      SE   140   9.85    265       27.9
   06/05/2018 18:40      75.4      74.2       51     55.4      0.00      6.07      76.2     0.34      1010.9     4.2       S   180   6.9       S   184   9.86    265       50.5
   06/05/2018 18:30      76.2      74.7       51     55.7      0.00      6.07      76.1     0.34      1010.9     4.9       S   187   8.3       S   174   9.86    265       75.2
   06/05/2018 18:20      76.5      75.7       49     55.5      0.00      6.07      76.1     0.34      1010.9     4.3       S   191   8.7       S   184   9.87    265       98.2
   06/05/2018 18:10      76.9      75.8       49     55.7      0.00      6.07      76.0     0.34      1010.9     5.0       S   185   8.5     SSW   194   9.88    265      121.4
   06/05/2018 18:00      78.2      76.4       48     55.7      0.00      6.07      76.0     0.34      1010.8     4.5       S   180   8.0       S   179   9.88    265      144.9
   06/05/2018 17:50      79.6      77.9       45     55.6      0.00      6.07      76.0     0.34      1010.8     2.8     SSW   213   8.4     SSW   206   9.88    264      167.3
   06/05/2018 17:40      79.3      78.5       44     55.0      0.00      6.07      76.0     0.34      1010.9     2.4     ENE    75   5.5      NE    51   9.89    265      191.3
   06/05/2018 17:30      79.3      78.7       44     55.2      0.00      6.07      75.9     0.34      1010.9     3.0      NE    48   6.1      NE    43   9.89    265      215.6
   06/05/2018 17:20      79.3      78.6       44     55.3      0.00      6.07      75.8     0.34      1010.9     3.3      NE    36   6.2     NNE    28   9.90    264      240.7
   06/05/2018 17:10      79.5      78.4       44     55.4      0.00      6.07      75.8     0.34      1011.0     3.3      NE    41   6.0     NNE    24   9.90    264      267.1
   06/05/2018 17:00      79.6      78.8       44     55.6      0.00      6.07      75.7     0.34      1011.1     3.0      NE    47   7.1     ESE   118   9.91    264      288.8
   06/05/2018 16:50      79.7      78.7       45     55.6      0.00      6.07      75.7     0.34      1011.1     3.5      NE    55   6.0       E    80   9.91    264      312.5
   06/05/2018 16:40      79.9      78.7       44     55.8      0.00      6.07      75.6     0.34      1011.2     3.4      NE    51   6.2      NE    40   9.91    264      337.8
   06/05/2018 16:30      79.9      79.0       44     55.8      0.00      6.07      75.6     0.34      1011.3     3.0     ENE    61   6.1      NE    45   9.92    265      358.2
   06/05/2018 16:20      80.6      79.2       44     56.0      0.00      6.07      75.5     0.34      1011.4     3.4      NE    46   6.0      NE    53   9.92    265      378.2
   06/05/2018 16:10      80.6      79.8       44     56.1      0.00      6.07      75.4     0.34      1011.5     3.0      NE    44   5.4      NE    42   9.92    264      400.5
   06/05/2018 16:00      80.1      79.2       44     56.1      0.00      6.07      75.4     0.34      1011.5     3.3      NE    46   6.1      NE    53   9.93    264      420.8
   06/05/2018 15:50      79.5      78.4       45     56.0      0.00      6.07      75.3     0.34      1011.6     3.5      NE    50   6.3      NE    47   9.93    265      441.6
   06/05/2018 15:40      79.4      78.8       45     56.2      0.00      6.07      75.3     0.34      1011.6     3.6      NE    56   6.7     ENE    71   9.93    264      457.7
   06/05/2018 15:30      80.4      78.9       45     56.3      0.00      6.07      75.2     0.34      1011.8     3.5      NE    46   6.8      NE    45   9.94    265      473.8
   06/05/2018 15:20      79.6      78.6       45     56.2      0.00      6.07      75.2     0.34      1011.9     3.4      NE    48   7.1     ENE    59   9.94    264      491.9
   06/05/2018 15:10      79.6      79.0       45     56.3      0.00      6.07      75.1     0.34      1012.0     2.9     ENE    63   5.4     ENE    60   9.94    265      505.2
   06/05/2018 15:00      79.8      78.5       45     56.3      0.00      6.07      75.0     0.34      1012.0     3.3      NE    36   6.5      NE    55   9.94    265      519.9
   06/05/2018 14:50      79.8      78.2       46     56.4      0.00      6.07      75.0     0.34      1012.1     2.6     ENE    61   7.9      SE   140   9.94    265      535.0
   06/05/2018 14:40      79.7      78.7       45     56.4      0.00      6.07      74.9     0.34      1012.2     2.7      NE    54   5.9     NNE    19   9.95    264      548.9
   06/05/2018 14:30      78.8      78.1       47     56.4      0.00      6.07      74.9     0.34      1012.2     3.4      NE    49   6.8     NNE    20   9.95    265      557.6
   06/05/2018 14:20      79.6      78.3       46     56.4      0.00      6.07      74.8     0.34      1012.2     3.7      NE    43   6.4     NNE    28   9.95    265      569.6
   06/05/2018 14:10      79.6      77.8       47     56.5      0.00      6.07      74.8     0.34      1012.2     3.2      NE    43   6.6      NE    52   9.38    265      579.7
   06/05/2018 14:00      79.6      78.0       46     56.5      0.00      6.07      74.8     0.34      1012.3     3.6      NE    37   6.2     NNE    31   9.39    265      586.9
   06/05/2018 13:50      79.0      77.9       47     56.5      0.00      6.07      74.7     0.34      1012.4     3.2     ENE    60   6.5       E    94   9.39    264      593.6
   06/05/2018 13:40      79.0      77.8       47     56.5      0.00      6.07      74.7     0.34      1012.5     2.7      NE    47   5.3       N     0   9.39    264      599.3
   06/05/2018 13:30      79.5      78.5       46     56.5      0.00      6.07      74.6     0.34      1012.5     3.2      NE    37   6.9     ENE    60   9.39    264      604.7
   06/05/2018 13:20      78.5      77.4       48     56.4      0.00      6.07      74.6     0.34      1012.6     3.2      NE    38   7.0      NE    37   9.39    265      610.1
   06/05/2018 13:10      78.4      76.5       48     56.3      0.00      6.07      74.6     0.34      1012.6     2.6     ENE    68   5.4     NNE    29   9.39    264      619.5
   06/05/2018 13:00      77.7      76.4       48     56.0      0.00      6.07      74.6     0.34      1012.7     3.2     ENE    74   6.2     ESE   121   9.40    264      622.0
   06/05/2018 12:50      77.7      76.9       48     56.1      0.00      6.07      74.5     0.34      1012.8     2.6       E    85   6.1     ENE    66   9.40    264      591.4
   06/05/2018 12:40      78.0      77.1       47     55.9      0.00      6.07      74.5     0.34      1012.8     2.1       E    93   5.4       E    94   9.40    264      587.3
   06/05/2018 12:30      77.4      75.3       48     55.8      0.00      6.07      74.5     0.34      1012.9     2.1      NE    44   3.9     ENE    63   9.40    264      605.5
   06/05/2018 12:20      75.7      74.7       50     55.4      0.00      6.07      74.5     0.34      1013.0     1.7      NE    36   4.4       N     7   9.40    264      586.7
   06/05/2018 12:10      76.1      75.0       50     55.7      0.00      6.07      74.5     0.34      1013.0     2.4      NE    38   4.8     NNW   331   9.40    265      584.7
   06/05/2018 12:00      75.2      73.3       52     55.5      0.00      6.07      74.5     0.34      1013.1     1.7      NE    36   3.8      NE    40   9.40    264      568.1
   06/05/2018 11:50      74.0      72.9       53     55.4      0.00      6.07      74.5     0.34      1013.2     1.9     NNE    19   5.0      NE    49   9.40    265      563.6
   06/05/2018 11:40      73.4      72.4       54     55.4      0.00      6.07      74.5     0.34      1013.3     2.2      NE    45   5.0       E    88   9.40    264      584.2
   06/05/2018 11:30      72.9      71.7       55     55.6      0.00      6.07      74.6     0.34      1013.3     3.3     NNE    23   6.8       N     9   9.40    265      579.0
   06/05/2018 11:20      72.3      71.3       56     55.5      0.00      6.07      74.6     0.34      1013.3     2.8      NE    45   4.9      NE    39   9.40    265      574.4
   06/05/2018 11:10      72.3      71.2       56     55.4      0.00      6.07      74.6     0.34      1013.4     2.5     ENE    70   4.7     ESE   121   9.40    265      564.3
   06/05/2018 11:00      71.0      69.8       58     55.2      0.00      6.07      74.7     0.34      1013.5     1.8     SSW   199   4.0     SSW   198   9.40    265      558.8
   06/05/2018 10:50      69.8      69.0       60     55.1      0.00      6.07      74.7     0.34      1013.6     2.5      SW   230   5.3     WSW   238   9.40    265      492.9
   06/05/2018 10:40      69.9      68.3       61     55.0      0.00      6.07      74.7     0.34      1013.6     2.0     WNW   297   4.9       N    10   9.41    265      593.1
   06/05/2018 10:30      69.8      67.7       62     55.1      0.00      6.07      74.7     0.34      1013.6     1.9     ENE    61   5.1     ESE   105   9.41    266      656.7
   06/05/2018 10:20      68.2      67.1       64     55.0      0.00      6.07      74.8     0.34      1013.7     2.0       E    80   3.4       E    86   9.40    266      385.8
   06/05/2018 10:10      67.5      66.3       65     55.0      0.00      6.07      74.7     0.34      1013.7     2.1       E    86   4.1      NE    46   9.41    266      329.3
   06/05/2018 10:00      67.3      64.7       68     55.0      0.00      6.07      74.8     0.34      1013.7     1.7     ENE    77   4.5       E    94   9.41    266      508.1
   06/05/2018 09:50      64.8      63.6       72     54.9      0.00      6.07      74.8     0.34      1013.7     2.9      SE   143   5.8      SE   138   9.41    267      332.7
   06/05/2018 09:40      64.8      63.6       72     54.8      0.00      6.07      74.8     0.34      1013.7     2.6     ESE   114   4.7      SE   138   9.41    267      208.3
   06/05/2018 09:30      64.6      63.1       73     55.1      0.00      6.07      74.8     0.34      1013.6     1.4     NNE    18   4.6       E    86   9.41    267      169.2
   06/05/2018 09:20      63.2      62.7       75     54.7      0.00      6.07      74.8     0.34      1013.5     2.5     SSW   201   4.2     SSW   202   9.41    268      139.6
   06/05/2018 09:10      63.8      62.9       74     54.8      0.00      6.07      74.9     0.34      1013.4     2.1     ESE   121   3.9      SE   130   9.41    268      137.9
   06/05/2018 09:00      63.8      63.0       74     54.9      0.00      6.07      74.9     0.34      1013.3     0.7     ENE    66   2.6       E    87   9.41    267      125.9
   06/05/2018 08:50      63.3      62.2       75     54.9      0.00      6.07      74.9     0.34      1013.3     0.8     NNE    19   2.8       N   350   9.41    268      124.8
   06/05/2018 08:40      62.5      61.7       77     54.7      0.00      6.07      75.0     0.34      1013.3     0.6     WNW   300   1.8       W   277   9.41    268      105.3
   06/05/2018 08:30      61.8      61.1       78     54.6      0.00      6.07      75.0     0.34      1013.3     1.1      SW   216   2.3       S   182   9.41    268       85.8
   06/05/2018 08:20      61.8      61.0       78     54.4      0.00      6.07      75.0     0.34      1013.3     1.3     SSE   167   2.5     SSE   147   9.41    268       74.5
   06/05/2018 08:10      61.6      60.9       79     54.6      0.00      6.07      75.0     0.34      1013.3     0.8     ESE   101   2.6       E    88   9.41    268       57.0
   06/05/2018 08:00      61.2      60.9       79     54.5      0.00      6.07      75.1     0.34      1013.2     1.6      SW   217   3.0     WSW   236   9.41    268       48.4
   06/05/2018 07:50      61.3      60.7       80     54.8      0.00      6.07      75.1     0.34      1013.2     0.5      NW   321   1.8       N    10   9.41    268       39.3
   06/05/2018 07:40      60.8      60.0       81     54.7      0.00      6.07      75.1     0.34      1013.1     0.1       W   263   1.4       W   271   9.41    268       34.3
   06/05/2018 07:30      60.3      59.9       82     54.4      0.00      6.07      75.2     0.34      1013.0     1.2      SE   142   3.3     ESE   108   9.41    268       28.7
   06/05/2018 07:20      60.5      59.9       81     54.4      0.00      6.07      75.1     0.34      1012.8     1.7      SE   138   3.1      SE   142   9.41    268       23.9
   06/05/2018 07:10      60.2      59.8       82     54.3      0.00      6.07      75.2     0.34      1012.8     1.0     SSE   166   2.5     SSE   151   9.41    268       17.2
   06/05/2018 07:00      60.1      59.7       82     54.4      0.00      6.07      75.3     0.34      1012.8     0.8      SE   126   2.6     SSE   166   9.42    268       10.8
   06/05/2018 06:50      59.9      59.4       82     54.3      0.00      6.07      75.3     0.34      1012.6     0.6       E    95   2.1      SE   142   9.42    268        6.6
   06/05/2018 06:40      59.6      59.1       83     54.3      0.00      6.07      75.3     0.34      1012.6     0.6      SE   127   1.8      SE   137   9.42    268        2.5
   06/05/2018 06:30      59.5      58.9       84     54.1      0.00      6.07      75.3     0.34      1012.6     1.8       S   182   2.8       S   176   9.42    269       -0.7
   06/05/2018 06:20      59.6      59.0       83     54.2      0.00      6.07      75.4     0.34      1012.5     2.2     SSE   164   4.3     SSE   158   9.42    269       -3.8
   06/05/2018 06:10      59.6      59.1       84     54.4      0.00      6.07      75.4     0.34      1012.5     1.5       S   170   3.2     SSW   197   9.42    269       -7.0
   06/05/2018 06:00      59.6      59.0       84     54.3      0.00      6.07      75.4     0.34      1012.4     2.2     SSE   165   5.0       S   184   9.42    269       -9.3
   06/05/2018 05:50      59.6      59.1       84     54.5      0.00      6.07      75.5     0.34      1012.3     2.3      SE   126   5.4      SE   134   9.42    269      -10.7
   06/05/2018 05:40      59.8      59.3       84     54.6      0.00      6.07      75.4     0.34      1012.0     2.2     ESE   113   5.0      SE   144   9.42    269      -11.7
   06/05/2018 05:30      59.7      59.3       84     54.7      0.00      6.07      75.5     0.34      1011.9     0.7      NE    36   1.8       E    79   9.42    269      -12.5
   06/05/2018 05:20      59.8      59.3       84     54.7      0.00      6.07      75.5     0.34      1011.8     1.2      SE   125   3.8       E   101   9.42    269      -12.4
   06/05/2018 05:10      59.9      59.4       84     54.8      0.00      6.07      75.5     0.34      1011.8     0.3     SSE   168   1.8     SSE   151   9.42    269      -12.2
   06/05/2018 05:00      59.8      59.4       84     54.8      0.00      6.07      75.6     0.34      1011.9     0.0     NNE    14   0.5     ENE    73   9.42    269      -12.0
   06/05/2018 04:50      59.9      59.4       85     54.9      0.00      6.07      75.6     0.34      1011.7     0.9       E   100   2.9     ENE    68   9.42    269      -12.2
   06/05/2018 04:40      59.9      59.4       85     54.9      0.00      6.07      75.6     0.34      1011.7     1.8       E    83   5.2      SE   132   9.42    269      -11.9
   06/05/2018 04:30      60.2      59.6       84     55.0      0.00      6.07      75.7     0.34      1011.7     1.5       E    82   3.0       E    90   9.42    269      -12.1
   06/05/2018 04:20      60.2      59.7       84     55.1      0.00      6.07      75.7     0.34      1011.8     1.7      NE    41   4.1     NNE    21   9.42    269      -12.6
   06/05/2018 04:10      60.2      59.8       84     55.0      0.00      6.07      75.7     0.34      1011.8     1.9     ESE   107   4.0      SE   125   9.42    269      -12.5
   06/05/2018 04:00      60.2      59.8       84     55.0      0.00      6.07      75.7     0.34      1011.9     0.6      SE   142   2.0      SE   130   9.42    268      -12.5
   06/05/2018 03:50      60.2      59.7       84     55.0      0.00      6.07      75.8     0.34      1011.9     0.9      SE   145   2.3      SE   133   9.42    268      -12.6
   06/05/2018 03:40      60.3      59.7       84     55.0      0.00      6.07      75.8     0.34      1012.0     1.6      SE   140   3.2      SE   134   9.43    268      -12.7
   06/05/2018 03:30      60.3      59.7       84     54.9      0.00      6.07      75.8     0.34      1012.1     1.4      SE   131   2.8      SE   126   9.43    268      -12.5
   06/05/2018 03:20      60.4      59.9       83     54.9      0.00      6.07      75.9     0.34      1012.1     1.0     SSE   150   2.9      SE   125   9.43    268      -12.9
   06/05/2018 03:10      60.4      59.9       83     54.8      0.00      6.07      75.9     0.34      1012.1     1.3       S   180   4.1     SSE   157   9.43    268      -12.8
   06/05/2018 03:00      60.8      60.1       82     55.0      0.00      6.07      75.9     0.34      1012.1     1.9     SSE   148   3.9     SSW   194   9.43    268      -13.1
   06/05/2018 02:50      60.9      60.4       82     55.2      0.00      6.07      75.9     0.34      1012.0     0.8     ENE    60   3.4      SE   137   9.43    268      -12.9
   06/05/2018 02:40      60.8      60.4       83     55.3      0.00      6.07      76.0     0.34      1012.1     0.7     ENE    74   2.1     ENE    62   9.43    268      -12.9
   06/05/2018 02:30      60.7      60.2       83     55.4      0.00      6.07      76.0     0.34      1012.1     0.5      NE    38   2.1      NE    42   9.43    268      -12.9
   06/05/2018 02:20      60.5      60.2       83     55.3      0.00      6.07      76.0     0.34      1012.2     0.7      SE   124   3.7     ESE   119   9.43    268      -12.6
   06/05/2018 02:10      60.5      59.8       84     55.4      0.00      6.07      76.1     0.34      1012.2     1.1      NE    52   3.5     SSE   152   9.43    268      -12.6
   06/05/2018 02:00      60.3      59.8       84     55.1      0.00      6.07      76.1     0.34      1012.3     1.7     ESE   109   4.1      SE   141   9.43    268      -12.3
   06/05/2018 01:50      60.7      60.0       83     55.2      0.00      6.07      76.1     0.34      1012.1     1.4       E    81   3.3      NE    54   9.43    268      -12.4
   06/05/2018 01:40      60.6      60.2       83     55.2      0.00      6.07      76.2     0.34      1012.2     1.6     ENE    66   3.3      NE    48   9.43    268      -12.3
   06/05/2018 01:30      60.6      60.2       84     55.3      0.00      6.07      76.2     0.34      1012.3     1.6      NE    53   4.2     ENE    65   9.43    268      -13.1
   06/05/2018 01:20      60.4      59.8       84     55.2      0.00      6.07      76.2     0.34      1012.3     1.0     ENE    74   2.7     ESE   110   9.43    268      -15.8
   06/05/2018 01:10      60.3      59.9       84     55.2      0.00      6.07      76.2     0.34      1012.4     1.9     ENE    65   4.0     ENE    70   9.43    269      -19.7
   06/05/2018 01:00      60.2      59.7       84     55.1      0.00      6.07      76.2     0.34      1012.5     1.9     ENE    61   5.7     ENE    66   9.44    269      -26.5
   06/05/2018 00:50      60.3      59.8       83     55.0      0.00      6.07      76.3     0.34      1012.6     2.1     ENE    63   3.4     ENE    60   9.44    269      -45.5
   06/05/2018 00:40      60.5      59.9       83     55.0      0.00      6.07      76.3     0.34      1012.7     1.5      NE    52   2.8      NE    38   9.44    270      -60.8
   06/05/2018 00:30      60.6      60.2       82     55.0      0.00      6.07      76.3     0.34      1012.6     1.9      NE    46   3.0     NNE    27   9.44    270      -65.4
   06/05/2018 00:20      60.8      60.3       82     54.9      0.00      6.07      76.3     0.34      1012.5     1.4      NE    49   2.9      NE    48   9.44    269      -66.1
   06/05/2018 00:10      61.1      60.4       81     55.0      0.00      6.07      76.3     0.34      1012.5     1.7     ENE    61   3.6     NNE    22   9.44    269      -66.5
   06/05/2018 00:00      61.5      60.8       81     55.0      0.00      6.07      76.3     0.34      1012.5     1.7      NE    56   3.9      NE    45   9.44    269      -66.9
   06/04/2018 23:50      61.6      61.2       80     55.0      0.00      6.07      76.3     0.34      1012.4     1.8      NE    51   3.7      NE    51   9.44    268      -67.5
   06/04/2018 23:40      62.0      61.3       79     54.9      0.00      6.07      76.4     0.34      1012.4     1.1     ENE    69   2.8     ENE    62   9.44    268      -67.2
   06/04/2018 23:30      62.2      61.7       78     54.9      0.00      6.07      76.4     0.34      1012.4     1.0     ENE    68   2.6      NE    43   9.45    268      -68.2
   06/04/2018 23:20      62.6      62.1       77     55.0      0.00      6.07      76.4     0.34      1012.4     1.7      NE    53   3.0     ENE    62   9.45    268      -68.9
   06/04/2018 23:10      63.0      62.4       76     54.9      0.00      6.07      76.4     0.34      1012.4     1.7      NE    52   3.1      NE    46   9.45    268      -69.7
   06/04/2018 23:00      63.3      62.7       75     55.0      0.00      6.07      76.4     0.34      1012.4     1.7      NE    54   2.7      NE    51   9.45    268      -70.2
   06/04/2018 22:50      63.8      63.1       74     55.0      0.00      6.07      76.4     0.34      1012.4     1.7      NE    50   3.1      NE    48   9.45    267      -70.4
   06/04/2018 22:40      64.1      63.4       73     55.0      0.00      6.07      76.4     0.34      1012.5     1.6     ENE    58   2.8      NE    44   9.45    267      -70.7
   06/04/2018 22:30      64.6      63.8       72     55.0      0.00      6.07      76.4     0.34      1012.4     1.8      NE    52   3.4      NE    41   9.45    267      -71.6
   06/04/2018 22:20      64.7      64.3       71     55.0      0.00      6.07      76.4     0.34      1012.4     1.9      NE    47   3.3     ENE    57   9.46    267      -72.1
   06/04/2018 22:10      65.2      64.4       71     55.0      0.00      6.07      76.4     0.34      1012.3     0.9     ENE    71   2.6     ESE   107   9.46    267      -72.6
   06/04/2018 22:00      65.7      64.9       69     55.0      0.00      6.07      76.4     0.34      1012.3     1.4     ENE    62   3.2      NE    44   9.46    266      -73.7
   06/04/2018 21:50      66.2      65.4       68     54.9      0.00      6.07      76.4     0.34      1012.1     2.4      NE    46   4.5      NE    40   9.46    266      -74.5
   06/04/2018 21:40      66.8      65.9       66     54.8      0.00      6.07      76.4     0.34      1011.9     2.4      NE    41   4.6      NE    55   9.46    266      -75.1
   06/04/2018 21:30      67.3      66.5       65     54.6      0.00      6.07      76.4     0.34      1011.8     2.0      NE    54   3.5      NE    56   9.47    266      -75.4
   06/04/2018 21:20      67.9      67.0       63     54.4      0.00      6.07      76.4     0.34      1011.6     2.1     ENE    60   5.0       E    83   9.47    266      -76.0
   06/04/2018 21:10      68.3      67.7       62     54.2      0.00      6.07      76.4     0.34      1011.5     2.1      NE    55   3.5       E    93   9.47    266      -77.0
   06/04/2018 21:00      68.6      67.9       61     54.1      0.00      6.07      76.4     0.34      1011.3     1.6      NE    56   3.1      NE    45   9.47    266      -77.8
   06/04/2018 20:50      69.1      68.3       60     54.1      0.00      6.07      76.3     0.34      1011.2     1.6     ENE    60   3.3      NE    48   9.47    266      -78.7
   06/04/2018 20:40      69.3      68.7       60     54.2      0.00      6.07      76.4     0.34      1011.1     1.3      NE    53   2.8       E    87   9.48    266      -80.2
   06/04/2018 20:30      69.8      69.0       59     54.5      0.00      6.07      76.3     0.34      1011.0     1.7      NE    45   3.7     NNE    23   9.48    266      -81.7
   06/04/2018 20:20      71.0      69.5       58     54.5      0.00      6.07      76.3     0.34      1010.9     2.0      NE    50   3.9     ENE    57   9.48    265      -82.8
   06/04/2018 20:10      72.6      70.7       55     54.4      0.00      6.07      76.3     0.34      1010.7     2.2      NE    54   3.4     NNE    29   9.49    265      -82.6
   06/04/2018 20:00      74.1      72.3       52     54.2      0.00      6.07      76.3     0.34      1010.6     2.0      NE    55   3.8     ENE    59   9.49    265      -80.8
   06/04/2018 19:50      74.5      73.7       48     53.3      0.00      6.07      76.2     0.34      1010.5     1.6      SE   133   5.2      NE    44   9.49    264      -77.4
   06/04/2018 19:40      75.0      74.2       47     52.9      0.00      6.07      76.2     0.34      1010.5     2.2       S   173   3.7     SSW   196   9.50    264      -73.4
   06/04/2018 19:30      76.2      74.9       45     52.9      0.00      6.07      76.0     0.34      1010.4     2.8       S   172   4.2       S   181   9.50    264      -56.2
   06/04/2018 19:20      76.6      75.8       44     52.8      0.00      6.07      76.1     0.34      1010.4     2.6       S   171   4.7     SSE   162   9.50    264      -40.7
   06/04/2018 19:10      77.4      76.2       43     52.3      0.00      6.07      76.1     0.34      1010.3     3.4       S   180   5.8       S   181   9.51    264      -22.0
   06/04/2018 19:00      79.4      77.1       41     52.4      0.00      6.07      76.1     0.34      1010.2     3.1     SSE   166   6.0       S   173   9.51    264       -1.4
   06/04/2018 18:50      79.3      78.4       40     52.4      0.00      6.07      76.1     0.34      1010.0     2.6     SSE   152   6.1       S   177   9.52    263       23.0
   06/04/2018 18:40      79.2      78.5       40     52.8      0.00      6.07      76.0     0.34      1010.0     3.7     SSE   168   6.5     SSW   196   9.52    263       48.0
   06/04/2018 18:30      79.6      78.9       41     53.2      0.00      6.07      76.0     0.34      1009.9     4.2       S   182   8.0       S   174   9.53    263       72.6
   06/04/2018 18:20      80.4      79.2       40     53.2      0.00      6.07      75.9     0.34      1010.0     4.8       S   187   7.0     SSW   194   9.54    263       95.9
   06/04/2018 18:10      80.9      80.3       39     53.3      0.00      6.07      75.9     0.34      1010.0     4.5       S   186   6.9       S   172   9.54    263      119.4
   06/04/2018 18:00      81.5      80.5       39     53.9      0.00      6.07      75.8     0.34      1009.9     5.3       S   181   8.5      SW   216   9.55    263      145.2
   06/04/2018 17:50      83.3      81.2       39     54.5      0.00      6.07      75.8     0.34      1009.9     5.3       S   181   9.1     SSW   195   9.56    263      170.1
   06/04/2018 17:40      86.2      83.0       35     54.2      0.00      6.07      75.8     0.34      1009.8     4.5      SE   125   8.3       S   181   9.56    263      190.6
   06/04/2018 17:30      86.3      85.6       33     53.1      0.00      6.07      75.7     0.34      1009.8     3.2      NE    47   5.5       E    81   9.57    263      214.7
   06/04/2018 17:20      86.8      85.9       32     53.0      0.00      6.07      75.6     0.34      1009.8     3.5      NE    48   6.6       N   355   9.57    263      239.2
   06/04/2018 17:10      87.9      86.3       31     53.1      0.00      6.07      75.6     0.34      1009.7     3.7      NE    39   6.0      NE    36   9.57    263      261.8
   06/04/2018 17:00      87.7      86.3       31     52.3      0.00      6.07      75.5     0.34      1009.7     3.2      NE    48   6.4     NNE    25   9.58    263      286.5
   06/04/2018 16:50      87.0      86.5       32     53.2      0.00      6.07      75.5     0.34      1009.8     2.9     ENE    73   5.5     ESE   102   9.58    263      312.0
   06/04/2018 16:40      87.5      86.7       33     54.4      0.00      6.07      75.4     0.34      1009.9     3.8      NE    46   6.4     ENE    60   9.59    263      332.5
   06/04/2018 16:30      88.4      86.9       32     54.5      0.00      6.07      75.3     0.34      1009.9     3.8      NE    41   6.6      NE    53   9.59    263      354.9
   06/04/2018 16:20      89.2      87.8       32     54.6      0.00      6.07      75.3     0.34      1009.9     3.1     NNE    33   5.2      NE    39   9.59    263      378.0
   06/04/2018 16:10      88.9      87.5       32     54.6      0.00      6.07      75.3     0.34      1009.9     3.3      NE    53   6.6      NE    45   9.60    263      373.7
   06/04/2018 16:00      89.2      88.6       31     54.6      0.00      6.07      75.2     0.34      1009.9     3.0      NE    53   5.4      NE    37   9.60    263      429.1
   06/04/2018 15:50      89.1      87.9       30     53.1      0.00      6.07      75.2     0.34      1010.0     2.9      NE    36   6.0     NNE    33   9.60    263      459.2
   06/04/2018 15:40      88.9      87.8       29     52.5      0.00      6.07      75.1     0.34      1010.2     2.1     ENE    61   5.0      NE    49   9.60    263      498.4
   06/04/2018 15:30      88.4      87.1       30     52.3      0.00      6.07      75.0     0.34      1010.4     2.9     ENE    74   5.5      NE    49   9.61    263      514.4
   06/04/2018 15:20      88.2      87.6       30     52.6      0.00      6.07      75.0     0.34      1010.4     2.9      NE    55   5.1     ENE    57   9.61    263      521.3
   06/04/2018 15:10      88.4      87.3       30     52.9      0.00      6.07      74.9     0.34      1010.5     3.4      NE    42   5.9      NE    34   9.61    263      472.1
   06/04/2018 15:00      88.3      87.3       31     53.6      0.00      6.07      74.8     0.34      1010.5     3.3      NE    38   6.7     ENE    60   9.62    263      490.8
   06/04/2018 14:50      87.6      86.7       32     53.7      0.00      6.07      74.8     0.34      1010.7     3.3      NE    44   5.9      NE    53   9.62    263      529.4
   06/04/2018 14:40      87.5      85.7       32     53.4      0.00      6.07      74.8     0.34      1010.7     3.4      NE    38   6.8       N     3   9.62    263      374.6
   06/04/2018 14:30      87.8      86.9       32     53.7      0.00      6.07      74.7     0.34      1010.8     3.4      NE    52   5.4       E   100   9.62    263      386.4
   06/04/2018 14:20      87.3      86.3       33     53.9      0.00      6.07      74.6     0.34      1010.9     3.8      NE    51   7.6      NE    36   9.63    263      610.4
   06/04/2018 14:10      87.1      85.8       33     53.7      0.00      6.07      74.6     0.34      1010.9     4.0      NE    51   6.4      NE    38   9.63    263      602.3
   06/04/2018 14:00      86.7      85.0       34     54.1      0.00      6.07      74.5     0.34      1011.0     2.8     ENE    57   5.0     ENE    77   9.63    263      652.7
   06/04/2018 13:50      84.8      83.7       36     54.0      0.00      6.07      74.5     0.34      1011.1     3.8      NE    55   7.1      NE    50   9.63    263      542.3
   06/04/2018 13:40      84.7      84.0       36     54.4      0.00      6.07      74.4     0.34      1011.2     4.1      NE    51   7.1      NE    54   9.63    263      446.1
   06/04/2018 13:30      85.0      84.0       35     54.2      0.00      6.07      74.4     0.34      1011.1     3.5     ENE    57   5.7     NNE    29   9.64    263      319.8
   06/04/2018 13:20      86.4      84.7       35     54.5      0.00      6.07      74.3     0.34      1011.3     3.6      NE    54   6.1      NE    50   9.64    263      278.8
   06/04/2018 13:10      86.3      84.9       36     55.7      0.00      6.07      74.3     0.34      1011.3     3.5      NE    55   6.3     NNE    22   9.64    263      564.9
   06/04/2018 13:00      85.7      84.3       36     55.1      0.00      6.07      74.3     0.34      1011.3     3.5     ENE    57   5.4      NE    55   9.64    264      414.7
   06/04/2018 12:50      85.7      85.1       35     54.9      0.00      6.07      74.2     0.34      1011.4     3.3     ENE    65   6.8     ENE    71   9.64    263      440.2
   06/04/2018 12:40      85.9      85.2       35     54.8      0.00      6.07      74.2     0.34      1011.4     2.8     ENE    60   4.9       E    82   9.65    263      378.2
   06/04/2018 12:30      85.9      83.0       35     53.8      0.00      6.07      74.3     0.34      1011.4     3.3     ENE    58   6.7       E    85   9.65    263      540.0
   06/04/2018 12:20      84.4      82.9       37     54.5      0.00      6.07      74.2     0.34      1011.4     4.0     ENE    60   7.5     SSE   163   9.65    263      426.9
   06/04/2018 12:10      85.1      84.1       37     55.5      0.00      6.07      74.1     0.34      1011.5     3.9     ENE    62   6.5      NE    43   9.65    263      575.4
   06/04/2018 12:00      85.5      84.2       37     55.9      0.00      6.07      74.1     0.34      1011.6     3.3      NE    56   7.4     NNE    31   9.65    263      593.4
   06/04/2018 11:50      85.6      84.6       37     56.1      0.00      6.07      74.1     0.34      1011.6     3.5     ENE    58   6.4      NE    37   9.65    263      625.9
   06/04/2018 11:40      85.4      84.3       39     56.9      0.00      6.07      74.1     0.34      1011.5     3.1     NNE    29   6.7     NNE    25   9.65    263      553.3
   06/04/2018 11:30      85.1      84.3       39     57.2      0.00      6.07      74.1     0.34      1011.5     2.6     NNE    24   5.6       N     0   9.65    263      576.5
   06/04/2018 11:20      84.3      83.6       39     56.5      0.00      6.07      74.2     0.34      1011.5     2.2     ENE    59   4.6      NE    45   9.65    263      573.4
   06/04/2018 11:10      84.1      82.8       39     56.3      0.00      6.07      74.1     0.34      1011.5     2.2     NNE    25   5.3     NNW   347   9.65    263      554.8
   06/04/2018 11:00      83.5      81.8       40     55.5      0.00      6.07      74.1     0.34      1011.5     1.8       N     7   4.5     ENE    58   9.65    263      551.5
   06/04/2018 10:50      82.2      80.3       41     55.2      0.00      6.07      74.2     0.34      1011.5     2.0     NNE    21   3.8      NE    39   9.65    263      540.5
   06/04/2018 10:40      80.6      79.5       42     55.0      0.00      6.07      74.2     0.34      1011.6     2.2     NNE    31   4.3       N   353   9.65    263      528.7
   06/04/2018 10:30      79.8      78.7       43     54.7      0.00      6.07      74.3     0.34      1011.6     2.6       N     5   4.5       N     0   9.65    263      516.1
   06/04/2018 10:20      78.7      78.0       43     54.3      0.00      6.07      74.3     0.34      1011.6     1.6       N   351   3.7       N     0   9.65    263      502.5
   06/04/2018 10:10      78.6      77.4       44     54.2      0.00      6.07      74.3     0.34      1011.6     1.5     NNE    14   3.1      NE    50   9.65    264      489.1
   06/04/2018 10:00      77.9      76.4       45     54.1      0.00      6.07      74.4     0.34      1011.8     1.2     NNE    30   3.7       N   355   9.65    264      472.6
   06/04/2018 09:50      76.4      74.6       47     53.8      0.00      6.07      74.4     0.34      1011.9     1.5     NNW   329   3.7       N   351   9.65    264      455.2
   06/04/2018 09:40      74.9      73.9       48     53.5      0.00      6.07      74.5     0.34      1012.0     1.7       N   351   3.7     NNW   329   9.65    264      436.0
   06/04/2018 09:30      74.0      73.1       49     53.2      0.00      6.07      74.4     0.34      1012.1     1.3     NNE    31   3.7     NNW   342   9.65    265      420.2
   06/04/2018 09:20      73.3      71.1       53     53.7      0.00      6.07      74.5     0.34      1012.2     1.0      NW   307   3.5       N     8   9.65    265      400.2
   06/04/2018 09:10      71.4      70.3       55     54.0      0.00      6.07      74.5     0.34      1012.3     1.8     NNE    19   3.5      NE    51   9.65    266      388.3
   06/04/2018 09:00      70.3      68.7       58     54.3      0.00      6.07      74.6     0.34      1012.4     1.2     NNW   327   3.2     NNE    21   9.65    266      374.1
   06/04/2018 08:50      68.7      67.2       62     54.3      0.00      6.07      74.5     0.34      1012.5     1.6       N   351   3.9       N     6   9.65    266      369.2
   06/04/2018 08:40      67.5      66.0       64     54.2      0.00      6.07      74.6     0.34      1012.5     0.8      NE    36   3.1      NE    47   9.66    268       55.8
   06/04/2018 08:30      66.1      65.2       66     54.0      0.00      6.07      74.7     0.34      1012.6     0.5     NNE    17   1.5      NW   323   9.65    268       -8.1
   06/04/2018 08:20      65.3      64.2       69     54.3      0.00      6.07      74.7     0.34      1012.6     1.1     NNE    27   2.3     NNE    31   9.31    268      -17.5
   06/04/2018 08:10      64.5      63.6       71     54.4      0.00      6.07      74.8     0.34      1012.6     1.5      NW   305   2.6       N   350   9.31    268      -16.1
   06/04/2018 08:00      63.7      62.6       73     54.4      0.00      6.07      74.8     0.34      1012.7     1.0       N   356   2.9       N   353   9.31    268      -12.7
   06/04/2018 07:50      62.8      62.3       74     54.2      0.00      6.07      74.8     0.34      1012.7     0.9       N     3   2.2       N    10   9.31    268      -10.6
   06/04/2018 07:40      62.4      61.4       76     54.3      0.00      6.07      74.9     0.34      1012.7     0.4      SE   127   1.5      SE   146   9.31    268       -0.6
   06/04/2018 07:30      61.6      60.5       79     54.5      0.00      6.07      75.0     0.34      1012.7     0.0       E    92   0.6      NE    48   9.31    269       36.0
   06/04/2018 07:20      60.8      59.9       80     54.3      0.00      6.07      75.0     0.34      1012.8     0.0     SSE   159   0.9     SSE   153   9.31    269        8.1
   06/04/2018 07:10      60.1      59.3       82     54.0      0.00      6.07      75.0     0.34      1012.7     0.6     ESE   123   1.7      SE   139   9.31    269        8.9
   06/04/2018 07:00      59.4      58.5       83     53.8      0.00      6.07      75.1     0.34      1012.8     1.2     SSE   148   2.1      SE   138   9.31    270        7.3
   06/04/2018 06:50      58.7      57.7       86     54.0      0.00      6.07      75.1     0.34      1012.8     1.5     SSE   165   3.0     SSE   162   9.31    272        2.4
   06/04/2018 06:40      57.9      56.9       88     53.8      0.00      6.07      75.1     0.34      1012.8     1.3     SSE   150   2.3      SE   145   9.31    289        2.5
   06/04/2018 06:30      57.1      56.4       89     53.4      0.00      6.07      75.1     0.34      1012.8     0.0       E   100   0.7       E    96   9.31    296       -4.8
   06/04/2018 06:20      56.6      55.9       88     52.7      0.00      6.07      75.2     0.34      1012.8     0.3       S   180   1.3       S   180   9.31    297      -10.5
   06/04/2018 06:10      56.5      55.9       88     52.5      0.00      6.07      75.2     0.34      1012.8     0.8       S   171   1.6       S   180   9.31    298      -13.9
   06/04/2018 06:00      56.6      56.1       88     52.8      0.00      6.07      75.3     0.34      1012.8     0.2     SSE   168   1.0     SSE   168   9.31    297      -20.9
   06/04/2018 05:50      57.0      56.2       87     52.7      0.00      6.07      75.3     0.34      1012.8     0.0     ESE   118   0.5     ESE   118   9.32    294      -27.1
   06/04/2018 05:40      57.2      56.8       87     53.0      0.00      6.07      75.3     0.34      1012.7     0.0     NNE    19   0.4     NNE    19   9.32    292      -30.9
   06/04/2018 05:30      57.4      56.9       86     53.0      0.00      6.07      75.4     0.34      1012.6     0.0      NE    39   0.9      NE    39   9.32    288      -33.9
   06/04/2018 05:20      57.7      57.1       86     53.0      0.00      6.07      75.4     0.34      1012.6     0.0       N     0   0.0     ESE   108   9.32    284      -36.5
   06/04/2018 05:10      57.9      57.3       85     53.2      0.00      6.07      75.5     0.34      1012.6     0.2     ESE   109   1.1       E    88   9.32    281      -38.9
   06/04/2018 05:00      58.2      57.6       85     53.4      0.00      6.07      75.5     0.34      1012.5     0.3     ESE   105   1.7     ENE    75   9.32    279      -40.2
   06/04/2018 04:50      58.2      57.9       85     53.5      0.00      6.07      75.5     0.34      1012.5     1.1     ESE   106   2.4       E    84   9.32    277      -40.9
   06/04/2018 04:40      58.3      57.9       84     53.2      0.00      6.07      75.6     0.34      1012.5     0.6     ESE   113   2.3     ESE   117   9.32    276      -42.3
   06/04/2018 04:30      58.7      58.0       83     53.2      0.00      6.07      75.6     0.34      1012.5     0.1     ESE   102   1.0     ENE    63   9.32    275      -43.6
   06/04/2018 04:20      58.6      58.2       83     53.2      0.00      6.07      75.6     0.34      1012.5     0.3     ESE   108   1.4       E    97   9.32    274      -44.7
   06/04/2018 04:10      58.6      57.9       82     52.8      0.00      6.07      75.7     0.34      1012.5     0.4     ESE   117   2.2       E    94   9.32    274      -45.4
   06/04/2018 04:00      58.4      57.8       82     52.7      0.00      6.07      75.7     0.34      1012.5     0.5     ESE   114   2.0       E    97   9.32    273      -46.1
   06/04/2018 03:50      58.3      57.9       81     52.3      0.00      6.07      75.7     0.34      1012.5     0.1      SE   129   1.4      SE   135   9.32    273      -45.8
   06/04/2018 03:40      58.8      58.1       81     52.5      0.00      6.07      75.8     0.34      1012.4     0.0     ESE   103   1.2     ENE    75   9.32    273      -47.1
   06/04/2018 03:30      58.8      58.3       81     52.5      0.00      6.07      75.8     0.34      1012.5     0.0       E    93   0.9     SSE   157   9.32    272      -47.2
   06/04/2018 03:20      58.8      58.4       80     52.5      0.00      6.07      75.9     0.34      1012.5     0.0       E    90   1.0       E    99   9.32    272      -47.4
   06/04/2018 03:10      58.7      57.9       82     52.8      0.00      6.07      75.9     0.34      1012.4     0.7     ESE   110   2.6     ENE    66   9.32    272      -47.2
   06/04/2018 03:00      58.3      58.0       83     53.1      0.00      6.07      75.9     0.34      1012.4     0.2      SE   135   1.3     ESE   103   9.32    273      -45.0
   06/04/2018 02:50      58.5      58.0       84     53.2      0.00      6.07      76.0     0.34      1012.5     0.0       N     0   0.0       S   191   9.32    272      -45.3
   06/04/2018 02:40      58.3      57.9       84     53.1      0.00      6.07      76.0     0.34      1012.5     0.2       S   191   0.8       S   191   9.33    272      -46.5
   06/04/2018 02:30      58.7      58.0       84     53.6      0.00      6.07      76.0     0.34      1012.5     0.1     SSW   191   0.6     SSW   191   9.33    272      -46.8
   06/04/2018 02:20      59.2      58.3       83     53.6      0.00      6.07      76.1     0.34      1012.5     0.0     SSW   191   0.8       S   191   9.33    273      -48.6
   06/04/2018 02:10      59.0      58.6       84     54.0      0.00      6.07      76.0     0.34      1012.5     0.2       S   191   0.7       S   191   9.33    273      -49.7
   06/04/2018 02:00      59.0      58.5       83     53.7      0.00      6.07      76.1     0.34      1012.5     0.0       S   191   0.7       S   191   9.33    273      -52.1
   06/04/2018 01:50      59.2      58.6       83     53.6      0.00      6.07      76.1     0.34      1012.5     0.0       S   191   0.4       S   191   9.33    272      -54.8
   06/04/2018 01:40      59.4      58.8       83     54.0      0.00      6.07      76.1     0.34      1012.5     0.0       S   191   0.4       S   191   9.33    271      -55.8
   06/04/2018 01:30      59.7      59.0       82     53.9      0.00      6.07      76.1     0.34      1012.5     0.4       S   191   0.8       S   191   9.33    271      -57.6
   06/04/2018 01:20      59.7      59.3       82     53.9      0.00      6.07      76.2     0.34      1012.5     0.1     SSW   192   0.7     SSW   192   9.33    270      -59.2
   06/04/2018 01:10      60.1      59.5       81     54.1      0.00      6.07      76.2     0.34      1012.4     0.0       N     0   0.0     SSW   192   9.33    270      -61.1
   06/04/2018 01:00      60.1      59.7       81     54.0      0.00      6.07      76.2     0.34      1012.5     0.0     SSW   192   0.3     SSW   192   9.34    270      -63.8
   06/04/2018 00:50      60.2      59.8       80     53.8      0.00      6.07      76.2     0.34      1012.5     0.2     SSW   192   1.0     SSW   192   9.34    269      -65.6
   06/04/2018 00:40      60.7      59.9       79     53.9      0.00      6.07      76.2     0.34      1012.6     0.4     SSW   192   1.4     SSW   192   9.34    268      -66.7
   06/04/2018 00:30      61.2      60.4       78     53.8      0.00      6.07      76.2     0.34      1012.6     0.3       S   180   1.3     SSW   192   9.34    268      -66.8
   06/04/2018 00:20      61.4      60.8       77     53.9      0.00      6.07      76.3     0.34      1012.6     0.2       S   172   0.9       S   172   9.34    268      -67.8
   06/04/2018 00:10      61.6      61.1       75     53.5      0.00      6.07      76.2     0.34      1012.7     0.1       S   172   0.7       S   172   9.34    268      -69.7
   06/04/2018 00:00      61.7      61.3       75     53.4      0.00      6.07      76.3     0.34      1012.7     0.5     SSE   159   1.1       S   172   9.34    268      -71.4
   06/03/2018 23:50      61.7      61.3       75     53.4      0.00      6.07      76.3     0.34      1012.7     0.9      SE   137   2.0      SE   134   9.34    268      -71.7
   06/03/2018 23:40      61.8      61.1       76     53.8      0.00      6.07      76.2     0.34      1012.7     1.0      SE   146   1.8      SE   142   9.34    268      -72.0
   06/03/2018 23:30      61.8      61.1       76     53.8      0.00      6.07      76.3     0.34      1012.7     0.4     SSE   162   1.1     SSE   162   9.34    268      -71.8
   06/03/2018 23:20      62.4      61.5       76     54.1      0.00      6.07      76.3     0.34      1012.6     0.0       N     0   0.0     SSE   162   9.35    268      -72.7
   06/03/2018 23:10      62.9      62.1       76     54.7      0.00      6.07      76.3     0.34      1012.7     0.3      SE   134   1.4       E    87   9.35    268      -73.5
   06/03/2018 23:00      62.7      62.2       76     54.9      0.00      6.07      76.3     0.34      1012.8     0.7     ESE   120   1.7     SSE   163   9.35    268      -75.0
   06/03/2018 22:50      62.8      62.4       76     55.0      0.00      6.07      76.3     0.34      1012.7     0.6     ESE   113   1.9       E    86   9.35    267      -75.9
   06/03/2018 22:40      63.1      62.5       76     55.0      0.00      6.07      76.3     0.34      1012.7     0.3     ESE   110   2.0       E    93   9.35    268      -76.2
   06/03/2018 22:30      63.7      62.9       75     55.3      0.00      6.07      76.3     0.34      1012.8     0.7       E    88   2.9     ENE    66   9.35    267      -77.0
   06/03/2018 22:20      64.3      63.3       74     55.3      0.00      6.07      76.3     0.34      1012.8     1.0       E    85   2.7       E    80   9.35    267      -77.8
   06/03/2018 22:10      64.8      64.1       72     55.3      0.00      6.07      76.3     0.34      1012.7     1.6     ENE    73   3.2     ENE    71   9.36    266      -78.8
   06/03/2018 22:00      65.7      64.6       71     55.3      0.00      6.07      76.2     0.34      1012.6     1.3     ENE    76   3.3      NE    36   9.36    266      -79.6
   06/03/2018 21:50      66.6      65.4       68     55.2      0.00      6.07      76.3     0.34      1012.6     1.6     ENE    66   2.8      NE    52   9.36    266      -80.8
   06/03/2018 21:40      67.5      66.5       65     55.1      0.00      6.07      76.2     0.34      1012.4     1.8     ENE    60   3.4      NE    54   9.36    266      -81.8
   06/03/2018 21:30      68.0      67.1       64     55.0      0.00      6.07      76.2     0.34      1012.2     1.5     ENE    65   3.2      NE    45   9.37    266      -82.5
   06/03/2018 21:20      68.6      67.5       63     55.0      0.00      6.07      76.2     0.34      1012.1     1.7     ENE    77   4.4       E    97   9.37    266      -83.0
   06/03/2018 21:10      69.6      68.5       61     54.8      0.00      6.07      76.1     0.34      1011.9     1.6       E    82   3.7     ENE    74   9.37    266      -84.5
   06/03/2018 21:00      70.1      69.2       59     54.7      0.00      6.07      76.1     0.34      1011.7     1.6     ENE    73   3.6      SE   140   9.38    265      -86.0
   06/03/2018 20:50      71.0      69.7       58     54.6      0.00      6.07      76.1     0.34      1011.6     1.4     ENE    73   4.4      SE   142   9.38    265      -87.2
   06/03/2018 20:40      72.2      70.7       56     54.7      0.00      6.07      76.0     0.34      1011.4     1.8     ENE    74   4.6     ENE    68   9.38    265      -89.0
   06/03/2018 20:30      73.2      72.0       54     54.9      0.00      6.07      76.0     0.34      1011.1     2.0     ENE    58   3.7      NE    39   9.38    265      -90.2
   06/03/2018 20:20      74.3      72.8       52     54.8      0.00      6.07      75.9     0.34      1011.0     2.1      NE    54   4.1     ENE    62   9.39    264      -91.4
   06/03/2018 20:10      75.2      73.9       50     54.8      0.00      6.07      76.0     0.34      1010.9     2.6      NE    41   4.5     NNE    13   9.39    264      -91.8
   06/03/2018 20:00      77.0      74.9       48     55.0      0.00      6.07      75.9     0.34      1010.9     2.7      NE    47   4.7      NE    42   9.40    264      -91.0
   06/03/2018 19:50      78.6      76.6       46     55.4      0.00      6.07      75.8     0.34      1010.8     2.8      NE    44   4.7     ENE    69   9.40    264      -89.0
   06/03/2018 19:40      80.7      78.5       44     55.6      0.00      6.07      75.8     0.34      1010.7     3.0      NE    48   4.9      NE    45   9.41    263      -86.9
   06/03/2018 19:30      82.9      80.4       41     55.8      0.00      6.07      75.8     0.34      1010.5     2.7      NE    40   4.5      NE    45   9.41    263      -70.6
   06/03/2018 19:20      84.4      82.6       39     56.0      0.00      6.07      75.7     0.34      1010.5     2.2      NE    40   4.0      NE    40   9.42    263      -54.3
   06/03/2018 19:10      85.6      84.0       38     56.1      0.00      6.07      75.7     0.34      1010.4     2.3      NE    43   4.3     ENE    63   9.42    263      -34.7
   06/03/2018 19:00      87.8      85.3       36     56.1      0.00      6.07      75.6     0.34      1010.2     2.8      NE    45   4.3      NE    56   9.43    263      -14.2
   06/03/2018 18:50      90.7      87.5       33     55.9      0.00      6.07      75.6     0.34      1010.2     2.7      NE    48   4.6     ENE    63   9.43    263       10.4
   06/03/2018 18:40      93.3      90.5       27     52.9      0.00      6.07      75.5     0.34      1010.1     1.5      NE    35   4.7     ENE    65   9.43    263       32.9
   06/03/2018 18:30      93.5      92.7       22     48.9      0.00      6.07      75.5     0.34      1010.0     1.5     NNW   337   5.0       N     4   9.44    262       56.5
   06/03/2018 18:20      93.4      92.3       23     49.4      0.00      6.07      75.4     0.34      1009.9     2.3     NNW   347   5.1     NNW   331   9.44    262       79.8
   06/03/2018 18:10      94.3      92.7       22     49.4      0.00      6.07      75.3     0.34      1009.9     3.1     NNW   345   4.8       N     0   9.45    262      103.4
   06/03/2018 18:00      94.1      93.4       21     48.1      0.00      6.07      75.3     0.34      1009.9     2.4      NW   312   5.0      NW   312   9.45    262      128.5
   06/03/2018 17:50      95.0      93.6       20     46.8      0.00      6.07      75.2     0.34      1009.9     3.2     WNW   301   5.7     WSW   252   9.45    262      154.4
   06/03/2018 17:40      95.0      94.1       19     45.6      0.00      6.07      75.2     0.34      1009.9     3.1     WNW   293   6.8       W   277   9.46    262      180.1
   06/03/2018 17:30      95.6      94.3       19     45.8      0.00      6.07      75.1     0.34      1010.0     3.9     NNW   331   6.7     NNW   345   9.46    262      204.4
   06/03/2018 17:20      95.8      94.9       18     45.3      0.00      6.07      75.0     0.34      1010.0     2.6     WNW   300   6.6     NNW   330   9.47    262      229.5
   06/03/2018 17:10      96.0      94.9       18     45.2      0.00      6.07      74.9     0.34      1010.1     3.1     WNW   303   6.7       W   264   9.47    262      253.3
   06/03/2018 17:00      95.5      94.8       19     46.0      0.00      6.07      74.9     0.34      1010.2     3.7      NW   322   7.0      NW   307   9.48    262      276.3
   06/03/2018 16:50      96.0      95.2       20     47.6      0.00      6.07      74.8     0.34      1010.2     3.4      NW   324   8.6     WNW   303   9.48    262      300.8
   06/03/2018 16:40      96.1      95.0       20     48.8      0.00      6.07      74.7     0.34      1010.3     3.4      NW   321   7.3       N   351   9.49    262      323.5
   06/03/2018 16:30      95.7      94.9       22     50.0      0.00      6.07      74.6     0.34      1010.4     3.8     NNW   328   7.4     WNW   290   9.49    262      344.8
   06/03/2018 16:20      96.0      95.1       22     50.4      0.00      6.07      74.5     0.34      1010.4     3.8     NNW   328   7.5      NW   325   9.50    262      365.6
   06/03/2018 16:10      96.4      95.5       21     49.8      0.00      6.07      74.5     0.34      1010.5     3.7     NNW   330   8.5      NW   322   9.50    262      385.3
   06/03/2018 16:00      97.7      95.8       20     49.3      0.00      6.07      74.4     0.34      1010.6     3.8      NW   324   9.6      NW   316   9.50    263      403.2
   06/03/2018 15:50      97.7      96.1       22     51.3      0.00      6.07      74.2     0.34      1010.6     2.5     NNW   334   6.6     NNW   338   9.51    263      424.1
   06/03/2018 15:40      97.2      96.2       21     51.0      0.00      6.07      74.2     0.34      1010.7     3.0      NW   312   6.6     WNW   302   9.51    263      442.1
   06/03/2018 15:30      96.9      95.5       27     56.3      0.00      6.07      74.1     0.34      1010.7     1.5     NNE    16   4.6     NNE    30   9.52    263      460.0
   06/03/2018 15:20      95.7      93.5       28     56.1      0.00      6.07      74.0     0.34      1010.8     2.7     ENE    60   4.6      SE   131   9.52    263      477.2
   06/03/2018 15:10      94.9      94.0       27     55.6      0.00      6.07      73.9     0.34      1010.9     2.8     ENE    70   5.3     ENE    68   9.52    263      491.0
   06/03/2018 15:00      94.9      94.1       27     55.4      0.00      6.07      73.8     0.34      1010.9     3.2      NE    35   6.0     NNE    27   9.52    263      504.4
   06/03/2018 14:50      94.2      93.8       27     55.2      0.00      6.07      73.8     0.34      1011.0     2.2      NE    54   4.7     ESE   114   9.53    263      518.7
   06/03/2018 14:40      95.2      93.4       27     55.4      0.00      6.07      73.7     0.34      1011.1     2.9      NE    45   5.2       E    81   9.53    263      530.9
   06/03/2018 14:30      95.1      92.8       28     55.4      0.00      6.07      73.6     0.34      1011.1     2.7      NE    34   6.0      NE    54   9.53    263      542.8
   06/03/2018 14:20      94.6      93.0       27     55.2      0.00      6.07      73.6     0.34      1011.2     2.9      NE    34   5.7     ENE    61   9.53    263      551.9
   06/03/2018 14:10      93.3      92.0       28     54.9      0.00      6.07      73.5     0.34      1011.2     2.7      NE    50   6.1     ENE    64   9.54    263      565.6
   06/03/2018 14:00      92.5      91.8       28     54.8      0.00      6.07      73.4     0.34      1011.3     2.8     ENE    76   5.7       E    90   9.54    263      575.5
   06/03/2018 13:50      92.3      91.8       28     54.7      0.00      6.07      73.3     0.34      1011.4     3.0     ENE    71   5.6     ENE    65   9.54    263      583.8
   06/03/2018 13:40      92.4      91.9       29     55.0      0.00      6.07      73.3     0.34      1011.4     3.3      NE    51   5.9     NNE    17   9.54    263      590.2
   06/03/2018 13:30      94.2      91.9       26     53.2      0.00      6.07      73.3     0.33      1011.5     3.3      NE    56   7.4      NE    56   9.54    263      593.1
   06/03/2018 13:20      93.4      91.8       24     50.7      0.00      6.07      73.2     0.33      1011.6     2.0     ENE    66   4.6       E    89   9.54    263      596.8
   06/03/2018 13:10      91.7      90.3       25     50.4      0.00      6.07      73.1     0.33      1011.8     1.6       S   184   4.3       S   183   9.55    263      600.9
   06/03/2018 13:00      91.1      89.4       26     50.5      0.00      6.07      73.1     0.33      1011.9     1.8      NE    56   5.1       N     4   9.55    262      603.1
   06/03/2018 12:50      90.2      89.0       26     50.3      0.00      6.07      73.0     0.33      1012.1     2.4       E    95   4.7       E    99   9.55    262      604.6
   06/03/2018 12:40      89.5      88.3       27     50.2      0.00      6.07      73.0     0.33      1012.1     2.1     SSE   148   5.2     SSW   209   9.55    263      606.1
   06/03/2018 12:30      89.3      88.0       27     50.3      0.00      6.07      73.0     0.33      1012.2     1.7       N   355   4.4     NNE    33   9.55    263      602.8
   06/03/2018 12:20      88.1      87.2       28     50.0      0.00      6.07      73.0     0.33      1012.4     2.0     ENE    72   5.0      NW   322   9.55    263      602.7
   06/03/2018 12:10      87.4      86.2       28     49.9      0.00      6.07      73.0     0.33      1012.5     1.6       N   351   4.1     NNE    14   9.55    262      599.4
   06/03/2018 12:00      86.8      84.5       29     49.9      0.00      6.07      73.0     0.33      1012.6     2.1      NE    35   4.1       N   352   9.55    263      594.1
   06/03/2018 11:50      85.3      84.0       29     49.3      0.00      6.07      72.9     0.33      1012.7     2.7       S   174   5.0     NNE    23   9.55    263      590.0
   06/03/2018 11:40      85.4      83.5       29     49.3      0.00      6.07      72.9     0.33      1012.8     1.6     NNW   343   3.2     WNW   291   9.56    263      583.3
   06/03/2018 11:30      84.7      83.5       30     48.9      0.00      6.07      72.9     0.33      1013.0     2.0       E    80   4.8       E    93   9.56    263      576.6
   06/03/2018 11:20      84.5      82.3       31     49.1      0.00      6.07      72.9     0.34      1013.0     1.5     NNE    12   4.3     NNW   345   9.56    263      565.6
   06/03/2018 11:10      82.5      80.8       33     49.4      0.00      6.07      72.9     0.34      1013.2     2.1     ENE    68   5.4      SE   143   9.56    263      558.9
   06/03/2018 11:00      80.8      78.7       35     49.6      0.00      6.07      73.0     0.34      1013.2     1.4     NNE    26   4.2     NNE    25   9.56    263      549.2
   06/03/2018 10:50      79.3      78.7       36     49.7      0.00      6.07      73.0     0.34      1013.3     2.8     ENE    76   5.3     ESE   108   9.56    263      537.0
   06/03/2018 10:40      79.1      78.0       37     50.5      0.00      6.07      73.0     0.34      1013.3     1.8       N     8   3.6     NNE    22   9.56    263      523.1
   06/03/2018 10:30      78.0      76.7       39     50.4      0.00      6.07      73.0     0.34      1013.3     1.5       N     4   4.6     NNW   328   9.56    263      509.7
   06/03/2018 10:20      77.0      76.5       40     50.5      0.00      6.07      73.0     0.34      1013.4     1.9      NE    55   4.1       N   352   9.56    263      496.4
   06/03/2018 10:10      77.0      76.1       40     50.4      0.00      6.07      73.1     0.34      1013.4     2.1       N   355   4.1     NNE    22   9.56    263      479.2
   06/03/2018 10:00      76.3      74.5       42     50.4      0.00      6.07      73.2     0.34      1013.5     1.1     ESE   101   3.6      SW   214   9.56    263      463.9
   06/03/2018 09:50      75.0      74.0       43     50.5      0.00      6.07      73.2     0.34      1013.6     1.4     WSW   242   2.8       W   270   9.56    263      443.9
   06/03/2018 09:40      74.8      72.6       44     50.0      0.00      6.07      73.2     0.34      1013.7     1.0      NE    44   2.7      NE    55   9.56    263      424.4
   06/03/2018 09:30      72.6      71.1       46     50.0      0.00      6.07      73.2     0.34      1013.8     1.6     NNE    13   4.0       N     7   9.56    264      407.2
   06/03/2018 09:20      71.8      70.9       50     51.4      0.00      6.07      73.3     0.34      1013.8     1.8       N     2   4.1      NE    53   9.56    264      390.2
   06/03/2018 09:10      70.9      68.9       52     51.7      0.00      6.07      73.3     0.34      1013.9     1.0     NNW   331   2.5     NNW   339   9.56    264      372.3
   06/03/2018 09:00      68.9      68.1       55     51.7      0.00      6.07      73.3     0.34      1014.0     2.2       N   356   3.5       N     9   9.56    265      360.7
   06/03/2018 08:50      68.1      66.2       57     51.4      0.00      6.07      73.4     0.34      1014.1     1.1       W   267   3.1     SSW   210   9.56    266      361.8
   06/03/2018 08:40      66.5      65.5       60     51.5      0.00      6.07      73.4     0.34      1014.1     0.9       N     2   3.1       N     0   9.57    267       58.9
   06/03/2018 08:30      65.6      64.8       62     51.9      0.00      6.07      73.5     0.34      1014.1     1.3     NNW   329   3.0      NE    35   9.57    267      -14.5
   06/03/2018 08:20      65.0      64.2       63     51.9      0.00      6.07      73.5     0.34      1014.1     1.1       N     3   2.4     WNW   302   9.57    267      -23.4
   06/03/2018 08:10      64.4      63.7       65     52.0      0.00      6.07      73.5     0.34      1014.2     1.1       E    81   3.1     NNE    20   9.57    267      -19.6
   06/03/2018 08:00      64.0      62.9       66     52.0      0.00      6.07      73.6     0.34      1014.2     1.1     NNE    22   2.4      NE    46   9.57    267      -14.1
   06/03/2018 07:50      63.2      62.4       67     51.7      0.00      6.07      73.6     0.34      1014.1     0.5      NE    56   2.9     NNW   346   9.57    267      -14.1
   06/03/2018 07:40      62.6      62.1       67     51.5      0.00      6.07      73.7     0.34      1014.1     1.5      NE    55   3.0       E    87   9.57    267      -20.6
   06/03/2018 07:30      62.4      61.5       69     51.5      0.00      6.07      73.7     0.34      1014.2     1.1     ENE    68   2.9       E    92   9.57    268        3.6
   06/03/2018 07:20      61.7      61.0       70     51.7      0.00      6.07      73.8     0.34      1014.1     0.5      NE    36   2.2       N     2   9.57    268      -27.8
   06/03/2018 07:10      61.2      60.5       71     51.4      0.00      6.07      73.8     0.34      1014.1     0.1       S   191   0.9       S   185   9.57    267      -27.0
   06/03/2018 07:00      60.7      60.0       72     51.1      0.00      6.07      73.8     0.34      1014.1     0.5     SSE   155   2.2      SE   133   9.57    268      -30.8
   06/03/2018 06:50      60.1      58.5       74     51.2      0.00      6.07      73.8     0.34      1014.1     1.1     SSE   158   2.2     SSE   153   9.57    268      -37.5
   06/03/2018 06:40      58.7      57.3       77     50.9      0.00      6.07      73.9     0.34      1014.1     0.9     SSE   146   1.8      SE   141   9.57    268      -35.5
   06/03/2018 06:30      57.4      56.6       80     50.9      0.00      6.07      73.9     0.34      1014.2     0.3     SSE   164   1.3     SSE   154   9.57    268      -41.7
   06/03/2018 06:20      56.8      55.8       81     50.4      0.00      6.07      73.9     0.34      1014.1     0.2       S   176   0.7       S   176   9.57    268      -45.6
   06/03/2018 06:10      56.0      55.4       82     50.2      0.00      6.07      74.0     0.34      1014.1     0.2       S   177   1.2       S   176   9.57    268      -43.9
   06/03/2018 06:00      55.5      55.1       81     49.7      0.00      6.07      74.0     0.34      1014.1     0.3     SSE   165   1.1       S   187   9.57    269      -50.8
   06/03/2018 05:50      55.9      55.0       81     49.9      0.00      6.07      74.0     0.34      1014.0     0.6     SSE   157   1.4     SSE   157   9.57    270      -53.8
   06/03/2018 05:40      56.0      55.5       81     49.9      0.00      6.07      74.0     0.34      1014.0     0.4     SSE   157   0.8     SSE   157   9.57    270      -56.5
   06/03/2018 05:30      56.3      55.8       81     50.0      0.00      6.07      74.1     0.34      1014.0     1.0     SSE   151   2.0      SE   143   9.57    270      -57.7
   06/03/2018 05:20      56.3      55.9       80     49.8      0.00      6.07      74.1     0.34      1014.0     0.4     SSE   153   1.3     SSE   153   9.57    270      -58.1
   06/03/2018 05:10      56.8      56.0       78     49.7      0.00      6.07      74.2     0.34      1014.0     0.4     SSE   153   0.9     SSE   153   9.57    269      -58.4
   06/03/2018 05:00      56.9      56.4       79     50.0      0.00      6.07      74.1     0.34      1014.1     0.0     SSE   151   0.9     SSE   153   9.57    268      -57.9
   06/03/2018 04:50      57.4      56.6       78     50.3      0.00      6.07      74.2     0.34      1014.0     0.2      SE   139   0.7      SE   139   9.57    269      -57.9
   06/03/2018 04:40      57.4      56.9       78     50.2      0.00      6.07      74.3     0.34      1014.0     0.0       N     0   0.0      SE   139   9.58    269      -58.5
   06/03/2018 04:30      57.4      56.8       78     50.4      0.00      6.07      74.3     0.34      1013.9     0.2      SE   140   1.2      SE   139   9.57    268      -59.4
   06/03/2018 04:20      57.4      56.9       78     50.5      0.00      6.07      74.3     0.34      1013.7     0.6     SSE   161   1.4     SSE   148   9.58    268      -59.4
   06/03/2018 04:10      57.5      56.9       78     50.4      0.00      6.07      74.4     0.34      1013.7     0.6     SSE   167   1.1     SSE   168   9.58    268      -59.3
   06/03/2018 04:00      57.6      57.1       78     50.5      0.00      6.07      74.4     0.34      1013.7     0.3       S   171   1.1       S   171   9.58    269      -59.0
   06/03/2018 03:50      57.9      57.2       77     50.2      0.00      6.07      74.4     0.34      1013.7     0.4       S   171   1.2       S   171   9.58    268      -59.1
   06/03/2018 03:40      58.2      57.5       76     50.2      0.00      6.07      74.5     0.34      1013.7     0.4       S   171   1.3       S   171   9.58    268      -59.5
   06/03/2018 03:30      58.3      58.0       76     50.5      0.00      6.07      74.5     0.34      1013.6     0.2       S   171   1.1       S   171   9.58    268      -59.3
   06/03/2018 03:20      58.8      58.0       74     50.0      0.00      6.07      74.5     0.34      1013.6     0.2       S   171   0.8       S   171   9.58    268      -60.6
   06/03/2018 03:10      59.0      58.5       74     50.4      0.00      6.07      74.5     0.34      1013.6     0.3       S   171   1.0       S   171   9.58    268      -60.3
   06/03/2018 03:00      59.1      58.6       74     50.4      0.00      6.07      74.5     0.34      1013.5     0.0       S   171   0.7       S   171   9.58    268      -60.4
   06/03/2018 02:50      59.1      58.8       73     50.1      0.00      6.07      74.5     0.34      1013.4     0.3       S   171   0.9       S   171   9.58    267      -60.6
   06/03/2018 02:40      59.8      58.8       72     50.1      0.00      6.07      74.6     0.34      1013.3     0.2       S   171   0.9       S   171   9.58    268      -62.2
   06/03/2018 02:30      60.1      59.4       71     50.5      0.00      6.07      74.6     0.34      1013.3     0.6     SSE   156   1.1     SSE   153   9.58    267      -62.4
   06/03/2018 02:20      60.1      59.7       71     50.5      0.00      6.07      74.7     0.34      1013.4     0.4     SSE   155   1.3     SSE   147   9.59    267      -63.4
   06/03/2018 02:10      60.1      59.3       72     50.4      0.00      6.07      74.7     0.34      1013.5     0.9     SSE   165   1.6     SSE   166   9.59    267      -64.0
   06/03/2018 02:00      59.9      59.5       72     50.9      0.00      6.07      74.7     0.34      1013.4     0.3       S   176   1.4       S   177   9.59    267      -64.2
   06/03/2018 01:50      60.3      59.5       73     51.0      0.00      6.07      74.7     0.34      1013.5     0.6       S   172   1.4       S   179   9.59    267      -64.3
   06/03/2018 01:40      60.4      59.9       72     51.3      0.00      6.07      74.7     0.34      1013.6     0.8     SSE   162   1.9       S   173   9.59    267      -64.2
   06/03/2018 01:30      60.8      60.0       71     51.1      0.00      6.07      74.7     0.34      1013.6     0.4     SSE   160   0.9     SSE   158   9.59    267      -66.0
   06/03/2018 01:20      60.9      60.4       70     50.6      0.00      6.07      74.8     0.34      1013.6     1.0     SSE   165   2.1     SSW   201   9.59    267      -65.7
   06/03/2018 01:10      61.4      60.7       68     50.6      0.00      6.07      74.8     0.34      1013.6     1.2     SSW   211   2.3      SW   214   9.59    266      -65.0
   06/03/2018 01:00      61.6      60.9       69     50.9      0.00      6.07      74.8     0.34      1013.6     0.4       S   171   1.1       S   177   9.60    266      -65.9
   06/03/2018 00:50      62.1      61.3       68     50.8      0.00      6.07      74.8     0.34      1013.7     0.2       S   170   1.3       S   171   9.60    266      -66.6
   06/03/2018 00:40      62.5      61.9       67     51.0      0.00      6.07      74.8     0.34      1013.8     0.6       S   174   1.4       S   174   9.60    266      -66.8
   06/03/2018 00:30      63.5      62.3       64     50.6      0.00      6.07      74.8     0.34      1013.8     0.9       S   190   1.8     SSW   209   9.60    266      -66.5
   06/03/2018 00:20      63.7      63.2       64     50.9      0.00      6.07      74.9     0.34      1013.8     0.3       S   184   1.5       S   179   9.60    266      -66.3
   06/03/2018 00:10      64.4      63.4       63     51.0      0.00      6.07      74.9     0.34      1013.9     0.0       N     0   0.0      SE   125   9.60    266      -66.9
   06/03/2018 00:00      64.4      64.0       62     50.9      0.00      6.07      74.9     0.34      1013.9     0.2      SE   127   1.8     ESE   118   9.60    266      -68.2
   06/02/2018 23:50      64.4      63.9       61     50.6      0.00      6.07      74.9     0.34      1013.9     0.8      SE   138   1.5      SE   140   9.60    266      -69.2
   06/02/2018 23:40      64.7      64.1       61     50.7      0.00      6.07      74.9     0.34      1013.9     0.3     SSE   158   1.5      SE   141   9.60    266      -68.5
   06/02/2018 23:30      64.9      64.4       61     50.8      0.00      6.07      74.9     0.34      1013.9     0.1     SSW   211   0.9     SSW   211   9.60    266      -68.6
   06/02/2018 23:20      65.4      64.6       60     50.5      0.00      6.07      74.9     0.34      1013.9     0.0     SSW   200   1.0     SSW   211   9.61    266      -69.3
   06/02/2018 23:10      66.0      65.0       58     50.3      0.00      6.07      74.9     0.34      1013.8     0.0       N     0   0.0       E    99   9.61    266      -70.5
   06/02/2018 23:00      66.4      65.6       57     50.1      0.00      6.07      74.9     0.34      1013.8     0.4      SE   137   1.1     SSE   153   9.61    266      -71.0
   06/02/2018 22:50      67.1      66.2       55     50.1      0.00      6.07      74.9     0.34      1013.9     0.3     SSE   150   1.4      SE   141   9.61    266      -71.1
   06/02/2018 22:40      67.8      66.8       54     49.8      0.00      6.07      74.9     0.34      1013.8     0.0       N     0   0.0     ENE    75   9.61    265      -72.0
   06/02/2018 22:30      68.0      67.4       53     49.9      0.00      6.07      74.9     0.34      1013.8     0.0     NNE    30   0.5     NNE    18   9.61    265      -72.3
   06/02/2018 22:20      68.9      67.7       51     49.6      0.00      6.07      74.9     0.34      1013.8     0.2       S   169   1.2     SSW   192   9.61    264      -73.6
   06/02/2018 22:10      69.6      68.5       49     48.8      0.00      6.07      74.9     0.34      1013.7     0.0     ENE    71   0.2     ENE    71   9.62    265      -75.4
   06/02/2018 22:00      70.0      69.3       45     47.1      0.00      6.07      74.9     0.34      1013.7     0.2     ENE    61   1.3       E    82   9.62    264      -75.2
   06/02/2018 21:50      70.4      69.7       42     46.1      0.00      6.07      74.8     0.34      1013.6     0.5       S   191   1.4     ENE    62   9.62    264      -75.0
   06/02/2018 21:40      71.7      70.1       42     46.3      0.00      6.07      74.9     0.34      1013.4     0.2       S   190   1.1     SSW   199   9.62    264      -77.2
   06/02/2018 21:30      72.5      71.4       40     46.6      0.00      6.07      74.8     0.34      1013.3     0.3     ENE    57   1.6      NE    52   9.62    263      -80.8
   06/02/2018 21:20      73.1      72.3       39     46.5      0.00      6.07      74.8     0.34      1013.3     1.0      SE   127   2.7     SSW   198   9.63    263      -83.3
   06/02/2018 21:10      73.9      72.9       39     46.5      0.00      6.07      74.8     0.34      1013.3     2.1       S   191   4.2     SSW   202   9.63    263      -84.3
   06/02/2018 21:00      74.0      73.5       38     46.3      0.00      6.07      74.8     0.34      1013.1     2.7     SSW   205   5.8      SW   223   9.63    263      -85.6
   06/02/2018 20:50      74.7      73.7       36     45.9      0.00      6.07      74.8     0.34      1013.1     2.0     SSW   203   4.2       S   173   9.63    263      -85.8
   06/02/2018 20:40      75.3      74.3       36     45.8      0.00      6.07      74.7     0.34      1013.0     2.7      SW   232   6.8     WSW   253   9.64    263      -87.2
   06/02/2018 20:30      75.7      75.0       35     45.8      0.00      6.07      74.7     0.34      1012.9     3.3     WSW   240   6.7     SSW   204   9.64    263      -88.2
   06/02/2018 20:20      76.6      75.4       34     45.5      0.00      6.07      74.7     0.34      1012.8     2.2      SW   219   5.2      SW   217   9.64    263      -89.7
   06/02/2018 20:10      77.4      76.3       32     44.7      0.00      6.07      74.7     0.34      1012.8     2.6      SW   230   6.0     SSW   207   9.65    263      -89.4
   06/02/2018 20:00      78.0      77.0       31     44.1      0.00      6.07      74.6     0.34      1012.8     3.9     WSW   239   6.8       W   273   9.65    263      -87.5
   06/02/2018 19:50      78.5      77.7       30     43.8      0.00      6.07      74.6     0.34      1012.8     4.3       W   259   7.9     WSW   254   9.66    263      -84.5
   06/02/2018 19:40      79.1      78.2       29     43.8      0.00      6.07      74.5     0.34      1012.9     4.6     WSW   246   8.0      NW   304   9.66    263      -80.8
   06/02/2018 19:30      80.6      78.8       29     44.5      0.00      6.07      74.5     0.34      1012.8     4.9     WSW   243   7.7      SW   215   9.67    263      -64.8
   06/02/2018 19:20      81.4      80.3       28     44.8      0.00      6.07      74.4     0.34      1012.8     4.0       W   275   9.8       W   264   9.67    263      -48.6
   06/02/2018 19:10      81.7      80.7       27     44.5      0.00      6.07      74.4     0.34      1012.8     3.3     WNW   284   7.4     NNW   345   9.68    263      -29.6
   06/02/2018 19:00      82.6      81.3       26     44.1      0.00      6.07      74.4     0.34      1012.8     3.9     WNW   282   9.0       W   275   9.68    263       -8.9
   06/02/2018 18:50      83.3      82.4       26     44.6      0.00      6.07      74.3     0.34      1012.8     3.8     WNW   303   6.6     WSW   244   9.69    263       13.6
   06/02/2018 18:40      83.9      82.7       27     45.4      0.00      6.07      74.3     0.34      1012.7     3.9      NW   315   8.2     NNW   331   9.70    263       38.1
   06/02/2018 18:30      84.4      83.6       26     45.2      0.00      6.07      74.2     0.34      1012.6     3.7     WNW   292   8.7     NNW   330   9.70    263       62.1
   06/02/2018 18:20      84.5      83.8       25     44.8      0.00      6.07      74.2     0.34      1012.6     3.8      NW   308   8.0      NW   313   9.71    263       86.1
   06/02/2018 18:10      85.7      84.1       24     44.4      0.00      6.07      74.1     0.34      1012.7     4.9      NW   311   8.2      NW   308   9.71    263      111.2
   06/02/2018 18:00      86.3      85.4       24     44.8      0.00      6.07      74.1     0.34      1012.5     3.4      NW   309   8.7      NW   305   9.72    263      134.6
   06/02/2018 17:50      86.0      85.3       24     44.6      0.00      6.07      74.0     0.34      1012.6     4.6      NW   307   8.0      NW   308   9.72    263      160.6
   06/02/2018 17:40      87.0      85.6       23     44.4      0.00      6.07      73.9     0.34      1012.6     4.7     WNW   300   9.1       W   262   9.73    263      183.9
   06/02/2018 17:30      88.2      86.7       23     45.3      0.00      6.07      73.8     0.34      1012.6     4.3      NW   315   8.3      NW   311   9.73    263      207.6
   06/02/2018 17:20      88.9      87.8       23     45.6      0.00      6.07      73.8     0.34      1012.6     4.1      NW   307  10.8       W   261   9.74    263      232.5
   06/02/2018 17:10      89.0      88.0       23     45.5      0.00      6.07      73.7     0.34      1012.6     4.3      NW   324   7.1      NW   324   9.74    263      255.3
   06/02/2018 17:00      89.1      88.4       23     45.9      0.00      6.07      73.7     0.34      1012.6     3.9     NNW   340   7.5     NNE    28   9.75    263      278.4
   06/02/2018 16:50      89.2      88.6       25     48.6      0.00      6.07      73.5     0.34      1012.6     4.0     NNW   333   9.1       N     0   9.76    263      301.0
   06/02/2018 16:40      89.2      88.2       29     52.6      0.00      6.07      73.5     0.34      1012.6     2.3     NNE    32   6.2     NNE    32   9.76    263      323.1
   06/02/2018 16:30      89.4      88.6       29     52.6      0.00      6.07      73.4     0.34      1012.6     2.2     ENE    65   4.8     ESE   102   9.76    263      344.9
   06/02/2018 16:20      89.0      87.6       30     52.6      0.00      6.07      73.3     0.34      1012.6     1.8      NE    49   4.3     ENE    73   9.77    263      367.1
   06/02/2018 16:10      88.3      87.3       30     52.6      0.00      6.07      73.2     0.34      1012.7     2.6       E    86   5.3      SE   125   9.77    263      388.5
   06/02/2018 16:00      89.5      87.1       30     52.5      0.00      6.07      73.1     0.34      1012.8     3.7      NE    42   6.7       N     9   9.77    263      407.8
   06/02/2018 15:50      89.4      88.4       29     52.6      0.00      6.07      73.1     0.34      1012.9     3.0     NNE    29   5.3     NNE    25   9.78    263      427.1
   06/02/2018 15:40      88.8      87.8       29     52.5      0.00      6.07      73.0     0.34      1013.0     2.4      NE    51   5.1       N   351   9.78    263      447.4
   06/02/2018 15:30      88.5      87.0       30     52.4      0.00      6.07      72.9     0.34      1013.1     2.9     ENE    75   5.7     ESE   102   9.78    263      465.4
   06/02/2018 15:20      88.7      87.1       30     52.5      0.00      6.07      72.8     0.34      1013.1     3.0      NE    40   6.9      NE    52   9.79    263      480.7
   06/02/2018 15:10      88.5      87.2       30     52.3      0.00      6.07      72.8     0.34      1013.3     3.7      NE    56   6.8     ENE    57   9.79    263      495.7
   06/02/2018 15:00      88.8      87.5       30     52.5      0.00      6.07      72.6     0.34      1013.4     2.9     ENE    57   6.3      NE    45   9.79    263      510.7
   06/02/2018 14:50      87.7      86.2       31     52.5      0.00      6.07      72.6     0.34      1013.5     3.0     ENE    59   5.1       E    98   9.79    263      527.0
   06/02/2018 14:40      87.1      86.2       31     52.3      0.00      6.07      72.5     0.34      1013.6     3.3       E   100   7.2       E    90   9.80    263      541.0
   06/02/2018 14:30      88.0      86.4       30     52.3      0.00      6.07      72.5     0.34      1013.7     3.5     ENE    76   8.3       E    93   9.80    263      550.4
   06/02/2018 14:20      87.8      86.6       31     52.4      0.00      6.07      72.3     0.34      1013.8     3.0      NE    51   5.9     NNE    32   9.81    263      556.5
   06/02/2018 14:10      87.8      86.6       31     52.6      0.00      6.07      72.3     0.34      1013.9     3.1      NE    38   6.9      NE    49   9.81    263      567.3
   06/02/2018 14:00      87.3      86.1       31     52.5      0.00      6.07      72.2     0.34      1014.0     3.0      NE    41   7.0      NE    44   9.81    263      578.1
   06/02/2018 13:50      87.0      85.7       31     52.5      0.00      6.07      72.2     0.34      1014.1     3.0       E    94   6.2      SE   141   9.81    263      588.3
   06/02/2018 13:40      87.0      86.6       31     52.6      0.00      6.07      72.2     0.33      1014.2     2.2     ENE    56   6.1      NE    42   9.81    263      589.9
   06/02/2018 13:30      87.5      86.4       31     52.6      0.00      6.07      72.0     0.33      1014.3     3.2      NE    49   6.2       N     7   9.82    263      595.5
   06/02/2018 13:20      87.2      85.2       32     52.6      0.00      6.07      72.0     0.33      1014.3     2.8      NE    50   6.2     ENE    67   9.82    263      600.7
   06/02/2018 13:10      86.2      85.6       32     52.6      0.00      6.07      72.0     0.33      1014.5     2.6     ENE    75   6.0       E    84   9.82    263      604.5
   06/02/2018 13:00      85.5      84.1       33     52.4      0.00      6.07      71.9     0.33      1014.6     2.9     ENE    60   6.4       E    98   9.82    263      607.3
   06/02/2018 12:50      85.0      83.8       33     52.3      0.00      6.07      71.8     0.33      1014.7     3.1      NE    54   6.6     NNE    18   9.82    263      606.1
   06/02/2018 12:40      84.8      83.5       33     52.2      0.00      6.07      71.9     0.33      1014.7     3.0     ENE    67   5.8     ENE    67   9.82    263      606.3
   06/02/2018 12:30      84.6      83.6       34     52.4      0.00      6.07      71.8     0.33      1014.8     3.2      NE    54   6.0      NE    35   9.82    263      605.2
   06/02/2018 12:20      84.9      84.0       33     52.5      0.00      6.07      71.8     0.33      1014.8     3.4      NE    47   5.5     ENE    60   9.83    263      599.9
   06/02/2018 12:10      84.8      83.6       33     52.1      0.00      6.07      71.8     0.33      1014.8     2.6     ENE    69   5.8     ESE   111   9.83    263      596.6
   06/02/2018 12:00      84.6      83.5       33     52.1      0.00      6.07      71.7     0.33      1014.9     2.3     NNE    26   5.1     NNW   348   9.83    263      589.6
   06/02/2018 11:50      84.2      82.2       34     51.9      0.00      6.07      71.7     0.33      1015.1     1.5     NNE    22   3.7     ENE    56   9.83    263      585.9
   06/02/2018 11:40      82.7      81.9       35     51.9      0.00      6.07      71.7     0.33      1015.2     2.4     ENE    60   5.1     ESE   109   9.83    263      577.1
   06/02/2018 11:30      82.3      81.3       35     51.6      0.00      6.07      71.8     0.33      1015.2     2.9      NE    47   5.3       N   349   9.83    263      569.1
   06/02/2018 11:20      83.4      82.1       33     51.1      0.00      6.07      71.7     0.33      1015.2     1.9      NE    53   5.8       E    95   9.83    263      558.3
   06/02/2018 11:10      82.8      81.3       34     51.1      0.00      6.07      71.8     0.33      1015.2     1.4      NE    49   3.9       E    82   9.83    263      550.2
   06/02/2018 11:00      81.2      80.1       35     50.9      0.00      6.07      71.8     0.33      1015.3     1.3     NNE    13   3.5     NNE    21   9.83    263      539.5
   06/02/2018 10:50      80.4      79.3       36     50.8      0.00      6.07      71.8     0.33      1015.3     2.0     NNE    22   4.4       N    10   9.83    263      528.0
   06/02/2018 10:40      79.6      78.4       37     50.6      0.00      6.07      71.8     0.34      1015.3     1.8      NE    46   4.2       N     3   9.83    263      517.2
   06/02/2018 10:30      78.6      76.7       39     50.5      0.00      6.07      71.8     0.34      1015.4     1.3     NNW   327   3.5      NW   304   9.83    263      503.5
   06/02/2018 10:20      77.1      76.2       40     50.5      0.00      6.07      71.9     0.34      1015.4     2.1       N   357   4.2      NW   312   9.83    263      487.1
   06/02/2018 10:10      76.7      75.8       40     50.4      0.00      6.07      71.9     0.34      1015.5     2.2     NNE    18   3.8     NNE    29   9.83    263      472.7
   06/02/2018 10:00      76.5      74.4       41     50.4      0.00      6.07      71.9     0.34      1015.5     1.2     ENE    72   3.0     NNE    22   9.83    263      456.3
   06/02/2018 09:50      74.5      73.7       43     50.0      0.00      6.07      72.0     0.34      1015.7     1.7     NNE    32   3.7      NE    50   9.83    264      437.9
   06/02/2018 09:40      73.9      73.1       43     50.0      0.00      6.07      72.0     0.34      1015.8     2.0     NNE    31   4.6      NW   325   9.83    263      419.6
   06/02/2018 09:30      73.3      72.7       44     49.9      0.00      6.07      72.0     0.34      1015.8     1.8     ENE    69   3.8     ESE   106   9.83    264      402.0
   06/02/2018 09:20      72.9      71.1       47     50.4      0.00      6.07      72.0     0.34      1015.9     1.6       E    84   4.8       E    91   9.83    264      384.1
   06/02/2018 09:10      71.1      69.8       50     51.0      0.00      6.07      72.1     0.34      1015.9     1.7      NE    41   4.8      NE    52   9.83    265      367.5
   06/02/2018 09:00      70.2      68.9       53     51.5      0.00      6.07      72.1     0.34      1016.0     1.6     NNE    28   3.9     NNE    28   9.83    266      353.2
   06/02/2018 08:50      68.9      67.2       57     52.0      0.00      6.07      72.1     0.34      1016.0     1.3     NNE    31   3.1     NNW   344   9.83    266      352.4
   06/02/2018 08:40      67.3      66.3       59     52.1      0.00      6.07      72.2     0.34      1016.0     1.6     NNE    16   3.3     NNE    17   9.84    267       77.8
   06/02/2018 08:30      66.5      65.5       62     52.4      0.00      6.07      72.3     0.34      1016.0     1.3      NE    35   2.8      NE    41   9.84    267       -6.9
   06/02/2018 08:20      65.7      64.7       63     52.4      0.00      6.07      72.3     0.34      1015.9     1.0      NE    36   2.8     NNE    20   9.84    268      -14.7
   06/02/2018 08:10      65.0      63.8       65     52.3      0.00      6.07      72.3     0.34      1015.8     1.1      NE    47   2.8     ENE    68   9.84    268      -11.1
   06/02/2018 08:00      63.9      62.9       67     52.3      0.00      6.07      72.3     0.34      1015.8     1.0       N   353   2.3     NNE    20   9.84    268       -5.6
   06/02/2018 07:50      63.1      62.3       68     52.1      0.00      6.07      72.4     0.34      1015.7     1.2     NNW   347   2.2     NNW   330   9.84    268        0.0
   06/02/2018 07:40      62.5      61.5       69     51.8      0.00      6.07      72.4     0.34      1015.6     0.6     NNE    19   1.6     NNE    27   9.84    268      -14.5
   06/02/2018 07:30      61.7      60.8       71     51.6      0.00      6.07      72.4     0.34      1015.6     0.4       N   350   1.4     ENE    78   9.84    268        4.9
   06/02/2018 07:20      60.9      59.8       72     51.3      0.00      6.07      72.5     0.34      1015.5     0.1     NNW   348   0.9      SE   135   9.84    268      -22.8
   06/02/2018 07:10      60.0      58.5       74     50.9      0.00      6.07      72.5     0.34      1015.5     0.4       E    79   1.4       E    88   9.84    268      -22.2
   06/02/2018 07:00      58.6      57.5       78     51.1      0.00      6.07      72.5     0.34      1015.5     0.0     ENE    72   0.6     ENE    72   9.84    268      -17.4
   06/02/2018 06:50      57.6      56.6       80     51.1      0.00      6.07      72.6     0.34      1015.5     0.0     SSE   152   0.6     SSE   152   9.84    269      -19.6
   06/02/2018 06:40      56.9      55.7       84     51.4      0.00      6.07      72.6     0.34      1015.4     0.0       N     0   0.0     SSE   152   9.84    269      -17.3
   06/02/2018 06:30      55.9      54.9       84     50.7      0.00      6.07      72.7     0.34      1015.4     0.0     SSE   152   0.6     SSE   152   9.84    271      -24.5
   06/02/2018 06:20      55.3      54.5       85     50.7      0.00      6.07      72.7     0.34      1015.3     0.5     SSE   152   0.9     SSE   152   9.84    269      -28.3
   06/02/2018 06:10      54.8      54.1       85     50.0      0.00      6.07      72.7     0.34      1015.3     0.1     SSE   152   0.8     SSE   152   9.84    270      -31.0
   06/02/2018 06:00      54.7      54.1       85     49.8      0.00      6.07      72.7     0.34      1015.2     0.7     SSE   153   1.1     SSE   154   9.84    274      -38.7
   06/02/2018 05:50      54.9      54.3       85     50.0      0.00      6.07      72.8     0.34      1015.1     0.2     SSE   155   0.9     SSE   155   9.84    274      -43.5
   06/02/2018 05:40      54.9      54.5       84     50.0      0.00      6.07      72.8     0.34      1015.1     0.3     SSE   155   0.9     SSE   155   9.84    274      -48.5
   06/02/2018 05:30      54.7      54.2       84     49.7      0.00      6.07      72.8     0.34      1015.1     0.1     SSE   154   1.0     SSE   154   9.84    273      -52.9
   06/02/2018 05:20      54.7      54.1       83     49.2      0.00      6.07      72.9     0.34      1015.0     0.7     SSE   161   1.4     SSE   154   9.84    272      -56.2
   06/02/2018 05:10      55.4      54.3       81     49.1      0.00      6.07      72.9     0.34      1014.9     0.7     SSE   153   2.0      SE   144   9.85    270      -56.9
   06/02/2018 05:00      55.5      55.1       81     49.5      0.00      6.07      72.9     0.34      1014.9     0.4     SSE   151   0.9     SSE   152   9.85    270      -56.2
   06/02/2018 04:50      55.7      55.1       80     49.4      0.00      6.07      73.0     0.34      1014.8     0.5     SSE   151   1.0     SSE   151   9.85    270      -57.2
   06/02/2018 04:40      55.6      55.1       80     49.2      0.00      6.07      73.0     0.34      1014.9     0.4     SSE   152   0.9     SSE   151   9.85    269      -57.1
   06/02/2018 04:30      55.3      54.6       80     49.0      0.00      6.07      73.0     0.34      1015.0     0.0     SSE   152   0.6     SSE   152   9.85    270      -57.0
   06/02/2018 04:20      55.8      54.7       78     48.5      0.00      6.07      73.1     0.34      1015.0     0.6     SSE   151   1.2     SSE   151   9.85    269      -58.4
   06/02/2018 04:10      56.0      55.4       77     48.5      0.00      6.07      73.1     0.34      1015.0     1.0     SSE   164   1.6     SSW   197   9.85    269      -58.9
   06/02/2018 04:00      56.3      55.7       77     48.7      0.00      6.07      73.1     0.34      1014.9     1.1      SW   226   2.0      SW   214   9.85    268      -57.3
   06/02/2018 03:50      56.1      55.6       77     48.7      0.00      6.07      73.2     0.34      1014.7     0.0       N     0   0.0     WSW   250   9.85    268      -58.4
   06/02/2018 03:40      56.5      55.7       75     48.6      0.00      6.07      73.2     0.34      1014.7     0.0     WSW   250   0.8     WSW   250   9.85    268      -58.4
   06/02/2018 03:30      56.7      56.0       75     48.5      0.00      6.07      73.2     0.34      1014.6     0.2     WSW   250   1.3     WSW   250   9.85    268      -57.7
   06/02/2018 03:20      57.3      56.5       74     48.9      0.00      6.07      73.3     0.34      1014.5     0.0       S   179   0.1       S   179   9.85    268      -57.7
   06/02/2018 03:10      57.3      56.9       74     48.8      0.00      6.07      73.3     0.34      1014.5     0.0       S   179   0.7       S   179   9.85    268      -57.5
   06/02/2018 03:00      57.1      56.0       75     48.8      0.00      6.07      73.3     0.34      1014.5     0.2       S   179   0.9       S   179   9.85    268      -58.6
   06/02/2018 02:50      57.2      56.0       73     48.0      0.00      6.07      73.3     0.34      1014.4     0.7     SSE   161   1.3     SSE   147   9.85    268      -60.1
   06/02/2018 02:40      57.9      56.9       72     48.4      0.00      6.07      73.3     0.34      1014.4     0.5       S   173   0.9     SSE   147   9.85    268      -60.2
   06/02/2018 02:30      58.0      57.4       72     48.7      0.00      6.07      73.4     0.34      1014.4     0.3       S   175   0.9       S   175   9.85    268      -59.0
   06/02/2018 02:20      57.8      57.4       72     48.6      0.00      6.07      73.3     0.34      1014.4     0.2       S   175   0.8       S   175   9.86    268      -59.8
   06/02/2018 02:10      57.9      57.4       72     48.7      0.00      6.07      73.4     0.34      1014.4     0.3       S   175   1.0       S   175   9.86    267      -60.5
   06/02/2018 02:00      58.2      57.5       72     48.9      0.00      6.07      73.4     0.34      1014.5     0.3       S   175   1.2       S   174   9.86    268      -61.2
   06/02/2018 01:50      58.5      58.0       72     49.3      0.00      6.07      73.5     0.34      1014.6     0.6     SSE   158   1.4      SE   144   9.86    267      -61.5
   06/02/2018 01:40      58.6      58.2       72     49.3      0.00      6.07      73.5     0.34      1014.6     0.3       S   182   0.9       S   189   9.86    267      -60.9
   06/02/2018 01:30      58.8      58.3       71     49.0      0.00      6.07      73.5     0.34      1014.7     0.0       S   189   0.6       S   189   9.86    267      -61.6
   06/02/2018 01:20      59.1      58.6       69     48.7      0.00      6.07      73.5     0.34      1014.7     0.2       S   180   1.0       S   189   9.86    267      -62.0
   06/02/2018 01:10      59.3      58.6       69     48.9      0.00      6.07      73.5     0.34      1014.7     0.4     SSE   156   1.1     SSE   156   9.86    267      -62.4
   06/02/2018 01:00      59.7      59.1       68     49.0      0.00      6.07      73.5     0.34      1014.8     0.4     SSE   168   0.8       S   177   9.86    267      -63.0
   06/02/2018 00:50      59.7      59.3       68     48.8      0.00      6.07      73.6     0.34      1014.8     0.4       S   178   1.1       S   178   9.86    267      -62.0
   06/02/2018 00:40      59.6      59.3       67     48.6      0.00      6.07      73.6     0.34      1014.9     0.4       S   177   0.8       S   177   9.87    266      -63.1
   06/02/2018 00:30      59.8      59.3       66     48.3      0.00      6.07      73.6     0.34      1014.9     0.0       S   178   0.8       S   178   9.87    266      -63.8
   06/02/2018 00:20      59.9      59.4       65     48.0      0.00      6.07      73.6     0.34      1014.9     0.8     SSE   163   1.5       S   178   9.87    266      -64.7
   06/02/2018 00:10      59.9      59.4       64     47.5      0.00      6.07      73.6     0.34      1014.9     0.8     SSE   165   1.5     SSW   203   9.87    266      -64.8
   06/02/2018 00:00      61.0      59.6       62     47.3      0.00      6.07      73.6     0.34      1014.9     0.7     SSE   158   1.6      SE   133   9.87    266      -65.7
   06/01/2018 23:50      61.3      60.6       60     46.9      0.00      6.07      73.6     0.34      1014.9     1.2     SSW   192   1.6       S   187   9.87    266      -65.0
   06/01/2018 23:40      61.4      61.0       59     47.0      0.00      6.07      73.6     0.34      1014.9     0.0      SE   146   0.7      SE   146   9.87    266      -65.3
   06/01/2018 23:30      61.6      60.9       59     47.0      0.00      6.07      73.7     0.34      1014.8     0.3      SE   145   0.8      SE   145   9.87    266      -65.9
   06/01/2018 23:20      61.8      61.3       59     47.0      0.00      6.07      73.7     0.34      1014.8     0.1      SE   145   0.5      SE   145   9.87    266      -66.0
   06/01/2018 23:10      62.2      61.3       58     46.8      0.00      6.07      73.6     0.34      1014.6     0.0      SE   145   0.5      SE   145   9.87    266      -67.2
   06/01/2018 23:00      63.1      61.8       56     46.6      0.00      6.07      73.7     0.34      1014.6     0.2      SE   145   1.0      SE   145   9.88    266      -68.2
   06/01/2018 22:50      63.7      62.9       55     46.6      0.00      6.07      73.7     0.34      1014.6     0.1     SSE   168   1.1     SSW   202   9.88    266      -68.2
   06/01/2018 22:40      64.8      63.5       53     46.7      0.00      6.07      73.6     0.34      1014.6     0.2      SW   215   1.4      SW   230   9.88    266      -69.0
   06/01/2018 22:30      65.2      64.8       52     46.8      0.00      6.07      73.6     0.34      1014.6     0.3       S   190   1.6     WSW   258   9.88    266      -70.8
   06/01/2018 22:20      65.2      64.8       52     47.0      0.00      6.07      73.6     0.34      1014.6     0.1       W   259   1.7       W   265   9.88    266      -72.0
   06/01/2018 22:10      65.7      64.8       52     47.0      0.00      6.07      73.7     0.34      1014.5     0.3     SSE   149   1.4     ESE   118   9.88    266      -72.1
   06/01/2018 22:00      66.0      65.2       51     47.1      0.00      6.07      73.6     0.34      1014.5     0.3       S   184   1.5     SSW   200   9.88    266      -72.5
   06/01/2018 21:50      67.1      65.8       50     47.0      0.00      6.07      73.6     0.34      1014.5     0.0       S   171   0.2       S   171   9.89    266      -74.7
   06/01/2018 21:40      67.4      66.8       49     47.1      0.00      6.07      73.6     0.34      1014.4     0.7      SW   225   2.9       W   280   9.89    266      -76.9
   06/01/2018 21:30      67.6      67.1       49     47.3      0.00      6.07      73.6     0.34      1014.3     1.6     WSW   244   4.0     WSW   256   9.89    266      -77.4
   06/01/2018 21:20      67.9      67.3       48     47.3      0.00      6.07      73.5     0.34      1014.3     1.0      SW   218   2.8     SSW   199   9.89    266      -78.2
   06/01/2018 21:10      68.2      67.6       48     47.5      0.00      6.07      73.5     0.34      1014.3     1.8     SSW   207   4.3      SW   215   9.89    266      -79.4
   06/01/2018 21:00      68.8      67.9       48     47.7      0.00      6.07      73.5     0.34      1014.2     1.8     SSW   193   4.0      SW   234   9.90    265      -80.0
   06/01/2018 20:50      69.4      68.5       47     47.7      0.00      6.07      73.5     0.34      1014.1     2.5      SW   231   5.9      SW   230   9.90    265      -80.5
   06/01/2018 20:40      70.1      69.1       46     48.0      0.00      6.07      73.5     0.34      1014.2     5.1     WSW   241   7.8       W   262   9.90    265      -81.1
   06/01/2018 20:30      70.9      69.8       46     48.5      0.00      6.07      73.5     0.34      1014.1     4.6     WSW   240   7.3      SW   235   9.91    265      -82.0
   06/01/2018 20:20      71.8      70.6       45     48.7      0.00      6.07      73.4     0.34      1014.1     3.2      SW   230   6.1     SSW   199   9.91    265      -82.7
   06/01/2018 20:10      72.8      71.6       43     48.6      0.00      6.07      73.4     0.34      1014.0     2.8      SW   232   5.1      SW   220   9.91    264      -81.9
   06/01/2018 20:00      73.2      72.5       43     49.1      0.00      6.07      73.4     0.34      1014.1     2.4       W   267   4.6       W   263   9.92    265      -79.2
   06/01/2018 19:50      73.6      72.9       43     49.1      0.00      6.07      73.3     0.34      1014.1     2.0     WNW   295   4.5     WNW   282   9.92    264      -75.5
   06/01/2018 19:40      74.7      73.2       42     49.0      0.00      6.07      73.3     0.34      1014.1     3.2     WNW   285   6.2       W   268   9.92    264      -71.5
   06/01/2018 19:30      75.1      74.4       40     49.1      0.00      6.07      73.3     0.34      1014.1     2.1     WNW   295   5.6       W   260   9.93    264      -57.9
   06/01/2018 19:20      75.8      74.7       40     49.1      0.00      6.07      73.2     0.34      1014.0     3.4     WNW   283   6.1     WSW   256   9.93    264      -41.8
   06/01/2018 19:10      76.2      75.5       39     49.1      0.00      6.07      73.2     0.34      1014.0     2.9     WNW   293   5.5     NNW   340   9.93    264      -24.1
   06/01/2018 19:00      76.8      75.7       39     49.1      0.00      6.07      73.1     0.34      1013.9     3.9      NW   305   8.5     WNW   301   9.94    264       -3.8
   06/01/2018 18:50      77.1      76.3       37     48.9      0.00      6.07      73.1     0.34      1013.9     3.5     WNW   288   6.6     WNW   289   9.94    264       18.6
   06/01/2018 18:40      78.2      76.9       36     48.5      0.00      6.07      73.0     0.34      1013.9     3.7      NW   305   6.4      SW   226   9.95    264       42.0
   06/01/2018 18:30      78.1      77.3       36     48.3      0.00      6.07      73.0     0.34      1013.9     3.8       W   262   9.0       W   266   9.95    264       66.4
   06/01/2018 18:20      78.6      77.7       35     48.2      0.00      6.07      72.9     0.34      1014.0     4.2       W   272   8.1      SW   232   9.96    264       90.1
   06/01/2018 18:10      78.7      77.7       35     48.5      0.00      6.07      72.9     0.34      1014.0     3.4     WNW   282   7.1     WNW   290   9.96    264      115.0
   06/01/2018 18:00      79.0      77.7       35     48.5      0.00      6.07      72.8     0.34      1014.0     5.0     WSW   254   8.7     WSW   243   9.97    264      141.1
   06/01/2018 17:50      79.2      78.2       35     48.9      0.00      6.07      72.8     0.34      1014.0     4.7       W   269   7.0     WSW   237   9.97    264      168.6
   06/01/2018 17:40      79.3      78.4       35     49.2      0.00      6.07      72.7     0.34      1014.0     4.3     WSW   256   8.5     WNW   288   9.98    264      192.8
   06/01/2018 17:30      79.0      78.4       36     49.6      0.00      6.07      72.6     0.34      1014.1     5.1     WSW   241   7.9       W   281   9.98    264      217.6
   06/01/2018 17:20      79.5      78.2       38     51.1      0.00      6.07      72.6     0.34      1014.1     4.4     SSW   194   8.4     SSW   192   9.99    264      241.8
   06/01/2018 17:10      79.9      78.5       39     52.0      0.00      6.07      72.5     0.34      1014.2     4.9       S   183   7.6     SSW   212   9.99    264      266.7
   06/01/2018 17:00      79.9      79.0       38     51.6      0.00      6.07      72.5     0.34      1014.1     3.7       S   186   7.4       W   266  10.00    264      288.0
   06/01/2018 16:50      81.7      79.5       35     51.3      0.00      6.07      72.4     0.34      1014.1     3.1       W   263   7.5       S   173  10.00    264      308.6
   06/01/2018 16:40      82.4      81.5       34     51.0      0.00      6.07      72.3     0.34      1014.1     3.0      NW   321   5.8     WSW   243  10.01    263      331.1
   06/01/2018 16:30      82.5      81.3       36     52.6      0.00      6.07      72.2     0.34      1014.0     2.5       N     6   6.1     NNE    25  10.01    264      353.3
   06/01/2018 16:20      81.5      80.3       38     52.6      0.00      6.07      72.2     0.34      1013.9     3.0     ENE    60   5.8       E    96  10.01    264      375.5
   06/01/2018 16:10      82.3      80.3       37     52.6      0.00      6.07      72.0     0.34      1014.0     3.6       E    87   8.1     ESE   110  10.02    264      393.4
   06/01/2018 16:00      82.1      81.4       36     52.3      0.00      6.07      72.0     0.34      1014.0     3.5      NE    43   6.2      NE    36  10.02    264      413.4
   06/01/2018 15:50      81.7      81.1       36     52.0      0.00      6.07      72.0     0.34      1014.1     3.7      NE    54   6.4      NE    47  10.02    264      435.7
   06/01/2018 15:40      81.7      80.6       36     51.8      0.00      6.07      71.9     0.34      1014.1     3.7       E    80   7.5     ENE    73  10.03    264      456.9
   06/01/2018 15:30      81.5      81.0       36     51.7      0.00      6.07      71.8     0.34      1014.2     3.6     ENE    58   7.0       E   101  10.03    264      473.2
   06/01/2018 15:20      81.3      80.0       37     51.6      0.00      6.07      71.7     0.34      1014.3     3.5     ENE    70   8.1       E    87  10.03    264      492.1
   06/01/2018 15:10      81.5      80.1       36     51.7      0.00      6.07      71.6     0.34      1014.3     5.0     ENE    79   9.1      NE    44  10.04    264      512.3
   06/01/2018 15:00      80.7      79.4       37     51.5      0.00      6.07      71.6     0.34      1014.2     7.9     WSW   237  12.7     WSW   255  10.04    264      525.2
   06/01/2018 14:50      82.9      79.9       36     51.6      0.00      6.07      71.5     0.34      1014.4     4.3      SW   235   9.7     WSW   253  10.04    264      531.9
   06/01/2018 14:40      82.9      80.1       36     52.2      0.00      6.07      71.4     0.34      1014.5     1.5     NNW   349   4.4     NNW   338  10.05    264      542.4
   06/01/2018 14:30      79.8      78.5       38     51.9      0.00      6.07      71.3     0.34      1014.6     2.0     ESE   108   4.8       E    86  10.05    264      559.3
   06/01/2018 14:20      79.7      78.4       39     51.8      0.00      6.07      71.2     0.34      1014.6     3.2     SSE   160   6.4     SSE   159  10.05    264      568.0
   06/01/2018 14:10      79.8      78.8       39     52.0      0.00      6.07      71.2     0.34      1014.6     3.2       E    97   7.3     SSE   150  10.05    264      578.4
   06/01/2018 14:00      80.6      79.2       38     51.9      0.00      6.07      71.2     0.33      1014.6     2.3     ENE    70   6.4       E    92  10.06    264      586.2
   06/01/2018 13:50      79.3      77.3       40     51.6      0.00      6.07      71.0     0.33      1014.6     3.8      SW   218   7.6       S   191  10.06    264      600.3
   06/01/2018 13:40      78.3      76.6       41     51.9      0.00      6.07      71.0     0.34      1014.7     3.9       S   181   9.4     SSE   157  10.06    264      607.6
   06/01/2018 13:30      77.4      76.0       42     51.9      0.00      6.07      71.0     0.33      1014.8     4.8     SSE   155   8.5      SE   135  10.06    264      613.7
   06/01/2018 13:20      76.8      75.8       43     51.9      0.00      6.07      70.9     0.33      1014.7     6.1       S   174  10.5      SW   222  10.07    264      621.4
   06/01/2018 13:10      78.3      76.6       41     52.2      0.00      6.07      70.8     0.33      1014.8     4.4       S   171   9.2     SSE   165  10.07    263      618.3
   06/01/2018 13:00      79.6      77.3       40     52.1      0.00      6.07      70.8     0.33      1014.7     4.3      SE   129   8.1     SSW   209  10.07    263      616.3
   06/01/2018 12:50      79.7      78.3       34     48.1      0.00      6.07      70.8     0.33      1014.7     2.4       E    82   6.6     SSE   154  10.07    263      612.7
   06/01/2018 12:40      80.1      78.8       33     48.1      0.00      6.07      70.8     0.33      1014.6     3.2      NE    45   6.2     NNE    23  10.07    263      613.2
   06/01/2018 12:30      80.4      79.5       33     47.9      0.00      6.07      70.7     0.33      1014.7     2.0       N     7   6.4      NE    51  10.07    263      611.3
   06/01/2018 12:20      79.3      77.3       34     47.4      0.00      6.07      70.7     0.33      1014.7     2.5      NW   318   5.9     NNW   336  10.07    263      609.0
   06/01/2018 12:10      78.5      77.0       34     47.3      0.00      6.07      70.7     0.33      1014.7     2.5     NNE    23   5.4       N    10  10.08    263      604.2
   06/01/2018 12:00      77.7      76.2       35     47.3      0.00      6.07      70.7     0.33      1014.8     2.6      NE    35   6.9      NE    45  10.08    263      600.1
   06/01/2018 11:50      77.6      75.5       36     47.3      0.00      6.07      70.7     0.33      1014.9     2.1      NE    34   5.5     ENE    59  10.08    263      594.1
   06/01/2018 11:40      76.3      75.4       36     47.3      0.00      6.07      70.6     0.33      1014.9     2.5     NNE    25   5.0     NNW   341  10.08    263      586.5
   06/01/2018 11:30      75.7      74.3       38     47.4      0.00      6.07      70.7     0.33      1015.0     1.6       N     5   3.9      NE    38  10.08    263      579.6
   06/01/2018 11:20      75.0      73.9       38     47.4      0.00      6.07      70.7     0.33      1015.2     2.3     ENE    75   4.9      NE    55  10.08    263      571.5
   06/01/2018 11:10      74.9      73.8       38     47.4      0.00      6.07      70.7     0.33      1015.2     2.0       N    10   3.9     NNE    15  10.08    263      560.4
   06/01/2018 11:00      73.9      72.9       40     47.4      0.00      6.07      70.7     0.33      1015.2     2.4     NNW   333   4.4     NNW   337  10.08    263      550.5
   06/01/2018 10:50      73.5      72.2       40     47.3      0.00      6.07      70.7     0.33      1015.2     1.8     NNE    12   4.7      NW   316  10.08    264      538.7
   06/01/2018 10:40      72.3      70.5       42     46.9      0.00      6.07      70.7     0.34      1015.3     2.4     ESE   118   6.3     ESE   118  10.08    264      528.8
   06/01/2018 10:30      72.4      71.5       41     46.9      0.00      6.07      70.8     0.34      1015.3     1.8      SW   220   3.7     ESE   103  10.08    264      513.2
   06/01/2018 10:20      72.1      70.6       43     47.6      0.00      6.07      70.8     0.34      1015.5     1.6     ENE    64   4.0       N     0  10.08    263      496.7
   06/01/2018 10:10      70.8      69.6       45     47.7      0.00      6.07      70.8     0.34      1015.5     1.7       E    84   3.7      NE    49  10.08    264      481.8
   06/01/2018 10:00      69.6      68.8       46     47.8      0.00      6.07      70.8     0.34      1015.6     1.8     NNE    12   4.4      NE    39  10.08    264      461.9
   06/01/2018 09:50      69.0      67.8       48     47.8      0.00      6.07      70.8     0.34      1015.6     1.8     ENE    73   4.1       N     0  10.08    265      445.9
   06/01/2018 09:40      67.8      66.7       49     47.6      0.00      6.07      70.9     0.34      1015.7     1.5       N     5   3.7       N   349  10.08    265      426.2
   06/01/2018 09:30      67.0      66.1       50     47.2      0.00      6.07      71.0     0.34      1015.7     2.2       N    10   4.1     NNE    12  10.08    265      408.8
   06/01/2018 09:20      66.5      65.5       52     47.9      0.00      6.07      71.0     0.34      1015.8     2.4     NNE    15   4.6     NNE    25  10.08    265      392.5
   06/01/2018 09:10      65.9      64.8       54     48.1      0.00      6.07      71.0     0.34      1015.9     1.8       N   357   4.1     NNE    31  10.08    265      373.8
   06/01/2018 09:00      65.2      63.4       56     48.4      0.00      6.07      71.1     0.34      1015.9     1.5      NE    34   4.4     NNE    15  10.08    266      361.4
   06/01/2018 08:50      63.5      61.2       62     49.0      0.00      6.07      71.1     0.34      1016.0     1.3       N   356   3.2     NNE    14  10.08    266      361.9
   06/01/2018 08:40      61.3      60.7       65     49.0      0.00      6.07      71.1     0.34      1015.9     1.4       N   349   2.7     NNE    16  10.08    268       89.3
   06/01/2018 08:30      60.7      60.1       66     49.1      0.00      6.07      71.2     0.34      1015.9     1.5      NW   309   3.0     WSW   254  10.08    268      -14.0
   06/01/2018 08:20      60.3      59.7       67     49.0      0.00      6.07      71.2     0.34      1015.9     0.9       E    84   2.6     ENE    63  10.08    268      -21.1
   06/01/2018 08:10      59.8      58.7       70     49.2      0.00      6.07      71.2     0.34      1015.8     0.8      SE   124   2.8     ESE   113  10.08    268      -19.4
   06/01/2018 08:00      58.8      58.3       71     49.3      0.00      6.07      71.2     0.34      1015.8     1.3     NNE    13   2.8       N     0  10.08    268      -11.5
   06/01/2018 07:50      58.4      57.6       73     49.3      0.00      6.07      71.3     0.34      1015.7     1.1       N   349   2.3     NNE    32  10.31    268        1.2
   06/01/2018 07:40      57.9      57.4       73     49.0      0.00      6.07      71.3     0.34      1015.7     0.9       N     0   3.0      NE    36   9.18    268      -23.4
   06/01/2018 07:30      57.6      56.8       74     48.9      0.00      6.07      71.4     0.34      1015.6     0.9       N     8   3.1     NNE    32   9.18    268       -6.2
   06/01/2018 07:20      56.8      56.2       74     48.5      0.00      6.07      71.4     0.34      1015.5     1.7       N     8   3.6       N     9   9.18    268      -24.0
   06/01/2018 07:10      56.4      55.4       76     48.3      0.00      6.07      71.4     0.34      1015.5     0.3       N     7   1.8     NNE    16   9.18    268      -13.6
   06/01/2018 07:00      55.5      54.5       78     48.2      0.00      6.07      71.5     0.34      1015.4     0.3     ENE    77   1.5     ESE   103   9.18    269       -8.8
   06/01/2018 06:50      54.6      53.5       80     47.9      0.00      6.07      71.5     0.34      1015.4     0.0       E    86   0.0       E    86   9.18    269      -14.3
   06/01/2018 06:40      53.7      52.1       82     47.5      0.00      6.07      71.5     0.34      1015.3     0.8      SE   125   1.4      SE   142   9.18    269      -13.0
   06/01/2018 06:30      52.2      51.1       85     47.2      0.00      6.07      71.6     0.34      1015.2     1.1     SSE   149   1.9      SE   145   9.18    270      -20.2
   06/01/2018 06:20      51.1      50.5       86     46.6      0.00      6.07      71.6     0.34      1015.2     0.3       S   173   1.0       S   174   9.18    270      -23.0
   06/01/2018 06:10      50.8      50.3       86     46.5      0.00      6.07      71.7     0.34      1015.1     0.4       S   174   1.1       S   174   9.18    275      -22.1
   06/01/2018 06:00      50.9      50.2       86     46.5      0.00      6.07      71.7     0.34      1015.0     0.3       S   175   0.8       S   174   9.18    279      -29.3
   06/01/2018 05:50      50.7      50.1       86     46.4      0.00      6.07      71.7     0.34      1014.9     0.2     SSW   201   1.7     SSW   201   9.18    279      -35.5
   06/01/2018 05:40      50.5      50.1       86     46.3      0.00      6.07      71.8     0.34      1014.8     0.6       S   180   1.7     SSW   201   9.18    277      -39.5
   06/01/2018 05:30      50.6      50.1       86     46.3      0.00      6.07      71.8     0.34      1014.8     0.0       S   174   0.8       S   174   9.18    276      -43.2
   06/01/2018 05:20      50.5      50.1       85     46.0      0.00      6.07      71.8     0.34      1014.7     0.1       S   174   1.5       S   174   9.18    275      -46.2
   06/01/2018 05:10      51.0      50.1       84     45.9      0.00      6.07      71.8     0.34      1014.7     0.8     SSE   158   1.9       S   183   9.18    274      -48.2
   06/01/2018 05:00      51.0      50.3       84     45.8      0.00      6.07      71.9     0.34      1014.7     0.9       S   175   1.8       S   190   9.18    274      -49.0
   06/01/2018 04:50      51.1      50.6       84     46.2      0.00      6.07      71.9     0.34      1014.8     1.2     SSW   198   1.9     SSW   212   9.18    273      -46.9
   06/01/2018 04:40      51.2      50.8       85     46.5      0.00      6.07      72.0     0.34      1014.8     0.0       S   173   0.0       S   173   9.19    273      -48.7
   06/01/2018 04:30      51.2      50.6       84     46.1      0.00      6.07      72.0     0.34      1014.6     0.1       S   173   0.9       S   173   9.19    273      -51.5
   06/01/2018 04:20      51.4      50.8       84     46.3      0.00      6.07      72.0     0.34      1014.6     0.4       S   173   0.9       S   173   9.19    272      -52.4
   06/01/2018 04:10      51.6      51.0       83     46.3      0.00      6.07      72.0     0.34      1014.5     0.3       S   173   0.8       S   173   9.19    272      -53.3
   06/01/2018 04:00      51.6      51.2       83     46.4      0.00      6.07      72.1     0.34      1014.4     0.4       S   173   0.9       S   173   9.19    272      -55.0
   06/01/2018 03:50      52.1      51.2       81     46.1      0.00      6.07      72.1     0.34      1014.3     0.3     SSE   158   0.9       S   173   9.19    270      -56.7
   06/01/2018 03:40      52.0      51.6       81     46.3      0.00      6.07      72.1     0.34      1014.3     0.8       S   187   2.5      SW   232   9.19    270      -56.3
   06/01/2018 03:30      52.0      51.6       82     46.3      0.00      6.07      72.2     0.34      1014.3     0.0     SSE   148   0.6     SSE   149   9.19    270      -57.3
   06/01/2018 03:20      52.3      51.7       81     46.3      0.00      6.07      72.2     0.34      1014.3     0.5     SSE   155   1.3     SSE   148   9.19    270      -57.9
   06/01/2018 03:10      52.1      51.8       82     46.5      0.00      6.07      72.2     0.34      1014.2     0.2     SSE   161   1.3     SSE   153   9.19    270      -57.8
   06/01/2018 03:00      52.4      51.6       81     46.3      0.00      6.07      72.3     0.34      1014.1     0.3       S   178   1.0       S   178   9.19    270      -59.4
   06/01/2018 02:50      52.5      52.0       80     46.3      0.00      6.07      72.3     0.34      1014.2     0.5       S   179   1.4       S   178   9.19    269      -59.7
   06/01/2018 02:40      53.0      52.1       78     45.9      0.00      6.07      72.3     0.34      1014.2     0.7       S   172   1.5       S   184   9.19    269      -60.4
   06/01/2018 02:30      53.3      52.7       78     46.2      0.00      6.07      72.3     0.34      1014.1     0.3       S   178   1.4       S   178   9.19    269      -60.0
   06/01/2018 02:20      53.5      53.0       77     46.2      0.00      6.07      72.3     0.34      1014.1     0.5       S   177   1.2       S   178   9.19    268      -60.2
   06/01/2018 02:10      54.0      53.2       76     46.0      0.00      6.07      72.4     0.34      1014.1     0.6     SSW   193   1.6     SSW   204   9.19    268      -60.3
   06/01/2018 02:00      54.0      53.5       76     46.3      0.00      6.07      72.4     0.34      1014.1     0.3     SSW   199   1.2     SSW   199   9.20    268      -60.7
   06/01/2018 01:50      54.0      53.5       76     46.2      0.00      6.07      72.4     0.34      1014.1     0.4     SSW   199   1.4     SSW   199   9.20    268      -61.1
   06/01/2018 01:40      54.7      53.7       74     45.8      0.00      6.07      72.4     0.34      1014.2     0.4     SSE   163   1.7       S   173   9.19    268      -62.3
   06/01/2018 01:30      54.9      54.4       73     46.1      0.00      6.07      72.5     0.34      1014.2     0.9       S   189   1.9       S   191   9.20    268      -61.1
   06/01/2018 01:20      55.2      54.5       73     46.3      0.00      6.07      72.5     0.34      1014.1     0.3     SSW   193   1.2       S   191   9.19    268      -61.7
   06/01/2018 01:10      55.6      54.7       71     45.9      0.00      6.07      72.5     0.34      1014.1     0.4       S   186   1.4     SSW   196   9.20    268      -62.0
   06/01/2018 01:00      56.3      55.4       69     46.0      0.00      6.07      72.5     0.34      1014.1     0.0       N     0   0.0       S   182   9.20    268      -63.1
   06/01/2018 00:50      57.1      56.0       68     46.1      0.00      6.07      72.6     0.34      1014.2     0.0       N     0   0.0       S   182   9.20    267      -64.0
   06/01/2018 00:40      57.8      56.9       67     46.4      0.00      6.07      72.6     0.34      1014.1     0.0       S   182   0.7       S   182   9.20    267      -65.7
   06/01/2018 00:30      57.9      57.3       67     46.6      0.00      6.07      72.6     0.34      1014.1     1.2       S   177   2.9       S   181   9.20    267      -67.3
   06/01/2018 00:20      57.9      57.4       67     46.5      0.00      6.07      72.6     0.34      1014.1     1.8     SSW   197   3.9     SSW   207   9.20    267      -67.5
   06/01/2018 00:10      58.2      57.5       67     46.8      0.00      6.07      72.6     0.34      1014.1     1.9     SSW   193   3.3     SSW   208   9.20    267      -67.3
   06/01/2018 00:00      58.3      57.8       66     46.8      0.00      6.07      72.6     0.34      1014.1     1.9       S   183   3.8       S   180   9.20    267      -68.2


Back to data home page